<?xml version='1.0' encoding='UTF-8'?><gpx version="1.1" creator="JPX - https://github.com/jenetics/jpx" xmlns="http://www.topografix.com/GPX/1/1"><trk><trkseg><trkpt lat="45.5478927" lon="4.4858937"><ele>833.6666666666666</ele><time>2026-04-19T08:09:04.011Z</time></trkpt><trkpt lat="45.5478723" lon="4.4857811"><ele>833.3333333333333</ele><time>2026-04-19T08:09:08.011Z</time></trkpt><trkpt lat="45.5478419" lon="4.4856955"><ele>833.0</ele><time>2026-04-19T08:09:10.012Z</time></trkpt><trkpt lat="45.5478285" lon="4.4855774"><ele>832.6666666666666</ele><time>2026-04-19T08:09:12.012Z</time></trkpt><trkpt lat="45.547826" lon="4.4854395"><ele>832.3333333333333</ele><time>2026-04-19T08:09:14.011Z</time></trkpt><trkpt lat="45.547829" lon="4.4853241"><ele>832.0</ele><time>2026-04-19T08:09:16.011Z</time></trkpt><trkpt lat="45.5478193" lon="4.4851992"><ele>831.9999999999999</ele><time>2026-04-19T08:09:19.011Z</time></trkpt><trkpt lat="45.5478537" lon="4.4850976"><ele>832.0</ele><time>2026-04-19T08:09:22.011Z</time></trkpt><trkpt lat="45.5479455" lon="4.4850725"><ele>832.0</ele><time>2026-04-19T08:09:25.011Z</time></trkpt><trkpt lat="45.5480315" lon="4.4850502"><ele>832.0</ele><time>2026-04-19T08:09:27.012Z</time></trkpt><trkpt lat="45.548097" lon="4.4850314"><ele>831.9999999999999</ele><time>2026-04-19T08:09:28.011Z</time></trkpt><trkpt lat="45.5481823" lon="4.4850021"><ele>832.0</ele><time>2026-04-19T08:09:29.011Z</time></trkpt><trkpt lat="45.5482829" lon="4.4849635"><ele>832.0</ele><time>2026-04-19T08:09:30.011Z</time></trkpt><trkpt lat="45.5483926" lon="4.4849223"><ele>832.0</ele><time>2026-04-19T08:09:31.011Z</time></trkpt><trkpt lat="45.5485198" lon="4.484873"><ele>832.0</ele><time>2026-04-19T08:09:32.01Z</time></trkpt><trkpt lat="45.5486472" lon="4.4848188"><ele>832.0</ele><time>2026-04-19T08:09:33.011Z</time></trkpt><trkpt lat="45.5487576" lon="4.4847785"><ele>832.0</ele><time>2026-04-19T08:09:34.012Z</time></trkpt><trkpt lat="45.5488516" lon="4.4847724"><ele>832.0</ele><time>2026-04-19T08:09:35.01Z</time></trkpt><trkpt lat="45.5489269" lon="4.4848108"><ele>832.0</ele><time>2026-04-19T08:09:36.011Z</time></trkpt><trkpt lat="45.5489892" lon="4.4848959"><ele>832.0</ele><time>2026-04-19T08:09:37.011Z</time></trkpt><trkpt lat="45.5490445" lon="4.4850143"><ele>832.0</ele><time>2026-04-19T08:09:38.012Z</time></trkpt><trkpt lat="45.5491034" lon="4.485153"><ele>832.0</ele><time>2026-04-19T08:09:39.01Z</time></trkpt><trkpt lat="45.5491767" lon="4.4852969"><ele>832.0</ele><time>2026-04-19T08:09:40.012Z</time></trkpt><trkpt lat="45.5492561" lon="4.4854359"><ele>832.0</ele><time>2026-04-19T08:09:41.01Z</time></trkpt><trkpt lat="45.5493483" lon="4.485592"><ele>832.0</ele><time>2026-04-19T08:09:42.011Z</time></trkpt><trkpt lat="45.5494373" lon="4.4857511"><ele>831.0</ele><time>2026-04-19T08:09:43.012Z</time></trkpt><trkpt lat="45.549529" lon="4.4859207"><ele>830.0</ele><time>2026-04-19T08:09:44.011Z</time></trkpt><trkpt lat="45.5496323" lon="4.4860861"><ele>829.0</ele><time>2026-04-19T08:09:45.011Z</time></trkpt><trkpt lat="45.5497432" lon="4.486231"><ele>830.75</ele><time>2026-04-19T08:09:46.01Z</time></trkpt><trkpt lat="45.5498591" lon="4.4863533"><ele>832.5</ele><time>2026-04-19T08:09:47.01Z</time></trkpt><trkpt lat="45.5499832" lon="4.4864541"><ele>834.25</ele><time>2026-04-19T08:09:48.011Z</time></trkpt><trkpt lat="45.5501072" lon="4.4865331"><ele>836.0</ele><time>2026-04-19T08:09:49.011Z</time></trkpt><trkpt lat="45.5502431" lon="4.4865914"><ele>834.5</ele><time>2026-04-19T08:09:50.011Z</time></trkpt><trkpt lat="45.550378" lon="4.4866433"><ele>833.0</ele><time>2026-04-19T08:09:51.011Z</time></trkpt><trkpt lat="45.5505161" lon="4.4866933"><ele>831.5</ele><time>2026-04-19T08:09:52.011Z</time></trkpt><trkpt lat="45.5506509" lon="4.4867463"><ele>830.0</ele><time>2026-04-19T08:09:53.011Z</time></trkpt><trkpt lat="45.5507766" lon="4.4868015"><ele>830.0</ele><time>2026-04-19T08:09:54.012Z</time></trkpt><trkpt lat="45.5509017" lon="4.4868572"><ele>830.0</ele><time>2026-04-19T08:09:55.01Z</time></trkpt><trkpt lat="45.5510189" lon="4.4869158"><ele>830.0</ele><time>2026-04-19T08:09:56.01Z</time></trkpt><trkpt lat="45.5511242" lon="4.486979"><ele>830.0</ele><time>2026-04-19T08:09:57.01Z</time></trkpt><trkpt lat="45.5512205" lon="4.4870578"><ele>828.25</ele><time>2026-04-19T08:09:58.011Z</time></trkpt><trkpt lat="45.5513186" lon="4.4871542"><ele>826.5</ele><time>2026-04-19T08:09:59.012Z</time></trkpt><trkpt lat="45.5514071" lon="4.487264"><ele>824.75</ele><time>2026-04-19T08:10:00.01Z</time></trkpt><trkpt lat="45.5514922" lon="4.4873782"><ele>823.0</ele><time>2026-04-19T08:10:01.012Z</time></trkpt><trkpt lat="45.5515696" lon="4.4874849"><ele>823.0</ele><time>2026-04-19T08:10:02.01Z</time></trkpt><trkpt lat="45.5516422" lon="4.4875925"><ele>823.0</ele><time>2026-04-19T08:10:03.011Z</time></trkpt><trkpt lat="45.5517064" lon="4.4876984"><ele>823.0</ele><time>2026-04-19T08:10:04.011Z</time></trkpt><trkpt lat="45.5517642" lon="4.48781"><ele>823.0</ele><time>2026-04-19T08:10:05.013Z</time></trkpt><trkpt lat="45.5518219" lon="4.487919"><ele>823.0</ele><time>2026-04-19T08:10:06.01Z</time></trkpt><trkpt lat="45.5518723" lon="4.4880241"><ele>823.8333333333333</ele><time>2026-04-19T08:10:07.012Z</time></trkpt><trkpt lat="45.5519185" lon="4.4881221"><ele>824.6666666666666</ele><time>2026-04-19T08:10:08.011Z</time></trkpt><trkpt lat="45.5519669" lon="4.4882185"><ele>825.5</ele><time>2026-04-19T08:10:09.011Z</time></trkpt><trkpt lat="45.5520184" lon="4.4883463"><ele>826.3333333333333</ele><time>2026-04-19T08:10:11.011Z</time></trkpt><trkpt lat="45.5520442" lon="4.4884381"><ele>827.1666666666666</ele><time>2026-04-19T08:10:14.012Z</time></trkpt><trkpt lat="45.5521169" lon="4.4885297"><ele>828.0</ele><time>2026-04-19T08:10:21.011Z</time></trkpt><trkpt lat="45.5521803" lon="4.4885792"><ele>826.6666666666666</ele><time>2026-04-19T08:10:22.012Z</time></trkpt><trkpt lat="45.5522451" lon="4.4886304"><ele>825.3333333333333</ele><time>2026-04-19T08:10:23.011Z</time></trkpt><trkpt lat="45.5523071" lon="4.4886841"><ele>824.0</ele><time>2026-04-19T08:10:24.011Z</time></trkpt><trkpt lat="45.55238" lon="4.4887565"><ele>822.6666666666666</ele><time>2026-04-19T08:10:25.01Z</time></trkpt><trkpt lat="45.55245" lon="4.4888353"><ele>821.3333333333333</ele><time>2026-04-19T08:10:26.014Z</time></trkpt><trkpt lat="45.5525248" lon="4.4889172"><ele>820.0</ele><time>2026-04-19T08:10:27.011Z</time></trkpt><trkpt lat="45.552606" lon="4.4889919"><ele>820.0</ele><time>2026-04-19T08:10:28.012Z</time></trkpt><trkpt lat="45.5526875" lon="4.4890099"><ele>820.0</ele><time>2026-04-19T08:10:29.01Z</time></trkpt><trkpt lat="45.5527792" lon="4.4889991"><ele>820.0</ele><time>2026-04-19T08:10:30.016Z</time></trkpt><trkpt lat="45.5528676" lon="4.4889522"><ele>820.0</ele><time>2026-04-19T08:10:31.01Z</time></trkpt><trkpt lat="45.5529572" lon="4.4888819"><ele>820.0</ele><time>2026-04-19T08:10:32.01Z</time></trkpt><trkpt lat="45.5530467" lon="4.4888003"><ele>818.0</ele><time>2026-04-19T08:10:33.011Z</time></trkpt><trkpt lat="45.5531362" lon="4.4887181"><ele>816.0</ele><time>2026-04-19T08:10:34.012Z</time></trkpt><trkpt lat="45.5532351" lon="4.4886474"><ele>814.0</ele><time>2026-04-19T08:10:35.017Z</time></trkpt><trkpt lat="45.5533321" lon="4.4885807"><ele>812.0</ele><time>2026-04-19T08:10:36.011Z</time></trkpt><trkpt lat="45.5534364" lon="4.4885131"><ele>810.0</ele><time>2026-04-19T08:10:37.01Z</time></trkpt><trkpt lat="45.5535498" lon="4.4884597"><ele>810.0</ele><time>2026-04-19T08:10:38.017Z</time></trkpt><trkpt lat="45.5536618" lon="4.4884022"><ele>810.0</ele><time>2026-04-19T08:10:39.013Z</time></trkpt><trkpt lat="45.5537671" lon="4.4883371"><ele>810.0</ele><time>2026-04-19T08:10:40.012Z</time></trkpt><trkpt lat="45.5538744" lon="4.4882798"><ele>810.0</ele><time>2026-04-19T08:10:41.01Z</time></trkpt><trkpt lat="45.5539821" lon="4.4882259"><ele>811.75</ele><time>2026-04-19T08:10:42.011Z</time></trkpt><trkpt lat="45.5540884" lon="4.4881643"><ele>813.5</ele><time>2026-04-19T08:10:43.011Z</time></trkpt><trkpt lat="45.5542044" lon="4.4880977"><ele>815.25</ele><time>2026-04-19T08:10:44.012Z</time></trkpt><trkpt lat="45.5543215" lon="4.48804"><ele>817.0</ele><time>2026-04-19T08:10:45.012Z</time></trkpt><trkpt lat="45.5544294" lon="4.4879935"><ele>817.0</ele><time>2026-04-19T08:10:46.01Z</time></trkpt><trkpt lat="45.5545199" lon="4.4879539"><ele>817.0</ele><time>2026-04-19T08:10:47.012Z</time></trkpt><trkpt lat="45.5546183" lon="4.4879311"><ele>817.0</ele><time>2026-04-19T08:10:48.011Z</time></trkpt><trkpt lat="45.5547284" lon="4.4879035"><ele>817.0</ele><time>2026-04-19T08:10:49.011Z</time></trkpt><trkpt lat="45.5548436" lon="4.4878726"><ele>817.0</ele><time>2026-04-19T08:10:50.01Z</time></trkpt><trkpt lat="45.5549552" lon="4.4878423"><ele>814.5</ele><time>2026-04-19T08:10:51.012Z</time></trkpt><trkpt lat="45.5550788" lon="4.4878298"><ele>812.0</ele><time>2026-04-19T08:10:52.01Z</time></trkpt><trkpt lat="45.5552023" lon="4.4878222"><ele>809.5</ele><time>2026-04-19T08:10:53.012Z</time></trkpt><trkpt lat="45.5553218" lon="4.4878153"><ele>807.0</ele><time>2026-04-19T08:10:54.011Z</time></trkpt><trkpt lat="45.5554371" lon="4.4877983"><ele>807.0</ele><time>2026-04-19T08:10:55.011Z</time></trkpt><trkpt lat="45.5555497" lon="4.4877787"><ele>807.0</ele><time>2026-04-19T08:10:56.01Z</time></trkpt><trkpt lat="45.555668" lon="4.4877633"><ele>807.0</ele><time>2026-04-19T08:10:57.011Z</time></trkpt><trkpt lat="45.5557899" lon="4.487738"><ele>807.0</ele><time>2026-04-19T08:10:58.013Z</time></trkpt><trkpt lat="45.5559125" lon="4.4877097"><ele>807.0</ele><time>2026-04-19T08:10:59.01Z</time></trkpt><trkpt lat="45.5560246" lon="4.4876888"><ele>807.0</ele><time>2026-04-19T08:11:00.012Z</time></trkpt><trkpt lat="45.5561094" lon="4.4876778"><ele>807.0</ele><time>2026-04-19T08:11:01.01Z</time></trkpt><trkpt lat="45.5561804" lon="4.4876729"><ele>807.0</ele><time>2026-04-19T08:11:02.01Z</time></trkpt><trkpt lat="45.5562651" lon="4.487649"><ele>807.0</ele><time>2026-04-19T08:11:04.015Z</time></trkpt><trkpt lat="45.5562678" lon="4.4875424"><ele>807.0</ele><time>2026-04-19T08:11:07.012Z</time></trkpt><trkpt lat="45.5562847" lon="4.4873825"><ele>806.0</ele><time>2026-04-19T08:11:11.011Z</time></trkpt><trkpt lat="45.5562933" lon="4.4872902"><ele>805.0</ele><time>2026-04-19T08:11:12.011Z</time></trkpt><trkpt lat="45.5562952" lon="4.4871853"><ele>804.0</ele><time>2026-04-19T08:11:13.011Z</time></trkpt><trkpt lat="45.5562955" lon="4.4870734"><ele>803.0</ele><time>2026-04-19T08:11:14.011Z</time></trkpt><trkpt lat="45.5562895" lon="4.4869582"><ele>802.0</ele><time>2026-04-19T08:11:15.011Z</time></trkpt><trkpt lat="45.5562801" lon="4.4868392"><ele>801.0</ele><time>2026-04-19T08:11:16.012Z</time></trkpt><trkpt lat="45.5562772" lon="4.4867314"><ele>800.5</ele><time>2026-04-19T08:11:17.011Z</time></trkpt><trkpt lat="45.5562945" lon="4.4866399"><ele>800.0</ele><time>2026-04-19T08:11:18.012Z</time></trkpt><trkpt lat="45.5563443" lon="4.486568"><ele>799.5</ele><time>2026-04-19T08:11:19.012Z</time></trkpt><trkpt lat="45.5564273" lon="4.4865438"><ele>799.0</ele><time>2026-04-19T08:11:20.011Z</time></trkpt><trkpt lat="45.5565157" lon="4.4865227"><ele>798.5</ele><time>2026-04-19T08:11:21.011Z</time></trkpt><trkpt lat="45.5565992" lon="4.4865021"><ele>798.0</ele><time>2026-04-19T08:11:22.012Z</time></trkpt><trkpt lat="45.556678" lon="4.4864861"><ele>798.0</ele><time>2026-04-19T08:11:23.01Z</time></trkpt><trkpt lat="45.5567569" lon="4.4864809"><ele>798.0</ele><time>2026-04-19T08:11:24.01Z</time></trkpt><trkpt lat="45.5568207" lon="4.4864645"><ele>798.0</ele><time>2026-04-19T08:11:25.01Z</time></trkpt><trkpt lat="45.5569218" lon="4.4863808"><ele>798.0</ele><time>2026-04-19T08:11:27.011Z</time></trkpt><trkpt lat="45.5569507" lon="4.4862974"><ele>798.0</ele><time>2026-04-19T08:11:28.012Z</time></trkpt><trkpt lat="45.5569558" lon="4.4861864"><ele>798.0</ele><time>2026-04-19T08:11:29.011Z</time></trkpt><trkpt lat="45.5569579" lon="4.4860621"><ele>797.6666666666666</ele><time>2026-04-19T08:11:30.012Z</time></trkpt><trkpt lat="45.5569599" lon="4.4859337"><ele>797.3333333333333</ele><time>2026-04-19T08:11:31.011Z</time></trkpt><trkpt lat="45.556961" lon="4.485813"><ele>797.0</ele><time>2026-04-19T08:11:32.011Z</time></trkpt><trkpt lat="45.5569686" lon="4.4857002"><ele>796.6666666666666</ele><time>2026-04-19T08:11:33.012Z</time></trkpt><trkpt lat="45.5569761" lon="4.4856034"><ele>796.3333333333333</ele><time>2026-04-19T08:11:34.011Z</time></trkpt><trkpt lat="45.5569677" lon="4.4854719"><ele>796.0</ele><time>2026-04-19T08:11:36.012Z</time></trkpt><trkpt lat="45.5568965" lon="4.485414"><ele>794.9999999999999</ele><time>2026-04-19T08:11:51.01Z</time></trkpt><trkpt lat="45.5568043" lon="4.4853755"><ele>794.0</ele><time>2026-04-19T08:11:53.01Z</time></trkpt><trkpt lat="45.5567339" lon="4.4853507"><ele>793.0</ele><time>2026-04-19T08:11:54.011Z</time></trkpt><trkpt lat="45.556677" lon="4.4852829"><ele>792.0</ele><time>2026-04-19T08:11:55.01Z</time></trkpt><trkpt lat="45.556648" lon="4.4851636"><ele>790.9999999999999</ele><time>2026-04-19T08:11:56.011Z</time></trkpt><trkpt lat="45.5566126" lon="4.4850268"><ele>790.0</ele><time>2026-04-19T08:11:57.011Z</time></trkpt><trkpt lat="45.5565482" lon="4.4848984"><ele>790.0</ele><time>2026-04-19T08:11:58.011Z</time></trkpt><trkpt lat="45.5564647" lon="4.4847954"><ele>790.0</ele><time>2026-04-19T08:11:59.012Z</time></trkpt><trkpt lat="45.5563721" lon="4.4847266"><ele>790.0</ele><time>2026-04-19T08:12:00.01Z</time></trkpt><trkpt lat="45.556275" lon="4.4846714"><ele>790.0</ele><time>2026-04-19T08:12:01.011Z</time></trkpt><trkpt lat="45.5561821" lon="4.4846414"><ele>790.0</ele><time>2026-04-19T08:12:02.012Z</time></trkpt><trkpt lat="45.5560862" lon="4.4846304"><ele>788.75</ele><time>2026-04-19T08:12:03.012Z</time></trkpt><trkpt lat="45.5559794" lon="4.4846296"><ele>787.5</ele><time>2026-04-19T08:12:04.013Z</time></trkpt><trkpt lat="45.5558612" lon="4.484639"><ele>786.25</ele><time>2026-04-19T08:12:05.011Z</time></trkpt><trkpt lat="45.5557394" lon="4.4846511"><ele>785.0</ele><time>2026-04-19T08:12:06.01Z</time></trkpt><trkpt lat="45.5556187" lon="4.4846467"><ele>785.0</ele><time>2026-04-19T08:12:07.01Z</time></trkpt><trkpt lat="45.5555021" lon="4.4846512"><ele>785.0</ele><time>2026-04-19T08:12:08.01Z</time></trkpt><trkpt lat="45.5553965" lon="4.4846432"><ele>785.0</ele><time>2026-04-19T08:12:09.011Z</time></trkpt><trkpt lat="45.5553028" lon="4.4846507"><ele>785.0</ele><time>2026-04-19T08:12:10.011Z</time></trkpt><trkpt lat="45.5552052" lon="4.4846574"><ele>785.0</ele><time>2026-04-19T08:12:11.011Z</time></trkpt><trkpt lat="45.555121" lon="4.4846663"><ele>783.6666666666667</ele><time>2026-04-19T08:12:12.011Z</time></trkpt><trkpt lat="45.5550498" lon="4.4846662"><ele>782.3333333333334</ele><time>2026-04-19T08:12:13.013Z</time></trkpt><trkpt lat="45.5549454" lon="4.4846678"><ele>781.0</ele><time>2026-04-19T08:12:15.012Z</time></trkpt><trkpt lat="45.5548784" lon="4.4846459"><ele>779.6666666666667</ele><time>2026-04-19T08:12:18.011Z</time></trkpt><trkpt lat="45.5548921" lon="4.4845221"><ele>778.3333333333334</ele><time>2026-04-19T08:12:21.011Z</time></trkpt><trkpt lat="45.5549339" lon="4.4844468"><ele>777.0</ele><time>2026-04-19T08:12:22.013Z</time></trkpt><trkpt lat="45.5549934" lon="4.4843641"><ele>776.4000000000001</ele><time>2026-04-19T08:12:23.011Z</time></trkpt><trkpt lat="45.555058" lon="4.4842659"><ele>775.8000000000001</ele><time>2026-04-19T08:12:24.012Z</time></trkpt><trkpt lat="45.555133" lon="4.4841596"><ele>775.2</ele><time>2026-04-19T08:12:25.011Z</time></trkpt><trkpt lat="45.5552164" lon="4.4840524"><ele>774.6</ele><time>2026-04-19T08:12:26.011Z</time></trkpt><trkpt lat="45.5552967" lon="4.4839601"><ele>774.0</ele><time>2026-04-19T08:12:27.011Z</time></trkpt><trkpt lat="45.5553741" lon="4.4838699"><ele>774.0</ele><time>2026-04-19T08:12:28.01Z</time></trkpt><trkpt lat="45.5554486" lon="4.4837903"><ele>774.0</ele><time>2026-04-19T08:12:29.011Z</time></trkpt><trkpt lat="45.5555143" lon="4.483711"><ele>774.0</ele><time>2026-04-19T08:12:30.011Z</time></trkpt><trkpt lat="45.5555646" lon="4.4836136"><ele>774.0</ele><time>2026-04-19T08:12:31.012Z</time></trkpt><trkpt lat="45.5556187" lon="4.4835313"><ele>774.0</ele><time>2026-04-19T08:12:32.011Z</time></trkpt><trkpt lat="45.5556812" lon="4.4834545"><ele>774.0</ele><time>2026-04-19T08:12:33.012Z</time></trkpt><trkpt lat="45.5557568" lon="4.4833853"><ele>772.3333333333334</ele><time>2026-04-19T08:12:34.01Z</time></trkpt><trkpt lat="45.5558436" lon="4.4833464"><ele>770.6666666666666</ele><time>2026-04-19T08:12:35.011Z</time></trkpt><trkpt lat="45.5559312" lon="4.4833192"><ele>769.0</ele><time>2026-04-19T08:12:36.012Z</time></trkpt><trkpt lat="45.5560122" lon="4.4833028"><ele>767.3333333333333</ele><time>2026-04-19T08:12:37.01Z</time></trkpt><trkpt lat="45.5560895" lon="4.4832866"><ele>765.6666666666666</ele><time>2026-04-19T08:12:38.011Z</time></trkpt><trkpt lat="45.5561735" lon="4.4832759"><ele>764.0</ele><time>2026-04-19T08:12:39.011Z</time></trkpt><trkpt lat="45.5562672" lon="4.4832736"><ele>763.2</ele><time>2026-04-19T08:12:40.011Z</time></trkpt><trkpt lat="45.5563634" lon="4.4832767"><ele>762.4000000000001</ele><time>2026-04-19T08:12:41.012Z</time></trkpt><trkpt lat="45.556463" lon="4.4832916"><ele>761.6</ele><time>2026-04-19T08:12:42.01Z</time></trkpt><trkpt lat="45.5565624" lon="4.4833026"><ele>760.8</ele><time>2026-04-19T08:12:43.011Z</time></trkpt><trkpt lat="45.5566671" lon="4.4833148"><ele>760.0</ele><time>2026-04-19T08:12:44.011Z</time></trkpt><trkpt lat="45.5567647" lon="4.4833169"><ele>760.0</ele><time>2026-04-19T08:12:45.01Z</time></trkpt><trkpt lat="45.5568655" lon="4.4833245"><ele>760.0</ele><time>2026-04-19T08:12:46.011Z</time></trkpt><trkpt lat="45.5569749" lon="4.4833415"><ele>760.0</ele><time>2026-04-19T08:12:47.011Z</time></trkpt><trkpt lat="45.5570795" lon="4.4833703"><ele>760.0</ele><time>2026-04-19T08:12:48.01Z</time></trkpt><trkpt lat="45.5571879" lon="4.4833925"><ele>760.0</ele><time>2026-04-19T08:12:49.01Z</time></trkpt><trkpt lat="45.5572842" lon="4.4834235"><ele>759.5</ele><time>2026-04-19T08:12:50.01Z</time></trkpt><trkpt lat="45.5573722" lon="4.4834492"><ele>759.0</ele><time>2026-04-19T08:12:51.012Z</time></trkpt><trkpt lat="45.5574557" lon="4.4834789"><ele>758.5</ele><time>2026-04-19T08:12:52.01Z</time></trkpt><trkpt lat="45.557538" lon="4.4835033"><ele>758.0</ele><time>2026-04-19T08:12:53.011Z</time></trkpt><trkpt lat="45.5576236" lon="4.4835375"><ele>757.5</ele><time>2026-04-19T08:12:54.01Z</time></trkpt><trkpt lat="45.5577123" lon="4.4835712"><ele>757.0</ele><time>2026-04-19T08:12:55.011Z</time></trkpt><trkpt lat="45.5578043" lon="4.4836356"><ele>755.0</ele><time>2026-04-19T08:12:56.01Z</time></trkpt><trkpt lat="45.5579071" lon="4.4836775"><ele>753.0</ele><time>2026-04-19T08:12:57.011Z</time></trkpt><trkpt lat="45.5580011" lon="4.4836871"><ele>751.0</ele><time>2026-04-19T08:12:58.011Z</time></trkpt><trkpt lat="45.5580921" lon="4.4836927"><ele>749.0</ele><time>2026-04-19T08:12:59.011Z</time></trkpt><trkpt lat="45.5581835" lon="4.483691"><ele>747.0</ele><time>2026-04-19T08:13:00.012Z</time></trkpt><trkpt lat="45.5582681" lon="4.4836868"><ele>747.0</ele><time>2026-04-19T08:13:01.011Z</time></trkpt><trkpt lat="45.5583331" lon="4.4836797"><ele>747.0</ele><time>2026-04-19T08:13:02.01Z</time></trkpt><trkpt lat="45.558459" lon="4.483639"><ele>747.0</ele><time>2026-04-19T08:13:04.012Z</time></trkpt><trkpt lat="45.5585264" lon="4.4836069"><ele>747.0</ele><time>2026-04-19T08:13:05.011Z</time></trkpt><trkpt lat="45.5585921" lon="4.4836017"><ele>747.0</ele><time>2026-04-19T08:13:06.012Z</time></trkpt><trkpt lat="45.5586516" lon="4.4836374"><ele>747.0</ele><time>2026-04-19T08:13:07.012Z</time></trkpt><trkpt lat="45.5587071" lon="4.4836907"><ele>748.8571428571428</ele><time>2026-04-19T08:13:08.011Z</time></trkpt><trkpt lat="45.5587623" lon="4.4837679"><ele>750.7142857142857</ele><time>2026-04-19T08:13:09.011Z</time></trkpt><trkpt lat="45.5588078" lon="4.4838444"><ele>752.5714285714286</ele><time>2026-04-19T08:13:10.012Z</time></trkpt><trkpt lat="45.5588723" lon="4.4839118"><ele>754.4285714285713</ele><time>2026-04-19T08:13:11.011Z</time></trkpt><trkpt lat="45.5589199" lon="4.4839734"><ele>756.2857142857143</ele><time>2026-04-19T08:13:12.01Z</time></trkpt><trkpt lat="45.5589792" lon="4.4840367"><ele>758.1428571428571</ele><time>2026-04-19T08:13:13.011Z</time></trkpt><trkpt lat="45.5590409" lon="4.4840985"><ele>760.0</ele><time>2026-04-19T08:13:14.011Z</time></trkpt><trkpt lat="45.5591012" lon="4.4841728"><ele>760.0</ele><time>2026-04-19T08:13:15.011Z</time></trkpt><trkpt lat="45.559172" lon="4.4842421"><ele>760.0</ele><time>2026-04-19T08:13:16.01Z</time></trkpt><trkpt lat="45.5592357" lon="4.4842902"><ele>760.0</ele><time>2026-04-19T08:13:17.012Z</time></trkpt><trkpt lat="45.5593458" lon="4.4843433"><ele>760.0</ele><time>2026-04-19T08:13:19.011Z</time></trkpt><trkpt lat="45.5594384" lon="4.4843805"><ele>760.0</ele><time>2026-04-19T08:13:20.011Z</time></trkpt><trkpt lat="45.5595143" lon="4.4844145"><ele>761.6</ele><time>2026-04-19T08:13:21.011Z</time></trkpt><trkpt lat="45.5595964" lon="4.4844692"><ele>763.2</ele><time>2026-04-19T08:13:22.011Z</time></trkpt><trkpt lat="45.559683" lon="4.4845297"><ele>764.8</ele><time>2026-04-19T08:13:23.01Z</time></trkpt><trkpt lat="45.5597721" lon="4.4845927"><ele>766.4</ele><time>2026-04-19T08:13:24.011Z</time></trkpt><trkpt lat="45.5598587" lon="4.4846629"><ele>768.0</ele><time>2026-04-19T08:13:25.011Z</time></trkpt><trkpt lat="45.559949" lon="4.4847316"><ele>768.5999999999999</ele><time>2026-04-19T08:13:26.011Z</time></trkpt><trkpt lat="45.560043" lon="4.4848165"><ele>769.1999999999999</ele><time>2026-04-19T08:13:27.012Z</time></trkpt><trkpt lat="45.5601325" lon="4.4848974"><ele>769.8</ele><time>2026-04-19T08:13:28.011Z</time></trkpt><trkpt lat="45.5602249" lon="4.4849852"><ele>770.4</ele><time>2026-04-19T08:13:29.01Z</time></trkpt><trkpt lat="45.5603202" lon="4.4850676"><ele>771.0</ele><time>2026-04-19T08:13:30.012Z</time></trkpt><trkpt lat="45.5604204" lon="4.4851471"><ele>772.1666666666666</ele><time>2026-04-19T08:13:31.011Z</time></trkpt><trkpt lat="45.5605146" lon="4.4852171"><ele>773.3333333333333</ele><time>2026-04-19T08:13:32.012Z</time></trkpt><trkpt lat="45.5605991" lon="4.4852686"><ele>774.5</ele><time>2026-04-19T08:13:33.012Z</time></trkpt><trkpt lat="45.5606628" lon="4.4853111"><ele>775.6666666666666</ele><time>2026-04-19T08:13:34.01Z</time></trkpt><trkpt lat="45.5607133" lon="4.4853707"><ele>776.8333333333333</ele><time>2026-04-19T08:13:35.011Z</time></trkpt><trkpt lat="45.5607647" lon="4.4854418"><ele>778.0</ele><time>2026-04-19T08:13:36.012Z</time></trkpt><trkpt lat="45.5608411" lon="4.4855349"><ele>778.0</ele><time>2026-04-19T08:13:38.011Z</time></trkpt><trkpt lat="45.5609058" lon="4.4855477"><ele>778.0</ele><time>2026-04-19T08:13:40.011Z</time></trkpt><trkpt lat="45.5609934" lon="4.4855174"><ele>778.0</ele><time>2026-04-19T08:13:56.011Z</time></trkpt><trkpt lat="45.5610713" lon="4.4854663"><ele>778.0</ele><time>2026-04-19T08:13:58.011Z</time></trkpt><trkpt lat="45.5611589" lon="4.4853635"><ele>778.0</ele><time>2026-04-19T08:14:00.012Z</time></trkpt><trkpt lat="45.5612333" lon="4.4852428"><ele>779.2</ele><time>2026-04-19T08:14:02.01Z</time></trkpt><trkpt lat="45.5612764" lon="4.4850911"><ele>780.4</ele><time>2026-04-19T08:14:04.011Z</time></trkpt><trkpt lat="45.5612982" lon="4.4850039"><ele>781.6</ele><time>2026-04-19T08:14:05.011Z</time></trkpt><trkpt lat="45.5613579" lon="4.4848841"><ele>782.8000000000001</ele><time>2026-04-19T08:14:07.01Z</time></trkpt><trkpt lat="45.5614471" lon="4.4848997"><ele>784.0</ele><time>2026-04-19T08:14:09.011Z</time></trkpt><trkpt lat="45.5614955" lon="4.484996"><ele>784.0</ele><time>2026-04-19T08:14:11.011Z</time></trkpt><trkpt lat="45.5614637" lon="4.4851506"><ele>784.0</ele><time>2026-04-19T08:14:13.01Z</time></trkpt><trkpt lat="45.5614296" lon="4.4852595"><ele>784.0</ele><time>2026-04-19T08:14:14.01Z</time></trkpt><trkpt lat="45.5614022" lon="4.4853896"><ele>784.0</ele><time>2026-04-19T08:14:15.01Z</time></trkpt><trkpt lat="45.5613729" lon="4.485526"><ele>784.0</ele><time>2026-04-19T08:14:16.01Z</time></trkpt><trkpt lat="45.5613443" lon="4.4856501"><ele>784.0</ele><time>2026-04-19T08:14:17.012Z</time></trkpt><trkpt lat="45.5613108" lon="4.4857735"><ele>784.0</ele><time>2026-04-19T08:14:18.01Z</time></trkpt><trkpt lat="45.5612452" lon="4.4858638"><ele>784.0</ele><time>2026-04-19T08:14:19.01Z</time></trkpt><trkpt lat="45.5611658" lon="4.4859514"><ele>784.0</ele><time>2026-04-19T08:14:20.011Z</time></trkpt><trkpt lat="45.5610689" lon="4.4860431"><ele>784.0</ele><time>2026-04-19T08:14:21.012Z</time></trkpt><trkpt lat="45.5609661" lon="4.4861468"><ele>785.5</ele><time>2026-04-19T08:14:22.012Z</time></trkpt><trkpt lat="45.5608687" lon="4.4862778"><ele>787.0</ele><time>2026-04-19T08:14:23.012Z</time></trkpt><trkpt lat="45.560791" lon="4.4864323"><ele>788.5</ele><time>2026-04-19T08:14:24.01Z</time></trkpt><trkpt lat="45.5607328" lon="4.4866036"><ele>790.0</ele><time>2026-04-19T08:14:25.011Z</time></trkpt><trkpt lat="45.5606834" lon="4.4867808"><ele>790.0</ele><time>2026-04-19T08:14:26.011Z</time></trkpt><trkpt lat="45.5606275" lon="4.4869695"><ele>790.0</ele><time>2026-04-19T08:14:27.011Z</time></trkpt><trkpt lat="45.5605815" lon="4.4871536"><ele>790.0</ele><time>2026-04-19T08:14:28.012Z</time></trkpt><trkpt lat="45.5605349" lon="4.4873418"><ele>790.0</ele><time>2026-04-19T08:14:29.012Z</time></trkpt><trkpt lat="45.5604938" lon="4.487524"><ele>792.0</ele><time>2026-04-19T08:14:30.011Z</time></trkpt><trkpt lat="45.560456" lon="4.4877114"><ele>794.0</ele><time>2026-04-19T08:14:31.011Z</time></trkpt><trkpt lat="45.5604347" lon="4.4878991"><ele>796.0</ele><time>2026-04-19T08:14:32.011Z</time></trkpt><trkpt lat="45.560424" lon="4.4881004"><ele>798.0</ele><time>2026-04-19T08:14:33.011Z</time></trkpt><trkpt lat="45.5604376" lon="4.4882943"><ele>799.5</ele><time>2026-04-19T08:14:34.011Z</time></trkpt><trkpt lat="45.5604569" lon="4.4884969"><ele>801.0</ele><time>2026-04-19T08:14:35.012Z</time></trkpt><trkpt lat="45.5604913" lon="4.4887018"><ele>802.5</ele><time>2026-04-19T08:14:36.01Z</time></trkpt><trkpt lat="45.5605268" lon="4.4889086"><ele>804.0</ele><time>2026-04-19T08:14:37.013Z</time></trkpt><trkpt lat="45.5605587" lon="4.4891289"><ele>805.25</ele><time>2026-04-19T08:14:38.01Z</time></trkpt><trkpt lat="45.5605789" lon="4.4893394"><ele>806.5</ele><time>2026-04-19T08:14:39.011Z</time></trkpt><trkpt lat="45.5605845" lon="4.4895541"><ele>807.75</ele><time>2026-04-19T08:14:40.012Z</time></trkpt><trkpt lat="45.5605882" lon="4.4897606"><ele>809.0</ele><time>2026-04-19T08:14:41.011Z</time></trkpt><trkpt lat="45.5605724" lon="4.489949"><ele>811.25</ele><time>2026-04-19T08:14:42.012Z</time></trkpt><trkpt lat="45.5605547" lon="4.4901414"><ele>813.5</ele><time>2026-04-19T08:14:43.011Z</time></trkpt><trkpt lat="45.5605421" lon="4.4903247"><ele>815.75</ele><time>2026-04-19T08:14:44.01Z</time></trkpt><trkpt lat="45.5605306" lon="4.4905179"><ele>818.0</ele><time>2026-04-19T08:14:45.01Z</time></trkpt><trkpt lat="45.5605286" lon="4.4907022"><ele>819.0</ele><time>2026-04-19T08:14:46.011Z</time></trkpt><trkpt lat="45.5605349" lon="4.4908882"><ele>820.0</ele><time>2026-04-19T08:14:47.011Z</time></trkpt><trkpt lat="45.5605418" lon="4.4910735"><ele>821.0</ele><time>2026-04-19T08:14:48.011Z</time></trkpt><trkpt lat="45.5605539" lon="4.4912619"><ele>822.0</ele><time>2026-04-19T08:14:49.011Z</time></trkpt><trkpt lat="45.5605602" lon="4.491448"><ele>822.0</ele><time>2026-04-19T08:14:50.012Z</time></trkpt><trkpt lat="45.5605673" lon="4.4916361"><ele>822.0</ele><time>2026-04-19T08:14:51.011Z</time></trkpt><trkpt lat="45.5605884" lon="4.4918239"><ele>822.0</ele><time>2026-04-19T08:14:52.012Z</time></trkpt><trkpt lat="45.5606201" lon="4.4920058"><ele>822.0</ele><time>2026-04-19T08:14:53.012Z</time></trkpt><trkpt lat="45.5606691" lon="4.4921858"><ele>822.0</ele><time>2026-04-19T08:14:54.012Z</time></trkpt><trkpt lat="45.5607282" lon="4.4923669"><ele>822.0</ele><time>2026-04-19T08:14:55.011Z</time></trkpt><trkpt lat="45.5608002" lon="4.4925369"><ele>822.0</ele><time>2026-04-19T08:14:56.013Z</time></trkpt><trkpt lat="45.5608818" lon="4.4927019"><ele>822.0</ele><time>2026-04-19T08:14:57.01Z</time></trkpt><trkpt lat="45.5609669" lon="4.4928708"><ele>822.0</ele><time>2026-04-19T08:14:58.011Z</time></trkpt><trkpt lat="45.5610497" lon="4.4930371"><ele>822.0</ele><time>2026-04-19T08:14:59.012Z</time></trkpt><trkpt lat="45.5611338" lon="4.4932107"><ele>822.0</ele><time>2026-04-19T08:15:00.011Z</time></trkpt><trkpt lat="45.5612037" lon="4.4933914"><ele>822.0</ele><time>2026-04-19T08:15:01.01Z</time></trkpt><trkpt lat="45.561272" lon="4.4935785"><ele>823.0</ele><time>2026-04-19T08:15:02.012Z</time></trkpt><trkpt lat="45.5613323" lon="4.4937814"><ele>824.0</ele><time>2026-04-19T08:15:03.011Z</time></trkpt><trkpt lat="45.561396" lon="4.4939782"><ele>825.0</ele><time>2026-04-19T08:15:04.011Z</time></trkpt><trkpt lat="45.5614588" lon="4.4941804"><ele>825.0</ele><time>2026-04-19T08:15:05.012Z</time></trkpt><trkpt lat="45.5615306" lon="4.4943721"><ele>825.0</ele><time>2026-04-19T08:15:06.01Z</time></trkpt><trkpt lat="45.5616111" lon="4.4945511"><ele>825.0</ele><time>2026-04-19T08:15:07.011Z</time></trkpt><trkpt lat="45.5617064" lon="4.4946947"><ele>825.0</ele><time>2026-04-19T08:15:08.012Z</time></trkpt><trkpt lat="45.56182" lon="4.4948076"><ele>825.5</ele><time>2026-04-19T08:15:09.011Z</time></trkpt><trkpt lat="45.5619474" lon="4.494911"><ele>826.0</ele><time>2026-04-19T08:15:10.01Z</time></trkpt><trkpt lat="45.5620736" lon="4.4950158"><ele>826.5</ele><time>2026-04-19T08:15:11.011Z</time></trkpt><trkpt lat="45.5621912" lon="4.4951078"><ele>827.0</ele><time>2026-04-19T08:15:12.011Z</time></trkpt><trkpt lat="45.5622979" lon="4.4951836"><ele>827.0000000000001</ele><time>2026-04-19T08:15:13.011Z</time></trkpt><trkpt lat="45.5623937" lon="4.495225"><ele>827.0</ele><time>2026-04-19T08:15:14.011Z</time></trkpt><trkpt lat="45.5624823" lon="4.4952333"><ele>827.0</ele><time>2026-04-19T08:15:15.012Z</time></trkpt><trkpt lat="45.5625574" lon="4.4952301"><ele>827.0</ele><time>2026-04-19T08:15:16.01Z</time></trkpt><trkpt lat="45.5626761" lon="4.4952399"><ele>827.0000000000001</ele><time>2026-04-19T08:15:18.011Z</time></trkpt><trkpt lat="45.5627413" lon="4.4952544"><ele>827.0</ele><time>2026-04-19T08:15:46.012Z</time></trkpt><trkpt lat="45.5628514" lon="4.4952454"><ele>827.0</ele><time>2026-04-19T08:15:48.01Z</time></trkpt><trkpt lat="45.5629431" lon="4.4952044"><ele>827.0</ele><time>2026-04-19T08:15:49.011Z</time></trkpt><trkpt lat="45.5630574" lon="4.4951421"><ele>827.0</ele><time>2026-04-19T08:15:50.011Z</time></trkpt><trkpt lat="45.5631849" lon="4.4950788"><ele>827.0</ele><time>2026-04-19T08:15:51.012Z</time></trkpt><trkpt lat="45.5633278" lon="4.495024"><ele>827.0</ele><time>2026-04-19T08:15:52.011Z</time></trkpt><trkpt lat="45.5634841" lon="4.4949806"><ele>827.0</ele><time>2026-04-19T08:15:53.011Z</time></trkpt><trkpt lat="45.5636446" lon="4.4949331"><ele>827.0</ele><time>2026-04-19T08:15:54.011Z</time></trkpt><trkpt lat="45.5637927" lon="4.4948744"><ele>827.5</ele><time>2026-04-19T08:15:55.011Z</time></trkpt><trkpt lat="45.5639316" lon="4.4948029"><ele>828.0</ele><time>2026-04-19T08:15:56.011Z</time></trkpt><trkpt lat="45.5640721" lon="4.4947162"><ele>828.5</ele><time>2026-04-19T08:15:57.011Z</time></trkpt><trkpt lat="45.5641956" lon="4.4946078"><ele>829.0</ele><time>2026-04-19T08:15:58.011Z</time></trkpt><trkpt lat="45.5643132" lon="4.4945185"><ele>830.5</ele><time>2026-04-19T08:15:59.01Z</time></trkpt><trkpt lat="45.5644259" lon="4.4944337"><ele>832.0</ele><time>2026-04-19T08:16:00.012Z</time></trkpt><trkpt lat="45.5645334" lon="4.4943354"><ele>833.5</ele><time>2026-04-19T08:16:01.011Z</time></trkpt><trkpt lat="45.5646237" lon="4.494244"><ele>835.0</ele><time>2026-04-19T08:16:02.011Z</time></trkpt><trkpt lat="45.5646998" lon="4.4941123"><ele>835.0</ele><time>2026-04-19T08:16:03.011Z</time></trkpt><trkpt lat="45.5647591" lon="4.4939809"><ele>835.0</ele><time>2026-04-19T08:16:04.011Z</time></trkpt><trkpt lat="45.5648084" lon="4.4938503"><ele>835.0</ele><time>2026-04-19T08:16:05.012Z</time></trkpt><trkpt lat="45.5648508" lon="4.4937276"><ele>835.0</ele><time>2026-04-19T08:16:06.012Z</time></trkpt><trkpt lat="45.5648934" lon="4.4936129"><ele>835.0</ele><time>2026-04-19T08:16:07.012Z</time></trkpt><trkpt lat="45.5649378" lon="4.4935072"><ele>834.9999999999999</ele><time>2026-04-19T08:16:08.011Z</time></trkpt><trkpt lat="45.5650019" lon="4.4934379"><ele>835.0</ele><time>2026-04-19T08:16:09.012Z</time></trkpt><trkpt lat="45.5651154" lon="4.4934096"><ele>835.0</ele><time>2026-04-19T08:16:11.012Z</time></trkpt><trkpt lat="45.5651642" lon="4.4934843"><ele>835.0</ele><time>2026-04-19T08:16:12.012Z</time></trkpt><trkpt lat="45.5652113" lon="4.4935706"><ele>834.9999999999999</ele><time>2026-04-19T08:16:13.012Z</time></trkpt><trkpt lat="45.5652633" lon="4.493684"><ele>835.0</ele><time>2026-04-19T08:16:14.012Z</time></trkpt><trkpt lat="45.565323" lon="4.4938069"><ele>836.0</ele><time>2026-04-19T08:16:15.012Z</time></trkpt><trkpt lat="45.56538" lon="4.4939173"><ele>837.0</ele><time>2026-04-19T08:16:16.011Z</time></trkpt><trkpt lat="45.5654271" lon="4.4940166"><ele>838.0</ele><time>2026-04-19T08:16:17.011Z</time></trkpt><trkpt lat="45.565463" lon="4.494125"><ele>839.0</ele><time>2026-04-19T08:16:18.011Z</time></trkpt><trkpt lat="45.5654779" lon="4.4942583"><ele>840.0</ele><time>2026-04-19T08:16:19.011Z</time></trkpt><trkpt lat="45.565465" lon="4.4944046"><ele>840.0</ele><time>2026-04-19T08:16:20.011Z</time></trkpt><trkpt lat="45.5654452" lon="4.4945509"><ele>840.0</ele><time>2026-04-19T08:16:21.012Z</time></trkpt><trkpt lat="45.5654202" lon="4.4947017"><ele>840.0</ele><time>2026-04-19T08:16:22.011Z</time></trkpt><trkpt lat="45.5654022" lon="4.4948579"><ele>840.0</ele><time>2026-04-19T08:16:23.012Z</time></trkpt><trkpt lat="45.5653963" lon="4.4950025"><ele>840.0</ele><time>2026-04-19T08:16:24.012Z</time></trkpt><trkpt lat="45.5653959" lon="4.4951619"><ele>841.0</ele><time>2026-04-19T08:16:25.011Z</time></trkpt><trkpt lat="45.5653981" lon="4.4953147"><ele>842.0</ele><time>2026-04-19T08:16:26.011Z</time></trkpt><trkpt lat="45.5654253" lon="4.495445"><ele>843.0</ele><time>2026-04-19T08:16:27.012Z</time></trkpt><trkpt lat="45.5654646" lon="4.4955736"><ele>844.0</ele><time>2026-04-19T08:16:28.012Z</time></trkpt><trkpt lat="45.5655087" lon="4.4957002"><ele>845.0</ele><time>2026-04-19T08:16:29.01Z</time></trkpt><trkpt lat="45.5655547" lon="4.4958185"><ele>845.0</ele><time>2026-04-19T08:16:30.012Z</time></trkpt><trkpt lat="45.5656118" lon="4.4959452"><ele>845.0</ele><time>2026-04-19T08:16:31.01Z</time></trkpt><trkpt lat="45.5656645" lon="4.4960625"><ele>845.0</ele><time>2026-04-19T08:16:32.011Z</time></trkpt><trkpt lat="45.5657224" lon="4.4961752"><ele>845.0</ele><time>2026-04-19T08:16:33.011Z</time></trkpt><trkpt lat="45.5657638" lon="4.4962735"><ele>845.0</ele><time>2026-04-19T08:16:34.011Z</time></trkpt><trkpt lat="45.5658007" lon="4.4963722"><ele>844.3333333333334</ele><time>2026-04-19T08:16:35.011Z</time></trkpt><trkpt lat="45.5658358" lon="4.496465"><ele>843.6666666666667</ele><time>2026-04-19T08:16:36.011Z</time></trkpt><trkpt lat="45.5658656" lon="4.4965682"><ele>843.0</ele><time>2026-04-19T08:16:37.01Z</time></trkpt><trkpt lat="45.5659022" lon="4.4966685"><ele>842.3333333333333</ele><time>2026-04-19T08:16:38.012Z</time></trkpt><trkpt lat="45.56594" lon="4.496769"><ele>841.6666666666666</ele><time>2026-04-19T08:16:39.01Z</time></trkpt><trkpt lat="45.5659817" lon="4.4968667"><ele>841.0</ele><time>2026-04-19T08:16:40.012Z</time></trkpt><trkpt lat="45.5660268" lon="4.496971"><ele>841.0</ele><time>2026-04-19T08:16:41.012Z</time></trkpt><trkpt lat="45.5660749" lon="4.4970795"><ele>841.0</ele><time>2026-04-19T08:16:42.011Z</time></trkpt><trkpt lat="45.5661312" lon="4.4971922"><ele>841.0</ele><time>2026-04-19T08:16:43.012Z</time></trkpt><trkpt lat="45.5661838" lon="4.4973099"><ele>841.0</ele><time>2026-04-19T08:16:44.01Z</time></trkpt><trkpt lat="45.5662269" lon="4.4974552"><ele>841.0</ele><time>2026-04-19T08:16:45.01Z</time></trkpt><trkpt lat="45.5662681" lon="4.4975891"><ele>840.1999999999999</ele><time>2026-04-19T08:16:46.011Z</time></trkpt><trkpt lat="45.5663046" lon="4.4977284"><ele>839.4</ele><time>2026-04-19T08:16:47.01Z</time></trkpt><trkpt lat="45.5663375" lon="4.4978633"><ele>838.6</ele><time>2026-04-19T08:16:48.012Z</time></trkpt><trkpt lat="45.566374" lon="4.4979926"><ele>837.8</ele><time>2026-04-19T08:16:49.011Z</time></trkpt><trkpt lat="45.5664083" lon="4.4981176"><ele>837.0</ele><time>2026-04-19T08:16:50.012Z</time></trkpt><trkpt lat="45.5664455" lon="4.4982389"><ele>836.0</ele><time>2026-04-19T08:16:51.011Z</time></trkpt><trkpt lat="45.5664734" lon="4.498356"><ele>835.0</ele><time>2026-04-19T08:16:52.01Z</time></trkpt><trkpt lat="45.5665076" lon="4.4984648"><ele>834.0</ele><time>2026-04-19T08:16:53.01Z</time></trkpt><trkpt lat="45.5665451" lon="4.4985765"><ele>833.0</ele><time>2026-04-19T08:16:54.01Z</time></trkpt><trkpt lat="45.5665802" lon="4.4986747"><ele>832.0</ele><time>2026-04-19T08:16:55.011Z</time></trkpt><trkpt lat="45.5666125" lon="4.4987806"><ele>831.0</ele><time>2026-04-19T08:16:56.01Z</time></trkpt><trkpt lat="45.566661" lon="4.4988804"><ele>830.3333333333334</ele><time>2026-04-19T08:16:57.011Z</time></trkpt><trkpt lat="45.5667037" lon="4.4989822"><ele>829.6666666666667</ele><time>2026-04-19T08:16:58.011Z</time></trkpt><trkpt lat="45.5667459" lon="4.4990921"><ele>829.0</ele><time>2026-04-19T08:16:59.011Z</time></trkpt><trkpt lat="45.5667984" lon="4.4991911"><ele>828.3333333333334</ele><time>2026-04-19T08:17:00.011Z</time></trkpt><trkpt lat="45.5668652" lon="4.4992573"><ele>827.6666666666667</ele><time>2026-04-19T08:17:01.01Z</time></trkpt><trkpt lat="45.5669554" lon="4.4992919"><ele>827.0</ele><time>2026-04-19T08:17:02.012Z</time></trkpt><trkpt lat="45.5670528" lon="4.499339"><ele>826.6</ele><time>2026-04-19T08:17:03.012Z</time></trkpt><trkpt lat="45.5671616" lon="4.4993863"><ele>826.2</ele><time>2026-04-19T08:17:04.011Z</time></trkpt><trkpt lat="45.567271" lon="4.4994421"><ele>825.8</ele><time>2026-04-19T08:17:05.01Z</time></trkpt><trkpt lat="45.5673665" lon="4.4995015"><ele>825.4</ele><time>2026-04-19T08:17:06.012Z</time></trkpt><trkpt lat="45.5674467" lon="4.4995544"><ele>825.0</ele><time>2026-04-19T08:17:07.011Z</time></trkpt><trkpt lat="45.5675178" lon="4.4995979"><ele>825.0</ele><time>2026-04-19T08:17:08.011Z</time></trkpt><trkpt lat="45.5676243" lon="4.4996548"><ele>825.0</ele><time>2026-04-19T08:17:10.012Z</time></trkpt><trkpt lat="45.567684" lon="4.4997026"><ele>825.0</ele><time>2026-04-19T08:17:12.012Z</time></trkpt><trkpt lat="45.5677828" lon="4.4997298"><ele>825.0</ele><time>2026-04-19T08:17:20.012Z</time></trkpt><trkpt lat="45.5678587" lon="4.4997591"><ele>825.0</ele><time>2026-04-19T08:17:21.011Z</time></trkpt><trkpt lat="45.5679488" lon="4.4997965"><ele>823.0</ele><time>2026-04-19T08:17:22.012Z</time></trkpt><trkpt lat="45.568058" lon="4.4998367"><ele>821.0</ele><time>2026-04-19T08:17:23.011Z</time></trkpt><trkpt lat="45.5681846" lon="4.4998839"><ele>819.0</ele><time>2026-04-19T08:17:24.012Z</time></trkpt><trkpt lat="45.5683234" lon="4.4999411"><ele>817.0</ele><time>2026-04-19T08:17:25.011Z</time></trkpt><trkpt lat="45.5684767" lon="4.4999947"><ele>817.0</ele><time>2026-04-19T08:17:26.011Z</time></trkpt><trkpt lat="45.5686259" lon="4.5000362"><ele>817.0</ele><time>2026-04-19T08:17:27.011Z</time></trkpt><trkpt lat="45.5687695" lon="4.5000685"><ele>817.0</ele><time>2026-04-19T08:17:28.011Z</time></trkpt><trkpt lat="45.5689058" lon="4.5000849"><ele>817.0</ele><time>2026-04-19T08:17:29.011Z</time></trkpt><trkpt lat="45.5690359" lon="4.5000912"><ele>815.75</ele><time>2026-04-19T08:17:30.011Z</time></trkpt><trkpt lat="45.5691615" lon="4.5000955"><ele>814.5</ele><time>2026-04-19T08:17:31.011Z</time></trkpt><trkpt lat="45.5692832" lon="4.5001124"><ele>813.25</ele><time>2026-04-19T08:17:32.013Z</time></trkpt><trkpt lat="45.569402" lon="4.5001419"><ele>812.0</ele><time>2026-04-19T08:17:33.01Z</time></trkpt><trkpt lat="45.5695106" lon="4.5001804"><ele>812.2</ele><time>2026-04-19T08:17:34.011Z</time></trkpt><trkpt lat="45.5696309" lon="4.5002107"><ele>812.4000000000001</ele><time>2026-04-19T08:17:35.01Z</time></trkpt><trkpt lat="45.5697375" lon="4.5002293"><ele>812.5999999999999</ele><time>2026-04-19T08:17:36.011Z</time></trkpt><trkpt lat="45.5698417" lon="4.5002416"><ele>812.8</ele><time>2026-04-19T08:17:37.012Z</time></trkpt><trkpt lat="45.5699255" lon="4.5002374"><ele>813.0</ele><time>2026-04-19T08:17:38.012Z</time></trkpt><trkpt lat="45.5700187" lon="4.5002244"><ele>813.0</ele><time>2026-04-19T08:17:39.012Z</time></trkpt><trkpt lat="45.570117" lon="4.5002156"><ele>813.0</ele><time>2026-04-19T08:17:40.012Z</time></trkpt><trkpt lat="45.5702111" lon="4.5001946"><ele>813.0</ele><time>2026-04-19T08:17:41.011Z</time></trkpt><trkpt lat="45.5703177" lon="4.5001909"><ele>813.0</ele><time>2026-04-19T08:17:42.011Z</time></trkpt><trkpt lat="45.5704085" lon="4.500184"><ele>813.0</ele><time>2026-04-19T08:17:43.011Z</time></trkpt><trkpt lat="45.5704996" lon="4.5002002"><ele>813.4</ele><time>2026-04-19T08:17:44.011Z</time></trkpt><trkpt lat="45.5705858" lon="4.5002215"><ele>813.8</ele><time>2026-04-19T08:17:45.01Z</time></trkpt><trkpt lat="45.5706804" lon="4.5002528"><ele>814.2</ele><time>2026-04-19T08:17:46.01Z</time></trkpt><trkpt lat="45.5707821" lon="4.500283"><ele>814.6</ele><time>2026-04-19T08:17:47.012Z</time></trkpt><trkpt lat="45.5708754" lon="4.5003265"><ele>815.0</ele><time>2026-04-19T08:17:48.012Z</time></trkpt><trkpt lat="45.5709692" lon="4.5003402"><ele>815.0000000000001</ele><time>2026-04-19T08:17:49.012Z</time></trkpt><trkpt lat="45.571046" lon="4.5003817"><ele>815.0</ele><time>2026-04-19T08:17:50.011Z</time></trkpt><trkpt lat="45.5711368" lon="4.5003902"><ele>815.0</ele><time>2026-04-19T08:17:51.01Z</time></trkpt><trkpt lat="45.5712136" lon="4.5003912"><ele>815.0</ele><time>2026-04-19T08:17:52.01Z</time></trkpt><trkpt lat="45.5712899" lon="4.5003921"><ele>815.0000000000001</ele><time>2026-04-19T08:17:53.01Z</time></trkpt><trkpt lat="45.5713839" lon="4.5004015"><ele>815.0</ele><time>2026-04-19T08:17:54.011Z</time></trkpt><trkpt lat="45.5714792" lon="4.5004154"><ele>818.8</ele><time>2026-04-19T08:17:55.011Z</time></trkpt><trkpt lat="45.571572" lon="4.5004506"><ele>822.6</ele><time>2026-04-19T08:17:56.01Z</time></trkpt><trkpt lat="45.5716606" lon="4.5004641"><ele>826.4000000000001</ele><time>2026-04-19T08:17:57.011Z</time></trkpt><trkpt lat="45.5717507" lon="4.500474"><ele>830.2</ele><time>2026-04-19T08:17:58.011Z</time></trkpt><trkpt lat="45.5718447" lon="4.5004909"><ele>834.0</ele><time>2026-04-19T08:17:59.012Z</time></trkpt><trkpt lat="45.5719259" lon="4.5005012"><ele>834.0</ele><time>2026-04-19T08:18:00.011Z</time></trkpt><trkpt lat="45.5720187" lon="4.5005278"><ele>834.0</ele><time>2026-04-19T08:18:01.01Z</time></trkpt><trkpt lat="45.5721226" lon="4.5005472"><ele>834.0</ele><time>2026-04-19T08:18:02.012Z</time></trkpt><trkpt lat="45.572218" lon="4.5005722"><ele>834.0</ele><time>2026-04-19T08:18:03.011Z</time></trkpt><trkpt lat="45.5723202" lon="4.5006235"><ele>834.0</ele><time>2026-04-19T08:18:04.011Z</time></trkpt><trkpt lat="45.5724105" lon="4.500666"><ele>834.8000000000001</ele><time>2026-04-19T08:18:05.012Z</time></trkpt><trkpt lat="45.5725075" lon="4.5007059"><ele>835.6</ele><time>2026-04-19T08:18:06.01Z</time></trkpt><trkpt lat="45.5726153" lon="4.500742"><ele>836.4</ele><time>2026-04-19T08:18:07.011Z</time></trkpt><trkpt lat="45.5727103" lon="4.5007604"><ele>837.2</ele><time>2026-04-19T08:18:08.011Z</time></trkpt><trkpt lat="45.5728132" lon="4.5007845"><ele>838.0</ele><time>2026-04-19T08:18:09.011Z</time></trkpt><trkpt lat="45.5729087" lon="4.5008258"><ele>838.1666666666666</ele><time>2026-04-19T08:18:10.011Z</time></trkpt><trkpt lat="45.5729788" lon="4.5008851"><ele>838.3333333333333</ele><time>2026-04-19T08:18:11.011Z</time></trkpt><trkpt lat="45.5730557" lon="4.5009498"><ele>838.5</ele><time>2026-04-19T08:18:12.012Z</time></trkpt><trkpt lat="45.5731237" lon="4.5010239"><ele>838.6666666666667</ele><time>2026-04-19T08:18:13.012Z</time></trkpt><trkpt lat="45.5731929" lon="4.5011174"><ele>838.8333333333334</ele><time>2026-04-19T08:18:14.012Z</time></trkpt><trkpt lat="45.5732589" lon="4.5012009"><ele>839.0</ele><time>2026-04-19T08:18:15.011Z</time></trkpt><trkpt lat="45.5733338" lon="4.5012706"><ele>841.6666666666667</ele><time>2026-04-19T08:18:16.011Z</time></trkpt><trkpt lat="45.5734125" lon="4.5013322"><ele>844.3333333333334</ele><time>2026-04-19T08:18:17.012Z</time></trkpt><trkpt lat="45.5734832" lon="4.5013813"><ele>847.0</ele><time>2026-04-19T08:18:18.011Z</time></trkpt><trkpt lat="45.5735386" lon="4.5014302"><ele>849.6666666666667</ele><time>2026-04-19T08:18:19.011Z</time></trkpt><trkpt lat="45.5736174" lon="4.5014831"><ele>852.3333333333334</ele><time>2026-04-19T08:18:21.01Z</time></trkpt><trkpt lat="45.5736045" lon="4.5015968"><ele>855.0</ele><time>2026-04-19T08:18:31.01Z</time></trkpt><trkpt lat="45.5735484" lon="4.5016766"><ele>855.0</ele><time>2026-04-19T08:18:33.011Z</time></trkpt><trkpt lat="45.5734891" lon="4.5017797"><ele>855.0</ele><time>2026-04-19T08:18:35.011Z</time></trkpt><trkpt lat="45.573443" lon="4.5018425"><ele>855.0</ele><time>2026-04-19T08:18:36.01Z</time></trkpt><trkpt lat="45.5733429" lon="4.5019336"><ele>855.0</ele><time>2026-04-19T08:18:38.012Z</time></trkpt><trkpt lat="45.5732271" lon="4.5019657"><ele>855.0</ele><time>2026-04-19T08:18:40.011Z</time></trkpt><trkpt lat="45.5731315" lon="4.5019708"><ele>855.0</ele><time>2026-04-19T08:18:42.011Z</time></trkpt><trkpt lat="45.5730695" lon="4.5019927"><ele>855.0</ele><time>2026-04-19T08:18:44.012Z</time></trkpt><trkpt lat="45.5729372" lon="4.5019656"><ele>855.0</ele><time>2026-04-19T08:18:46.012Z</time></trkpt><trkpt lat="45.5728484" lon="4.501938"><ele>855.0</ele><time>2026-04-19T08:18:47.011Z</time></trkpt><trkpt lat="45.5727429" lon="4.5019052"><ele>855.0</ele><time>2026-04-19T08:18:48.011Z</time></trkpt><trkpt lat="45.5726346" lon="4.5018683"><ele>854.8</ele><time>2026-04-19T08:18:49.011Z</time></trkpt><trkpt lat="45.5725345" lon="4.5018363"><ele>854.6</ele><time>2026-04-19T08:18:50.011Z</time></trkpt><trkpt lat="45.5724344" lon="4.5018115"><ele>854.4000000000001</ele><time>2026-04-19T08:18:51.011Z</time></trkpt><trkpt lat="45.5723288" lon="4.5018066"><ele>854.2</ele><time>2026-04-19T08:18:52.011Z</time></trkpt><trkpt lat="45.5722227" lon="4.501823"><ele>854.0</ele><time>2026-04-19T08:18:53.01Z</time></trkpt><trkpt lat="45.5721143" lon="4.5018443"><ele>853.4000000000001</ele><time>2026-04-19T08:18:54.013Z</time></trkpt><trkpt lat="45.5720071" lon="4.5018586"><ele>852.8000000000001</ele><time>2026-04-19T08:18:55.012Z</time></trkpt><trkpt lat="45.5719056" lon="4.5018728"><ele>852.2</ele><time>2026-04-19T08:18:56.011Z</time></trkpt><trkpt lat="45.5718058" lon="4.5019037"><ele>851.5999999999999</ele><time>2026-04-19T08:18:57.011Z</time></trkpt><trkpt lat="45.5717081" lon="4.5019645"><ele>851.0</ele><time>2026-04-19T08:18:58.012Z</time></trkpt><trkpt lat="45.5716195" lon="4.5020503"><ele>854.25</ele><time>2026-04-19T08:18:59.012Z</time></trkpt><trkpt lat="45.5715297" lon="4.5021518"><ele>857.5</ele><time>2026-04-19T08:19:00.01Z</time></trkpt><trkpt lat="45.571445" lon="4.5022683"><ele>860.75</ele><time>2026-04-19T08:19:01.011Z</time></trkpt><trkpt lat="45.5713564" lon="4.5023917"><ele>864.0</ele><time>2026-04-19T08:19:02.012Z</time></trkpt><trkpt lat="45.5712649" lon="4.502521"><ele>863.25</ele><time>2026-04-19T08:19:03.012Z</time></trkpt><trkpt lat="45.5711754" lon="4.5026583"><ele>862.5</ele><time>2026-04-19T08:19:04.012Z</time></trkpt><trkpt lat="45.5710896" lon="4.5028079"><ele>861.75</ele><time>2026-04-19T08:19:05.011Z</time></trkpt><trkpt lat="45.5710092" lon="4.5029443"><ele>861.0</ele><time>2026-04-19T08:19:06.011Z</time></trkpt><trkpt lat="45.5709384" lon="4.5030725"><ele>861.0</ele><time>2026-04-19T08:19:07.011Z</time></trkpt><trkpt lat="45.5708734" lon="4.5031826"><ele>860.9999999999999</ele><time>2026-04-19T08:19:08.011Z</time></trkpt><trkpt lat="45.5708025" lon="4.5032922"><ele>860.9999999999999</ele><time>2026-04-19T08:19:09.011Z</time></trkpt><trkpt lat="45.570723" lon="4.5034007"><ele>861.0</ele><time>2026-04-19T08:19:10.012Z</time></trkpt><trkpt lat="45.5706375" lon="4.5035029"><ele>861.0</ele><time>2026-04-19T08:19:11.011Z</time></trkpt><trkpt lat="45.5705484" lon="4.5036062"><ele>861.0</ele><time>2026-04-19T08:19:12.011Z</time></trkpt><trkpt lat="45.5704583" lon="4.5037034"><ele>860.9999999999999</ele><time>2026-04-19T08:19:13.011Z</time></trkpt><trkpt lat="45.570376" lon="4.5037967"><ele>860.9999999999999</ele><time>2026-04-19T08:19:14.011Z</time></trkpt><trkpt lat="45.5702891" lon="4.5038938"><ele>861.0</ele><time>2026-04-19T08:19:15.011Z</time></trkpt><trkpt lat="45.570199" lon="4.5039749"><ele>861.0</ele><time>2026-04-19T08:19:16.013Z</time></trkpt><trkpt lat="45.5701073" lon="4.5040504"><ele>861.1999999999999</ele><time>2026-04-19T08:19:17.011Z</time></trkpt><trkpt lat="45.5700206" lon="4.5041032"><ele>861.3999999999999</ele><time>2026-04-19T08:19:18.012Z</time></trkpt><trkpt lat="45.5699386" lon="4.504123"><ele>861.6</ele><time>2026-04-19T08:19:19.011Z</time></trkpt><trkpt lat="45.5698578" lon="4.5041471"><ele>861.8</ele><time>2026-04-19T08:19:20.012Z</time></trkpt><trkpt lat="45.5697613" lon="4.504196"><ele>862.0</ele><time>2026-04-19T08:19:21.011Z</time></trkpt><trkpt lat="45.5696677" lon="4.5042392"><ele>862.0</ele><time>2026-04-19T08:19:22.011Z</time></trkpt><trkpt lat="45.5695647" lon="4.504286"><ele>862.0</ele><time>2026-04-19T08:19:23.011Z</time></trkpt><trkpt lat="45.5694681" lon="4.5043401"><ele>862.0</ele><time>2026-04-19T08:19:24.012Z</time></trkpt><trkpt lat="45.5693664" lon="4.504394"><ele>862.0</ele><time>2026-04-19T08:19:25.011Z</time></trkpt><trkpt lat="45.569266" lon="4.504452"><ele>862.0</ele><time>2026-04-19T08:19:26.011Z</time></trkpt><trkpt lat="45.5691673" lon="4.5045085"><ele>861.3333333333333</ele><time>2026-04-19T08:19:27.011Z</time></trkpt><trkpt lat="45.569076" lon="4.5045636"><ele>860.6666666666666</ele><time>2026-04-19T08:19:28.011Z</time></trkpt><trkpt lat="45.5690081" lon="4.5046139"><ele>860.0</ele><time>2026-04-19T08:19:29.011Z</time></trkpt><trkpt lat="45.5689529" lon="4.5046921"><ele>859.3333333333333</ele><time>2026-04-19T08:19:30.011Z</time></trkpt><trkpt lat="45.5689211" lon="4.5047876"><ele>858.6666666666666</ele><time>2026-04-19T08:19:31.011Z</time></trkpt><trkpt lat="45.5689268" lon="4.5049526"><ele>858.0</ele><time>2026-04-19T08:19:33.011Z</time></trkpt><trkpt lat="45.5689736" lon="4.5051207"><ele>859.8</ele><time>2026-04-19T08:19:35.011Z</time></trkpt><trkpt lat="45.5690146" lon="4.5052726"><ele>861.5999999999999</ele><time>2026-04-19T08:19:37.012Z</time></trkpt><trkpt lat="45.5690365" lon="4.5054246"><ele>863.4000000000001</ele><time>2026-04-19T08:19:39.011Z</time></trkpt><trkpt lat="45.5690441" lon="4.5055625"><ele>865.2</ele><time>2026-04-19T08:19:41.011Z</time></trkpt><trkpt lat="45.5690717" lon="4.5056973"><ele>867.0</ele><time>2026-04-19T08:19:43.011Z</time></trkpt><trkpt lat="45.5691009" lon="4.505834"><ele>868.6</ele><time>2026-04-19T08:19:45.01Z</time></trkpt><trkpt lat="45.5691256" lon="4.5059637"><ele>870.2</ele><time>2026-04-19T08:19:47.01Z</time></trkpt><trkpt lat="45.5691623" lon="4.5061"><ele>871.8</ele><time>2026-04-19T08:19:49.011Z</time></trkpt><trkpt lat="45.5692052" lon="4.5062422"><ele>873.4</ele><time>2026-04-19T08:19:51.011Z</time></trkpt><trkpt lat="45.5692326" lon="4.5063855"><ele>875.0</ele><time>2026-04-19T08:19:53.012Z</time></trkpt><trkpt lat="45.5692533" lon="4.5065511"><ele>875.1666666666667</ele><time>2026-04-19T08:19:55.012Z</time></trkpt><trkpt lat="45.5692607" lon="4.5066529"><ele>875.3333333333334</ele><time>2026-04-19T08:19:56.011Z</time></trkpt><trkpt lat="45.5692668" lon="4.5067645"><ele>875.5</ele><time>2026-04-19T08:19:57.011Z</time></trkpt><trkpt lat="45.5692655" lon="4.5068914"><ele>875.6666666666667</ele><time>2026-04-19T08:19:58.012Z</time></trkpt><trkpt lat="45.569271" lon="4.5070243"><ele>875.8333333333334</ele><time>2026-04-19T08:19:59.012Z</time></trkpt><trkpt lat="45.5692634" lon="4.5071423"><ele>876.0</ele><time>2026-04-19T08:20:00.012Z</time></trkpt><trkpt lat="45.5692619" lon="4.5072695"><ele>876.0</ele><time>2026-04-19T08:20:01.012Z</time></trkpt><trkpt lat="45.5692664" lon="4.5073976"><ele>875.9999999999999</ele><time>2026-04-19T08:20:02.011Z</time></trkpt><trkpt lat="45.5692693" lon="4.5075265"><ele>875.9999999999999</ele><time>2026-04-19T08:20:03.012Z</time></trkpt><trkpt lat="45.5693015" lon="4.5076565"><ele>876.0</ele><time>2026-04-19T08:20:04.012Z</time></trkpt><trkpt lat="45.569331" lon="4.5077903"><ele>876.0</ele><time>2026-04-19T08:20:05.011Z</time></trkpt><trkpt lat="45.5693803" lon="4.5079274"><ele>875.0</ele><time>2026-04-19T08:20:06.012Z</time></trkpt><trkpt lat="45.5694205" lon="4.5080533"><ele>873.9999999999999</ele><time>2026-04-19T08:20:07.011Z</time></trkpt><trkpt lat="45.5694693" lon="4.5081829"><ele>872.9999999999999</ele><time>2026-04-19T08:20:08.011Z</time></trkpt><trkpt lat="45.5695077" lon="4.5083138"><ele>872.0</ele><time>2026-04-19T08:20:09.011Z</time></trkpt><trkpt lat="45.5695449" lon="4.508447"><ele>871.0</ele><time>2026-04-19T08:20:10.01Z</time></trkpt><trkpt lat="45.5695824" lon="4.5085904"><ele>871.0</ele><time>2026-04-19T08:20:11.012Z</time></trkpt><trkpt lat="45.5696272" lon="4.5087415"><ele>871.0</ele><time>2026-04-19T08:20:12.011Z</time></trkpt><trkpt lat="45.5696654" lon="4.5089029"><ele>871.0</ele><time>2026-04-19T08:20:13.012Z</time></trkpt><trkpt lat="45.5696947" lon="4.5090794"><ele>871.0</ele><time>2026-04-19T08:20:14.012Z</time></trkpt><trkpt lat="45.5697209" lon="4.5092699"><ele>869.25</ele><time>2026-04-19T08:20:15.01Z</time></trkpt><trkpt lat="45.5697497" lon="4.5094708"><ele>867.5</ele><time>2026-04-19T08:20:16.012Z</time></trkpt><trkpt lat="45.5697797" lon="4.5096741"><ele>865.75</ele><time>2026-04-19T08:20:17.012Z</time></trkpt><trkpt lat="45.5697834" lon="4.5098463"><ele>864.0</ele><time>2026-04-19T08:20:18.012Z</time></trkpt><trkpt lat="45.5697984" lon="4.5100086"><ele>864.0</ele><time>2026-04-19T08:20:19.012Z</time></trkpt><trkpt lat="45.5698169" lon="4.5101724"><ele>864.0000000000001</ele><time>2026-04-19T08:20:20.011Z</time></trkpt><trkpt lat="45.569833" lon="4.5103358"><ele>864.0000000000001</ele><time>2026-04-19T08:20:21.011Z</time></trkpt><trkpt lat="45.5698593" lon="4.51049"><ele>864.0</ele><time>2026-04-19T08:20:22.011Z</time></trkpt><trkpt lat="45.5698844" lon="4.5106349"><ele>864.0</ele><time>2026-04-19T08:20:23.011Z</time></trkpt><trkpt lat="45.5699113" lon="4.5107612"><ele>864.0</ele><time>2026-04-19T08:20:24.012Z</time></trkpt><trkpt lat="45.5699381" lon="4.5108961"><ele>864.0000000000001</ele><time>2026-04-19T08:20:25.01Z</time></trkpt><trkpt lat="45.5699675" lon="4.5110453"><ele>864.0000000000001</ele><time>2026-04-19T08:20:26.011Z</time></trkpt><trkpt lat="45.5700054" lon="4.5112045"><ele>864.0</ele><time>2026-04-19T08:20:27.011Z</time></trkpt><trkpt lat="45.5700493" lon="4.5113581"><ele>864.0</ele><time>2026-04-19T08:20:28.011Z</time></trkpt><trkpt lat="45.5701011" lon="4.5115161"><ele>865.5</ele><time>2026-04-19T08:20:29.011Z</time></trkpt><trkpt lat="45.5701461" lon="4.5116862"><ele>867.0</ele><time>2026-04-19T08:20:30.012Z</time></trkpt><trkpt lat="45.5701847" lon="4.5118522"><ele>868.5</ele><time>2026-04-19T08:20:31.01Z</time></trkpt><trkpt lat="45.5702138" lon="4.5120197"><ele>870.0</ele><time>2026-04-19T08:20:32.012Z</time></trkpt><trkpt lat="45.5702375" lon="4.5121788"><ele>870.2</ele><time>2026-04-19T08:20:33.012Z</time></trkpt><trkpt lat="45.5702602" lon="4.5123293"><ele>870.4</ele><time>2026-04-19T08:20:34.012Z</time></trkpt><trkpt lat="45.5702767" lon="4.5124812"><ele>870.5999999999999</ele><time>2026-04-19T08:20:35.012Z</time></trkpt><trkpt lat="45.5702835" lon="4.5126285"><ele>870.8</ele><time>2026-04-19T08:20:36.012Z</time></trkpt><trkpt lat="45.5702913" lon="4.5127735"><ele>871.0</ele><time>2026-04-19T08:20:37.012Z</time></trkpt><trkpt lat="45.5702882" lon="4.5129293"><ele>870.1666666666666</ele><time>2026-04-19T08:20:38.012Z</time></trkpt><trkpt lat="45.5702781" lon="4.5130631"><ele>869.3333333333333</ele><time>2026-04-19T08:20:39.012Z</time></trkpt><trkpt lat="45.5702756" lon="4.5131925"><ele>868.5</ele><time>2026-04-19T08:20:40.011Z</time></trkpt><trkpt lat="45.5702584" lon="4.5133081"><ele>867.6666666666667</ele><time>2026-04-19T08:20:41.011Z</time></trkpt><trkpt lat="45.5702431" lon="4.5134207"><ele>866.8333333333334</ele><time>2026-04-19T08:20:42.013Z</time></trkpt><trkpt lat="45.5702284" lon="4.513526"><ele>866.0</ele><time>2026-04-19T08:20:43.013Z</time></trkpt><trkpt lat="45.5702154" lon="4.5136318"><ele>865.1999999999999</ele><time>2026-04-19T08:20:44.01Z</time></trkpt><trkpt lat="45.5701959" lon="4.5137436"><ele>864.3999999999999</ele><time>2026-04-19T08:20:45.012Z</time></trkpt><trkpt lat="45.5701829" lon="4.5138516"><ele>863.6</ele><time>2026-04-19T08:20:46.011Z</time></trkpt><trkpt lat="45.5701809" lon="4.5139527"><ele>862.8</ele><time>2026-04-19T08:20:47.011Z</time></trkpt><trkpt lat="45.5701913" lon="4.5141148"><ele>862.0</ele><time>2026-04-19T08:20:49.012Z</time></trkpt><trkpt lat="45.5701082" lon="4.5142207"><ele>862.0</ele><time>2026-04-19T08:20:51.012Z</time></trkpt><trkpt lat="45.5700617" lon="4.5142905"><ele>862.0</ele><time>2026-04-19T08:20:52.011Z</time></trkpt><trkpt lat="45.5699828" lon="4.5144116"><ele>862.0</ele><time>2026-04-19T08:20:54.012Z</time></trkpt><trkpt lat="45.5699507" lon="4.514578"><ele>862.0</ele><time>2026-04-19T08:20:56.012Z</time></trkpt><trkpt lat="45.5699366" lon="4.5146943"><ele>862.0</ele><time>2026-04-19T08:20:57.012Z</time></trkpt><trkpt lat="45.5699269" lon="4.5148271"><ele>861.8333333333333</ele><time>2026-04-19T08:20:58.011Z</time></trkpt><trkpt lat="45.5699145" lon="4.5149459"><ele>861.6666666666666</ele><time>2026-04-19T08:20:59.011Z</time></trkpt><trkpt lat="45.5699058" lon="4.5150629"><ele>861.5</ele><time>2026-04-19T08:21:00.012Z</time></trkpt><trkpt lat="45.5699039" lon="4.5151721"><ele>861.3333333333333</ele><time>2026-04-19T08:21:01.012Z</time></trkpt><trkpt lat="45.5698976" lon="4.5152753"><ele>861.1666666666666</ele><time>2026-04-19T08:21:02.012Z</time></trkpt><trkpt lat="45.5698963" lon="4.5153793"><ele>861.0</ele><time>2026-04-19T08:21:03.012Z</time></trkpt><trkpt lat="45.5698873" lon="4.5154805"><ele>861.0</ele><time>2026-04-19T08:21:04.011Z</time></trkpt><trkpt lat="45.5698896" lon="4.5155848"><ele>860.9999999999999</ele><time>2026-04-19T08:21:05.011Z</time></trkpt><trkpt lat="45.5698807" lon="4.5157432"><ele>860.9999999999999</ele><time>2026-04-19T08:21:07.012Z</time></trkpt><trkpt lat="45.569856" lon="4.5158677"><ele>861.0</ele><time>2026-04-19T08:21:09.011Z</time></trkpt><trkpt lat="45.5698393" lon="4.5159937"><ele>861.0</ele><time>2026-04-19T08:21:30.011Z</time></trkpt><trkpt lat="45.5698356" lon="4.5161666"><ele>861.5</ele><time>2026-04-19T08:21:32.011Z</time></trkpt><trkpt lat="45.5698315" lon="4.5162748"><ele>862.0</ele><time>2026-04-19T08:21:33.012Z</time></trkpt><trkpt lat="45.5698226" lon="4.51639"><ele>862.5</ele><time>2026-04-19T08:21:34.011Z</time></trkpt><trkpt lat="45.5698057" lon="4.5165217"><ele>863.0</ele><time>2026-04-19T08:21:35.012Z</time></trkpt><trkpt lat="45.5697933" lon="4.5166592"><ele>863.5</ele><time>2026-04-19T08:21:36.011Z</time></trkpt><trkpt lat="45.5697899" lon="4.5167963"><ele>864.0</ele><time>2026-04-19T08:21:37.012Z</time></trkpt><trkpt lat="45.5697932" lon="4.5169285"><ele>864.0</ele><time>2026-04-19T08:21:38.011Z</time></trkpt><trkpt lat="45.5697993" lon="4.5170626"><ele>864.0</ele><time>2026-04-19T08:21:39.012Z</time></trkpt><trkpt lat="45.5698064" lon="4.517186"><ele>864.0</ele><time>2026-04-19T08:21:40.013Z</time></trkpt><trkpt lat="45.5698126" lon="4.5173042"><ele>864.0</ele><time>2026-04-19T08:21:41.013Z</time></trkpt><trkpt lat="45.5698207" lon="4.5174196"><ele>864.0</ele><time>2026-04-19T08:21:42.011Z</time></trkpt><trkpt lat="45.5698331" lon="4.5175199"><ele>864.0</ele><time>2026-04-19T08:21:43.011Z</time></trkpt><trkpt lat="45.5698677" lon="4.5176572"><ele>865.0</ele><time>2026-04-19T08:21:45.011Z</time></trkpt><trkpt lat="45.5698734" lon="4.5177931"><ele>866.0000000000001</ele><time>2026-04-19T08:21:48.012Z</time></trkpt><trkpt lat="45.5698961" lon="4.5179222"><ele>867.0000000000001</ele><time>2026-04-19T08:21:50.011Z</time></trkpt><trkpt lat="45.5699186" lon="4.5180486"><ele>868.0</ele><time>2026-04-19T08:21:52.011Z</time></trkpt><trkpt lat="45.5699557" lon="4.5181803"><ele>869.0</ele><time>2026-04-19T08:21:54.011Z</time></trkpt><trkpt lat="45.5699795" lon="4.5182973"><ele>870.5000000000001</ele><time>2026-04-19T08:21:56.011Z</time></trkpt><trkpt lat="45.5700052" lon="4.5183942"><ele>872.0</ele><time>2026-04-19T08:21:58.011Z</time></trkpt><trkpt lat="45.5700303" lon="4.5185159"><ele>873.5</ele><time>2026-04-19T08:22:01.011Z</time></trkpt><trkpt lat="45.5700455" lon="4.5186235"><ele>875.0</ele><time>2026-04-19T08:22:03.012Z</time></trkpt><trkpt lat="45.5700881" lon="4.5187055"><ele>876.5000000000001</ele><time>2026-04-19T08:22:06.012Z</time></trkpt><trkpt lat="45.5700949" lon="4.5188191"><ele>878.0</ele><time>2026-04-19T08:22:09.011Z</time></trkpt><trkpt lat="45.5700649" lon="4.5189534"><ele>879.4</ele><time>2026-04-19T08:22:11.011Z</time></trkpt><trkpt lat="45.5700543" lon="4.5190832"><ele>880.8</ele><time>2026-04-19T08:22:13.011Z</time></trkpt><trkpt lat="45.5700199" lon="4.5192331"><ele>882.2</ele><time>2026-04-19T08:22:15.012Z</time></trkpt><trkpt lat="45.5699847" lon="4.5193619"><ele>883.6</ele><time>2026-04-19T08:22:17.011Z</time></trkpt><trkpt lat="45.5699469" lon="4.5194612"><ele>885.0</ele><time>2026-04-19T08:22:19.012Z</time></trkpt><trkpt lat="45.5699265" lon="4.5195631"><ele>885.6666666666666</ele><time>2026-04-19T08:22:31.012Z</time></trkpt><trkpt lat="45.569906" lon="4.5196743"><ele>886.3333333333333</ele><time>2026-04-19T08:22:34.012Z</time></trkpt><trkpt lat="45.5698728" lon="4.5198316"><ele>887.0</ele><time>2026-04-19T08:22:36.013Z</time></trkpt><trkpt lat="45.5698617" lon="4.5199681"><ele>887.6666666666666</ele><time>2026-04-19T08:22:38.011Z</time></trkpt><trkpt lat="45.5698607" lon="4.5200756"><ele>888.3333333333333</ele><time>2026-04-19T08:22:39.012Z</time></trkpt><trkpt lat="45.5698682" lon="4.5201896"><ele>889.0</ele><time>2026-04-19T08:22:40.012Z</time></trkpt><trkpt lat="45.5698722" lon="4.5203261"><ele>888.3333333333333</ele><time>2026-04-19T08:22:41.013Z</time></trkpt><trkpt lat="45.5698782" lon="4.5204267"><ele>887.6666666666666</ele><time>2026-04-19T08:22:42.011Z</time></trkpt><trkpt lat="45.5698731" lon="4.5206064"><ele>887.0</ele><time>2026-04-19T08:22:44.012Z</time></trkpt><trkpt lat="45.5698546" lon="4.5207058"><ele>886.3333333333333</ele><time>2026-04-19T08:22:45.011Z</time></trkpt><trkpt lat="45.5698377" lon="4.5208263"><ele>885.6666666666666</ele><time>2026-04-19T08:22:46.011Z</time></trkpt><trkpt lat="45.5698259" lon="4.5209427"><ele>885.0</ele><time>2026-04-19T08:22:47.011Z</time></trkpt><trkpt lat="45.5698205" lon="4.5210486"><ele>885.0</ele><time>2026-04-19T08:22:48.011Z</time></trkpt><trkpt lat="45.5698268" lon="4.5211539"><ele>885.0</ele><time>2026-04-19T08:22:49.012Z</time></trkpt><trkpt lat="45.5698357" lon="4.521252"><ele>885.0</ele><time>2026-04-19T08:22:50.012Z</time></trkpt><trkpt lat="45.5698565" lon="4.5213437"><ele>885.0</ele><time>2026-04-19T08:22:51.012Z</time></trkpt><trkpt lat="45.5698944" lon="4.521432"><ele>885.0</ele><time>2026-04-19T08:22:52.011Z</time></trkpt><trkpt lat="45.5699327" lon="4.5215127"><ele>885.0</ele><time>2026-04-19T08:22:53.011Z</time></trkpt><trkpt lat="45.5699567" lon="4.5216063"><ele>885.0</ele><time>2026-04-19T08:22:54.011Z</time></trkpt><trkpt lat="45.5699851" lon="4.5216985"><ele>885.1666666666666</ele><time>2026-04-19T08:22:55.012Z</time></trkpt><trkpt lat="45.5700023" lon="4.5217937"><ele>885.3333333333333</ele><time>2026-04-19T08:22:56.011Z</time></trkpt><trkpt lat="45.570013" lon="4.521892"><ele>885.5</ele><time>2026-04-19T08:22:57.012Z</time></trkpt><trkpt lat="45.57002" lon="4.5219952"><ele>885.6666666666666</ele><time>2026-04-19T08:22:58.011Z</time></trkpt><trkpt lat="45.5700048" lon="4.522194"><ele>885.8333333333333</ele><time>2026-04-19T08:23:00.012Z</time></trkpt><trkpt lat="45.5699982" lon="4.5223139"><ele>886.0</ele><time>2026-04-19T08:23:01.011Z</time></trkpt><trkpt lat="45.5699834" lon="4.5224373"><ele>886.1666666666666</ele><time>2026-04-19T08:23:02.011Z</time></trkpt><trkpt lat="45.5699727" lon="4.5225457"><ele>886.3333333333333</ele><time>2026-04-19T08:23:03.011Z</time></trkpt><trkpt lat="45.5699845" lon="4.522667"><ele>886.5</ele><time>2026-04-19T08:23:04.012Z</time></trkpt><trkpt lat="45.5700115" lon="4.522765"><ele>886.6666666666667</ele><time>2026-04-19T08:23:05.011Z</time></trkpt><trkpt lat="45.5700331" lon="4.5228809"><ele>886.8333333333334</ele><time>2026-04-19T08:23:06.011Z</time></trkpt><trkpt lat="45.5700587" lon="4.5229768"><ele>887.0</ele><time>2026-04-19T08:23:07.012Z</time></trkpt><trkpt lat="45.5700875" lon="4.5230755"><ele>886.0000000000001</ele><time>2026-04-19T08:23:08.011Z</time></trkpt><trkpt lat="45.5701111" lon="4.5231828"><ele>885.0</ele><time>2026-04-19T08:23:09.011Z</time></trkpt><trkpt lat="45.5701336" lon="4.5232816"><ele>884.0</ele><time>2026-04-19T08:23:10.011Z</time></trkpt><trkpt lat="45.570162" lon="4.5233884"><ele>883.0</ele><time>2026-04-19T08:23:11.012Z</time></trkpt><trkpt lat="45.5701882" lon="4.5234923"><ele>882.0000000000001</ele><time>2026-04-19T08:23:12.011Z</time></trkpt><trkpt lat="45.5702126" lon="4.5236014"><ele>881.0</ele><time>2026-04-19T08:23:13.011Z</time></trkpt><trkpt lat="45.5702349" lon="4.5237101"><ele>880.0000000000001</ele><time>2026-04-19T08:23:14.012Z</time></trkpt><trkpt lat="45.5702835" lon="4.5238097"><ele>879.0</ele><time>2026-04-19T08:23:15.012Z</time></trkpt><trkpt lat="45.5703394" lon="4.523911"><ele>878.0</ele><time>2026-04-19T08:23:16.013Z</time></trkpt><trkpt lat="45.570396" lon="4.5240106"><ele>877.0</ele><time>2026-04-19T08:23:17.012Z</time></trkpt><trkpt lat="45.5704571" lon="4.5241037"><ele>876.0000000000001</ele><time>2026-04-19T08:23:18.011Z</time></trkpt><trkpt lat="45.5705064" lon="4.5242029"><ele>875.0</ele><time>2026-04-19T08:23:19.012Z</time></trkpt><trkpt lat="45.570569" lon="4.5242885"><ele>874.0000000000001</ele><time>2026-04-19T08:23:20.011Z</time></trkpt><trkpt lat="45.5706076" lon="4.5243666"><ele>873.0</ele><time>2026-04-19T08:23:21.011Z</time></trkpt><trkpt lat="45.5706379" lon="4.5244734"><ele>872.0</ele><time>2026-04-19T08:23:22.011Z</time></trkpt><trkpt lat="45.5706696" lon="4.5246008"><ele>871.0</ele><time>2026-04-19T08:23:23.012Z</time></trkpt><trkpt lat="45.5707035" lon="4.5247312"><ele>870.0000000000001</ele><time>2026-04-19T08:23:24.011Z</time></trkpt><trkpt lat="45.5707379" lon="4.5248527"><ele>869.0</ele><time>2026-04-19T08:23:25.011Z</time></trkpt><trkpt lat="45.5707834" lon="4.5249548"><ele>869.0000000000001</ele><time>2026-04-19T08:23:26.012Z</time></trkpt><trkpt lat="45.5708352" lon="4.525035"><ele>869.0</ele><time>2026-04-19T08:23:27.011Z</time></trkpt><trkpt lat="45.5709079" lon="4.5251067"><ele>869.0</ele><time>2026-04-19T08:23:28.011Z</time></trkpt><trkpt lat="45.5709773" lon="4.5251838"><ele>869.0</ele><time>2026-04-19T08:23:29.011Z</time></trkpt><trkpt lat="45.5710476" lon="4.5252739"><ele>869.0000000000001</ele><time>2026-04-19T08:23:30.011Z</time></trkpt><trkpt lat="45.571114" lon="4.5253535"><ele>869.0</ele><time>2026-04-19T08:23:31.011Z</time></trkpt><trkpt lat="45.5711733" lon="4.5254648"><ele>869.6666666666667</ele><time>2026-04-19T08:23:33.012Z</time></trkpt><trkpt lat="45.5712161" lon="4.5255799"><ele>870.3333333333334</ele><time>2026-04-19T08:23:36.013Z</time></trkpt><trkpt lat="45.5712595" lon="4.5256649"><ele>871.0</ele><time>2026-04-19T08:23:38.012Z</time></trkpt><trkpt lat="45.5713287" lon="4.5257738"><ele>871.6666666666667</ele><time>2026-04-19T08:23:40.013Z</time></trkpt><trkpt lat="45.5713707" lon="4.5258551"><ele>872.3333333333334</ele><time>2026-04-19T08:23:41.011Z</time></trkpt><trkpt lat="45.5714215" lon="4.525938"><ele>873.0</ele><time>2026-04-19T08:23:42.012Z</time></trkpt><trkpt lat="45.5714676" lon="4.526017"><ele>873.0</ele><time>2026-04-19T08:23:43.012Z</time></trkpt><trkpt lat="45.5715268" lon="4.5261019"><ele>873.0</ele><time>2026-04-19T08:23:44.011Z</time></trkpt><trkpt lat="45.5715785" lon="4.5261989"><ele>873.0</ele><time>2026-04-19T08:23:45.012Z</time></trkpt><trkpt lat="45.5716241" lon="4.5262989"><ele>873.0</ele><time>2026-04-19T08:23:46.012Z</time></trkpt><trkpt lat="45.5716552" lon="4.5264108"><ele>873.0</ele><time>2026-04-19T08:23:47.011Z</time></trkpt><trkpt lat="45.5716832" lon="4.5265274"><ele>873.0</ele><time>2026-04-19T08:23:48.011Z</time></trkpt><trkpt lat="45.5717117" lon="4.5266384"><ele>873.1666666666666</ele><time>2026-04-19T08:23:49.011Z</time></trkpt><trkpt lat="45.5717395" lon="4.5267576"><ele>873.3333333333333</ele><time>2026-04-19T08:23:50.011Z</time></trkpt><trkpt lat="45.5717715" lon="4.5268786"><ele>873.5</ele><time>2026-04-19T08:23:51.012Z</time></trkpt><trkpt lat="45.5717994" lon="4.5269819"><ele>873.6666666666666</ele><time>2026-04-19T08:23:52.011Z</time></trkpt><trkpt lat="45.5718219" lon="4.5270851"><ele>873.8333333333333</ele><time>2026-04-19T08:23:53.011Z</time></trkpt><trkpt lat="45.571838" lon="4.5272028"><ele>874.0</ele><time>2026-04-19T08:23:54.012Z</time></trkpt><trkpt lat="45.5718549" lon="4.5273225"><ele>874.4999999999999</ele><time>2026-04-19T08:23:55.011Z</time></trkpt><trkpt lat="45.5718765" lon="4.52744"><ele>875.0</ele><time>2026-04-19T08:23:56.011Z</time></trkpt><trkpt lat="45.5719058" lon="4.5275413"><ele>875.5</ele><time>2026-04-19T08:23:57.011Z</time></trkpt><trkpt lat="45.5719366" lon="4.5276428"><ele>876.0</ele><time>2026-04-19T08:23:58.012Z</time></trkpt><trkpt lat="45.5719809" lon="4.5277376"><ele>876.4999999999999</ele><time>2026-04-19T08:23:59.011Z</time></trkpt><trkpt lat="45.5720181" lon="4.5278531"><ele>877.0</ele><time>2026-04-19T08:24:00.012Z</time></trkpt><trkpt lat="45.5720566" lon="4.5279774"><ele>876.9999999999999</ele><time>2026-04-19T08:24:01.011Z</time></trkpt><trkpt lat="45.5720971" lon="4.5281011"><ele>877.0</ele><time>2026-04-19T08:24:02.011Z</time></trkpt><trkpt lat="45.5721363" lon="4.528216"><ele>877.0</ele><time>2026-04-19T08:24:03.012Z</time></trkpt><trkpt lat="45.572175" lon="4.5283044"><ele>877.0</ele><time>2026-04-19T08:24:04.013Z</time></trkpt><trkpt lat="45.5722217" lon="4.5283803"><ele>876.9999999999999</ele><time>2026-04-19T08:24:05.012Z</time></trkpt><trkpt lat="45.5722936" lon="4.5285056"><ele>877.0</ele><time>2026-04-19T08:24:07.011Z</time></trkpt><trkpt lat="45.5723463" lon="4.5285788"><ele>876.9999999999999</ele><time>2026-04-19T08:24:08.011Z</time></trkpt><trkpt lat="45.5724096" lon="4.5286482"><ele>877.0</ele><time>2026-04-19T08:24:09.012Z</time></trkpt><trkpt lat="45.5724673" lon="4.5287267"><ele>877.0</ele><time>2026-04-19T08:24:10.012Z</time></trkpt><trkpt lat="45.5725613" lon="4.5287868"><ele>877.0</ele><time>2026-04-19T08:24:12.012Z</time></trkpt><trkpt lat="45.5726289" lon="4.5288713"><ele>876.9999999999999</ele><time>2026-04-19T08:24:14.011Z</time></trkpt><trkpt lat="45.5726698" lon="4.5289451"><ele>877.0</ele><time>2026-04-19T08:24:15.012Z</time></trkpt><trkpt lat="45.5727021" lon="4.5290481"><ele>876.0</ele><time>2026-04-19T08:24:16.011Z</time></trkpt><trkpt lat="45.5727316" lon="4.5291743"><ele>875.0</ele><time>2026-04-19T08:24:17.011Z</time></trkpt><trkpt lat="45.5727637" lon="4.5293177"><ele>874.0</ele><time>2026-04-19T08:24:18.011Z</time></trkpt><trkpt lat="45.5727951" lon="4.5294855"><ele>873.0</ele><time>2026-04-19T08:24:19.013Z</time></trkpt><trkpt lat="45.5728163" lon="4.5296696"><ele>874.75</ele><time>2026-04-19T08:24:20.011Z</time></trkpt><trkpt lat="45.5728291" lon="4.5298564"><ele>876.5</ele><time>2026-04-19T08:24:21.012Z</time></trkpt><trkpt lat="45.5728494" lon="4.53006"><ele>878.25</ele><time>2026-04-19T08:24:22.011Z</time></trkpt><trkpt lat="45.5728615" lon="4.5302649"><ele>880.0</ele><time>2026-04-19T08:24:23.012Z</time></trkpt><trkpt lat="45.5728757" lon="4.5304807"><ele>880.6666666666666</ele><time>2026-04-19T08:24:24.011Z</time></trkpt><trkpt lat="45.5728853" lon="4.5306946"><ele>881.3333333333333</ele><time>2026-04-19T08:24:25.011Z</time></trkpt><trkpt lat="45.5728875" lon="4.5309052"><ele>882.0</ele><time>2026-04-19T08:24:26.012Z</time></trkpt><trkpt lat="45.5728856" lon="4.5311231"><ele>881.6666666666667</ele><time>2026-04-19T08:24:27.011Z</time></trkpt><trkpt lat="45.5728829" lon="4.5313537"><ele>881.3333333333334</ele><time>2026-04-19T08:24:28.011Z</time></trkpt><trkpt lat="45.5728759" lon="4.5315845"><ele>881.0</ele><time>2026-04-19T08:24:29.012Z</time></trkpt><trkpt lat="45.5728669" lon="4.5318198"><ele>881.0</ele><time>2026-04-19T08:24:30.011Z</time></trkpt><trkpt lat="45.5728574" lon="4.5320546"><ele>881.0</ele><time>2026-04-19T08:24:31.011Z</time></trkpt><trkpt lat="45.5728509" lon="4.5322871"><ele>881.0</ele><time>2026-04-19T08:24:32.011Z</time></trkpt><trkpt lat="45.5728393" lon="4.5325176"><ele>876.6666666666667</ele><time>2026-04-19T08:24:33.013Z</time></trkpt><trkpt lat="45.5728196" lon="4.5327495"><ele>872.3333333333333</ele><time>2026-04-19T08:24:34.012Z</time></trkpt><trkpt lat="45.5727854" lon="4.5329738"><ele>868.0</ele><time>2026-04-19T08:24:35.011Z</time></trkpt><trkpt lat="45.5727497" lon="4.533175"><ele>868.0</ele><time>2026-04-19T08:24:36.012Z</time></trkpt><trkpt lat="45.5727202" lon="4.5333635"><ele>868.0</ele><time>2026-04-19T08:24:37.011Z</time></trkpt><trkpt lat="45.5727048" lon="4.5335368"><ele>868.0</ele><time>2026-04-19T08:24:38.011Z</time></trkpt><trkpt lat="45.5727028" lon="4.5336977"><ele>868.0</ele><time>2026-04-19T08:24:39.012Z</time></trkpt><trkpt lat="45.5727168" lon="4.5338494"><ele>867.8</ele><time>2026-04-19T08:24:40.012Z</time></trkpt><trkpt lat="45.5727423" lon="4.533993"><ele>867.5999999999999</ele><time>2026-04-19T08:24:41.011Z</time></trkpt><trkpt lat="45.5727681" lon="4.5341244"><ele>867.4000000000001</ele><time>2026-04-19T08:24:42.013Z</time></trkpt><trkpt lat="45.5727947" lon="4.5342499"><ele>867.2</ele><time>2026-04-19T08:24:43.011Z</time></trkpt><trkpt lat="45.5728195" lon="4.5343654"><ele>867.0</ele><time>2026-04-19T08:24:44.012Z</time></trkpt><trkpt lat="45.5728574" lon="4.534488"><ele>867.3333333333334</ele><time>2026-04-19T08:24:45.012Z</time></trkpt><trkpt lat="45.5729004" lon="4.5346079"><ele>867.6666666666667</ele><time>2026-04-19T08:24:46.012Z</time></trkpt><trkpt lat="45.5729509" lon="4.5347096"><ele>868.0</ele><time>2026-04-19T08:24:47.011Z</time></trkpt><trkpt lat="45.5730058" lon="4.5348009"><ele>868.3333333333334</ele><time>2026-04-19T08:24:48.013Z</time></trkpt><trkpt lat="45.5730522" lon="4.5348945"><ele>868.6666666666667</ele><time>2026-04-19T08:24:49.012Z</time></trkpt><trkpt lat="45.5730931" lon="4.5349952"><ele>869.0</ele><time>2026-04-19T08:24:50.013Z</time></trkpt><trkpt lat="45.5731338" lon="4.5351066"><ele>869.0</ele><time>2026-04-19T08:24:51.011Z</time></trkpt><trkpt lat="45.573182" lon="4.53522"><ele>869.0000000000001</ele><time>2026-04-19T08:24:52.011Z</time></trkpt><trkpt lat="45.573225" lon="4.5353374"><ele>869.0000000000001</ele><time>2026-04-19T08:24:53.011Z</time></trkpt><trkpt lat="45.5732598" lon="4.5354662"><ele>869.0</ele><time>2026-04-19T08:24:54.012Z</time></trkpt><trkpt lat="45.5732763" lon="4.5355963"><ele>869.0</ele><time>2026-04-19T08:24:55.013Z</time></trkpt><trkpt lat="45.5732912" lon="4.5357197"><ele>868.5000000000001</ele><time>2026-04-19T08:24:56.011Z</time></trkpt><trkpt lat="45.5733185" lon="4.5358331"><ele>868.0</ele><time>2026-04-19T08:24:57.012Z</time></trkpt><trkpt lat="45.5733526" lon="4.5359288"><ele>867.5</ele><time>2026-04-19T08:24:58.012Z</time></trkpt><trkpt lat="45.5733881" lon="4.5360156"><ele>867.0</ele><time>2026-04-19T08:24:59.013Z</time></trkpt><trkpt lat="45.5734415" lon="4.5361472"><ele>866.5000000000001</ele><time>2026-04-19T08:25:01.012Z</time></trkpt><trkpt lat="45.5734823" lon="4.5362219"><ele>866.0</ele><time>2026-04-19T08:25:04.011Z</time></trkpt><trkpt lat="45.5734396" lon="4.5361078"><ele>866.0</ele><time>2026-04-19T08:25:24.012Z</time></trkpt><trkpt lat="45.5733829" lon="4.5360324"><ele>865.9999999999999</ele><time>2026-04-19T08:25:25.012Z</time></trkpt><trkpt lat="45.5733339" lon="4.5358714"><ele>865.9999999999999</ele><time>2026-04-19T08:25:27.011Z</time></trkpt><trkpt lat="45.5732699" lon="4.5358295"><ele>866.0</ele><time>2026-04-19T08:25:29.011Z</time></trkpt><trkpt lat="45.5732448" lon="4.535985"><ele>866.0</ele><time>2026-04-19T08:25:31.011Z</time></trkpt><trkpt lat="45.5732268" lon="4.5360837"><ele>866.0000000000001</ele><time>2026-04-19T08:25:32.011Z</time></trkpt><trkpt lat="45.5731881" lon="4.5362224"><ele>866.0</ele><time>2026-04-19T08:25:33.012Z</time></trkpt><trkpt lat="45.5731544" lon="4.5363518"><ele>866.0</ele><time>2026-04-19T08:25:34.011Z</time></trkpt><trkpt lat="45.5731051" lon="4.5364447"><ele>866.0</ele><time>2026-04-19T08:25:35.011Z</time></trkpt><trkpt lat="45.5730757" lon="4.5365404"><ele>866.0000000000001</ele><time>2026-04-19T08:25:36.012Z</time></trkpt><trkpt lat="45.5730248" lon="4.5366176"><ele>866.0</ele><time>2026-04-19T08:25:37.012Z</time></trkpt><trkpt lat="45.5729878" lon="4.5367038"><ele>865.9999999999999</ele><time>2026-04-19T08:25:38.012Z</time></trkpt><trkpt lat="45.5729434" lon="4.5367872"><ele>866.0</ele><time>2026-04-19T08:25:39.012Z</time></trkpt><trkpt lat="45.5728945" lon="4.5368739"><ele>866.0</ele><time>2026-04-19T08:25:40.012Z</time></trkpt><trkpt lat="45.572852" lon="4.536957"><ele>866.0</ele><time>2026-04-19T08:25:41.011Z</time></trkpt><trkpt lat="45.5728139" lon="4.5370305"><ele>866.0</ele><time>2026-04-19T08:25:42.011Z</time></trkpt><trkpt lat="45.5727847" lon="4.5371162"><ele>865.9999999999999</ele><time>2026-04-19T08:25:43.013Z</time></trkpt><trkpt lat="45.5727641" lon="4.5372082"><ele>866.0</ele><time>2026-04-19T08:25:44.011Z</time></trkpt><trkpt lat="45.572745" lon="4.5372988"><ele>864.1666666666667</ele><time>2026-04-19T08:25:45.011Z</time></trkpt><trkpt lat="45.5727078" lon="4.5374502"><ele>862.3333333333334</ele><time>2026-04-19T08:25:47.011Z</time></trkpt><trkpt lat="45.5726885" lon="4.5375462"><ele>860.5</ele><time>2026-04-19T08:25:49.011Z</time></trkpt><trkpt lat="45.5727244" lon="4.5376495"><ele>858.6666666666667</ele><time>2026-04-19T08:28:46.013Z</time></trkpt><trkpt lat="45.5726892" lon="4.5375545"><ele>856.8333333333334</ele><time>2026-04-19T08:28:55.013Z</time></trkpt><trkpt lat="45.5726883" lon="4.5374576"><ele>855.0</ele><time>2026-04-19T08:28:56.013Z</time></trkpt><trkpt lat="45.5727337" lon="4.5372945"><ele>855.0</ele><time>2026-04-19T08:28:58.012Z</time></trkpt><trkpt lat="45.5727605" lon="4.5371975"><ele>855.0</ele><time>2026-04-19T08:28:59.011Z</time></trkpt><trkpt lat="45.5727857" lon="4.5371048"><ele>855.0</ele><time>2026-04-19T08:29:00.012Z</time></trkpt><trkpt lat="45.5728164" lon="4.5370183"><ele>855.0</ele><time>2026-04-19T08:29:01.012Z</time></trkpt><trkpt lat="45.5728595" lon="4.5369442"><ele>855.0</ele><time>2026-04-19T08:29:02.012Z</time></trkpt><trkpt lat="45.5729058" lon="4.5368621"><ele>855.0</ele><time>2026-04-19T08:29:03.014Z</time></trkpt><trkpt lat="45.5729481" lon="4.5367712"><ele>855.0</ele><time>2026-04-19T08:29:04.013Z</time></trkpt><trkpt lat="45.5729998" lon="4.5366778"><ele>856.8333333333334</ele><time>2026-04-19T08:29:05.012Z</time></trkpt><trkpt lat="45.5730448" lon="4.5365935"><ele>858.6666666666667</ele><time>2026-04-19T08:29:06.011Z</time></trkpt><trkpt lat="45.5730876" lon="4.5364951"><ele>860.5</ele><time>2026-04-19T08:29:07.012Z</time></trkpt><trkpt lat="45.5731335" lon="4.5363881"><ele>862.3333333333334</ele><time>2026-04-19T08:29:08.012Z</time></trkpt><trkpt lat="45.5731765" lon="4.5362627"><ele>864.1666666666667</ele><time>2026-04-19T08:29:09.012Z</time></trkpt><trkpt lat="45.5732139" lon="4.5361345"><ele>866.0</ele><time>2026-04-19T08:29:10.012Z</time></trkpt><trkpt lat="45.5732378" lon="4.5360075"><ele>865.9999999999999</ele><time>2026-04-19T08:29:11.012Z</time></trkpt><trkpt lat="45.5732531" lon="4.5359103"><ele>866.0</ele><time>2026-04-19T08:29:12.011Z</time></trkpt><trkpt lat="45.573295" lon="4.5358215"><ele>866.0</ele><time>2026-04-19T08:29:14.013Z</time></trkpt><trkpt lat="45.5732441" lon="4.5359469"><ele>866.0</ele><time>2026-04-19T08:29:19.012Z</time></trkpt><trkpt lat="45.5732397" lon="4.5360392"><ele>866.0</ele><time>2026-04-19T08:29:20.013Z</time></trkpt><trkpt lat="45.5732253" lon="4.5361284"><ele>865.9999999999999</ele><time>2026-04-19T08:29:21.011Z</time></trkpt><trkpt lat="45.5732116" lon="4.5362168"><ele>866.0</ele><time>2026-04-19T08:29:22.013Z</time></trkpt><trkpt lat="45.5731765" lon="4.5363028"><ele>866.0000000000001</ele><time>2026-04-19T08:29:23.012Z</time></trkpt><trkpt lat="45.5731399" lon="4.5364023"><ele>866.0</ele><time>2026-04-19T08:29:24.011Z</time></trkpt><trkpt lat="45.5730993" lon="4.5365029"><ele>866.0</ele><time>2026-04-19T08:29:25.012Z</time></trkpt><trkpt lat="45.5730561" lon="4.5366014"><ele>866.0</ele><time>2026-04-19T08:29:26.012Z</time></trkpt><trkpt lat="45.5730022" lon="4.5367036"><ele>866.0000000000001</ele><time>2026-04-19T08:29:27.012Z</time></trkpt><trkpt lat="45.5729492" lon="4.5368085"><ele>866.0</ele><time>2026-04-19T08:29:28.012Z</time></trkpt><trkpt lat="45.5728953" lon="4.5369139"><ele>864.6666666666667</ele><time>2026-04-19T08:29:29.012Z</time></trkpt><trkpt lat="45.5728478" lon="4.5370155"><ele>863.3333333333334</ele><time>2026-04-19T08:29:30.012Z</time></trkpt><trkpt lat="45.5728075" lon="4.5371181"><ele>862.0</ele><time>2026-04-19T08:29:31.013Z</time></trkpt><trkpt lat="45.5727777" lon="4.5372185"><ele>860.6666666666667</ele><time>2026-04-19T08:29:32.012Z</time></trkpt><trkpt lat="45.5727506" lon="4.5373055"><ele>859.3333333333334</ele><time>2026-04-19T08:29:33.013Z</time></trkpt><trkpt lat="45.5727083" lon="4.537447"><ele>858.0</ele><time>2026-04-19T08:29:35.012Z</time></trkpt><trkpt lat="45.5726976" lon="4.537543"><ele>857.5714285714286</ele><time>2026-04-19T08:29:37.011Z</time></trkpt><trkpt lat="45.5726973" lon="4.5376557"><ele>857.1428571428571</ele><time>2026-04-19T08:29:42.011Z</time></trkpt><trkpt lat="45.5726806" lon="4.5375595"><ele>856.7142857142858</ele><time>2026-04-19T08:29:56.012Z</time></trkpt><trkpt lat="45.5726924" lon="4.5376506"><ele>856.2857142857142</ele><time>2026-04-19T08:36:16.012Z</time></trkpt><trkpt lat="45.5726734" lon="4.5375637"><ele>855.8571428571428</ele><time>2026-04-19T08:36:49.013Z</time></trkpt><trkpt lat="45.5727014" lon="4.5376604"><ele>855.4285714285714</ele><time>2026-04-19T08:37:39.013Z</time></trkpt><trkpt lat="45.572674" lon="4.5375741"><ele>855.0</ele><time>2026-04-19T08:37:59.013Z</time></trkpt><trkpt lat="45.572707" lon="4.537668"><ele>855.0</ele><time>2026-04-19T08:44:30.012Z</time></trkpt><trkpt lat="45.5727652" lon="4.5377236"><ele>855.0</ele><time>2026-04-19T08:46:16.012Z</time></trkpt><trkpt lat="45.572889" lon="4.5377503"><ele>855.0</ele><time>2026-04-19T08:46:18.013Z</time></trkpt><trkpt lat="45.5729659" lon="4.5377748"><ele>855.0</ele><time>2026-04-19T08:46:19.012Z</time></trkpt><trkpt lat="45.5730498" lon="4.5378147"><ele>855.0</ele><time>2026-04-19T08:46:20.012Z</time></trkpt><trkpt lat="45.5731384" lon="4.5378676"><ele>857.2</ele><time>2026-04-19T08:46:21.013Z</time></trkpt><trkpt lat="45.5732028" lon="4.5379038"><ele>859.4</ele><time>2026-04-19T08:46:22.012Z</time></trkpt><trkpt lat="45.5733083" lon="4.5378534"><ele>861.5999999999999</ele><time>2026-04-19T08:46:24.013Z</time></trkpt><trkpt lat="45.5733809" lon="4.5378263"><ele>863.8</ele><time>2026-04-19T08:46:25.013Z</time></trkpt><trkpt lat="45.5734784" lon="4.5378165"><ele>866.0</ele><time>2026-04-19T08:46:26.012Z</time></trkpt><trkpt lat="45.5735857" lon="4.5377886"><ele>865.5</ele><time>2026-04-19T08:46:27.012Z</time></trkpt><trkpt lat="45.5737012" lon="4.5377634"><ele>865.0</ele><time>2026-04-19T08:46:28.013Z</time></trkpt><trkpt lat="45.5738207" lon="4.5377411"><ele>864.5</ele><time>2026-04-19T08:46:29.014Z</time></trkpt><trkpt lat="45.5739251" lon="4.5377147"><ele>864.0</ele><time>2026-04-19T08:46:30.013Z</time></trkpt><trkpt lat="45.5740394" lon="4.5377145"><ele>864.0</ele><time>2026-04-19T08:46:31.014Z</time></trkpt><trkpt lat="45.5741486" lon="4.5376989"><ele>864.0</ele><time>2026-04-19T08:46:32.015Z</time></trkpt><trkpt lat="45.5742394" lon="4.5376943"><ele>864.0</ele><time>2026-04-19T08:46:33.013Z</time></trkpt><trkpt lat="45.5743142" lon="4.5376882"><ele>864.0</ele><time>2026-04-19T08:46:34.014Z</time></trkpt><trkpt lat="45.5743799" lon="4.5376881"><ele>864.0</ele><time>2026-04-19T08:46:35.014Z</time></trkpt><trkpt lat="45.5744721" lon="4.5377012"><ele>864.0</ele><time>2026-04-19T08:46:37.013Z</time></trkpt><trkpt lat="45.5745345" lon="4.5377815"><ele>863.2</ele><time>2026-04-19T08:46:39.013Z</time></trkpt><trkpt lat="45.5745869" lon="4.5378583"><ele>862.4000000000001</ele><time>2026-04-19T08:46:40.013Z</time></trkpt><trkpt lat="45.5746504" lon="4.5379564"><ele>861.6</ele><time>2026-04-19T08:46:41.014Z</time></trkpt><trkpt lat="45.5747107" lon="4.5380757"><ele>860.8</ele><time>2026-04-19T08:46:42.013Z</time></trkpt><trkpt lat="45.5747747" lon="4.5382114"><ele>860.0</ele><time>2026-04-19T08:46:43.013Z</time></trkpt><trkpt lat="45.5748404" lon="4.5383525"><ele>859.75</ele><time>2026-04-19T08:46:44.014Z</time></trkpt><trkpt lat="45.5749248" lon="4.5384904"><ele>859.5</ele><time>2026-04-19T08:46:45.015Z</time></trkpt><trkpt lat="45.5749977" lon="4.5386143"><ele>859.25</ele><time>2026-04-19T08:46:46.013Z</time></trkpt><trkpt lat="45.5750722" lon="4.5387321"><ele>859.0</ele><time>2026-04-19T08:46:47.014Z</time></trkpt><trkpt lat="45.5751432" lon="4.5388651"><ele>859.0</ele><time>2026-04-19T08:46:48.015Z</time></trkpt><trkpt lat="45.575217" lon="4.5390123"><ele>859.0</ele><time>2026-04-19T08:46:49.013Z</time></trkpt><trkpt lat="45.5752936" lon="4.5391589"><ele>859.0</ele><time>2026-04-19T08:46:50.014Z</time></trkpt><trkpt lat="45.5753717" lon="4.5393105"><ele>859.0</ele><time>2026-04-19T08:46:51.014Z</time></trkpt><trkpt lat="45.5754439" lon="4.5394671"><ele>857.0</ele><time>2026-04-19T08:46:52.014Z</time></trkpt><trkpt lat="45.5755005" lon="4.5396369"><ele>855.0</ele><time>2026-04-19T08:46:53.013Z</time></trkpt><trkpt lat="45.5755663" lon="4.5398031"><ele>853.0</ele><time>2026-04-19T08:46:54.013Z</time></trkpt><trkpt lat="45.5756294" lon="4.5399768"><ele>851.0</ele><time>2026-04-19T08:46:55.013Z</time></trkpt><trkpt lat="45.5756832" lon="4.5401441"><ele>851.0</ele><time>2026-04-19T08:46:56.013Z</time></trkpt><trkpt lat="45.5757286" lon="4.5403084"><ele>851.0</ele><time>2026-04-19T08:46:57.013Z</time></trkpt><trkpt lat="45.575777" lon="4.540479"><ele>851.0</ele><time>2026-04-19T08:46:58.014Z</time></trkpt><trkpt lat="45.575812" lon="4.5406564"><ele>851.0</ele><time>2026-04-19T08:46:59.013Z</time></trkpt><trkpt lat="45.5758381" lon="4.5408268"><ele>851.75</ele><time>2026-04-19T08:47:00.013Z</time></trkpt><trkpt lat="45.5758744" lon="4.5409952"><ele>852.5</ele><time>2026-04-19T08:47:01.014Z</time></trkpt><trkpt lat="45.5759171" lon="4.5411621"><ele>853.25</ele><time>2026-04-19T08:47:02.013Z</time></trkpt><trkpt lat="45.575979" lon="4.54132"><ele>854.0</ele><time>2026-04-19T08:47:03.014Z</time></trkpt><trkpt lat="45.5760385" lon="4.5414632"><ele>854.4000000000001</ele><time>2026-04-19T08:47:04.014Z</time></trkpt><trkpt lat="45.5760949" lon="4.5415764"><ele>854.8000000000001</ele><time>2026-04-19T08:47:05.013Z</time></trkpt><trkpt lat="45.5761573" lon="4.5416631"><ele>855.1999999999999</ele><time>2026-04-19T08:47:06.014Z</time></trkpt><trkpt lat="45.5762297" lon="4.5417612"><ele>855.5999999999999</ele><time>2026-04-19T08:47:07.014Z</time></trkpt><trkpt lat="45.5763137" lon="4.5418636"><ele>856.0</ele><time>2026-04-19T08:47:08.013Z</time></trkpt><trkpt lat="45.576407" lon="4.5419714"><ele>855.25</ele><time>2026-04-19T08:47:09.013Z</time></trkpt><trkpt lat="45.5765095" lon="4.5420706"><ele>854.5</ele><time>2026-04-19T08:47:10.013Z</time></trkpt><trkpt lat="45.5766143" lon="4.5421547"><ele>853.75</ele><time>2026-04-19T08:47:11.013Z</time></trkpt><trkpt lat="45.5767167" lon="4.542241"><ele>853.0</ele><time>2026-04-19T08:47:12.014Z</time></trkpt><trkpt lat="45.5768251" lon="4.5423289"><ele>853.0</ele><time>2026-04-19T08:47:13.013Z</time></trkpt><trkpt lat="45.5769211" lon="4.5424335"><ele>853.0</ele><time>2026-04-19T08:47:14.013Z</time></trkpt><trkpt lat="45.5770135" lon="4.5425245"><ele>853.0</ele><time>2026-04-19T08:47:15.013Z</time></trkpt><trkpt lat="45.5771022" lon="4.5426198"><ele>853.0</ele><time>2026-04-19T08:47:16.014Z</time></trkpt><trkpt lat="45.5772038" lon="4.5427151"><ele>852.75</ele><time>2026-04-19T08:47:17.013Z</time></trkpt><trkpt lat="45.5773023" lon="4.5428141"><ele>852.5</ele><time>2026-04-19T08:47:18.013Z</time></trkpt><trkpt lat="45.5774045" lon="4.5429175"><ele>852.25</ele><time>2026-04-19T08:47:19.012Z</time></trkpt><trkpt lat="45.5774942" lon="4.5430125"><ele>852.0</ele><time>2026-04-19T08:47:20.014Z</time></trkpt><trkpt lat="45.5775687" lon="4.5431124"><ele>852.0</ele><time>2026-04-19T08:47:21.013Z</time></trkpt><trkpt lat="45.5776395" lon="4.5431864"><ele>852.0</ele><time>2026-04-19T08:47:22.013Z</time></trkpt><trkpt lat="45.5777243" lon="4.5432685"><ele>852.0</ele><time>2026-04-19T08:47:23.014Z</time></trkpt><trkpt lat="45.5778075" lon="4.5433793"><ele>852.0</ele><time>2026-04-19T08:47:24.012Z</time></trkpt><trkpt lat="45.5778915" lon="4.5434623"><ele>852.0</ele><time>2026-04-19T08:47:25.013Z</time></trkpt><trkpt lat="45.5779722" lon="4.5435361"><ele>851.6</ele><time>2026-04-19T08:47:26.014Z</time></trkpt><trkpt lat="45.5780506" lon="4.5436"><ele>851.2</ele><time>2026-04-19T08:47:27.014Z</time></trkpt><trkpt lat="45.578134" lon="4.5437013"><ele>850.8</ele><time>2026-04-19T08:47:28.012Z</time></trkpt><trkpt lat="45.5782151" lon="4.5437997"><ele>850.4</ele><time>2026-04-19T08:47:29.013Z</time></trkpt><trkpt lat="45.5782995" lon="4.543914"><ele>850.0</ele><time>2026-04-19T08:47:30.013Z</time></trkpt><trkpt lat="45.5783817" lon="4.5440135"><ele>850.0</ele><time>2026-04-19T08:47:31.013Z</time></trkpt><trkpt lat="45.5784521" lon="4.5441497"><ele>850.0</ele><time>2026-04-19T08:47:32.014Z</time></trkpt><trkpt lat="45.57852" lon="4.544265"><ele>850.0</ele><time>2026-04-19T08:47:33.013Z</time></trkpt><trkpt lat="45.5785816" lon="4.5443786"><ele>850.0</ele><time>2026-04-19T08:47:34.014Z</time></trkpt><trkpt lat="45.5786277" lon="4.5444804"><ele>850.0</ele><time>2026-04-19T08:47:35.014Z</time></trkpt><trkpt lat="45.5786748" lon="4.5445692"><ele>847.4999999999999</ele><time>2026-04-19T08:47:36.013Z</time></trkpt><trkpt lat="45.5787256" lon="4.5446448"><ele>845.0</ele><time>2026-04-19T08:47:37.013Z</time></trkpt><trkpt lat="45.5787707" lon="4.5447299"><ele>842.5</ele><time>2026-04-19T08:47:38.013Z</time></trkpt><trkpt lat="45.5788232" lon="4.5448365"><ele>840.0</ele><time>2026-04-19T08:47:39.013Z</time></trkpt><trkpt lat="45.5788612" lon="4.5449471"><ele>837.4999999999999</ele><time>2026-04-19T08:47:40.013Z</time></trkpt><trkpt lat="45.5788998" lon="4.5450285"><ele>835.0</ele><time>2026-04-19T08:47:41.013Z</time></trkpt><trkpt lat="45.5789244" lon="4.5451654"><ele>834.9999999999999</ele><time>2026-04-19T08:47:43.013Z</time></trkpt><trkpt lat="45.5789548" lon="4.5452476"><ele>835.0</ele><time>2026-04-19T08:48:14.013Z</time></trkpt><trkpt lat="45.5789889" lon="4.5454542"><ele>835.0</ele><time>2026-04-19T08:48:17.013Z</time></trkpt><trkpt lat="45.5790088" lon="4.5455646"><ele>835.0</ele><time>2026-04-19T08:48:18.014Z</time></trkpt><trkpt lat="45.579025" lon="4.5456604"><ele>834.9999999999999</ele><time>2026-04-19T08:48:19.013Z</time></trkpt><trkpt lat="45.5790372" lon="4.5457549"><ele>835.0</ele><time>2026-04-19T08:48:20.014Z</time></trkpt><trkpt lat="45.5790442" lon="4.5458567"><ele>835.4</ele><time>2026-04-19T08:48:21.013Z</time></trkpt><trkpt lat="45.5790798" lon="4.5460054"><ele>835.8</ele><time>2026-04-19T08:48:23.013Z</time></trkpt><trkpt lat="45.579023" lon="4.546074"><ele>836.2</ele><time>2026-04-19T08:48:26.014Z</time></trkpt><trkpt lat="45.57892" lon="4.546141"><ele>836.6</ele><time>2026-04-19T08:48:28.013Z</time></trkpt><trkpt lat="45.5788555" lon="4.5462321"><ele>837.0</ele><time>2026-04-19T08:48:30.013Z</time></trkpt><trkpt lat="45.5788543" lon="4.546378"><ele>837.0</ele><time>2026-04-19T08:48:32.012Z</time></trkpt><trkpt lat="45.5788277" lon="4.5464634"><ele>837.0</ele><time>2026-04-19T08:48:35.017Z</time></trkpt><trkpt lat="45.5787644" lon="4.546544"><ele>837.0</ele><time>2026-04-19T08:48:39.013Z</time></trkpt><trkpt lat="45.5787715" lon="4.5466413"><ele>837.0</ele><time>2026-04-19T08:48:43.013Z</time></trkpt><trkpt lat="45.5788366" lon="4.5467001"><ele>837.0</ele><time>2026-04-19T08:48:46.013Z</time></trkpt><trkpt lat="45.5788846" lon="4.5467596"><ele>837.0</ele><time>2026-04-19T08:48:48.013Z</time></trkpt><trkpt lat="45.5789381" lon="4.5468458"><ele>837.0</ele><time>2026-04-19T08:48:51.014Z</time></trkpt><trkpt lat="45.5789984" lon="4.5468835"><ele>837.0</ele><time>2026-04-19T08:48:56.013Z</time></trkpt><trkpt lat="45.5789649" lon="4.5470184"><ele>837.0</ele><time>2026-04-19T08:49:00.014Z</time></trkpt><trkpt lat="45.5789694" lon="4.5471348"><ele>837.0</ele><time>2026-04-19T08:49:01.014Z</time></trkpt><trkpt lat="45.5789635" lon="4.5472278"><ele>837.0</ele><time>2026-04-19T08:49:02.017Z</time></trkpt><trkpt lat="45.5789685" lon="4.5473441"><ele>837.0</ele><time>2026-04-19T08:49:03.013Z</time></trkpt><trkpt lat="45.57898" lon="4.5474724"><ele>837.0</ele><time>2026-04-19T08:49:04.013Z</time></trkpt><trkpt lat="45.5789826" lon="4.5475987"><ele>835.6</ele><time>2026-04-19T08:49:05.016Z</time></trkpt><trkpt lat="45.578976" lon="4.5477177"><ele>834.2</ele><time>2026-04-19T08:49:06.017Z</time></trkpt><trkpt lat="45.5789668" lon="4.5478449"><ele>832.8</ele><time>2026-04-19T08:49:07.013Z</time></trkpt><trkpt lat="45.5789652" lon="4.5479733"><ele>831.4</ele><time>2026-04-19T08:49:08.013Z</time></trkpt><trkpt lat="45.5789714" lon="4.5480772"><ele>830.0</ele><time>2026-04-19T08:49:09.013Z</time></trkpt><trkpt lat="45.5789765" lon="4.5482471"><ele>829.5000000000001</ele><time>2026-04-19T08:49:11.013Z</time></trkpt><trkpt lat="45.578994" lon="4.54839"><ele>829.0</ele><time>2026-04-19T08:49:13.013Z</time></trkpt><trkpt lat="45.5789874" lon="4.5485413"><ele>828.5</ele><time>2026-04-19T08:49:15.017Z</time></trkpt><trkpt lat="45.5789755" lon="4.5486302"><ele>828.0</ele><time>2026-04-19T08:49:16.014Z</time></trkpt><trkpt lat="45.5789714" lon="4.5487392"><ele>827.5000000000001</ele><time>2026-04-19T08:49:17.013Z</time></trkpt><trkpt lat="45.5789713" lon="4.5488617"><ele>827.0</ele><time>2026-04-19T08:49:18.014Z</time></trkpt><trkpt lat="45.5789591" lon="4.5489965"><ele>825.75</ele><time>2026-04-19T08:49:19.013Z</time></trkpt><trkpt lat="45.5789553" lon="4.5491552"><ele>824.5</ele><time>2026-04-19T08:49:20.015Z</time></trkpt><trkpt lat="45.5789439" lon="4.5493456"><ele>823.25</ele><time>2026-04-19T08:49:21.013Z</time></trkpt><trkpt lat="45.5789377" lon="4.5495165"><ele>822.0</ele><time>2026-04-19T08:49:22.013Z</time></trkpt><trkpt lat="45.5789235" lon="4.5496797"><ele>821.0</ele><time>2026-04-19T08:49:23.014Z</time></trkpt><trkpt lat="45.578894" lon="4.5498209"><ele>820.0</ele><time>2026-04-19T08:49:24.013Z</time></trkpt><trkpt lat="45.5788702" lon="4.5499663"><ele>819.0</ele><time>2026-04-19T08:49:25.013Z</time></trkpt><trkpt lat="45.5788332" lon="4.5501297"><ele>818.0</ele><time>2026-04-19T08:49:26.013Z</time></trkpt><trkpt lat="45.578792" lon="4.5502891"><ele>817.0</ele><time>2026-04-19T08:49:27.014Z</time></trkpt><trkpt lat="45.5787496" lon="4.5504432"><ele>816.4000000000001</ele><time>2026-04-19T08:49:28.014Z</time></trkpt><trkpt lat="45.5787113" lon="4.5505888"><ele>815.8000000000001</ele><time>2026-04-19T08:49:29.013Z</time></trkpt><trkpt lat="45.5786821" lon="4.5507091"><ele>815.2</ele><time>2026-04-19T08:49:30.014Z</time></trkpt><trkpt lat="45.5786579" lon="4.5508204"><ele>814.6</ele><time>2026-04-19T08:49:31.013Z</time></trkpt><trkpt lat="45.5786392" lon="4.5509311"><ele>814.0</ele><time>2026-04-19T08:49:32.013Z</time></trkpt><trkpt lat="45.5786093" lon="4.5510627"><ele>814.8333333333333</ele><time>2026-04-19T08:49:33.014Z</time></trkpt><trkpt lat="45.5785756" lon="4.5511969"><ele>815.6666666666666</ele><time>2026-04-19T08:49:34.012Z</time></trkpt><trkpt lat="45.5785662" lon="4.5513283"><ele>816.5</ele><time>2026-04-19T08:49:35.013Z</time></trkpt><trkpt lat="45.578557" lon="4.5514427"><ele>817.3333333333333</ele><time>2026-04-19T08:49:36.014Z</time></trkpt><trkpt lat="45.5785496" lon="4.5515481"><ele>818.1666666666666</ele><time>2026-04-19T08:49:37.013Z</time></trkpt><trkpt lat="45.5785436" lon="4.5516449"><ele>819.0</ele><time>2026-04-19T08:49:38.013Z</time></trkpt><trkpt lat="45.5785345" lon="4.5518227"><ele>819.0</ele><time>2026-04-19T08:49:40.014Z</time></trkpt><trkpt lat="45.5785344" lon="4.5519334"><ele>819.0</ele><time>2026-04-19T08:49:41.013Z</time></trkpt><trkpt lat="45.5785303" lon="4.5520407"><ele>819.0</ele><time>2026-04-19T08:49:42.013Z</time></trkpt><trkpt lat="45.5785211" lon="4.5521415"><ele>819.0</ele><time>2026-04-19T08:49:43.014Z</time></trkpt><trkpt lat="45.5784933" lon="4.5523043"><ele>819.0</ele><time>2026-04-19T08:49:45.013Z</time></trkpt><trkpt lat="45.5784798" lon="4.5524714"><ele>818.2857142857143</ele><time>2026-04-19T08:49:47.013Z</time></trkpt><trkpt lat="45.578488" lon="4.5525623"><ele>817.5714285714286</ele><time>2026-04-19T08:49:48.013Z</time></trkpt><trkpt lat="45.578497" lon="4.5526586"><ele>816.8571428571429</ele><time>2026-04-19T08:49:49.014Z</time></trkpt><trkpt lat="45.5785021" lon="4.55277"><ele>816.1428571428571</ele><time>2026-04-19T08:49:50.013Z</time></trkpt><trkpt lat="45.5785106" lon="4.552882"><ele>815.4285714285714</ele><time>2026-04-19T08:49:51.014Z</time></trkpt><trkpt lat="45.5785293" lon="4.5529943"><ele>814.7142857142858</ele><time>2026-04-19T08:49:52.014Z</time></trkpt><trkpt lat="45.5785373" lon="4.553103"><ele>814.0</ele><time>2026-04-19T08:49:53.013Z</time></trkpt><trkpt lat="45.5785459" lon="4.5532077"><ele>813.1666666666666</ele><time>2026-04-19T08:49:54.013Z</time></trkpt><trkpt lat="45.5785553" lon="4.5533088"><ele>812.3333333333333</ele><time>2026-04-19T08:49:55.013Z</time></trkpt><trkpt lat="45.5785728" lon="4.5534055"><ele>811.5</ele><time>2026-04-19T08:49:56.013Z</time></trkpt><trkpt lat="45.5786095" lon="4.5535616"><ele>810.6666666666667</ele><time>2026-04-19T08:49:58.013Z</time></trkpt><trkpt lat="45.5786328" lon="4.5536474"><ele>809.8333333333334</ele><time>2026-04-19T08:49:59.012Z</time></trkpt><trkpt lat="45.5786568" lon="4.5537416"><ele>809.0</ele><time>2026-04-19T08:50:00.012Z</time></trkpt><trkpt lat="45.5786837" lon="4.5538268"><ele>808.5000000000001</ele><time>2026-04-19T08:50:01.013Z</time></trkpt><trkpt lat="45.5787343" lon="4.553991"><ele>808.0</ele><time>2026-04-19T08:50:03.013Z</time></trkpt><trkpt lat="45.5787687" lon="4.5540725"><ele>807.5</ele><time>2026-04-19T08:50:04.012Z</time></trkpt><trkpt lat="45.5788445" lon="4.5542085"><ele>807.0</ele><time>2026-04-19T08:50:06.014Z</time></trkpt><trkpt lat="45.5788871" lon="4.5542829"><ele>806.5000000000001</ele><time>2026-04-19T08:50:07.013Z</time></trkpt><trkpt lat="45.5789303" lon="4.5543563"><ele>806.0</ele><time>2026-04-19T08:50:08.014Z</time></trkpt><trkpt lat="45.578977" lon="4.554439"><ele>806.0</ele><time>2026-04-19T08:50:09.013Z</time></trkpt><trkpt lat="45.579016" lon="4.5545374"><ele>806.0</ele><time>2026-04-19T08:50:10.013Z</time></trkpt><trkpt lat="45.5790462" lon="4.5546388"><ele>806.0</ele><time>2026-04-19T08:50:11.015Z</time></trkpt><trkpt lat="45.5790594" lon="4.5547894"><ele>806.0</ele><time>2026-04-19T08:50:12.013Z</time></trkpt><trkpt lat="45.5790779" lon="4.5549424"><ele>806.0</ele><time>2026-04-19T08:50:13.013Z</time></trkpt><trkpt lat="45.5790994" lon="4.5550629"><ele>806.3333333333334</ele><time>2026-04-19T08:50:14.013Z</time></trkpt><trkpt lat="45.5791209" lon="4.5551519"><ele>806.6666666666667</ele><time>2026-04-19T08:50:15.014Z</time></trkpt><trkpt lat="45.5791404" lon="4.5552852"><ele>807.0</ele><time>2026-04-19T08:50:17.013Z</time></trkpt><trkpt lat="45.579151" lon="4.5554229"><ele>807.3333333333333</ele><time>2026-04-19T08:50:29.013Z</time></trkpt><trkpt lat="45.579165" lon="4.5555109"><ele>807.6666666666666</ele><time>2026-04-19T08:50:30.014Z</time></trkpt><trkpt lat="45.5791786" lon="4.555634"><ele>808.0</ele><time>2026-04-19T08:50:31.014Z</time></trkpt><trkpt lat="45.5792068" lon="4.5557765"><ele>807.2</ele><time>2026-04-19T08:50:32.013Z</time></trkpt><trkpt lat="45.5792514" lon="4.5559103"><ele>806.4</ele><time>2026-04-19T08:50:33.013Z</time></trkpt><trkpt lat="45.5792921" lon="4.556051"><ele>805.6</ele><time>2026-04-19T08:50:34.013Z</time></trkpt><trkpt lat="45.5793311" lon="4.5562066"><ele>804.8000000000001</ele><time>2026-04-19T08:50:35.013Z</time></trkpt><trkpt lat="45.5793719" lon="4.5563595"><ele>804.0</ele><time>2026-04-19T08:50:36.013Z</time></trkpt><trkpt lat="45.5794124" lon="4.5565173"><ele>804.0</ele><time>2026-04-19T08:50:37.014Z</time></trkpt><trkpt lat="45.5794641" lon="4.5566734"><ele>804.0</ele><time>2026-04-19T08:50:38.014Z</time></trkpt><trkpt lat="45.5795222" lon="4.5568326"><ele>804.0</ele><time>2026-04-19T08:50:39.013Z</time></trkpt><trkpt lat="45.5795696" lon="4.5569877"><ele>804.0</ele><time>2026-04-19T08:50:40.013Z</time></trkpt><trkpt lat="45.579618" lon="4.5571458"><ele>805.25</ele><time>2026-04-19T08:50:41.013Z</time></trkpt><trkpt lat="45.5796558" lon="4.5573074"><ele>806.5</ele><time>2026-04-19T08:50:42.014Z</time></trkpt><trkpt lat="45.5796944" lon="4.5574706"><ele>807.75</ele><time>2026-04-19T08:50:43.014Z</time></trkpt><trkpt lat="45.5797316" lon="4.5576358"><ele>809.0</ele><time>2026-04-19T08:50:44.012Z</time></trkpt><trkpt lat="45.5797759" lon="4.557791"><ele>810.0</ele><time>2026-04-19T08:50:45.013Z</time></trkpt><trkpt lat="45.5798142" lon="4.5579535"><ele>811.0</ele><time>2026-04-19T08:50:46.014Z</time></trkpt><trkpt lat="45.5798489" lon="4.5581095"><ele>812.0</ele><time>2026-04-19T08:50:47.013Z</time></trkpt><trkpt lat="45.5798723" lon="4.5582708"><ele>813.0</ele><time>2026-04-19T08:50:48.013Z</time></trkpt><trkpt lat="45.5798831" lon="4.5584286"><ele>813.0</ele><time>2026-04-19T08:50:49.013Z</time></trkpt><trkpt lat="45.5798883" lon="4.5585855"><ele>813.0</ele><time>2026-04-19T08:50:50.013Z</time></trkpt><trkpt lat="45.5799042" lon="4.5587035"><ele>813.0</ele><time>2026-04-19T08:50:51.013Z</time></trkpt><trkpt lat="45.5799296" lon="4.5587953"><ele>813.0</ele><time>2026-04-19T08:50:52.015Z</time></trkpt><trkpt lat="45.5800082" lon="4.5589335"><ele>813.0</ele><time>2026-04-19T08:50:54.013Z</time></trkpt><trkpt lat="45.5800564" lon="4.5590995"><ele>813.8333333333334</ele><time>2026-04-19T08:50:56.013Z</time></trkpt><trkpt lat="45.5800935" lon="4.5592558"><ele>814.6666666666667</ele><time>2026-04-19T08:50:58.014Z</time></trkpt><trkpt lat="45.5801393" lon="4.5593709"><ele>815.5</ele><time>2026-04-19T08:51:00.013Z</time></trkpt><trkpt lat="45.5801555" lon="4.5594588"><ele>816.3333333333334</ele><time>2026-04-19T08:51:02.013Z</time></trkpt><trkpt lat="45.5801711" lon="4.5595832"><ele>817.1666666666667</ele><time>2026-04-19T08:51:05.014Z</time></trkpt><trkpt lat="45.5801832" lon="4.5596745"><ele>818.0</ele><time>2026-04-19T08:51:07.014Z</time></trkpt><trkpt lat="45.5801988" lon="4.5597748"><ele>818.5000000000001</ele><time>2026-04-19T08:51:09.013Z</time></trkpt><trkpt lat="45.5802272" lon="4.5598677"><ele>819.0</ele><time>2026-04-19T08:51:11.013Z</time></trkpt><trkpt lat="45.5802657" lon="4.5599733"><ele>819.5</ele><time>2026-04-19T08:51:13.013Z</time></trkpt><trkpt lat="45.5803078" lon="4.5601005"><ele>820.0</ele><time>2026-04-19T08:51:15.014Z</time></trkpt><trkpt lat="45.5803353" lon="4.5602155"><ele>820.5000000000001</ele><time>2026-04-19T08:51:17.013Z</time></trkpt><trkpt lat="45.5803708" lon="4.5603383"><ele>821.0</ele><time>2026-04-19T08:51:19.012Z</time></trkpt><trkpt lat="45.580415" lon="4.5604963"><ele>821.1666666666667</ele><time>2026-04-19T08:51:21.013Z</time></trkpt><trkpt lat="45.5804299" lon="4.5605871"><ele>821.3333333333334</ele><time>2026-04-19T08:51:22.013Z</time></trkpt><trkpt lat="45.5804375" lon="4.5607191"><ele>821.5</ele><time>2026-04-19T08:51:23.013Z</time></trkpt><trkpt lat="45.5804395" lon="4.5608276"><ele>821.6666666666667</ele><time>2026-04-19T08:51:24.014Z</time></trkpt><trkpt lat="45.580436" lon="4.5609414"><ele>821.8333333333334</ele><time>2026-04-19T08:51:25.014Z</time></trkpt><trkpt lat="45.58043" lon="4.5610461"><ele>822.0</ele><time>2026-04-19T08:51:26.013Z</time></trkpt><trkpt lat="45.5804148" lon="4.561142"><ele>823.1666666666666</ele><time>2026-04-19T08:51:27.014Z</time></trkpt><trkpt lat="45.5803974" lon="4.5612403"><ele>824.3333333333333</ele><time>2026-04-19T08:51:28.013Z</time></trkpt><trkpt lat="45.5803923" lon="4.5613522"><ele>825.5</ele><time>2026-04-19T08:51:29.013Z</time></trkpt><trkpt lat="45.5803951" lon="4.5614696"><ele>826.6666666666666</ele><time>2026-04-19T08:51:30.013Z</time></trkpt><trkpt lat="45.5804159" lon="4.561618"><ele>827.8333333333333</ele><time>2026-04-19T08:51:31.013Z</time></trkpt><trkpt lat="45.5804424" lon="4.5617706"><ele>829.0</ele><time>2026-04-19T08:51:32.013Z</time></trkpt><trkpt lat="45.5804698" lon="4.5619017"><ele>829.0</ele><time>2026-04-19T08:51:33.014Z</time></trkpt><trkpt lat="45.580504" lon="4.5620088"><ele>829.0</ele><time>2026-04-19T08:51:34.013Z</time></trkpt><trkpt lat="45.5805629" lon="4.5621219"><ele>829.0</ele><time>2026-04-19T08:51:36.013Z</time></trkpt><trkpt lat="45.580608" lon="4.5622465"><ele>829.0</ele><time>2026-04-19T08:51:38.014Z</time></trkpt><trkpt lat="45.5806411" lon="4.5623413"><ele>829.0</ele><time>2026-04-19T08:51:39.014Z</time></trkpt><trkpt lat="45.5806901" lon="4.5624596"><ele>829.2</ele><time>2026-04-19T08:51:40.015Z</time></trkpt><trkpt lat="45.5807567" lon="4.5625879"><ele>829.4000000000001</ele><time>2026-04-19T08:51:41.013Z</time></trkpt><trkpt lat="45.5808255" lon="4.5627214"><ele>829.6</ele><time>2026-04-19T08:51:42.015Z</time></trkpt><trkpt lat="45.5808854" lon="4.5628524"><ele>829.8</ele><time>2026-04-19T08:51:43.014Z</time></trkpt><trkpt lat="45.5809411" lon="4.5629642"><ele>830.0</ele><time>2026-04-19T08:51:44.014Z</time></trkpt><trkpt lat="45.5809856" lon="4.5630802"><ele>830.0</ele><time>2026-04-19T08:51:45.015Z</time></trkpt><trkpt lat="45.5810249" lon="4.5632091"><ele>830.0</ele><time>2026-04-19T08:51:46.014Z</time></trkpt><trkpt lat="45.5810726" lon="4.5633386"><ele>830.0</ele><time>2026-04-19T08:51:47.013Z</time></trkpt><trkpt lat="45.5811137" lon="4.5634624"><ele>830.0</ele><time>2026-04-19T08:51:48.014Z</time></trkpt><trkpt lat="45.5811535" lon="4.5635762"><ele>830.0</ele><time>2026-04-19T08:51:49.013Z</time></trkpt><trkpt lat="45.58119" lon="4.5636782"><ele>829.6</ele><time>2026-04-19T08:51:50.014Z</time></trkpt><trkpt lat="45.5812394" lon="4.5637772"><ele>829.2</ele><time>2026-04-19T08:51:51.013Z</time></trkpt><trkpt lat="45.5813429" lon="4.5638856"><ele>828.8</ele><time>2026-04-19T08:51:53.014Z</time></trkpt><trkpt lat="45.5814184" lon="4.5638985"><ele>828.4</ele><time>2026-04-19T08:51:54.014Z</time></trkpt><trkpt lat="45.5815266" lon="4.5639361"><ele>828.0</ele><time>2026-04-19T08:51:56.013Z</time></trkpt><trkpt lat="45.5816292" lon="4.5640366"><ele>828.0</ele><time>2026-04-19T08:51:58.013Z</time></trkpt><trkpt lat="45.5816762" lon="4.5641086"><ele>828.0</ele><time>2026-04-19T08:51:59.013Z</time></trkpt><trkpt lat="45.5817289" lon="4.5641882"><ele>828.0</ele><time>2026-04-19T08:52:00.013Z</time></trkpt><trkpt lat="45.581759" lon="4.5642923"><ele>828.0</ele><time>2026-04-19T08:52:01.013Z</time></trkpt><trkpt lat="45.5818073" lon="4.5643984"><ele>828.0</ele><time>2026-04-19T08:52:02.012Z</time></trkpt><trkpt lat="45.5818659" lon="4.5645035"><ele>828.0</ele><time>2026-04-19T08:52:03.013Z</time></trkpt><trkpt lat="45.5819452" lon="4.5645604"><ele>827.3333333333334</ele><time>2026-04-19T08:52:04.014Z</time></trkpt><trkpt lat="45.5820318" lon="4.5646222"><ele>826.6666666666667</ele><time>2026-04-19T08:52:05.014Z</time></trkpt><trkpt lat="45.5820976" lon="4.5647023"><ele>826.0</ele><time>2026-04-19T08:52:06.014Z</time></trkpt><trkpt lat="45.5821457" lon="4.5647867"><ele>825.3333333333334</ele><time>2026-04-19T08:52:07.013Z</time></trkpt><trkpt lat="45.5821887" lon="4.5648813"><ele>824.6666666666667</ele><time>2026-04-19T08:52:08.013Z</time></trkpt><trkpt lat="45.5822373" lon="4.5650117"><ele>824.0</ele><time>2026-04-19T08:52:09.013Z</time></trkpt><trkpt lat="45.5822841" lon="4.5651253"><ele>824.0000000000001</ele><time>2026-04-19T08:52:10.014Z</time></trkpt><trkpt lat="45.5823387" lon="4.5652422"><ele>824.0</ele><time>2026-04-19T08:52:11.013Z</time></trkpt><trkpt lat="45.5823831" lon="4.5653454"><ele>824.0</ele><time>2026-04-19T08:52:12.014Z</time></trkpt><trkpt lat="45.5824428" lon="4.5654328"><ele>824.0</ele><time>2026-04-19T08:52:13.014Z</time></trkpt><trkpt lat="45.5825018" lon="4.5655234"><ele>824.0000000000001</ele><time>2026-04-19T08:52:14.013Z</time></trkpt><trkpt lat="45.5825651" lon="4.5656096"><ele>824.0</ele><time>2026-04-19T08:52:15.014Z</time></trkpt><trkpt lat="45.5826138" lon="4.565686"><ele>823.1666666666667</ele><time>2026-04-19T08:52:16.013Z</time></trkpt><trkpt lat="45.582651" lon="4.5657644"><ele>822.3333333333334</ele><time>2026-04-19T08:52:17.012Z</time></trkpt><trkpt lat="45.5826932" lon="4.5658453"><ele>821.5</ele><time>2026-04-19T08:52:18.014Z</time></trkpt><trkpt lat="45.5827378" lon="4.5659273"><ele>820.6666666666667</ele><time>2026-04-19T08:52:19.013Z</time></trkpt><trkpt lat="45.5828192" lon="4.5660522"><ele>819.8333333333334</ele><time>2026-04-19T08:52:21.013Z</time></trkpt><trkpt lat="45.5828884" lon="4.5661496"><ele>819.0</ele><time>2026-04-19T08:52:23.015Z</time></trkpt><trkpt lat="45.582957" lon="4.5662485"><ele>817.6</ele><time>2026-04-19T08:52:25.013Z</time></trkpt><trkpt lat="45.5830105" lon="4.5663527"><ele>816.2</ele><time>2026-04-19T08:52:27.013Z</time></trkpt><trkpt lat="45.5830752" lon="4.5664304"><ele>814.8000000000001</ele><time>2026-04-19T08:52:29.013Z</time></trkpt><trkpt lat="45.5831428" lon="4.5665308"><ele>813.4000000000001</ele><time>2026-04-19T08:52:31.013Z</time></trkpt><trkpt lat="45.5831955" lon="4.5666289"><ele>812.0</ele><time>2026-04-19T08:52:33.014Z</time></trkpt><trkpt lat="45.5832823" lon="4.5667363"><ele>812.0000000000001</ele><time>2026-04-19T08:52:35.013Z</time></trkpt><trkpt lat="45.5833615" lon="4.5668224"><ele>812.0</ele><time>2026-04-19T08:52:37.013Z</time></trkpt><trkpt lat="45.5834181" lon="4.5668851"><ele>812.0</ele><time>2026-04-19T08:52:39.013Z</time></trkpt><trkpt lat="45.5834777" lon="4.5669633"><ele>812.0</ele><time>2026-04-19T08:52:41.013Z</time></trkpt><trkpt lat="45.583553" lon="4.5670751"><ele>812.0000000000001</ele><time>2026-04-19T08:52:43.013Z</time></trkpt><trkpt lat="45.5835851" lon="4.567173"><ele>812.0</ele><time>2026-04-19T08:52:44.013Z</time></trkpt><trkpt lat="45.5836247" lon="4.567277"><ele>810.5000000000001</ele><time>2026-04-19T08:52:45.014Z</time></trkpt><trkpt lat="45.5836661" lon="4.5673744"><ele>809.0</ele><time>2026-04-19T08:52:46.013Z</time></trkpt><trkpt lat="45.5837044" lon="4.5674706"><ele>807.5</ele><time>2026-04-19T08:52:47.013Z</time></trkpt><trkpt lat="45.5837331" lon="4.5675696"><ele>806.0</ele><time>2026-04-19T08:52:48.013Z</time></trkpt><trkpt lat="45.5837377" lon="4.5676724"><ele>804.5000000000001</ele><time>2026-04-19T08:52:49.014Z</time></trkpt><trkpt lat="45.5837343" lon="4.5677765"><ele>803.0</ele><time>2026-04-19T08:52:50.013Z</time></trkpt><trkpt lat="45.5837148" lon="4.5678803"><ele>802.0</ele><time>2026-04-19T08:52:51.013Z</time></trkpt><trkpt lat="45.5836818" lon="4.5679714"><ele>801.0</ele><time>2026-04-19T08:52:52.013Z</time></trkpt><trkpt lat="45.5836568" lon="4.5680588"><ele>800.0</ele><time>2026-04-19T08:52:53.013Z</time></trkpt><trkpt lat="45.5836545" lon="4.5682253"><ele>799.0</ele><time>2026-04-19T08:52:55.014Z</time></trkpt><trkpt lat="45.5836711" lon="4.5683959"><ele>798.0</ele><time>2026-04-19T08:52:57.014Z</time></trkpt><trkpt lat="45.5837509" lon="4.5685227"><ele>798.0</ele><time>2026-04-19T08:52:59.013Z</time></trkpt><trkpt lat="45.5838219" lon="4.5685674"><ele>798.0</ele><time>2026-04-19T08:53:00.013Z</time></trkpt><trkpt lat="45.5839035" lon="4.5686179"><ele>798.0</ele><time>2026-04-19T08:53:01.013Z</time></trkpt><trkpt lat="45.5839815" lon="4.5686642"><ele>798.0</ele><time>2026-04-19T08:53:02.013Z</time></trkpt><trkpt lat="45.5840524" lon="4.5687139"><ele>798.0</ele><time>2026-04-19T08:53:03.013Z</time></trkpt><trkpt lat="45.5841261" lon="4.568768"><ele>798.0</ele><time>2026-04-19T08:53:04.013Z</time></trkpt><trkpt lat="45.5841996" lon="4.5688335"><ele>798.3333333333334</ele><time>2026-04-19T08:53:05.014Z</time></trkpt><trkpt lat="45.5842695" lon="4.5688967"><ele>798.6666666666667</ele><time>2026-04-19T08:53:06.013Z</time></trkpt><trkpt lat="45.5843473" lon="4.5689697"><ele>799.0</ele><time>2026-04-19T08:53:07.014Z</time></trkpt><trkpt lat="45.5844118" lon="4.5690582"><ele>799.3333333333334</ele><time>2026-04-19T08:53:08.014Z</time></trkpt><trkpt lat="45.5844745" lon="4.569157"><ele>799.6666666666667</ele><time>2026-04-19T08:53:09.013Z</time></trkpt><trkpt lat="45.5845231" lon="4.5692377"><ele>800.0</ele><time>2026-04-19T08:53:10.013Z</time></trkpt><trkpt lat="45.5845828" lon="4.5692907"><ele>801.1666666666667</ele><time>2026-04-19T08:53:11.013Z</time></trkpt><trkpt lat="45.5846527" lon="4.5693226"><ele>802.3333333333334</ele><time>2026-04-19T08:53:12.013Z</time></trkpt><trkpt lat="45.5847361" lon="4.5693185"><ele>803.5</ele><time>2026-04-19T08:53:13.013Z</time></trkpt><trkpt lat="45.5848185" lon="4.5693195"><ele>804.6666666666667</ele><time>2026-04-19T08:53:14.014Z</time></trkpt><trkpt lat="45.5848781" lon="4.5693636"><ele>805.8333333333334</ele><time>2026-04-19T08:53:15.013Z</time></trkpt><trkpt lat="45.5849402" lon="4.5694232"><ele>807.0</ele><time>2026-04-19T08:53:16.014Z</time></trkpt><trkpt lat="45.5850127" lon="4.5694931"><ele>806.8333333333334</ele><time>2026-04-19T08:53:17.014Z</time></trkpt><trkpt lat="45.5850812" lon="4.5695419"><ele>806.6666666666667</ele><time>2026-04-19T08:53:18.014Z</time></trkpt><trkpt lat="45.5851477" lon="4.5695898"><ele>806.5</ele><time>2026-04-19T08:53:19.013Z</time></trkpt><trkpt lat="45.5852198" lon="4.569654"><ele>806.3333333333334</ele><time>2026-04-19T08:53:20.014Z</time></trkpt><trkpt lat="45.5852936" lon="4.5697213"><ele>806.1666666666667</ele><time>2026-04-19T08:53:21.013Z</time></trkpt><trkpt lat="45.5853736" lon="4.5697916"><ele>806.0</ele><time>2026-04-19T08:53:22.014Z</time></trkpt><trkpt lat="45.5854649" lon="4.5698569"><ele>808.3333333333334</ele><time>2026-04-19T08:53:23.015Z</time></trkpt><trkpt lat="45.5855416" lon="4.569899"><ele>810.6666666666667</ele><time>2026-04-19T08:53:24.013Z</time></trkpt><trkpt lat="45.5856048" lon="4.5699374"><ele>813.0</ele><time>2026-04-19T08:53:25.013Z</time></trkpt><trkpt lat="45.585663" lon="4.5699894"><ele>815.3333333333333</ele><time>2026-04-19T08:53:26.013Z</time></trkpt><trkpt lat="45.5857189" lon="4.5700775"><ele>817.6666666666666</ele><time>2026-04-19T08:53:27.015Z</time></trkpt><trkpt lat="45.5857762" lon="4.5701719"><ele>820.0</ele><time>2026-04-19T08:53:28.014Z</time></trkpt><trkpt lat="45.5858296" lon="4.57026"><ele>820.0</ele><time>2026-04-19T08:53:29.013Z</time></trkpt><trkpt lat="45.5858747" lon="4.5703574"><ele>820.0</ele><time>2026-04-19T08:53:30.014Z</time></trkpt><trkpt lat="45.5859168" lon="4.5704699"><ele>820.0</ele><time>2026-04-19T08:53:31.013Z</time></trkpt><trkpt lat="45.5859631" lon="4.5705783"><ele>820.0</ele><time>2026-04-19T08:53:32.015Z</time></trkpt><trkpt lat="45.5860172" lon="4.5707072"><ele>820.0</ele><time>2026-04-19T08:53:33.014Z</time></trkpt><trkpt lat="45.5860734" lon="4.5708394"><ele>819.6666666666666</ele><time>2026-04-19T08:53:34.014Z</time></trkpt><trkpt lat="45.5861332" lon="4.5709481"><ele>819.3333333333333</ele><time>2026-04-19T08:53:35.013Z</time></trkpt><trkpt lat="45.5861787" lon="4.5710609"><ele>819.0</ele><time>2026-04-19T08:53:36.014Z</time></trkpt><trkpt lat="45.5862241" lon="4.5711534"><ele>818.6666666666667</ele><time>2026-04-19T08:53:37.013Z</time></trkpt><trkpt lat="45.586268" lon="4.571244"><ele>818.3333333333334</ele><time>2026-04-19T08:53:38.013Z</time></trkpt><trkpt lat="45.5863199" lon="4.571335"><ele>818.0</ele><time>2026-04-19T08:53:39.015Z</time></trkpt><trkpt lat="45.5863768" lon="4.5714211"><ele>818.0000000000001</ele><time>2026-04-19T08:53:40.014Z</time></trkpt><trkpt lat="45.5864362" lon="4.5715019"><ele>818.0</ele><time>2026-04-19T08:53:41.013Z</time></trkpt><trkpt lat="45.5864905" lon="4.5715887"><ele>818.0</ele><time>2026-04-19T08:53:42.015Z</time></trkpt><trkpt lat="45.5865481" lon="4.5716711"><ele>818.0</ele><time>2026-04-19T08:53:43.013Z</time></trkpt><trkpt lat="45.586609" lon="4.5717524"><ele>818.0000000000001</ele><time>2026-04-19T08:53:44.014Z</time></trkpt><trkpt lat="45.5866608" lon="4.5718348"><ele>818.0</ele><time>2026-04-19T08:53:45.014Z</time></trkpt><trkpt lat="45.5867205" lon="4.5719114"><ele>818.0</ele><time>2026-04-19T08:53:46.013Z</time></trkpt><trkpt lat="45.5867888" lon="4.5720023"><ele>818.0</ele><time>2026-04-19T08:53:47.014Z</time></trkpt><trkpt lat="45.5868574" lon="4.5720908"><ele>818.0</ele><time>2026-04-19T08:53:48.014Z</time></trkpt><trkpt lat="45.5869332" lon="4.572191"><ele>818.0</ele><time>2026-04-19T08:53:49.014Z</time></trkpt><trkpt lat="45.5870056" lon="4.572261"><ele>818.0</ele><time>2026-04-19T08:53:50.013Z</time></trkpt><trkpt lat="45.5870835" lon="4.5723294"><ele>817.3333333333334</ele><time>2026-04-19T08:53:51.013Z</time></trkpt><trkpt lat="45.5871579" lon="4.5723933"><ele>816.6666666666667</ele><time>2026-04-19T08:53:52.014Z</time></trkpt><trkpt lat="45.5872445" lon="4.5724457"><ele>816.0</ele><time>2026-04-19T08:53:53.014Z</time></trkpt><trkpt lat="45.5873231" lon="4.5724917"><ele>815.3333333333333</ele><time>2026-04-19T08:53:54.013Z</time></trkpt><trkpt lat="45.5873926" lon="4.5725324"><ele>814.6666666666666</ele><time>2026-04-19T08:53:55.013Z</time></trkpt><trkpt lat="45.5874664" lon="4.5725587"><ele>814.0</ele><time>2026-04-19T08:53:56.014Z</time></trkpt><trkpt lat="45.5875354" lon="4.5725869"><ele>813.9999999999999</ele><time>2026-04-19T08:53:57.013Z</time></trkpt><trkpt lat="45.5875985" lon="4.5725984"><ele>814.0</ele><time>2026-04-19T08:53:58.013Z</time></trkpt><trkpt lat="45.5876969" lon="4.5726309"><ele>814.0</ele><time>2026-04-19T08:54:00.013Z</time></trkpt><trkpt lat="45.587783" lon="4.5727064"><ele>814.0</ele><time>2026-04-19T08:54:02.014Z</time></trkpt><trkpt lat="45.5878448" lon="4.5727513"><ele>813.9999999999999</ele><time>2026-04-19T08:54:05.013Z</time></trkpt><trkpt lat="45.5879084" lon="4.5727586"><ele>814.0</ele><time>2026-04-19T08:54:16.014Z</time></trkpt><trkpt lat="45.5879853" lon="4.572771"><ele>812.6666666666666</ele><time>2026-04-19T08:54:19.015Z</time></trkpt><trkpt lat="45.5880991" lon="4.5727149"><ele>811.3333333333333</ele><time>2026-04-19T08:54:21.014Z</time></trkpt><trkpt lat="45.5881598" lon="4.5726878"><ele>810.0</ele><time>2026-04-19T08:54:22.014Z</time></trkpt><trkpt lat="45.5882207" lon="4.5726636"><ele>808.6666666666667</ele><time>2026-04-19T08:54:23.013Z</time></trkpt><trkpt lat="45.5883175" lon="4.5726321"><ele>807.3333333333334</ele><time>2026-04-19T08:54:25.013Z</time></trkpt><trkpt lat="45.5884019" lon="4.5726544"><ele>806.0</ele><time>2026-04-19T08:54:28.013Z</time></trkpt><trkpt lat="45.588485" lon="4.5726752"><ele>806.0000000000001</ele><time>2026-04-19T08:54:30.014Z</time></trkpt><trkpt lat="45.5885655" lon="4.5727052"><ele>806.0</ele><time>2026-04-19T08:54:32.014Z</time></trkpt><trkpt lat="45.5886533" lon="4.5727245"><ele>806.0</ele><time>2026-04-19T08:54:34.014Z</time></trkpt><trkpt lat="45.5887262" lon="4.5727231"><ele>806.0</ele><time>2026-04-19T08:54:37.013Z</time></trkpt><trkpt lat="45.5888084" lon="4.5727249"><ele>806.0000000000001</ele><time>2026-04-19T08:54:39.013Z</time></trkpt><trkpt lat="45.5889014" lon="4.5727056"><ele>806.0</ele><time>2026-04-19T08:54:41.013Z</time></trkpt><trkpt lat="45.5890013" lon="4.5727048"><ele>803.5999999999999</ele><time>2026-04-19T08:54:43.015Z</time></trkpt><trkpt lat="45.5890957" lon="4.5727202"><ele>801.2</ele><time>2026-04-19T08:54:45.014Z</time></trkpt><trkpt lat="45.5891997" lon="4.5727409"><ele>798.8</ele><time>2026-04-19T08:54:47.015Z</time></trkpt><trkpt lat="45.5893119" lon="4.5727366"><ele>796.4000000000001</ele><time>2026-04-19T08:54:49.014Z</time></trkpt><trkpt lat="45.5894002" lon="4.5727547"><ele>794.0</ele><time>2026-04-19T08:54:51.013Z</time></trkpt><trkpt lat="45.5894911" lon="4.5727703"><ele>791.6666666666667</ele><time>2026-04-19T08:54:53.013Z</time></trkpt><trkpt lat="45.5895717" lon="4.5727666"><ele>789.3333333333334</ele><time>2026-04-19T08:54:55.014Z</time></trkpt><trkpt lat="45.5896278" lon="4.5727208"><ele>787.0</ele><time>2026-04-19T08:54:57.015Z</time></trkpt><trkpt lat="45.5896895" lon="4.57267"><ele>784.6666666666667</ele><time>2026-04-19T08:54:59.013Z</time></trkpt><trkpt lat="45.5897792" lon="4.5726084"><ele>782.3333333333334</ele><time>2026-04-19T08:55:01.013Z</time></trkpt><trkpt lat="45.5898683" lon="4.5725582"><ele>780.0</ele><time>2026-04-19T08:55:03.013Z</time></trkpt><trkpt lat="45.5899533" lon="4.572515"><ele>780.0</ele><time>2026-04-19T08:55:05.013Z</time></trkpt><trkpt lat="45.5900576" lon="4.5724655"><ele>780.0</ele><time>2026-04-19T08:55:07.014Z</time></trkpt><trkpt lat="45.5901174" lon="4.5724299"><ele>780.0</ele><time>2026-04-19T08:55:08.014Z</time></trkpt><trkpt lat="45.5902254" lon="4.5723657"><ele>780.0</ele><time>2026-04-19T08:55:10.015Z</time></trkpt><trkpt lat="45.5903258" lon="4.5723013"><ele>780.0</ele><time>2026-04-19T08:55:12.014Z</time></trkpt><trkpt lat="45.5904104" lon="4.5722584"><ele>778.1666666666666</ele><time>2026-04-19T08:55:14.014Z</time></trkpt><trkpt lat="45.5904719" lon="4.5722234"><ele>776.3333333333333</ele><time>2026-04-19T08:55:16.013Z</time></trkpt><trkpt lat="45.5905363" lon="4.5721825"><ele>774.5</ele><time>2026-04-19T08:55:20.014Z</time></trkpt><trkpt lat="45.5906238" lon="4.5721387"><ele>772.6666666666666</ele><time>2026-04-19T08:55:24.015Z</time></trkpt><trkpt lat="45.5907056" lon="4.5720918"><ele>770.8333333333333</ele><time>2026-04-19T08:55:26.014Z</time></trkpt><trkpt lat="45.5908078" lon="4.5720401"><ele>769.0</ele><time>2026-04-19T08:55:28.013Z</time></trkpt><trkpt lat="45.590886" lon="4.571978"><ele>768.8000000000001</ele><time>2026-04-19T08:55:30.013Z</time></trkpt><trkpt lat="45.5909775" lon="4.5718673"><ele>768.6</ele><time>2026-04-19T08:55:32.013Z</time></trkpt><trkpt lat="45.5910396" lon="4.5718065"><ele>768.4</ele><time>2026-04-19T08:55:34.013Z</time></trkpt><trkpt lat="45.5911238" lon="4.5717516"><ele>768.2</ele><time>2026-04-19T08:55:36.013Z</time></trkpt><trkpt lat="45.5912296" lon="4.5716889"><ele>768.0</ele><time>2026-04-19T08:55:38.013Z</time></trkpt><trkpt lat="45.5913115" lon="4.5716596"><ele>764.8</ele><time>2026-04-19T08:55:40.014Z</time></trkpt><trkpt lat="45.591413" lon="4.5716691"><ele>761.5999999999999</ele><time>2026-04-19T08:55:42.013Z</time></trkpt><trkpt lat="45.5915106" lon="4.5717047"><ele>758.4000000000001</ele><time>2026-04-19T08:55:44.013Z</time></trkpt><trkpt lat="45.5915853" lon="4.5718054"><ele>755.2</ele><time>2026-04-19T08:55:46.013Z</time></trkpt><trkpt lat="45.5916567" lon="4.5719152"><ele>752.0</ele><time>2026-04-19T08:55:48.013Z</time></trkpt><trkpt lat="45.5917332" lon="4.5720017"><ele>752.0</ele><time>2026-04-19T08:55:50.013Z</time></trkpt><trkpt lat="45.591798" lon="4.572072"><ele>752.0</ele><time>2026-04-19T08:55:53.013Z</time></trkpt><trkpt lat="45.5918503" lon="4.5720082"><ele>752.0</ele><time>2026-04-19T08:56:02.013Z</time></trkpt><trkpt lat="45.5918526" lon="4.5719028"><ele>752.0</ele><time>2026-04-19T08:56:19.014Z</time></trkpt><trkpt lat="45.5918636" lon="4.5717359"><ele>752.0</ele><time>2026-04-19T08:56:21.013Z</time></trkpt><trkpt lat="45.5918699" lon="4.5715858"><ele>752.0</ele><time>2026-04-19T08:56:22.013Z</time></trkpt><trkpt lat="45.5918721" lon="4.5714062"><ele>752.0</ele><time>2026-04-19T08:56:23.013Z</time></trkpt><trkpt lat="45.5918716" lon="4.5712025"><ele>752.0</ele><time>2026-04-19T08:56:24.014Z</time></trkpt><trkpt lat="45.5918727" lon="4.5709784"><ele>752.0</ele><time>2026-04-19T08:56:25.014Z</time></trkpt><trkpt lat="45.5918728" lon="4.570769"><ele>752.0</ele><time>2026-04-19T08:56:26.014Z</time></trkpt><trkpt lat="45.5918736" lon="4.5705803"><ele>751.4000000000001</ele><time>2026-04-19T08:56:27.014Z</time></trkpt><trkpt lat="45.5918779" lon="4.5704159"><ele>750.8000000000001</ele><time>2026-04-19T08:56:28.013Z</time></trkpt><trkpt lat="45.5918821" lon="4.5702603"><ele>750.2</ele><time>2026-04-19T08:56:29.014Z</time></trkpt><trkpt lat="45.591905" lon="4.5701377"><ele>749.6</ele><time>2026-04-19T08:56:30.014Z</time></trkpt><trkpt lat="45.591942" lon="4.5700376"><ele>749.0</ele><time>2026-04-19T08:56:31.014Z</time></trkpt><trkpt lat="45.5919988" lon="4.5699698"><ele>746.4000000000001</ele><time>2026-04-19T08:56:32.013Z</time></trkpt><trkpt lat="45.5920735" lon="4.5699354"><ele>743.8</ele><time>2026-04-19T08:56:33.015Z</time></trkpt><trkpt lat="45.5921676" lon="4.5699345"><ele>741.2</ele><time>2026-04-19T08:56:34.014Z</time></trkpt><trkpt lat="45.592272" lon="4.5699707"><ele>738.5999999999999</ele><time>2026-04-19T08:56:35.013Z</time></trkpt><trkpt lat="45.5923909" lon="4.5700288"><ele>736.0</ele><time>2026-04-19T08:56:36.014Z</time></trkpt><trkpt lat="45.5925309" lon="4.5700887"><ele>736.0</ele><time>2026-04-19T08:56:37.014Z</time></trkpt><trkpt lat="45.5926867" lon="4.5701264"><ele>736.0</ele><time>2026-04-19T08:56:38.014Z</time></trkpt><trkpt lat="45.5928449" lon="4.5701277"><ele>736.0</ele><time>2026-04-19T08:56:39.013Z</time></trkpt><trkpt lat="45.5929865" lon="4.5701236"><ele>734.4</ele><time>2026-04-19T08:56:40.013Z</time></trkpt><trkpt lat="45.5931114" lon="4.5701135"><ele>732.8</ele><time>2026-04-19T08:56:41.013Z</time></trkpt><trkpt lat="45.5932175" lon="4.5701061"><ele>731.1999999999999</ele><time>2026-04-19T08:56:42.014Z</time></trkpt><trkpt lat="45.5933132" lon="4.5700964"><ele>729.5999999999999</ele><time>2026-04-19T08:56:43.014Z</time></trkpt><trkpt lat="45.5933979" lon="4.5700871"><ele>728.0</ele><time>2026-04-19T08:56:44.014Z</time></trkpt><trkpt lat="45.5934653" lon="4.5700726"><ele>728.0</ele><time>2026-04-19T08:56:45.013Z</time></trkpt><trkpt lat="45.5935452" lon="4.5699956"><ele>728.0</ele><time>2026-04-19T08:56:47.013Z</time></trkpt><trkpt lat="45.5935315" lon="4.5699025"><ele>728.0</ele><time>2026-04-19T08:56:49.013Z</time></trkpt><trkpt lat="45.593465" lon="4.5698083"><ele>728.0</ele><time>2026-04-19T08:56:51.014Z</time></trkpt><trkpt lat="45.5933687" lon="4.5696783"><ele>728.0</ele><time>2026-04-19T08:56:53.014Z</time></trkpt><trkpt lat="45.5933199" lon="4.5695956"><ele>727.0</ele><time>2026-04-19T08:56:54.014Z</time></trkpt><trkpt lat="45.59327" lon="4.5695106"><ele>726.0</ele><time>2026-04-19T08:56:55.015Z</time></trkpt><trkpt lat="45.593211" lon="4.5694226"><ele>725.0</ele><time>2026-04-19T08:56:56.013Z</time></trkpt><trkpt lat="45.5931493" lon="4.5693118"><ele>724.0</ele><time>2026-04-19T08:56:57.013Z</time></trkpt><trkpt lat="45.5930943" lon="4.5691991"><ele>723.0</ele><time>2026-04-19T08:56:58.013Z</time></trkpt><trkpt lat="45.5930348" lon="4.56909"><ele>723.0</ele><time>2026-04-19T08:56:59.014Z</time></trkpt><trkpt lat="45.5929767" lon="4.5689808"><ele>723.0</ele><time>2026-04-19T08:57:00.013Z</time></trkpt><trkpt lat="45.5929182" lon="4.5688741"><ele>723.0</ele><time>2026-04-19T08:57:01.013Z</time></trkpt><trkpt lat="45.5928722" lon="4.5687767"><ele>723.0</ele><time>2026-04-19T08:57:02.013Z</time></trkpt><trkpt lat="45.5928291" lon="4.5686991"><ele>723.0</ele><time>2026-04-19T08:57:03.015Z</time></trkpt><trkpt lat="45.5927975" lon="4.5686132"><ele>723.0</ele><time>2026-04-19T08:57:04.014Z</time></trkpt><trkpt lat="45.5927899" lon="4.5684865"><ele>725.2</ele><time>2026-04-19T08:57:05.014Z</time></trkpt><trkpt lat="45.5927996" lon="4.5683639"><ele>727.4</ele><time>2026-04-19T08:57:06.013Z</time></trkpt><trkpt lat="45.5928023" lon="4.5682087"><ele>729.6</ele><time>2026-04-19T08:57:07.014Z</time></trkpt><trkpt lat="45.5928149" lon="4.568075"><ele>731.8000000000001</ele><time>2026-04-19T08:57:08.014Z</time></trkpt><trkpt lat="45.5928173" lon="4.5679471"><ele>734.0</ele><time>2026-04-19T08:57:09.013Z</time></trkpt><trkpt lat="45.5927954" lon="4.5678184"><ele>734.0</ele><time>2026-04-19T08:57:10.014Z</time></trkpt><trkpt lat="45.5927707" lon="4.5677065"><ele>734.0</ele><time>2026-04-19T08:57:11.013Z</time></trkpt><trkpt lat="45.5927548" lon="4.5675821"><ele>734.0</ele><time>2026-04-19T08:57:12.014Z</time></trkpt><trkpt lat="45.5927357" lon="4.5674628"><ele>734.0</ele><time>2026-04-19T08:57:13.013Z</time></trkpt><trkpt lat="45.5927042" lon="4.5673457"><ele>734.0</ele><time>2026-04-19T08:57:14.013Z</time></trkpt><trkpt lat="45.5926645" lon="4.5672278"><ele>734.0</ele><time>2026-04-19T08:57:15.015Z</time></trkpt><trkpt lat="45.5926178" lon="4.5671208"><ele>732.0</ele><time>2026-04-19T08:57:16.015Z</time></trkpt><trkpt lat="45.5925714" lon="4.5670019"><ele>730.0</ele><time>2026-04-19T08:57:17.015Z</time></trkpt><trkpt lat="45.5925281" lon="4.5669074"><ele>728.0</ele><time>2026-04-19T08:57:18.014Z</time></trkpt><trkpt lat="45.5924834" lon="4.5668275"><ele>726.0</ele><time>2026-04-19T08:57:19.014Z</time></trkpt><trkpt lat="45.5924299" lon="4.5667481"><ele>724.0</ele><time>2026-04-19T08:57:20.013Z</time></trkpt><trkpt lat="45.5923678" lon="4.5666562"><ele>722.0</ele><time>2026-04-19T08:57:21.015Z</time></trkpt><trkpt lat="45.5922962" lon="4.5665718"><ele>722.0</ele><time>2026-04-19T08:57:22.014Z</time></trkpt><trkpt lat="45.5922018" lon="4.5665146"><ele>722.0</ele><time>2026-04-19T08:57:23.015Z</time></trkpt><trkpt lat="45.5921035" lon="4.5664529"><ele>722.0</ele><time>2026-04-19T08:57:24.013Z</time></trkpt><trkpt lat="45.5920227" lon="4.5663788"><ele>722.0</ele><time>2026-04-19T08:57:25.014Z</time></trkpt><trkpt lat="45.5919488" lon="4.5663131"><ele>722.0</ele><time>2026-04-19T08:57:26.013Z</time></trkpt><trkpt lat="45.5918547" lon="4.5662423"><ele>722.6666666666666</ele><time>2026-04-19T08:57:27.014Z</time></trkpt><trkpt lat="45.5917776" lon="4.5661521"><ele>723.3333333333333</ele><time>2026-04-19T08:57:28.014Z</time></trkpt><trkpt lat="45.591706" lon="4.5660677"><ele>724.0</ele><time>2026-04-19T08:57:29.013Z</time></trkpt><trkpt lat="45.5916285" lon="4.5660087"><ele>724.6666666666666</ele><time>2026-04-19T08:57:30.015Z</time></trkpt><trkpt lat="45.5915638" lon="4.5659557"><ele>725.3333333333334</ele><time>2026-04-19T08:57:31.013Z</time></trkpt><trkpt lat="45.5915015" lon="4.565922"><ele>726.0</ele><time>2026-04-19T08:57:32.014Z</time></trkpt><trkpt lat="45.5914261" lon="4.565904"><ele>726.0</ele><time>2026-04-19T08:57:33.013Z</time></trkpt><trkpt lat="45.5913477" lon="4.5658857"><ele>726.0</ele><time>2026-04-19T08:57:34.013Z</time></trkpt><trkpt lat="45.5912702" lon="4.5658563"><ele>726.0</ele><time>2026-04-19T08:57:35.014Z</time></trkpt><trkpt lat="45.5911882" lon="4.5658262"><ele>726.0</ele><time>2026-04-19T08:57:36.014Z</time></trkpt><trkpt lat="45.5911104" lon="4.5657992"><ele>726.0</ele><time>2026-04-19T08:57:37.013Z</time></trkpt><trkpt lat="45.5909776" lon="4.5657696"><ele>729.0</ele><time>2026-04-19T08:57:39.013Z</time></trkpt><trkpt lat="45.5909027" lon="4.5657632"><ele>732.0</ele><time>2026-04-19T08:57:40.014Z</time></trkpt><trkpt lat="45.5908058" lon="4.5657431"><ele>735.0</ele><time>2026-04-19T08:57:41.013Z</time></trkpt><trkpt lat="45.5907123" lon="4.5657396"><ele>738.0</ele><time>2026-04-19T08:57:42.014Z</time></trkpt><trkpt lat="45.5906334" lon="4.5657306"><ele>741.0</ele><time>2026-04-19T08:57:43.014Z</time></trkpt><trkpt lat="45.5905539" lon="4.5657236"><ele>744.0</ele><time>2026-04-19T08:57:44.015Z</time></trkpt><trkpt lat="45.5904774" lon="4.5657298"><ele>744.0</ele><time>2026-04-19T08:57:45.013Z</time></trkpt><trkpt lat="45.5903955" lon="4.5657222"><ele>744.0</ele><time>2026-04-19T08:57:46.013Z</time></trkpt><trkpt lat="45.5903124" lon="4.5657191"><ele>744.0</ele><time>2026-04-19T08:57:47.014Z</time></trkpt><trkpt lat="45.590228" lon="4.5657171"><ele>744.0</ele><time>2026-04-19T08:57:48.015Z</time></trkpt><trkpt lat="45.590137" lon="4.5656758"><ele>744.0</ele><time>2026-04-19T08:57:49.014Z</time></trkpt><trkpt lat="45.5900488" lon="4.5656596"><ele>744.0</ele><time>2026-04-19T08:57:50.016Z</time></trkpt><trkpt lat="45.5899492" lon="4.5656355"><ele>745.8333333333334</ele><time>2026-04-19T08:57:51.014Z</time></trkpt><trkpt lat="45.5898679" lon="4.5656301"><ele>747.6666666666666</ele><time>2026-04-19T08:57:52.014Z</time></trkpt><trkpt lat="45.5897855" lon="4.5656213"><ele>749.5</ele><time>2026-04-19T08:57:53.014Z</time></trkpt><trkpt lat="45.5896972" lon="4.5656116"><ele>751.3333333333333</ele><time>2026-04-19T08:57:54.013Z</time></trkpt><trkpt lat="45.5896319" lon="4.5656182"><ele>753.1666666666666</ele><time>2026-04-19T08:57:55.014Z</time></trkpt><trkpt lat="45.5895488" lon="4.5656022"><ele>755.0</ele><time>2026-04-19T08:57:56.014Z</time></trkpt><trkpt lat="45.5894672" lon="4.5655771"><ele>756.0</ele><time>2026-04-19T08:57:57.014Z</time></trkpt><trkpt lat="45.5893853" lon="4.5655586"><ele>757.0</ele><time>2026-04-19T08:57:58.013Z</time></trkpt><trkpt lat="45.5893139" lon="4.565552"><ele>758.0</ele><time>2026-04-19T08:57:59.014Z</time></trkpt><trkpt lat="45.5892472" lon="4.5655448"><ele>759.0</ele><time>2026-04-19T08:58:00.014Z</time></trkpt><trkpt lat="45.5891687" lon="4.5655357"><ele>760.0</ele><time>2026-04-19T08:58:01.014Z</time></trkpt><trkpt lat="45.5890468" lon="4.5655289"><ele>761.0</ele><time>2026-04-19T08:58:03.014Z</time></trkpt><trkpt lat="45.5889374" lon="4.565527"><ele>761.0</ele><time>2026-04-19T08:58:05.014Z</time></trkpt><trkpt lat="45.5888689" lon="4.5655362"><ele>761.0</ele><time>2026-04-19T08:58:06.015Z</time></trkpt><trkpt lat="45.5887945" lon="4.5655517"><ele>761.0</ele><time>2026-04-19T08:58:07.015Z</time></trkpt><trkpt lat="45.5887171" lon="4.565555"><ele>761.0</ele><time>2026-04-19T08:58:08.014Z</time></trkpt><trkpt lat="45.5886365" lon="4.5655734"><ele>761.0</ele><time>2026-04-19T08:58:09.016Z</time></trkpt><trkpt lat="45.5885592" lon="4.565585"><ele>761.0</ele><time>2026-04-19T08:58:10.014Z</time></trkpt><trkpt lat="45.5884841" lon="4.5656024"><ele>762.0</ele><time>2026-04-19T08:58:11.015Z</time></trkpt><trkpt lat="45.5884044" lon="4.5656243"><ele>763.0</ele><time>2026-04-19T08:58:12.015Z</time></trkpt><trkpt lat="45.5882728" lon="4.5656297"><ele>764.0</ele><time>2026-04-19T08:58:14.014Z</time></trkpt><trkpt lat="45.5881942" lon="4.5656315"><ele>765.0</ele><time>2026-04-19T08:58:15.013Z</time></trkpt><trkpt lat="45.5881274" lon="4.5656147"><ele>766.0</ele><time>2026-04-19T08:58:16.013Z</time></trkpt><trkpt lat="45.5880425" lon="4.5655992"><ele>767.0</ele><time>2026-04-19T08:58:17.014Z</time></trkpt><trkpt lat="45.5879763" lon="4.5655624"><ele>767.0</ele><time>2026-04-19T08:58:18.014Z</time></trkpt><trkpt lat="45.5878964" lon="4.5655447"><ele>767.0</ele><time>2026-04-19T08:58:19.015Z</time></trkpt><trkpt lat="45.5878105" lon="4.565532"><ele>767.0</ele><time>2026-04-19T08:58:20.013Z</time></trkpt><trkpt lat="45.5877273" lon="4.5655123"><ele>767.0</ele><time>2026-04-19T08:58:21.014Z</time></trkpt><trkpt lat="45.5876486" lon="4.5655006"><ele>767.0</ele><time>2026-04-19T08:58:22.014Z</time></trkpt><trkpt lat="45.5875803" lon="4.5654798"><ele>767.0</ele><time>2026-04-19T08:58:23.014Z</time></trkpt><trkpt lat="45.587503" lon="4.5654835"><ele>767.1666666666666</ele><time>2026-04-19T08:58:24.013Z</time></trkpt><trkpt lat="45.5874213" lon="4.5654881"><ele>767.3333333333333</ele><time>2026-04-19T08:58:25.014Z</time></trkpt><trkpt lat="45.5873396" lon="4.56549"><ele>767.5</ele><time>2026-04-19T08:58:26.015Z</time></trkpt><trkpt lat="45.5872586" lon="4.5655104"><ele>767.6666666666666</ele><time>2026-04-19T08:58:27.015Z</time></trkpt><trkpt lat="45.5871683" lon="4.5655184"><ele>767.8333333333334</ele><time>2026-04-19T08:58:28.014Z</time></trkpt><trkpt lat="45.5870614" lon="4.5655223"><ele>768.0</ele><time>2026-04-19T08:58:29.014Z</time></trkpt><trkpt lat="45.5869756" lon="4.5654871"><ele>769.4</ele><time>2026-04-19T08:58:30.014Z</time></trkpt><trkpt lat="45.586892" lon="4.5654452"><ele>770.8</ele><time>2026-04-19T08:58:31.013Z</time></trkpt><trkpt lat="45.5867961" lon="4.5654225"><ele>772.2</ele><time>2026-04-19T08:58:32.014Z</time></trkpt><trkpt lat="45.5867105" lon="4.5653957"><ele>773.6</ele><time>2026-04-19T08:58:33.015Z</time></trkpt><trkpt lat="45.5866154" lon="4.5653655"><ele>775.0</ele><time>2026-04-19T08:58:34.014Z</time></trkpt><trkpt lat="45.5865139" lon="4.5653397"><ele>773.4999999999999</ele><time>2026-04-19T08:58:35.014Z</time></trkpt><trkpt lat="45.5864329" lon="4.5653143"><ele>772.0</ele><time>2026-04-19T08:58:36.015Z</time></trkpt><trkpt lat="45.5863378" lon="4.5652932"><ele>770.5</ele><time>2026-04-19T08:58:37.014Z</time></trkpt><trkpt lat="45.5862511" lon="4.5652658"><ele>769.0</ele><time>2026-04-19T08:58:38.014Z</time></trkpt><trkpt lat="45.5861782" lon="4.5652342"><ele>767.5</ele><time>2026-04-19T08:58:39.013Z</time></trkpt><trkpt lat="45.5861138" lon="4.5652017"><ele>766.0</ele><time>2026-04-19T08:58:40.014Z</time></trkpt><trkpt lat="45.5860444" lon="4.5651525"><ele>766.0</ele><time>2026-04-19T08:58:41.014Z</time></trkpt><trkpt lat="45.5859778" lon="4.5651135"><ele>766.0</ele><time>2026-04-19T08:58:42.015Z</time></trkpt><trkpt lat="45.5859011" lon="4.5650648"><ele>766.0</ele><time>2026-04-19T08:58:43.014Z</time></trkpt><trkpt lat="45.5858316" lon="4.5650353"><ele>766.0</ele><time>2026-04-19T08:58:44.013Z</time></trkpt><trkpt lat="45.5857289" lon="4.5649939"><ele>766.0</ele><time>2026-04-19T08:58:46.014Z</time></trkpt><trkpt lat="45.5856411" lon="4.5649615"><ele>766.0</ele><time>2026-04-19T08:58:48.014Z</time></trkpt><trkpt lat="45.5855345" lon="4.5649034"><ele>766.0</ele><time>2026-04-19T08:58:50.015Z</time></trkpt><trkpt lat="45.5854444" lon="4.5648813"><ele>766.0</ele><time>2026-04-19T08:58:52.014Z</time></trkpt><trkpt lat="45.5853693" lon="4.5648533"><ele>766.0</ele><time>2026-04-19T08:58:54.014Z</time></trkpt><trkpt lat="45.5852949" lon="4.5648084"><ele>766.0</ele><time>2026-04-19T08:58:56.014Z</time></trkpt><trkpt lat="45.5852277" lon="4.5647687"><ele>766.0</ele><time>2026-04-19T08:58:58.014Z</time></trkpt><trkpt lat="45.5851678" lon="4.5647115"><ele>766.0</ele><time>2026-04-19T08:59:00.013Z</time></trkpt><trkpt lat="45.5850835" lon="4.5646365"><ele>766.5999999999999</ele><time>2026-04-19T08:59:02.014Z</time></trkpt><trkpt lat="45.5849948" lon="4.5645782"><ele>767.2</ele><time>2026-04-19T08:59:04.013Z</time></trkpt><trkpt lat="45.5849081" lon="4.5645151"><ele>767.8</ele><time>2026-04-19T08:59:06.014Z</time></trkpt><trkpt lat="45.5848069" lon="4.564416"><ele>768.4000000000001</ele><time>2026-04-19T08:59:08.014Z</time></trkpt><trkpt lat="45.5847529" lon="4.5643581"><ele>769.0</ele><time>2026-04-19T08:59:10.014Z</time></trkpt><trkpt lat="45.5846796" lon="4.5642827"><ele>768.9999999999999</ele><time>2026-04-19T08:59:13.015Z</time></trkpt><trkpt lat="45.5846135" lon="4.5641885"><ele>769.0</ele><time>2026-04-19T08:59:15.014Z</time></trkpt><trkpt lat="45.584563" lon="4.5640898"><ele>769.0</ele><time>2026-04-19T08:59:17.014Z</time></trkpt><trkpt lat="45.5845063" lon="4.5639883"><ele>769.0</ele><time>2026-04-19T08:59:19.014Z</time></trkpt><trkpt lat="45.5844483" lon="4.5639071"><ele>768.9999999999999</ele><time>2026-04-19T08:59:21.014Z</time></trkpt><trkpt lat="45.584399" lon="4.5638302"><ele>769.0</ele><time>2026-04-19T08:59:23.013Z</time></trkpt><trkpt lat="45.5843354" lon="4.5637439"><ele>771.0</ele><time>2026-04-19T08:59:26.014Z</time></trkpt><trkpt lat="45.5842804" lon="4.5636906"><ele>773.0</ele><time>2026-04-19T08:59:28.014Z</time></trkpt><trkpt lat="45.5841871" lon="4.5636215"><ele>775.0</ele><time>2026-04-19T08:59:30.014Z</time></trkpt><trkpt lat="45.5840867" lon="4.5635046"><ele>777.0</ele><time>2026-04-19T08:59:32.014Z</time></trkpt><trkpt lat="45.5840238" lon="4.56344"><ele>779.0</ele><time>2026-04-19T08:59:33.014Z</time></trkpt><trkpt lat="45.5839619" lon="4.5633799"><ele>779.0000000000001</ele><time>2026-04-19T08:59:34.014Z</time></trkpt><trkpt lat="45.5838988" lon="4.5633157"><ele>779.0</ele><time>2026-04-19T08:59:35.014Z</time></trkpt><trkpt lat="45.5838395" lon="4.563265"><ele>779.0</ele><time>2026-04-19T08:59:36.013Z</time></trkpt><trkpt lat="45.5837736" lon="4.563212"><ele>779.0</ele><time>2026-04-19T08:59:37.015Z</time></trkpt><trkpt lat="45.5837023" lon="4.5631551"><ele>779.0000000000001</ele><time>2026-04-19T08:59:38.015Z</time></trkpt><trkpt lat="45.5836183" lon="4.5630933"><ele>779.0</ele><time>2026-04-19T08:59:39.013Z</time></trkpt><trkpt lat="45.5835337" lon="4.5630281"><ele>779.6</ele><time>2026-04-19T08:59:40.015Z</time></trkpt><trkpt lat="45.5834474" lon="4.5629698"><ele>780.2</ele><time>2026-04-19T08:59:41.015Z</time></trkpt><trkpt lat="45.5833625" lon="4.5629036"><ele>780.8000000000001</ele><time>2026-04-19T08:59:42.014Z</time></trkpt><trkpt lat="45.583285" lon="4.5628435"><ele>781.4000000000001</ele><time>2026-04-19T08:59:43.014Z</time></trkpt><trkpt lat="45.5832198" lon="4.5627689"><ele>782.0</ele><time>2026-04-19T08:59:44.014Z</time></trkpt><trkpt lat="45.5831453" lon="4.5627047"><ele>782.0000000000001</ele><time>2026-04-19T08:59:45.013Z</time></trkpt><trkpt lat="45.583068" lon="4.5626141"><ele>782.0</ele><time>2026-04-19T08:59:46.015Z</time></trkpt><trkpt lat="45.5830068" lon="4.5625299"><ele>782.0</ele><time>2026-04-19T08:59:47.014Z</time></trkpt><trkpt lat="45.5829461" lon="4.562455"><ele>782.0</ele><time>2026-04-19T08:59:48.015Z</time></trkpt><trkpt lat="45.5828775" lon="4.5623877"><ele>782.0000000000001</ele><time>2026-04-19T08:59:49.014Z</time></trkpt><trkpt lat="45.5828155" lon="4.562319"><ele>782.0</ele><time>2026-04-19T08:59:50.014Z</time></trkpt><trkpt lat="45.5827411" lon="4.5622262"><ele>783.0</ele><time>2026-04-19T08:59:51.014Z</time></trkpt><trkpt lat="45.5826639" lon="4.5621162"><ele>784.0</ele><time>2026-04-19T08:59:52.014Z</time></trkpt><trkpt lat="45.5825929" lon="4.5620302"><ele>785.0</ele><time>2026-04-19T08:59:53.015Z</time></trkpt><trkpt lat="45.5825311" lon="4.5619457"><ele>786.0</ele><time>2026-04-19T08:59:54.013Z</time></trkpt><trkpt lat="45.582479" lon="4.5618487"><ele>787.0</ele><time>2026-04-19T08:59:55.014Z</time></trkpt><trkpt lat="45.5824379" lon="4.5617487"><ele>786.9999999999999</ele><time>2026-04-19T08:59:56.013Z</time></trkpt><trkpt lat="45.5824022" lon="4.5616665"><ele>787.0</ele><time>2026-04-19T08:59:57.014Z</time></trkpt><trkpt lat="45.5823532" lon="4.5615725"><ele>787.0</ele><time>2026-04-19T08:59:58.014Z</time></trkpt><trkpt lat="45.5823068" lon="4.561483"><ele>787.0</ele><time>2026-04-19T08:59:59.013Z</time></trkpt><trkpt lat="45.5822562" lon="4.5613806"><ele>786.9999999999999</ele><time>2026-04-19T09:00:00.015Z</time></trkpt><trkpt lat="45.5821974" lon="4.5612794"><ele>787.0</ele><time>2026-04-19T09:00:01.014Z</time></trkpt><trkpt lat="45.5821329" lon="4.5611613"><ele>785.8</ele><time>2026-04-19T09:00:02.013Z</time></trkpt><trkpt lat="45.5821007" lon="4.5610285"><ele>784.6</ele><time>2026-04-19T09:00:03.015Z</time></trkpt><trkpt lat="45.5820598" lon="4.5609335"><ele>783.4</ele><time>2026-04-19T09:00:04.013Z</time></trkpt><trkpt lat="45.5820055" lon="4.5607724"><ele>782.1999999999999</ele><time>2026-04-19T09:00:06.015Z</time></trkpt><trkpt lat="45.5819259" lon="4.5606175"><ele>781.0</ele><time>2026-04-19T09:00:08.014Z</time></trkpt><trkpt lat="45.5818821" lon="4.56053"><ele>784.0</ele><time>2026-04-19T09:00:09.013Z</time></trkpt><trkpt lat="45.5818276" lon="4.5604374"><ele>787.0</ele><time>2026-04-19T09:00:10.015Z</time></trkpt><trkpt lat="45.5817708" lon="4.5603346"><ele>790.0</ele><time>2026-04-19T09:00:11.013Z</time></trkpt><trkpt lat="45.5817123" lon="4.5602271"><ele>793.0</ele><time>2026-04-19T09:00:12.014Z</time></trkpt><trkpt lat="45.5816508" lon="4.5601194"><ele>796.0</ele><time>2026-04-19T09:00:13.014Z</time></trkpt><trkpt lat="45.5815942" lon="4.5600027"><ele>796.0</ele><time>2026-04-19T09:00:14.014Z</time></trkpt><trkpt lat="45.5815426" lon="4.559884"><ele>796.0</ele><time>2026-04-19T09:00:15.013Z</time></trkpt><trkpt lat="45.5814997" lon="4.5597714"><ele>796.0</ele><time>2026-04-19T09:00:16.013Z</time></trkpt><trkpt lat="45.5814387" lon="4.5596528"><ele>796.0</ele><time>2026-04-19T09:00:17.013Z</time></trkpt><trkpt lat="45.5813797" lon="4.5595143"><ele>796.0</ele><time>2026-04-19T09:00:18.015Z</time></trkpt><trkpt lat="45.5813193" lon="4.5593933"><ele>794.8</ele><time>2026-04-19T09:00:19.014Z</time></trkpt><trkpt lat="45.581256" lon="4.5592702"><ele>793.5999999999999</ele><time>2026-04-19T09:00:20.015Z</time></trkpt><trkpt lat="45.5811889" lon="4.5591603"><ele>792.4</ele><time>2026-04-19T09:00:21.014Z</time></trkpt><trkpt lat="45.5811306" lon="4.5590665"><ele>791.2</ele><time>2026-04-19T09:00:22.013Z</time></trkpt><trkpt lat="45.5810745" lon="4.5589646"><ele>790.0</ele><time>2026-04-19T09:00:23.014Z</time></trkpt><trkpt lat="45.5810361" lon="4.5588406"><ele>792.6</ele><time>2026-04-19T09:00:24.014Z</time></trkpt><trkpt lat="45.5809932" lon="4.5587472"><ele>795.2</ele><time>2026-04-19T09:00:25.015Z</time></trkpt><trkpt lat="45.5809394" lon="4.5586359"><ele>797.8</ele><time>2026-04-19T09:00:26.014Z</time></trkpt><trkpt lat="45.5808916" lon="4.5585212"><ele>800.4</ele><time>2026-04-19T09:00:27.015Z</time></trkpt><trkpt lat="45.5808455" lon="4.5583975"><ele>803.0</ele><time>2026-04-19T09:00:28.015Z</time></trkpt><trkpt lat="45.5807984" lon="4.558269"><ele>803.0</ele><time>2026-04-19T09:00:29.015Z</time></trkpt><trkpt lat="45.5807501" lon="4.5581372"><ele>803.0</ele><time>2026-04-19T09:00:30.014Z</time></trkpt><trkpt lat="45.5806945" lon="4.5580267"><ele>803.0</ele><time>2026-04-19T09:00:31.014Z</time></trkpt><trkpt lat="45.5806254" lon="4.5579137"><ele>803.0</ele><time>2026-04-19T09:00:32.014Z</time></trkpt><trkpt lat="45.5805472" lon="4.5578102"><ele>803.0</ele><time>2026-04-19T09:00:33.014Z</time></trkpt><trkpt lat="45.5804716" lon="4.5577129"><ele>802.5000000000001</ele><time>2026-04-19T09:00:34.016Z</time></trkpt><trkpt lat="45.5804001" lon="4.5576156"><ele>802.0</ele><time>2026-04-19T09:00:35.013Z</time></trkpt><trkpt lat="45.5803277" lon="4.5575547"><ele>801.5</ele><time>2026-04-19T09:00:36.014Z</time></trkpt><trkpt lat="45.5802711" lon="4.5575"><ele>801.0</ele><time>2026-04-19T09:00:37.014Z</time></trkpt><trkpt lat="45.5801633" lon="4.5574156"><ele>800.5000000000001</ele><time>2026-04-19T09:00:39.015Z</time></trkpt><trkpt lat="45.5801018" lon="4.5573657"><ele>800.0</ele><time>2026-04-19T09:00:40.013Z</time></trkpt><trkpt lat="45.5800394" lon="4.557314"><ele>801.0</ele><time>2026-04-19T09:00:41.014Z</time></trkpt><trkpt lat="45.5799312" lon="4.5572655"><ele>802.0</ele><time>2026-04-19T09:00:43.013Z</time></trkpt><trkpt lat="45.5798548" lon="4.5572115"><ele>803.0</ele><time>2026-04-19T09:00:45.013Z</time></trkpt><trkpt lat="45.5797653" lon="4.5570765"><ele>804.0</ele><time>2026-04-19T09:00:47.014Z</time></trkpt><trkpt lat="45.5797177" lon="4.5569957"><ele>805.0</ele><time>2026-04-19T09:00:48.013Z</time></trkpt><trkpt lat="45.5796766" lon="4.5569172"><ele>805.0</ele><time>2026-04-19T09:00:49.013Z</time></trkpt><trkpt lat="45.5796342" lon="4.5568347"><ele>805.0</ele><time>2026-04-19T09:00:50.015Z</time></trkpt><trkpt lat="45.5795945" lon="4.5567554"><ele>805.0</ele><time>2026-04-19T09:00:51.015Z</time></trkpt><trkpt lat="45.5795553" lon="4.5566746"><ele>805.0</ele><time>2026-04-19T09:00:52.014Z</time></trkpt><trkpt lat="45.579524" lon="4.5565945"><ele>805.0</ele><time>2026-04-19T09:00:53.014Z</time></trkpt><trkpt lat="45.5794927" lon="4.5565119"><ele>805.0</ele><time>2026-04-19T09:00:54.013Z</time></trkpt><trkpt lat="45.579442" lon="4.5563814"><ele>805.0</ele><time>2026-04-19T09:00:56.013Z</time></trkpt><trkpt lat="45.5794126" lon="4.5562898"><ele>804.8</ele><time>2026-04-19T09:00:58.014Z</time></trkpt><trkpt lat="45.5793685" lon="4.5561722"><ele>804.6</ele><time>2026-04-19T09:01:00.014Z</time></trkpt><trkpt lat="45.5793153" lon="4.5560828"><ele>804.4000000000001</ele><time>2026-04-19T09:01:02.013Z</time></trkpt><trkpt lat="45.5792578" lon="4.5559884"><ele>804.2</ele><time>2026-04-19T09:01:16.014Z</time></trkpt><trkpt lat="45.5792161" lon="4.5558736"><ele>804.0</ele><time>2026-04-19T09:01:18.015Z</time></trkpt><trkpt lat="45.5791755" lon="4.5557033"><ele>804.0</ele><time>2026-04-19T09:01:20.014Z</time></trkpt><trkpt lat="45.5791596" lon="4.5555985"><ele>804.0</ele><time>2026-04-19T09:01:21.014Z</time></trkpt><trkpt lat="45.5791461" lon="4.5554876"><ele>804.0</ele><time>2026-04-19T09:01:22.014Z</time></trkpt><trkpt lat="45.5791315" lon="4.5553793"><ele>804.0</ele><time>2026-04-19T09:01:23.014Z</time></trkpt><trkpt lat="45.5791197" lon="4.5552747"><ele>804.0</ele><time>2026-04-19T09:01:24.013Z</time></trkpt><trkpt lat="45.5791121" lon="4.5551626"><ele>804.0</ele><time>2026-04-19T09:01:25.015Z</time></trkpt><trkpt lat="45.5790791" lon="4.5550375"><ele>804.3333333333334</ele><time>2026-04-19T09:01:26.014Z</time></trkpt><trkpt lat="45.5790579" lon="4.5549073"><ele>804.6666666666667</ele><time>2026-04-19T09:01:27.014Z</time></trkpt><trkpt lat="45.5790489" lon="4.5547713"><ele>805.0</ele><time>2026-04-19T09:01:28.014Z</time></trkpt><trkpt lat="45.5790383" lon="4.5546482"><ele>805.3333333333334</ele><time>2026-04-19T09:01:29.013Z</time></trkpt><trkpt lat="45.5790234" lon="4.5545497"><ele>805.6666666666667</ele><time>2026-04-19T09:01:30.014Z</time></trkpt><trkpt lat="45.5789914" lon="4.5544677"><ele>806.0</ele><time>2026-04-19T09:01:31.014Z</time></trkpt><trkpt lat="45.5789433" lon="4.5543776"><ele>806.0000000000001</ele><time>2026-04-19T09:01:33.015Z</time></trkpt><trkpt lat="45.5788768" lon="4.5542798"><ele>806.0</ele><time>2026-04-19T09:01:36.015Z</time></trkpt><trkpt lat="45.5788113" lon="4.5541812"><ele>806.0</ele><time>2026-04-19T09:01:38.014Z</time></trkpt><trkpt lat="45.5787467" lon="4.5540418"><ele>806.0</ele><time>2026-04-19T09:01:40.013Z</time></trkpt><trkpt lat="45.5787169" lon="4.5539597"><ele>806.0000000000001</ele><time>2026-04-19T09:01:41.013Z</time></trkpt><trkpt lat="45.5786925" lon="4.5538747"><ele>806.0</ele><time>2026-04-19T09:01:42.015Z</time></trkpt><trkpt lat="45.5786649" lon="4.5537836"><ele>806.5000000000001</ele><time>2026-04-19T09:01:43.014Z</time></trkpt><trkpt lat="45.5786328" lon="4.5536962"><ele>807.0</ele><time>2026-04-19T09:01:44.014Z</time></trkpt><trkpt lat="45.5786037" lon="4.5535998"><ele>807.5</ele><time>2026-04-19T09:01:45.014Z</time></trkpt><trkpt lat="45.5785797" lon="4.553497"><ele>808.0</ele><time>2026-04-19T09:01:46.015Z</time></trkpt><trkpt lat="45.5785598" lon="4.553389"><ele>808.5000000000001</ele><time>2026-04-19T09:01:47.015Z</time></trkpt><trkpt lat="45.5785436" lon="4.5532773"><ele>809.0</ele><time>2026-04-19T09:01:48.015Z</time></trkpt><trkpt lat="45.5785355" lon="4.5531577"><ele>809.0000000000001</ele><time>2026-04-19T09:01:49.014Z</time></trkpt><trkpt lat="45.5785265" lon="4.5530458"><ele>809.0</ele><time>2026-04-19T09:01:50.016Z</time></trkpt><trkpt lat="45.5785251" lon="4.5529284"><ele>809.0</ele><time>2026-04-19T09:01:51.014Z</time></trkpt><trkpt lat="45.578514" lon="4.5528102"><ele>809.0</ele><time>2026-04-19T09:01:52.014Z</time></trkpt><trkpt lat="45.5785013" lon="4.5526944"><ele>809.0000000000001</ele><time>2026-04-19T09:01:53.014Z</time></trkpt><trkpt lat="45.5784872" lon="4.552583"><ele>809.0</ele><time>2026-04-19T09:01:54.015Z</time></trkpt><trkpt lat="45.5784805" lon="4.5524621"><ele>809.8333333333334</ele><time>2026-04-19T09:01:55.014Z</time></trkpt><trkpt lat="45.5784879" lon="4.5523396"><ele>810.6666666666667</ele><time>2026-04-19T09:01:56.014Z</time></trkpt><trkpt lat="45.5785098" lon="4.55221"><ele>811.5</ele><time>2026-04-19T09:01:57.014Z</time></trkpt><trkpt lat="45.5785331" lon="4.5520774"><ele>812.3333333333333</ele><time>2026-04-19T09:01:58.013Z</time></trkpt><trkpt lat="45.5785415" lon="4.5519527"><ele>813.1666666666666</ele><time>2026-04-19T09:01:59.015Z</time></trkpt><trkpt lat="45.578543" lon="4.5518445"><ele>814.0</ele><time>2026-04-19T09:02:00.014Z</time></trkpt><trkpt lat="45.5785406" lon="4.5517461"><ele>815.0</ele><time>2026-04-19T09:02:01.014Z</time></trkpt><trkpt lat="45.5785416" lon="4.5515807"><ele>816.0</ele><time>2026-04-19T09:02:03.014Z</time></trkpt><trkpt lat="45.5785503" lon="4.5514158"><ele>817.0</ele><time>2026-04-19T09:02:05.014Z</time></trkpt><trkpt lat="45.5785548" lon="4.5512526"><ele>818.0</ele><time>2026-04-19T09:02:07.013Z</time></trkpt><trkpt lat="45.5785779" lon="4.5511183"><ele>819.0</ele><time>2026-04-19T09:02:09.014Z</time></trkpt><trkpt lat="45.5786013" lon="4.5509846"><ele>819.4000000000001</ele><time>2026-04-19T09:02:11.016Z</time></trkpt><trkpt lat="45.578637" lon="4.5508416"><ele>819.8</ele><time>2026-04-19T09:02:13.014Z</time></trkpt><trkpt lat="45.5786773" lon="4.550673"><ele>820.2</ele><time>2026-04-19T09:02:15.014Z</time></trkpt><trkpt lat="45.5787025" lon="4.5505652"><ele>820.5999999999999</ele><time>2026-04-19T09:02:16.014Z</time></trkpt><trkpt lat="45.5787307" lon="4.5504444"><ele>821.0</ele><time>2026-04-19T09:02:17.016Z</time></trkpt><trkpt lat="45.5787723" lon="4.5503158"><ele>820.0</ele><time>2026-04-19T09:02:18.015Z</time></trkpt><trkpt lat="45.5788087" lon="4.5501763"><ele>819.0</ele><time>2026-04-19T09:02:19.015Z</time></trkpt><trkpt lat="45.5788485" lon="4.5500338"><ele>818.0</ele><time>2026-04-19T09:02:20.015Z</time></trkpt><trkpt lat="45.5788814" lon="4.5498679"><ele>817.0</ele><time>2026-04-19T09:02:21.015Z</time></trkpt><trkpt lat="45.5789135" lon="4.5497048"><ele>817.0</ele><time>2026-04-19T09:02:22.014Z</time></trkpt><trkpt lat="45.5789343" lon="4.5495437"><ele>817.0</ele><time>2026-04-19T09:02:23.014Z</time></trkpt><trkpt lat="45.5789403" lon="4.5493999"><ele>817.0</ele><time>2026-04-19T09:02:24.014Z</time></trkpt><trkpt lat="45.5789467" lon="4.5492572"><ele>817.0</ele><time>2026-04-19T09:02:25.015Z</time></trkpt><trkpt lat="45.5789537" lon="4.5491258"><ele>817.0</ele><time>2026-04-19T09:02:26.014Z</time></trkpt><trkpt lat="45.5789614" lon="4.5490056"><ele>817.8333333333333</ele><time>2026-04-19T09:02:27.015Z</time></trkpt><trkpt lat="45.5789655" lon="4.5488834"><ele>818.6666666666666</ele><time>2026-04-19T09:02:28.014Z</time></trkpt><trkpt lat="45.57897" lon="4.5487648"><ele>819.5</ele><time>2026-04-19T09:02:29.014Z</time></trkpt><trkpt lat="45.5789747" lon="4.5486458"><ele>820.3333333333333</ele><time>2026-04-19T09:02:30.015Z</time></trkpt><trkpt lat="45.5789868" lon="4.5485345"><ele>821.1666666666666</ele><time>2026-04-19T09:02:31.014Z</time></trkpt><trkpt lat="45.5789989" lon="4.5483691"><ele>822.0</ele><time>2026-04-19T09:02:33.015Z</time></trkpt><trkpt lat="45.5790434" lon="4.5482846"><ele>823.0</ele><time>2026-04-19T09:02:35.014Z</time></trkpt><trkpt lat="45.5791225" lon="4.5481832"><ele>824.0</ele><time>2026-04-19T09:02:37.014Z</time></trkpt><trkpt lat="45.5791701" lon="4.5480876"><ele>825.0</ele><time>2026-04-19T09:02:38.014Z</time></trkpt><trkpt lat="45.5792095" lon="4.5479811"><ele>826.0</ele><time>2026-04-19T09:02:39.014Z</time></trkpt><trkpt lat="45.5792699" lon="4.5478538"><ele>827.0</ele><time>2026-04-19T09:02:40.015Z</time></trkpt><trkpt lat="45.5793224" lon="4.5477265"><ele>827.6</ele><time>2026-04-19T09:02:41.015Z</time></trkpt><trkpt lat="45.5793714" lon="4.5475995"><ele>828.2</ele><time>2026-04-19T09:02:42.014Z</time></trkpt><trkpt lat="45.5794069" lon="4.5474603"><ele>828.8</ele><time>2026-04-19T09:02:43.015Z</time></trkpt><trkpt lat="45.5794487" lon="4.5473296"><ele>829.4</ele><time>2026-04-19T09:02:44.014Z</time></trkpt><trkpt lat="45.5794741" lon="4.5471888"><ele>830.0</ele><time>2026-04-19T09:02:45.014Z</time></trkpt><trkpt lat="45.5795018" lon="4.5470362"><ele>828.4</ele><time>2026-04-19T09:02:46.014Z</time></trkpt><trkpt lat="45.5795251" lon="4.5468866"><ele>826.8</ele><time>2026-04-19T09:02:47.014Z</time></trkpt><trkpt lat="45.5795446" lon="4.5467438"><ele>825.2</ele><time>2026-04-19T09:02:48.015Z</time></trkpt><trkpt lat="45.5795579" lon="4.546614"><ele>823.6</ele><time>2026-04-19T09:02:49.014Z</time></trkpt><trkpt lat="45.5795629" lon="4.5464861"><ele>822.0</ele><time>2026-04-19T09:02:50.014Z</time></trkpt><trkpt lat="45.5795634" lon="4.546352"><ele>822.0</ele><time>2026-04-19T09:02:51.014Z</time></trkpt><trkpt lat="45.5795635" lon="4.5462143"><ele>822.0</ele><time>2026-04-19T09:02:52.016Z</time></trkpt><trkpt lat="45.5795686" lon="4.5460731"><ele>822.0</ele><time>2026-04-19T09:02:53.014Z</time></trkpt><trkpt lat="45.5795639" lon="4.5459455"><ele>822.0</ele><time>2026-04-19T09:02:54.014Z</time></trkpt><trkpt lat="45.5795503" lon="4.5458345"><ele>822.0</ele><time>2026-04-19T09:02:55.014Z</time></trkpt><trkpt lat="45.5795271" lon="4.5457369"><ele>822.0</ele><time>2026-04-19T09:02:56.014Z</time></trkpt><trkpt lat="45.5795241" lon="4.5456208"><ele>822.2</ele><time>2026-04-19T09:02:57.014Z</time></trkpt><trkpt lat="45.5795274" lon="4.5454992"><ele>822.4000000000001</ele><time>2026-04-19T09:02:58.014Z</time></trkpt><trkpt lat="45.5795438" lon="4.5453541"><ele>822.5999999999999</ele><time>2026-04-19T09:02:59.013Z</time></trkpt><trkpt lat="45.579567" lon="4.5452185"><ele>822.8</ele><time>2026-04-19T09:03:00.014Z</time></trkpt><trkpt lat="45.5795826" lon="4.5450659"><ele>823.0</ele><time>2026-04-19T09:03:01.013Z</time></trkpt><trkpt lat="45.5796076" lon="4.54492"><ele>823.0</ele><time>2026-04-19T09:03:02.015Z</time></trkpt><trkpt lat="45.5796242" lon="4.544745"><ele>823.0</ele><time>2026-04-19T09:03:03.014Z</time></trkpt><trkpt lat="45.5796324" lon="4.5445763"><ele>823.0</ele><time>2026-04-19T09:03:04.014Z</time></trkpt><trkpt lat="45.5796399" lon="4.5444431"><ele>823.0</ele><time>2026-04-19T09:03:05.014Z</time></trkpt><trkpt lat="45.579648" lon="4.5443204"><ele>823.0</ele><time>2026-04-19T09:03:06.015Z</time></trkpt><trkpt lat="45.5796411" lon="4.5441869"><ele>823.3333333333333</ele><time>2026-04-19T09:03:07.014Z</time></trkpt><trkpt lat="45.5796541" lon="4.5440717"><ele>823.6666666666666</ele><time>2026-04-19T09:03:08.015Z</time></trkpt><trkpt lat="45.5796639" lon="4.5439644"><ele>824.0</ele><time>2026-04-19T09:03:09.014Z</time></trkpt><trkpt lat="45.5796667" lon="4.5438711"><ele>824.3333333333333</ele><time>2026-04-19T09:03:10.015Z</time></trkpt><trkpt lat="45.5796717" lon="4.5437708"><ele>824.6666666666666</ele><time>2026-04-19T09:03:11.014Z</time></trkpt><trkpt lat="45.5796728" lon="4.5436545"><ele>825.0</ele><time>2026-04-19T09:03:12.014Z</time></trkpt><trkpt lat="45.5796753" lon="4.5435194"><ele>825.3333333333334</ele><time>2026-04-19T09:03:13.015Z</time></trkpt><trkpt lat="45.5796786" lon="4.5434227"><ele>825.6666666666667</ele><time>2026-04-19T09:03:14.015Z</time></trkpt><trkpt lat="45.5796907" lon="4.5432405"><ele>826.0</ele><time>2026-04-19T09:03:16.014Z</time></trkpt><trkpt lat="45.5796879" lon="4.5431184"><ele>826.3333333333334</ele><time>2026-04-19T09:03:17.016Z</time></trkpt><trkpt lat="45.5797139" lon="4.5430129"><ele>826.6666666666667</ele><time>2026-04-19T09:03:18.014Z</time></trkpt><trkpt lat="45.5797575" lon="4.5429205"><ele>827.0</ele><time>2026-04-19T09:03:19.014Z</time></trkpt><trkpt lat="45.5798321" lon="4.5428574"><ele>827.5000000000001</ele><time>2026-04-19T09:03:20.014Z</time></trkpt><trkpt lat="45.5799151" lon="4.5427926"><ele>828.0</ele><time>2026-04-19T09:03:21.014Z</time></trkpt><trkpt lat="45.5799999" lon="4.5427345"><ele>828.5</ele><time>2026-04-19T09:03:22.014Z</time></trkpt><trkpt lat="45.5800735" lon="4.5426715"><ele>829.0</ele><time>2026-04-19T09:03:23.014Z</time></trkpt><trkpt lat="45.5801388" lon="4.5426095"><ele>829.5000000000001</ele><time>2026-04-19T09:03:24.013Z</time></trkpt><trkpt lat="45.5801887" lon="4.5425352"><ele>830.0</ele><time>2026-04-19T09:03:25.014Z</time></trkpt><trkpt lat="45.5802593" lon="4.5424708"><ele>830.0000000000001</ele><time>2026-04-19T09:03:26.014Z</time></trkpt><trkpt lat="45.5803184" lon="4.5424115"><ele>830.0</ele><time>2026-04-19T09:03:27.014Z</time></trkpt><trkpt lat="45.5804048" lon="4.5423343"><ele>830.0</ele><time>2026-04-19T09:03:29.015Z</time></trkpt><trkpt lat="45.5804551" lon="4.5422749"><ele>830.0</ele><time>2026-04-19T09:03:30.014Z</time></trkpt><trkpt lat="45.5805146" lon="4.5422069"><ele>830.0000000000001</ele><time>2026-04-19T09:03:31.014Z</time></trkpt><trkpt lat="45.5805784" lon="4.5421253"><ele>830.0</ele><time>2026-04-19T09:03:32.014Z</time></trkpt><trkpt lat="45.5806417" lon="4.5420405"><ele>831.0000000000001</ele><time>2026-04-19T09:03:33.014Z</time></trkpt><trkpt lat="45.5807012" lon="4.5419529"><ele>832.0</ele><time>2026-04-19T09:03:34.014Z</time></trkpt><trkpt lat="45.5807383" lon="4.5418711"><ele>833.0</ele><time>2026-04-19T09:03:35.015Z</time></trkpt><trkpt lat="45.5807848" lon="4.5418021"><ele>834.0</ele><time>2026-04-19T09:03:36.014Z</time></trkpt><trkpt lat="45.5808321" lon="4.5417135"><ele>835.0000000000001</ele><time>2026-04-19T09:03:37.014Z</time></trkpt><trkpt lat="45.580889" lon="4.5416242"><ele>836.0</ele><time>2026-04-19T09:03:38.014Z</time></trkpt><trkpt lat="45.580948" lon="4.5415307"><ele>836.0000000000001</ele><time>2026-04-19T09:03:39.014Z</time></trkpt><trkpt lat="45.5810045" lon="4.5414402"><ele>836.0</ele><time>2026-04-19T09:03:40.014Z</time></trkpt><trkpt lat="45.5810544" lon="4.5413495"><ele>836.0</ele><time>2026-04-19T09:03:41.014Z</time></trkpt><trkpt lat="45.5811086" lon="4.5412839"><ele>836.0</ele><time>2026-04-19T09:03:42.015Z</time></trkpt><trkpt lat="45.5811645" lon="4.5412383"><ele>836.0000000000001</ele><time>2026-04-19T09:03:43.014Z</time></trkpt><trkpt lat="45.5812313" lon="4.5411761"><ele>836.0</ele><time>2026-04-19T09:03:44.014Z</time></trkpt><trkpt lat="45.5813038" lon="4.5411009"><ele>837.4</ele><time>2026-04-19T09:03:45.014Z</time></trkpt><trkpt lat="45.5813862" lon="4.5410247"><ele>838.8</ele><time>2026-04-19T09:03:46.015Z</time></trkpt><trkpt lat="45.5814804" lon="4.5409442"><ele>840.1999999999999</ele><time>2026-04-19T09:03:47.014Z</time></trkpt><trkpt lat="45.581581" lon="4.540867"><ele>841.5999999999999</ele><time>2026-04-19T09:03:48.014Z</time></trkpt><trkpt lat="45.5816865" lon="4.540791"><ele>843.0</ele><time>2026-04-19T09:03:49.014Z</time></trkpt><trkpt lat="45.5817883" lon="4.540721"><ele>843.0</ele><time>2026-04-19T09:03:50.014Z</time></trkpt><trkpt lat="45.581883" lon="4.5406538"><ele>843.0</ele><time>2026-04-19T09:03:51.014Z</time></trkpt><trkpt lat="45.5819572" lon="4.5405881"><ele>843.0</ele><time>2026-04-19T09:03:52.014Z</time></trkpt><trkpt lat="45.5820084" lon="4.5405292"><ele>843.0</ele><time>2026-04-19T09:03:53.014Z</time></trkpt><trkpt lat="45.5821041" lon="4.5404316"><ele>843.0</ele><time>2026-04-19T09:03:55.014Z</time></trkpt><trkpt lat="45.5821534" lon="4.540367"><ele>843.0</ele><time>2026-04-19T09:03:56.015Z</time></trkpt><trkpt lat="45.5822101" lon="4.5403022"><ele>844.5</ele><time>2026-04-19T09:03:57.014Z</time></trkpt><trkpt lat="45.5822629" lon="4.5402181"><ele>846.0</ele><time>2026-04-19T09:03:58.015Z</time></trkpt><trkpt lat="45.5823165" lon="4.5401517"><ele>847.5</ele><time>2026-04-19T09:03:59.015Z</time></trkpt><trkpt lat="45.5823839" lon="4.5400652"><ele>849.0</ele><time>2026-04-19T09:04:00.014Z</time></trkpt><trkpt lat="45.5824534" lon="4.5399741"><ele>850.5</ele><time>2026-04-19T09:04:01.015Z</time></trkpt><trkpt lat="45.5825117" lon="4.5398844"><ele>852.0</ele><time>2026-04-19T09:04:02.015Z</time></trkpt><trkpt lat="45.582568" lon="4.5398207"><ele>852.0</ele><time>2026-04-19T09:04:03.014Z</time></trkpt><trkpt lat="45.5826332" lon="4.5397697"><ele>852.0</ele><time>2026-04-19T09:04:04.015Z</time></trkpt><trkpt lat="45.5826995" lon="4.5397296"><ele>852.0</ele><time>2026-04-19T09:04:05.015Z</time></trkpt><trkpt lat="45.5827648" lon="4.5397076"><ele>852.0</ele><time>2026-04-19T09:04:06.014Z</time></trkpt><trkpt lat="45.5828271" lon="4.5396895"><ele>852.0</ele><time>2026-04-19T09:04:07.015Z</time></trkpt><trkpt lat="45.5829341" lon="4.5396622"><ele>852.0</ele><time>2026-04-19T09:04:09.014Z</time></trkpt><trkpt lat="45.5830359" lon="4.539659"><ele>852.8333333333334</ele><time>2026-04-19T09:04:11.015Z</time></trkpt><trkpt lat="45.5831324" lon="4.5396491"><ele>853.6666666666667</ele><time>2026-04-19T09:04:13.014Z</time></trkpt><trkpt lat="45.5832126" lon="4.5396105"><ele>854.5</ele><time>2026-04-19T09:04:15.016Z</time></trkpt><trkpt lat="45.5832889" lon="4.5395777"><ele>855.3333333333334</ele><time>2026-04-19T09:04:17.014Z</time></trkpt><trkpt lat="45.5833702" lon="4.5395499"><ele>856.1666666666667</ele><time>2026-04-19T09:04:19.014Z</time></trkpt><trkpt lat="45.5834423" lon="4.539524"><ele>857.0</ele><time>2026-04-19T09:04:21.014Z</time></trkpt><trkpt lat="45.5834739" lon="4.53944"><ele>857.3333333333334</ele><time>2026-04-19T09:04:24.014Z</time></trkpt><trkpt lat="45.5834806" lon="4.5392994"><ele>857.6666666666667</ele><time>2026-04-19T09:04:26.014Z</time></trkpt><trkpt lat="45.5835372" lon="4.5392296"><ele>858.0</ele><time>2026-04-19T09:04:28.014Z</time></trkpt><trkpt lat="45.5836177" lon="4.5392867"><ele>858.3333333333333</ele><time>2026-04-19T09:04:30.014Z</time></trkpt><trkpt lat="45.5836973" lon="4.5393999"><ele>858.6666666666666</ele><time>2026-04-19T09:04:32.014Z</time></trkpt><trkpt lat="45.5837551" lon="4.539453"><ele>859.0</ele><time>2026-04-19T09:04:33.015Z</time></trkpt><trkpt lat="45.5838217" lon="4.539499"><ele>858.9999999999999</ele><time>2026-04-19T09:04:34.014Z</time></trkpt><trkpt lat="45.583895" lon="4.5395486"><ele>859.0</ele><time>2026-04-19T09:04:35.014Z</time></trkpt><trkpt lat="45.5839683" lon="4.5395914"><ele>859.0</ele><time>2026-04-19T09:04:36.014Z</time></trkpt><trkpt lat="45.5840412" lon="4.5396454"><ele>859.0</ele><time>2026-04-19T09:04:37.015Z</time></trkpt><trkpt lat="45.5841123" lon="4.5397116"><ele>858.9999999999999</ele><time>2026-04-19T09:04:38.014Z</time></trkpt><trkpt lat="45.5841828" lon="4.5397769"><ele>859.0</ele><time>2026-04-19T09:04:39.014Z</time></trkpt><trkpt lat="45.5842554" lon="4.539801"><ele>858.2</ele><time>2026-04-19T09:04:40.015Z</time></trkpt><trkpt lat="45.5843273" lon="4.5397649"><ele>857.4000000000001</ele><time>2026-04-19T09:04:41.014Z</time></trkpt><trkpt lat="45.5844179" lon="4.5397035"><ele>856.6</ele><time>2026-04-19T09:04:42.014Z</time></trkpt><trkpt lat="45.5845223" lon="4.5396188"><ele>855.8</ele><time>2026-04-19T09:04:43.016Z</time></trkpt><trkpt lat="45.5846433" lon="4.5395126"><ele>855.0</ele><time>2026-04-19T09:04:44.016Z</time></trkpt><trkpt lat="45.5847583" lon="4.539409"><ele>855.0</ele><time>2026-04-19T09:04:45.014Z</time></trkpt><trkpt lat="45.5848702" lon="4.5393149"><ele>855.0</ele><time>2026-04-19T09:04:46.014Z</time></trkpt><trkpt lat="45.5849777" lon="4.539233"><ele>855.0</ele><time>2026-04-19T09:04:47.014Z</time></trkpt><trkpt lat="45.5850765" lon="4.5391617"><ele>855.0</ele><time>2026-04-19T09:04:48.014Z</time></trkpt><trkpt lat="45.5851647" lon="4.5390959"><ele>855.0</ele><time>2026-04-19T09:04:49.015Z</time></trkpt><trkpt lat="45.585247" lon="4.5390379"><ele>855.0</ele><time>2026-04-19T09:04:50.014Z</time></trkpt><trkpt lat="45.5853291" lon="4.5389892"><ele>855.0</ele><time>2026-04-19T09:04:51.014Z</time></trkpt><trkpt lat="45.5854042" lon="4.5389359"><ele>855.0</ele><time>2026-04-19T09:04:52.015Z</time></trkpt><trkpt lat="45.585485" lon="4.5388868"><ele>855.0</ele><time>2026-04-19T09:04:53.014Z</time></trkpt><trkpt lat="45.5855574" lon="4.5388189"><ele>855.0</ele><time>2026-04-19T09:04:54.015Z</time></trkpt><trkpt lat="45.5856321" lon="4.5387508"><ele>851.2</ele><time>2026-04-19T09:04:55.014Z</time></trkpt><trkpt lat="45.5857064" lon="4.5386868"><ele>847.4</ele><time>2026-04-19T09:04:56.014Z</time></trkpt><trkpt lat="45.5857776" lon="4.5386275"><ele>843.5999999999999</ele><time>2026-04-19T09:04:57.015Z</time></trkpt><trkpt lat="45.5858679" lon="4.5385825"><ele>839.8</ele><time>2026-04-19T09:04:58.014Z</time></trkpt><trkpt lat="45.5859574" lon="4.5385225"><ele>836.0</ele><time>2026-04-19T09:04:59.014Z</time></trkpt><trkpt lat="45.586036" lon="4.5384604"><ele>836.0000000000001</ele><time>2026-04-19T09:05:00.014Z</time></trkpt><trkpt lat="45.5861043" lon="4.5384161"><ele>836.0</ele><time>2026-04-19T09:05:01.014Z</time></trkpt><trkpt lat="45.5862167" lon="4.5383238"><ele>836.0</ele><time>2026-04-19T09:05:03.015Z</time></trkpt><trkpt lat="45.586275" lon="4.5382852"><ele>836.0</ele><time>2026-04-19T09:05:04.014Z</time></trkpt><trkpt lat="45.5863372" lon="4.5382317"><ele>836.0000000000001</ele><time>2026-04-19T09:05:05.015Z</time></trkpt><trkpt lat="45.5864093" lon="4.5381841"><ele>836.0</ele><time>2026-04-19T09:05:06.014Z</time></trkpt><trkpt lat="45.5864782" lon="4.5381359"><ele>834.3333333333334</ele><time>2026-04-19T09:05:07.015Z</time></trkpt><trkpt lat="45.5865542" lon="4.5380972"><ele>832.6666666666667</ele><time>2026-04-19T09:05:08.014Z</time></trkpt><trkpt lat="45.5866297" lon="4.5380382"><ele>831.0</ele><time>2026-04-19T09:05:09.014Z</time></trkpt><trkpt lat="45.5866925" lon="4.5379689"><ele>829.3333333333333</ele><time>2026-04-19T09:05:10.015Z</time></trkpt><trkpt lat="45.5867537" lon="4.537891"><ele>827.6666666666666</ele><time>2026-04-19T09:05:11.014Z</time></trkpt><trkpt lat="45.5868002" lon="4.5378257"><ele>826.0</ele><time>2026-04-19T09:05:12.014Z</time></trkpt><trkpt lat="45.5868609" lon="4.5377001"><ele>824.8333333333333</ele><time>2026-04-19T09:05:14.016Z</time></trkpt><trkpt lat="45.5868919" lon="4.5375915"><ele>823.6666666666666</ele><time>2026-04-19T09:05:16.015Z</time></trkpt><trkpt lat="45.5868447" lon="4.5375058"><ele>822.5</ele><time>2026-04-19T09:05:18.015Z</time></trkpt><trkpt lat="45.5868155" lon="4.5374064"><ele>821.3333333333333</ele><time>2026-04-19T09:05:19.014Z</time></trkpt><trkpt lat="45.5867888" lon="4.5372896"><ele>820.1666666666666</ele><time>2026-04-19T09:05:20.014Z</time></trkpt><trkpt lat="45.5867558" lon="4.5371564"><ele>819.0</ele><time>2026-04-19T09:05:21.014Z</time></trkpt><trkpt lat="45.5867074" lon="4.5369999"><ele>818.2</ele><time>2026-04-19T09:05:22.016Z</time></trkpt><trkpt lat="45.5866647" lon="4.5368352"><ele>817.4000000000001</ele><time>2026-04-19T09:05:23.016Z</time></trkpt><trkpt lat="45.5866218" lon="4.5366781"><ele>816.6</ele><time>2026-04-19T09:05:24.015Z</time></trkpt><trkpt lat="45.5865796" lon="4.5365506"><ele>815.8</ele><time>2026-04-19T09:05:25.015Z</time></trkpt><trkpt lat="45.5865451" lon="4.5364359"><ele>815.0</ele><time>2026-04-19T09:05:26.015Z</time></trkpt><trkpt lat="45.5865127" lon="4.5363496"><ele>815.0000000000001</ele><time>2026-04-19T09:05:27.014Z</time></trkpt><trkpt lat="45.5864718" lon="4.5362603"><ele>815.0</ele><time>2026-04-19T09:05:28.015Z</time></trkpt><trkpt lat="45.5864196" lon="4.5361848"><ele>815.0</ele><time>2026-04-19T09:05:29.014Z</time></trkpt><trkpt lat="45.5863637" lon="4.5361061"><ele>815.0</ele><time>2026-04-19T09:05:30.016Z</time></trkpt><trkpt lat="45.5863112" lon="4.5360272"><ele>815.0000000000001</ele><time>2026-04-19T09:05:31.014Z</time></trkpt><trkpt lat="45.5862678" lon="4.5359532"><ele>815.0</ele><time>2026-04-19T09:05:32.014Z</time></trkpt><trkpt lat="45.5862081" lon="4.5358488"><ele>815.4</ele><time>2026-04-19T09:05:34.015Z</time></trkpt><trkpt lat="45.5861339" lon="4.5357276"><ele>815.8</ele><time>2026-04-19T09:05:36.015Z</time></trkpt><trkpt lat="45.5860831" lon="4.5356359"><ele>816.2</ele><time>2026-04-19T09:05:37.014Z</time></trkpt><trkpt lat="45.5860269" lon="4.535532"><ele>816.6</ele><time>2026-04-19T09:05:38.015Z</time></trkpt><trkpt lat="45.5859657" lon="4.5354032"><ele>817.0</ele><time>2026-04-19T09:05:39.014Z</time></trkpt><trkpt lat="45.5858953" lon="4.5352646"><ele>815.5</ele><time>2026-04-19T09:05:40.015Z</time></trkpt><trkpt lat="45.5858182" lon="4.5351242"><ele>814.0</ele><time>2026-04-19T09:05:41.015Z</time></trkpt><trkpt lat="45.5857371" lon="4.5349913"><ele>812.5</ele><time>2026-04-19T09:05:42.014Z</time></trkpt><trkpt lat="45.5856467" lon="4.5348554"><ele>811.0</ele><time>2026-04-19T09:05:43.014Z</time></trkpt><trkpt lat="45.5855378" lon="4.5347196"><ele>811.0</ele><time>2026-04-19T09:05:44.015Z</time></trkpt><trkpt lat="45.5854171" lon="4.5345925"><ele>811.0</ele><time>2026-04-19T09:05:45.014Z</time></trkpt><trkpt lat="45.5852947" lon="4.5344756"><ele>811.0</ele><time>2026-04-19T09:05:46.014Z</time></trkpt><trkpt lat="45.5851743" lon="4.534342"><ele>810.5</ele><time>2026-04-19T09:05:47.016Z</time></trkpt><trkpt lat="45.5850744" lon="4.534194"><ele>810.0</ele><time>2026-04-19T09:05:48.014Z</time></trkpt><trkpt lat="45.584991" lon="4.5340243"><ele>809.5</ele><time>2026-04-19T09:05:49.015Z</time></trkpt><trkpt lat="45.5849157" lon="4.5338395"><ele>809.0</ele><time>2026-04-19T09:05:50.014Z</time></trkpt><trkpt lat="45.5848321" lon="4.5336524"><ele>809.0</ele><time>2026-04-19T09:05:51.015Z</time></trkpt><trkpt lat="45.5847383" lon="4.5334836"><ele>809.0</ele><time>2026-04-19T09:05:52.014Z</time></trkpt><trkpt lat="45.5846386" lon="4.5333163"><ele>809.0</ele><time>2026-04-19T09:05:53.015Z</time></trkpt><trkpt lat="45.5845371" lon="4.5331527"><ele>810.75</ele><time>2026-04-19T09:05:54.015Z</time></trkpt><trkpt lat="45.584439" lon="4.5329918"><ele>812.5</ele><time>2026-04-19T09:05:55.015Z</time></trkpt><trkpt lat="45.5843466" lon="4.5328397"><ele>814.25</ele><time>2026-04-19T09:05:56.014Z</time></trkpt><trkpt lat="45.5842622" lon="4.5326888"><ele>816.0</ele><time>2026-04-19T09:05:57.015Z</time></trkpt><trkpt lat="45.5841835" lon="4.5325394"><ele>816.0</ele><time>2026-04-19T09:05:58.015Z</time></trkpt><trkpt lat="45.5841128" lon="4.5324034"><ele>816.0</ele><time>2026-04-19T09:05:59.014Z</time></trkpt><trkpt lat="45.5840465" lon="4.5322849"><ele>816.0</ele><time>2026-04-19T09:06:00.014Z</time></trkpt><trkpt lat="45.58398" lon="4.5321846"><ele>816.0</ele><time>2026-04-19T09:06:01.014Z</time></trkpt><trkpt lat="45.5839145" lon="4.532103"><ele>816.0</ele><time>2026-04-19T09:06:02.014Z</time></trkpt><trkpt lat="45.5838573" lon="4.5320346"><ele>816.8333333333334</ele><time>2026-04-19T09:06:03.015Z</time></trkpt><trkpt lat="45.583812" lon="4.5319527"><ele>817.6666666666667</ele><time>2026-04-19T09:06:04.015Z</time></trkpt><trkpt lat="45.5837769" lon="4.5318603"><ele>818.5</ele><time>2026-04-19T09:06:05.015Z</time></trkpt><trkpt lat="45.5837432" lon="4.5317463"><ele>819.3333333333334</ele><time>2026-04-19T09:06:06.015Z</time></trkpt><trkpt lat="45.583705" lon="4.5316336"><ele>820.1666666666667</ele><time>2026-04-19T09:06:07.015Z</time></trkpt><trkpt lat="45.5836617" lon="4.5315197"><ele>821.0</ele><time>2026-04-19T09:06:08.014Z</time></trkpt><trkpt lat="45.5836068" lon="4.5313895"><ele>821.0</ele><time>2026-04-19T09:06:09.014Z</time></trkpt><trkpt lat="45.5835464" lon="4.5312582"><ele>821.0</ele><time>2026-04-19T09:06:10.014Z</time></trkpt><trkpt lat="45.5834938" lon="4.5311256"><ele>821.0</ele><time>2026-04-19T09:06:11.014Z</time></trkpt><trkpt lat="45.5834574" lon="4.5309888"><ele>821.0</ele><time>2026-04-19T09:06:12.014Z</time></trkpt><trkpt lat="45.5834307" lon="4.5308461"><ele>821.0</ele><time>2026-04-19T09:06:13.015Z</time></trkpt><trkpt lat="45.5834291" lon="4.5306972"><ele>818.5999999999999</ele><time>2026-04-19T09:06:14.014Z</time></trkpt><trkpt lat="45.5834293" lon="4.5305389"><ele>816.2</ele><time>2026-04-19T09:06:15.015Z</time></trkpt><trkpt lat="45.5834356" lon="4.5303708"><ele>813.8</ele><time>2026-04-19T09:06:16.015Z</time></trkpt><trkpt lat="45.5834455" lon="4.5302246"><ele>811.4000000000001</ele><time>2026-04-19T09:06:17.015Z</time></trkpt><trkpt lat="45.5834682" lon="4.5300873"><ele>809.0</ele><time>2026-04-19T09:06:18.014Z</time></trkpt><trkpt lat="45.5835019" lon="4.5299635"><ele>809.0</ele><time>2026-04-19T09:06:19.015Z</time></trkpt><trkpt lat="45.5835704" lon="4.5298675"><ele>809.0</ele><time>2026-04-19T09:06:20.014Z</time></trkpt><trkpt lat="45.5836365" lon="4.5297779"><ele>809.0</ele><time>2026-04-19T09:06:21.014Z</time></trkpt><trkpt lat="45.5836903" lon="4.5296684"><ele>809.0</ele><time>2026-04-19T09:06:22.015Z</time></trkpt><trkpt lat="45.5837581" lon="4.5295746"><ele>809.0</ele><time>2026-04-19T09:06:23.014Z</time></trkpt><trkpt lat="45.583818" lon="4.5294691"><ele>806.6</ele><time>2026-04-19T09:06:24.015Z</time></trkpt><trkpt lat="45.5838684" lon="4.5293538"><ele>804.2</ele><time>2026-04-19T09:06:25.014Z</time></trkpt><trkpt lat="45.5839208" lon="4.5292422"><ele>801.8000000000001</ele><time>2026-04-19T09:06:26.015Z</time></trkpt><trkpt lat="45.5839626" lon="4.5291198"><ele>799.4000000000001</ele><time>2026-04-19T09:06:27.015Z</time></trkpt><trkpt lat="45.5839916" lon="4.5289969"><ele>797.0</ele><time>2026-04-19T09:06:28.015Z</time></trkpt><trkpt lat="45.584027" lon="4.5288669"><ele>797.0000000000001</ele><time>2026-04-19T09:06:29.015Z</time></trkpt><trkpt lat="45.5840532" lon="4.5287347"><ele>797.0</ele><time>2026-04-19T09:06:30.014Z</time></trkpt><trkpt lat="45.5840803" lon="4.5286103"><ele>797.0</ele><time>2026-04-19T09:06:31.015Z</time></trkpt><trkpt lat="45.5841039" lon="4.5284888"><ele>797.0</ele><time>2026-04-19T09:06:32.014Z</time></trkpt><trkpt lat="45.5841266" lon="4.5283741"><ele>797.0000000000001</ele><time>2026-04-19T09:06:33.014Z</time></trkpt><trkpt lat="45.5841565" lon="4.5282652"><ele>797.0</ele><time>2026-04-19T09:06:34.015Z</time></trkpt><trkpt lat="45.5841618" lon="4.5281656"><ele>797.0</ele><time>2026-04-19T09:06:35.016Z</time></trkpt><trkpt lat="45.5841932" lon="4.5280011"><ele>797.0</ele><time>2026-04-19T09:06:37.014Z</time></trkpt><trkpt lat="45.5842146" lon="4.5278512"><ele>797.0</ele><time>2026-04-19T09:06:39.014Z</time></trkpt><trkpt lat="45.584238" lon="4.5277132"><ele>797.0</ele><time>2026-04-19T09:06:41.015Z</time></trkpt><trkpt lat="45.5842487" lon="4.5275705"><ele>797.0</ele><time>2026-04-19T09:06:43.014Z</time></trkpt><trkpt lat="45.5842522" lon="4.5274745"><ele>797.0000000000001</ele><time>2026-04-19T09:06:44.015Z</time></trkpt><trkpt lat="45.5842518" lon="4.5273307"><ele>797.0</ele><time>2026-04-19T09:06:45.015Z</time></trkpt><trkpt lat="45.5842504" lon="4.5271886"><ele>797.0</ele><time>2026-04-19T09:06:46.015Z</time></trkpt><trkpt lat="45.5842489" lon="4.5270598"><ele>797.0</ele><time>2026-04-19T09:06:47.014Z</time></trkpt><trkpt lat="45.5842458" lon="4.5269553"><ele>797.0000000000001</ele><time>2026-04-19T09:06:48.015Z</time></trkpt><trkpt lat="45.5842325" lon="4.5268473"><ele>797.0</ele><time>2026-04-19T09:06:50.016Z</time></trkpt><trkpt lat="45.5842046" lon="4.5267132"><ele>796.8333333333334</ele><time>2026-04-19T09:07:39.016Z</time></trkpt><trkpt lat="45.584148" lon="4.5265572"><ele>796.6666666666667</ele><time>2026-04-19T09:07:41.014Z</time></trkpt><trkpt lat="45.5841177" lon="4.5264752"><ele>796.5</ele><time>2026-04-19T09:07:42.014Z</time></trkpt><trkpt lat="45.5840877" lon="4.5263892"><ele>796.3333333333333</ele><time>2026-04-19T09:07:43.015Z</time></trkpt><trkpt lat="45.5840467" lon="4.5262983"><ele>796.1666666666666</ele><time>2026-04-19T09:07:44.016Z</time></trkpt><trkpt lat="45.5839986" lon="4.526215"><ele>796.0</ele><time>2026-04-19T09:07:45.014Z</time></trkpt><trkpt lat="45.5839389" lon="4.5261391"><ele>794.75</ele><time>2026-04-19T09:07:46.014Z</time></trkpt><trkpt lat="45.5838517" lon="4.5260521"><ele>793.5</ele><time>2026-04-19T09:07:47.015Z</time></trkpt><trkpt lat="45.5837452" lon="4.5259671"><ele>792.25</ele><time>2026-04-19T09:07:48.015Z</time></trkpt><trkpt lat="45.5836227" lon="4.525873"><ele>791.0</ele><time>2026-04-19T09:07:49.014Z</time></trkpt><trkpt lat="45.583487" lon="4.5257817"><ele>791.0</ele><time>2026-04-19T09:07:50.014Z</time></trkpt><trkpt lat="45.583344" lon="4.5256678"><ele>791.0</ele><time>2026-04-19T09:07:51.016Z</time></trkpt><trkpt lat="45.5831905" lon="4.5255501"><ele>791.0</ele><time>2026-04-19T09:07:52.014Z</time></trkpt><trkpt lat="45.5830363" lon="4.5254372"><ele>789.3333333333334</ele><time>2026-04-19T09:07:53.014Z</time></trkpt><trkpt lat="45.5829002" lon="4.5253278"><ele>787.6666666666667</ele><time>2026-04-19T09:07:54.015Z</time></trkpt><trkpt lat="45.5827641" lon="4.5252208"><ele>786.0</ele><time>2026-04-19T09:07:55.016Z</time></trkpt><trkpt lat="45.5826244" lon="4.5251107"><ele>786.0</ele><time>2026-04-19T09:07:56.016Z</time></trkpt><trkpt lat="45.5824875" lon="4.5249624"><ele>786.0</ele><time>2026-04-19T09:07:57.015Z</time></trkpt><trkpt lat="45.5823516" lon="4.5247946"><ele>786.0</ele><time>2026-04-19T09:07:58.015Z</time></trkpt><trkpt lat="45.5822182" lon="4.5246249"><ele>786.6666666666667</ele><time>2026-04-19T09:07:59.014Z</time></trkpt><trkpt lat="45.5820789" lon="4.5244467"><ele>787.3333333333334</ele><time>2026-04-19T09:08:00.015Z</time></trkpt><trkpt lat="45.5819359" lon="4.52427"><ele>788.0</ele><time>2026-04-19T09:08:01.016Z</time></trkpt><trkpt lat="45.5817938" lon="4.5240899"><ele>788.0</ele><time>2026-04-19T09:08:02.015Z</time></trkpt><trkpt lat="45.5816632" lon="4.523932"><ele>788.0</ele><time>2026-04-19T09:08:03.014Z</time></trkpt><trkpt lat="45.5815405" lon="4.5237913"><ele>788.0</ele><time>2026-04-19T09:08:04.015Z</time></trkpt><trkpt lat="45.5814271" lon="4.5236491"><ele>788.75</ele><time>2026-04-19T09:08:05.015Z</time></trkpt><trkpt lat="45.5813177" lon="4.5235232"><ele>789.5</ele><time>2026-04-19T09:08:06.015Z</time></trkpt><trkpt lat="45.5812234" lon="4.5234034"><ele>790.25</ele><time>2026-04-19T09:08:07.015Z</time></trkpt><trkpt lat="45.5811364" lon="4.5233087"><ele>791.0</ele><time>2026-04-19T09:08:08.014Z</time></trkpt><trkpt lat="45.5810498" lon="4.523238"><ele>791.0</ele><time>2026-04-19T09:08:09.015Z</time></trkpt><trkpt lat="45.5809595" lon="4.5232046"><ele>791.0</ele><time>2026-04-19T09:08:10.015Z</time></trkpt><trkpt lat="45.580852" lon="4.5232103"><ele>791.0</ele><time>2026-04-19T09:08:11.015Z</time></trkpt><trkpt lat="45.5807589" lon="4.5232118"><ele>791.0</ele><time>2026-04-19T09:08:12.017Z</time></trkpt><trkpt lat="45.5806889" lon="4.5232081"><ele>791.0</ele><time>2026-04-19T09:08:13.016Z</time></trkpt><trkpt lat="45.5805723" lon="4.5231711"><ele>791.0000000000001</ele><time>2026-04-19T09:08:15.015Z</time></trkpt><trkpt lat="45.5805132" lon="4.5231139"><ele>791.0</ele><time>2026-04-19T09:08:16.015Z</time></trkpt><trkpt lat="45.5804566" lon="4.523033"><ele>791.0</ele><time>2026-04-19T09:08:17.014Z</time></trkpt><trkpt lat="45.5803922" lon="4.5229403"><ele>791.0</ele><time>2026-04-19T09:08:18.014Z</time></trkpt><trkpt lat="45.5803364" lon="4.5228509"><ele>791.0000000000001</ele><time>2026-04-19T09:08:19.014Z</time></trkpt><trkpt lat="45.5802869" lon="4.5227591"><ele>791.0</ele><time>2026-04-19T09:08:20.015Z</time></trkpt><trkpt lat="45.5802522" lon="4.5226447"><ele>791.3333333333334</ele><time>2026-04-19T09:08:21.014Z</time></trkpt><trkpt lat="45.5802394" lon="4.5225275"><ele>791.6666666666667</ele><time>2026-04-19T09:08:22.014Z</time></trkpt><trkpt lat="45.5802389" lon="4.5224234"><ele>792.0</ele><time>2026-04-19T09:08:23.015Z</time></trkpt><trkpt lat="45.5802888" lon="4.5223227"><ele>792.3333333333333</ele><time>2026-04-19T09:08:25.014Z</time></trkpt><trkpt lat="45.5803447" lon="4.5222632"><ele>792.6666666666666</ele><time>2026-04-19T09:08:48.015Z</time></trkpt><trkpt lat="45.5803755" lon="4.5221814"><ele>793.0</ele><time>2026-04-19T09:08:59.015Z</time></trkpt><trkpt lat="45.5802849" lon="4.5222542"><ele>793.0</ele><time>2026-04-19T09:09:16.015Z</time></trkpt><trkpt lat="45.5802657" lon="4.5223564"><ele>793.0</ele><time>2026-04-19T09:09:17.015Z</time></trkpt><trkpt lat="45.5802541" lon="4.5224787"><ele>793.0</ele><time>2026-04-19T09:09:18.014Z</time></trkpt><trkpt lat="45.5802791" lon="4.5226402"><ele>793.0</ele><time>2026-04-19T09:09:19.015Z</time></trkpt><trkpt lat="45.5803324" lon="4.5228022"><ele>793.0</ele><time>2026-04-19T09:09:20.015Z</time></trkpt><trkpt lat="45.5804036" lon="4.5229568"><ele>792.5999999999999</ele><time>2026-04-19T09:09:21.015Z</time></trkpt><trkpt lat="45.5804914" lon="4.5230735"><ele>792.1999999999999</ele><time>2026-04-19T09:09:22.016Z</time></trkpt><trkpt lat="45.5805734" lon="4.5231743"><ele>791.8</ele><time>2026-04-19T09:09:23.017Z</time></trkpt><trkpt lat="45.5806612" lon="4.523201"><ele>791.4</ele><time>2026-04-19T09:09:24.015Z</time></trkpt><trkpt lat="45.5807667" lon="4.5232048"><ele>791.0</ele><time>2026-04-19T09:09:25.016Z</time></trkpt><trkpt lat="45.5808699" lon="4.5232005"><ele>791.0</ele><time>2026-04-19T09:09:26.016Z</time></trkpt><trkpt lat="45.5809673" lon="4.5232201"><ele>791.0</ele><time>2026-04-19T09:09:27.014Z</time></trkpt><trkpt lat="45.5810848" lon="4.5232826"><ele>791.0</ele><time>2026-04-19T09:09:28.016Z</time></trkpt><trkpt lat="45.5811978" lon="4.523368"><ele>791.0</ele><time>2026-04-19T09:09:29.016Z</time></trkpt><trkpt lat="45.5813168" lon="4.5235196"><ele>790.0</ele><time>2026-04-19T09:09:30.016Z</time></trkpt><trkpt lat="45.5814381" lon="4.5236699"><ele>789.0</ele><time>2026-04-19T09:09:31.015Z</time></trkpt><trkpt lat="45.5815744" lon="4.5238203"><ele>788.0</ele><time>2026-04-19T09:09:32.015Z</time></trkpt><trkpt lat="45.581716" lon="4.5239778"><ele>788.0</ele><time>2026-04-19T09:09:33.015Z</time></trkpt><trkpt lat="45.5818599" lon="4.5241487"><ele>788.0</ele><time>2026-04-19T09:09:34.016Z</time></trkpt><trkpt lat="45.5820047" lon="4.5243229"><ele>788.0</ele><time>2026-04-19T09:09:35.015Z</time></trkpt><trkpt lat="45.582144" lon="4.5245001"><ele>787.3333333333334</ele><time>2026-04-19T09:09:36.015Z</time></trkpt><trkpt lat="45.5822807" lon="4.5246765"><ele>786.6666666666667</ele><time>2026-04-19T09:09:37.015Z</time></trkpt><trkpt lat="45.5824088" lon="4.5248465"><ele>786.0</ele><time>2026-04-19T09:09:38.015Z</time></trkpt><trkpt lat="45.582524" lon="4.5249813"><ele>786.0</ele><time>2026-04-19T09:09:39.015Z</time></trkpt><trkpt lat="45.5826394" lon="4.525097"><ele>786.0</ele><time>2026-04-19T09:09:40.014Z</time></trkpt><trkpt lat="45.5827486" lon="4.52519"><ele>786.0</ele><time>2026-04-19T09:09:41.014Z</time></trkpt><trkpt lat="45.5828267" lon="4.5252694"><ele>786.0</ele><time>2026-04-19T09:09:42.015Z</time></trkpt><trkpt lat="45.5828979" lon="4.5253287"><ele>786.0</ele><time>2026-04-19T09:09:43.015Z</time></trkpt><trkpt lat="45.5829839" lon="4.5253977"><ele>785.1999999999999</ele><time>2026-04-19T09:09:45.015Z</time></trkpt><trkpt lat="45.5830459" lon="4.5254436"><ele>784.4</ele><time>2026-04-19T09:09:47.015Z</time></trkpt><trkpt lat="45.5830935" lon="4.5253585"><ele>783.6</ele><time>2026-04-19T09:09:51.015Z</time></trkpt><trkpt lat="45.5831261" lon="4.5252388"><ele>782.8</ele><time>2026-04-19T09:09:53.015Z</time></trkpt><trkpt lat="45.5831402" lon="4.5250771"><ele>782.0</ele><time>2026-04-19T09:09:55.015Z</time></trkpt><trkpt lat="45.5831629" lon="4.5249093"><ele>782.0000000000001</ele><time>2026-04-19T09:09:57.015Z</time></trkpt><trkpt lat="45.5831811" lon="4.5248167"><ele>782.0</ele><time>2026-04-19T09:09:58.015Z</time></trkpt><trkpt lat="45.5831758" lon="4.5246933"><ele>782.0</ele><time>2026-04-19T09:09:59.016Z</time></trkpt><trkpt lat="45.583168" lon="4.5245773"><ele>782.0</ele><time>2026-04-19T09:10:00.014Z</time></trkpt><trkpt lat="45.5831963" lon="4.5244182"><ele>782.0000000000001</ele><time>2026-04-19T09:10:02.016Z</time></trkpt><trkpt lat="45.5832155" lon="4.5243316"><ele>782.0</ele><time>2026-04-19T09:10:03.017Z</time></trkpt><trkpt lat="45.5832554" lon="4.5242593"><ele>781.1666666666667</ele><time>2026-04-19T09:10:04.014Z</time></trkpt><trkpt lat="45.5833023" lon="4.5241797"><ele>780.3333333333334</ele><time>2026-04-19T09:10:05.016Z</time></trkpt><trkpt lat="45.5833656" lon="4.524081"><ele>779.5</ele><time>2026-04-19T09:10:07.015Z</time></trkpt><trkpt lat="45.5834508" lon="4.5239971"><ele>778.6666666666667</ele><time>2026-04-19T09:10:10.014Z</time></trkpt><trkpt lat="45.5835195" lon="4.5239024"><ele>777.8333333333334</ele><time>2026-04-19T09:10:12.015Z</time></trkpt><trkpt lat="45.5835857" lon="4.5238819"><ele>777.0</ele><time>2026-04-19T09:10:13.015Z</time></trkpt><trkpt lat="45.583668" lon="4.5237736"><ele>776.8333333333334</ele><time>2026-04-19T09:10:15.015Z</time></trkpt><trkpt lat="45.583717" lon="4.5237073"><ele>776.6666666666667</ele><time>2026-04-19T09:10:16.014Z</time></trkpt><trkpt lat="45.5837799" lon="4.5236354"><ele>776.5</ele><time>2026-04-19T09:10:17.015Z</time></trkpt><trkpt lat="45.5838444" lon="4.5235602"><ele>776.3333333333334</ele><time>2026-04-19T09:10:18.016Z</time></trkpt><trkpt lat="45.5839055" lon="4.5234749"><ele>776.1666666666667</ele><time>2026-04-19T09:10:19.016Z</time></trkpt><trkpt lat="45.5839614" lon="4.5233745"><ele>776.0</ele><time>2026-04-19T09:10:20.015Z</time></trkpt><trkpt lat="45.5840037" lon="4.5232566"><ele>776.0</ele><time>2026-04-19T09:10:21.015Z</time></trkpt><trkpt lat="45.5840246" lon="4.5231298"><ele>776.0</ele><time>2026-04-19T09:10:22.015Z</time></trkpt><trkpt lat="45.5840358" lon="4.5229971"><ele>776.0</ele><time>2026-04-19T09:10:23.016Z</time></trkpt><trkpt lat="45.5840478" lon="4.5228375"><ele>776.0</ele><time>2026-04-19T09:10:24.016Z</time></trkpt><trkpt lat="45.5840633" lon="4.5227002"><ele>776.0</ele><time>2026-04-19T09:10:25.017Z</time></trkpt><trkpt lat="45.5840754" lon="4.5225665"><ele>777.1666666666667</ele><time>2026-04-19T09:10:26.016Z</time></trkpt><trkpt lat="45.5840981" lon="4.5224293"><ele>778.3333333333334</ele><time>2026-04-19T09:10:27.017Z</time></trkpt><trkpt lat="45.5841163" lon="4.522307"><ele>779.5</ele><time>2026-04-19T09:10:28.015Z</time></trkpt><trkpt lat="45.5841331" lon="4.5221963"><ele>780.6666666666667</ele><time>2026-04-19T09:10:29.016Z</time></trkpt><trkpt lat="45.5841345" lon="4.5220818"><ele>781.8333333333334</ele><time>2026-04-19T09:10:30.016Z</time></trkpt><trkpt lat="45.5841351" lon="4.5219519"><ele>783.0</ele><time>2026-04-19T09:10:31.016Z</time></trkpt><trkpt lat="45.5841407" lon="4.5218449"><ele>784.2</ele><time>2026-04-19T09:10:32.016Z</time></trkpt><trkpt lat="45.5841429" lon="4.5217233"><ele>785.4</ele><time>2026-04-19T09:10:33.014Z</time></trkpt><trkpt lat="45.5841565" lon="4.5216004"><ele>786.6</ele><time>2026-04-19T09:10:34.017Z</time></trkpt><trkpt lat="45.5841705" lon="4.5214619"><ele>787.8000000000001</ele><time>2026-04-19T09:10:35.014Z</time></trkpt><trkpt lat="45.5841821" lon="4.5213257"><ele>789.0</ele><time>2026-04-19T09:10:36.015Z</time></trkpt><trkpt lat="45.5841989" lon="4.5211791"><ele>790.0</ele><time>2026-04-19T09:10:37.014Z</time></trkpt><trkpt lat="45.5842175" lon="4.5210297"><ele>791.0</ele><time>2026-04-19T09:10:38.015Z</time></trkpt><trkpt lat="45.5842496" lon="4.5208702"><ele>792.0</ele><time>2026-04-19T09:10:39.015Z</time></trkpt><trkpt lat="45.58428" lon="4.5207016"><ele>793.0</ele><time>2026-04-19T09:10:40.015Z</time></trkpt><trkpt lat="45.5843006" lon="4.5205657"><ele>794.0</ele><time>2026-04-19T09:10:41.015Z</time></trkpt><trkpt lat="45.5843064" lon="4.5204425"><ele>795.1666666666667</ele><time>2026-04-19T09:10:42.014Z</time></trkpt><trkpt lat="45.5843037" lon="4.5203218"><ele>796.3333333333334</ele><time>2026-04-19T09:10:43.015Z</time></trkpt><trkpt lat="45.5843031" lon="4.5202003"><ele>797.5</ele><time>2026-04-19T09:10:44.015Z</time></trkpt><trkpt lat="45.5843005" lon="4.5200692"><ele>798.6666666666667</ele><time>2026-04-19T09:10:45.016Z</time></trkpt><trkpt lat="45.5843047" lon="4.5199351"><ele>799.8333333333334</ele><time>2026-04-19T09:10:46.015Z</time></trkpt><trkpt lat="45.5843125" lon="4.5198028"><ele>801.0</ele><time>2026-04-19T09:10:47.014Z</time></trkpt><trkpt lat="45.5843274" lon="4.5196774"><ele>802.8</ele><time>2026-04-19T09:10:48.014Z</time></trkpt><trkpt lat="45.5843387" lon="4.519549"><ele>804.5999999999999</ele><time>2026-04-19T09:10:49.015Z</time></trkpt><trkpt lat="45.5843582" lon="4.5194243"><ele>806.4</ele><time>2026-04-19T09:10:50.015Z</time></trkpt><trkpt lat="45.584387" lon="4.5193026"><ele>808.2</ele><time>2026-04-19T09:10:51.015Z</time></trkpt><trkpt lat="45.5844126" lon="4.5191806"><ele>810.0</ele><time>2026-04-19T09:10:52.015Z</time></trkpt><trkpt lat="45.584446" lon="4.5190358"><ele>810.0</ele><time>2026-04-19T09:10:53.015Z</time></trkpt><trkpt lat="45.5844739" lon="4.5188943"><ele>810.0</ele><time>2026-04-19T09:10:54.016Z</time></trkpt><trkpt lat="45.5844979" lon="4.518754"><ele>810.0</ele><time>2026-04-19T09:10:55.014Z</time></trkpt><trkpt lat="45.584522" lon="4.5186118"><ele>810.0</ele><time>2026-04-19T09:10:56.016Z</time></trkpt><trkpt lat="45.58456" lon="4.518497"><ele>810.0</ele><time>2026-04-19T09:10:57.015Z</time></trkpt><trkpt lat="45.5846034" lon="4.5183873"><ele>811.8333333333334</ele><time>2026-04-19T09:10:58.014Z</time></trkpt><trkpt lat="45.5846548" lon="4.5182755"><ele>813.6666666666667</ele><time>2026-04-19T09:10:59.016Z</time></trkpt><trkpt lat="45.5846952" lon="4.5181618"><ele>815.5</ele><time>2026-04-19T09:11:00.014Z</time></trkpt><trkpt lat="45.5847289" lon="4.5180562"><ele>817.3333333333334</ele><time>2026-04-19T09:11:01.015Z</time></trkpt><trkpt lat="45.5847591" lon="4.5179693"><ele>819.1666666666667</ele><time>2026-04-19T09:11:02.015Z</time></trkpt><trkpt lat="45.5847926" lon="4.5178797"><ele>821.0</ele><time>2026-04-19T09:11:22.015Z</time></trkpt><trkpt lat="45.5848378" lon="4.5177442"><ele>822.4</ele><time>2026-04-19T09:11:24.015Z</time></trkpt><trkpt lat="45.5848632" lon="4.5176444"><ele>823.8</ele><time>2026-04-19T09:11:25.015Z</time></trkpt><trkpt lat="45.5848851" lon="4.5175251"><ele>825.1999999999999</ele><time>2026-04-19T09:11:26.016Z</time></trkpt><trkpt lat="45.5848986" lon="4.517392"><ele>826.5999999999999</ele><time>2026-04-19T09:11:27.015Z</time></trkpt><trkpt lat="45.5849078" lon="4.5172413"><ele>828.0</ele><time>2026-04-19T09:11:28.015Z</time></trkpt><trkpt lat="45.5849225" lon="4.51709"><ele>829.2</ele><time>2026-04-19T09:11:29.015Z</time></trkpt><trkpt lat="45.5849387" lon="4.5169322"><ele>830.4</ele><time>2026-04-19T09:11:30.015Z</time></trkpt><trkpt lat="45.584956" lon="4.5167892"><ele>831.6</ele><time>2026-04-19T09:11:31.016Z</time></trkpt><trkpt lat="45.5849898" lon="4.5166689"><ele>832.8000000000001</ele><time>2026-04-19T09:11:32.014Z</time></trkpt><trkpt lat="45.5850437" lon="4.5165594"><ele>834.0</ele><time>2026-04-19T09:11:33.015Z</time></trkpt><trkpt lat="45.5851034" lon="4.5164443"><ele>834.0</ele><time>2026-04-19T09:11:34.015Z</time></trkpt><trkpt lat="45.5851648" lon="4.5163238"><ele>834.0</ele><time>2026-04-19T09:11:35.015Z</time></trkpt><trkpt lat="45.5852258" lon="4.5161887"><ele>834.0</ele><time>2026-04-19T09:11:36.015Z</time></trkpt><trkpt lat="45.5852886" lon="4.5160452"><ele>834.0</ele><time>2026-04-19T09:11:37.015Z</time></trkpt><trkpt lat="45.5853521" lon="4.5158982"><ele>838.5</ele><time>2026-04-19T09:11:38.015Z</time></trkpt><trkpt lat="45.585409" lon="4.5157381"><ele>843.0</ele><time>2026-04-19T09:11:39.016Z</time></trkpt><trkpt lat="45.5854478" lon="4.5155656"><ele>847.5</ele><time>2026-04-19T09:11:40.014Z</time></trkpt><trkpt lat="45.5854716" lon="4.5153876"><ele>852.0</ele><time>2026-04-19T09:11:41.016Z</time></trkpt><trkpt lat="45.5854899" lon="4.5151984"><ele>853.5</ele><time>2026-04-19T09:11:42.016Z</time></trkpt><trkpt lat="45.5855077" lon="4.5150088"><ele>855.0</ele><time>2026-04-19T09:11:43.014Z</time></trkpt><trkpt lat="45.5855285" lon="4.5148222"><ele>856.5</ele><time>2026-04-19T09:11:44.015Z</time></trkpt><trkpt lat="45.5855495" lon="4.514633"><ele>858.0</ele><time>2026-04-19T09:11:45.015Z</time></trkpt><trkpt lat="45.5855662" lon="4.5144467"><ele>860.5</ele><time>2026-04-19T09:11:46.015Z</time></trkpt><trkpt lat="45.5855665" lon="4.5142561"><ele>863.0</ele><time>2026-04-19T09:11:47.015Z</time></trkpt><trkpt lat="45.585552" lon="4.5140692"><ele>865.5</ele><time>2026-04-19T09:11:48.015Z</time></trkpt><trkpt lat="45.585519" lon="4.5138784"><ele>868.0</ele><time>2026-04-19T09:11:49.015Z</time></trkpt><trkpt lat="45.585474" lon="4.5136931"><ele>869.75</ele><time>2026-04-19T09:11:50.015Z</time></trkpt><trkpt lat="45.5854318" lon="4.5135031"><ele>871.5</ele><time>2026-04-19T09:11:51.015Z</time></trkpt><trkpt lat="45.5854048" lon="4.5133068"><ele>873.25</ele><time>2026-04-19T09:11:52.015Z</time></trkpt><trkpt lat="45.5853992" lon="4.5131035"><ele>875.0</ele><time>2026-04-19T09:11:53.016Z</time></trkpt><trkpt lat="45.5853971" lon="4.5129241"><ele>874.8333333333334</ele><time>2026-04-19T09:11:54.015Z</time></trkpt><trkpt lat="45.5853946" lon="4.5127671"><ele>874.6666666666667</ele><time>2026-04-19T09:11:55.014Z</time></trkpt><trkpt lat="45.5853937" lon="4.5126288"><ele>874.5</ele><time>2026-04-19T09:11:56.015Z</time></trkpt><trkpt lat="45.585419" lon="4.5125221"><ele>874.3333333333333</ele><time>2026-04-19T09:11:57.015Z</time></trkpt><trkpt lat="45.585476" lon="4.5124582"><ele>874.1666666666666</ele><time>2026-04-19T09:11:58.014Z</time></trkpt><trkpt lat="45.5855458" lon="4.5124019"><ele>874.0</ele><time>2026-04-19T09:11:59.016Z</time></trkpt><trkpt lat="45.5856169" lon="4.5123292"><ele>874.0</ele><time>2026-04-19T09:12:00.016Z</time></trkpt><trkpt lat="45.5856884" lon="4.5122179"><ele>874.0000000000001</ele><time>2026-04-19T09:12:01.016Z</time></trkpt><trkpt lat="45.5857288" lon="4.5120665"><ele>874.0000000000001</ele><time>2026-04-19T09:12:02.015Z</time></trkpt><trkpt lat="45.5857828" lon="4.5119274"><ele>874.0</ele><time>2026-04-19T09:12:03.016Z</time></trkpt><trkpt lat="45.5858397" lon="4.5117805"><ele>874.0</ele><time>2026-04-19T09:12:04.014Z</time></trkpt><trkpt lat="45.5859004" lon="4.5116174"><ele>875.25</ele><time>2026-04-19T09:12:05.017Z</time></trkpt><trkpt lat="45.5859617" lon="4.5114413"><ele>876.5</ele><time>2026-04-19T09:12:06.015Z</time></trkpt><trkpt lat="45.5860258" lon="4.511247"><ele>877.75</ele><time>2026-04-19T09:12:07.015Z</time></trkpt><trkpt lat="45.5860912" lon="4.5110493"><ele>879.0</ele><time>2026-04-19T09:12:08.016Z</time></trkpt><trkpt lat="45.5861623" lon="4.5108338"><ele>879.0</ele><time>2026-04-19T09:12:09.015Z</time></trkpt><trkpt lat="45.5862339" lon="4.5106135"><ele>879.0</ele><time>2026-04-19T09:12:10.015Z</time></trkpt><trkpt lat="45.5863055" lon="4.5103799"><ele>879.0</ele><time>2026-04-19T09:12:11.016Z</time></trkpt><trkpt lat="45.5863874" lon="4.5101589"><ele>879.0</ele><time>2026-04-19T09:12:12.015Z</time></trkpt><trkpt lat="45.5864665" lon="4.5099615"><ele>879.0</ele><time>2026-04-19T09:12:13.015Z</time></trkpt><trkpt lat="45.5865416" lon="4.5097923"><ele>879.0</ele><time>2026-04-19T09:12:14.016Z</time></trkpt><trkpt lat="45.5866251" lon="4.5096612"><ele>879.0</ele><time>2026-04-19T09:12:15.016Z</time></trkpt><trkpt lat="45.5867005" lon="4.5095375"><ele>880.8333333333334</ele><time>2026-04-19T09:12:16.014Z</time></trkpt><trkpt lat="45.5867644" lon="4.509433"><ele>882.6666666666667</ele><time>2026-04-19T09:12:17.015Z</time></trkpt><trkpt lat="45.5868227" lon="4.5093386"><ele>884.5</ele><time>2026-04-19T09:12:18.016Z</time></trkpt><trkpt lat="45.5868742" lon="4.5092603"><ele>886.3333333333334</ele><time>2026-04-19T09:12:19.016Z</time></trkpt><trkpt lat="45.5869193" lon="4.5091945"><ele>888.1666666666667</ele><time>2026-04-19T09:12:20.015Z</time></trkpt><trkpt lat="45.5869834" lon="4.509085"><ele>890.0</ele><time>2026-04-19T09:12:22.014Z</time></trkpt><trkpt lat="45.5869409" lon="4.5091567"><ele>890.0000000000001</ele><time>2026-04-19T09:12:59.015Z</time></trkpt><trkpt lat="45.5868857" lon="4.5091025"><ele>890.0</ele><time>2026-04-19T09:13:18.016Z</time></trkpt><trkpt lat="45.586941" lon="4.5090294"><ele>890.0</ele><time>2026-04-19T09:13:22.015Z</time></trkpt><trkpt lat="45.5870053" lon="4.5089417"><ele>890.0</ele><time>2026-04-19T09:13:42.016Z</time></trkpt><trkpt lat="45.587041" lon="4.5088508"><ele>890.0000000000001</ele><time>2026-04-19T09:13:43.015Z</time></trkpt><trkpt lat="45.587087" lon="4.508734"><ele>890.0</ele><time>2026-04-19T09:13:44.016Z</time></trkpt><trkpt lat="45.5871384" lon="4.5085947"><ele>890.25</ele><time>2026-04-19T09:13:45.016Z</time></trkpt><trkpt lat="45.5872022" lon="4.5084467"><ele>890.5</ele><time>2026-04-19T09:13:46.015Z</time></trkpt><trkpt lat="45.5872761" lon="4.5083003"><ele>890.75</ele><time>2026-04-19T09:13:47.015Z</time></trkpt><trkpt lat="45.5873611" lon="4.5081584"><ele>891.0</ele><time>2026-04-19T09:13:48.016Z</time></trkpt><trkpt lat="45.5874476" lon="4.5080132"><ele>892.5</ele><time>2026-04-19T09:13:49.015Z</time></trkpt><trkpt lat="45.5875356" lon="4.5078545"><ele>894.0</ele><time>2026-04-19T09:13:50.016Z</time></trkpt><trkpt lat="45.5876125" lon="4.5077026"><ele>895.5</ele><time>2026-04-19T09:13:51.015Z</time></trkpt><trkpt lat="45.5876723" lon="4.5075423"><ele>897.0</ele><time>2026-04-19T09:13:52.016Z</time></trkpt><trkpt lat="45.5877191" lon="4.507372"><ele>897.0</ele><time>2026-04-19T09:13:53.016Z</time></trkpt><trkpt lat="45.5877525" lon="4.5071813"><ele>897.0</ele><time>2026-04-19T09:13:54.015Z</time></trkpt><trkpt lat="45.5877901" lon="4.5069936"><ele>897.0</ele><time>2026-04-19T09:13:55.015Z</time></trkpt><trkpt lat="45.5878298" lon="4.506821"><ele>897.0</ele><time>2026-04-19T09:13:56.016Z</time></trkpt><trkpt lat="45.5878712" lon="4.5066547"><ele>898.1666666666666</ele><time>2026-04-19T09:13:57.016Z</time></trkpt><trkpt lat="45.587922" lon="4.5065187"><ele>899.3333333333333</ele><time>2026-04-19T09:13:58.017Z</time></trkpt><trkpt lat="45.5879668" lon="4.5063992"><ele>900.5</ele><time>2026-04-19T09:13:59.015Z</time></trkpt><trkpt lat="45.5880064" lon="4.5062931"><ele>901.6666666666666</ele><time>2026-04-19T09:14:00.016Z</time></trkpt><trkpt lat="45.5880443" lon="4.5062029"><ele>902.8333333333333</ele><time>2026-04-19T09:14:01.015Z</time></trkpt><trkpt lat="45.5880676" lon="4.5060843"><ele>904.0</ele><time>2026-04-19T09:14:03.015Z</time></trkpt><trkpt lat="45.5880221" lon="4.5059831"><ele>903.9999999999999</ele><time>2026-04-19T09:14:05.015Z</time></trkpt><trkpt lat="45.58798" lon="4.5059098"><ele>904.0</ele><time>2026-04-19T09:14:06.015Z</time></trkpt><trkpt lat="45.5879367" lon="4.5058309"><ele>904.0</ele><time>2026-04-19T09:14:07.015Z</time></trkpt><trkpt lat="45.5878908" lon="4.5057442"><ele>904.0</ele><time>2026-04-19T09:14:08.016Z</time></trkpt><trkpt lat="45.587837" lon="4.505655"><ele>903.9999999999999</ele><time>2026-04-19T09:14:09.015Z</time></trkpt><trkpt lat="45.587786" lon="4.505564"><ele>904.0</ele><time>2026-04-19T09:14:10.016Z</time></trkpt><trkpt lat="45.5877349" lon="4.5054689"><ele>903.4999999999999</ele><time>2026-04-19T09:14:11.015Z</time></trkpt><trkpt lat="45.5876783" lon="4.5053776"><ele>903.0</ele><time>2026-04-19T09:14:12.015Z</time></trkpt><trkpt lat="45.5876211" lon="4.5052905"><ele>902.5</ele><time>2026-04-19T09:14:13.015Z</time></trkpt><trkpt lat="45.5875671" lon="4.5051999"><ele>902.0</ele><time>2026-04-19T09:14:14.015Z</time></trkpt><trkpt lat="45.587511" lon="4.5051196"><ele>901.4999999999999</ele><time>2026-04-19T09:14:15.015Z</time></trkpt><trkpt lat="45.5874506" lon="4.5050401"><ele>901.0</ele><time>2026-04-19T09:14:16.015Z</time></trkpt><trkpt lat="45.5873849" lon="4.504964"><ele>900.9999999999999</ele><time>2026-04-19T09:14:17.016Z</time></trkpt><trkpt lat="45.5873069" lon="4.5049096"><ele>901.0</ele><time>2026-04-19T09:14:18.015Z</time></trkpt><trkpt lat="45.5872319" lon="4.504857"><ele>901.0</ele><time>2026-04-19T09:14:19.015Z</time></trkpt><trkpt lat="45.5871626" lon="4.5047783"><ele>901.0</ele><time>2026-04-19T09:14:20.015Z</time></trkpt><trkpt lat="45.587102" lon="4.5046851"><ele>900.9999999999999</ele><time>2026-04-19T09:14:21.016Z</time></trkpt><trkpt lat="45.5870377" lon="4.5045917"><ele>901.0</ele><time>2026-04-19T09:14:22.016Z</time></trkpt><trkpt lat="45.5869732" lon="4.5044883"><ele>901.1999999999999</ele><time>2026-04-19T09:14:23.015Z</time></trkpt><trkpt lat="45.586908" lon="4.5043828"><ele>901.3999999999999</ele><time>2026-04-19T09:14:24.015Z</time></trkpt><trkpt lat="45.5868402" lon="4.5042785"><ele>901.6</ele><time>2026-04-19T09:14:25.015Z</time></trkpt><trkpt lat="45.5867691" lon="4.5041775"><ele>901.8</ele><time>2026-04-19T09:14:26.016Z</time></trkpt><trkpt lat="45.5866989" lon="4.504077"><ele>902.0</ele><time>2026-04-19T09:14:27.015Z</time></trkpt><trkpt lat="45.5866414" lon="4.5039678"><ele>902.0000000000001</ele><time>2026-04-19T09:14:28.016Z</time></trkpt><trkpt lat="45.5865833" lon="4.5038641"><ele>902.0</ele><time>2026-04-19T09:14:29.016Z</time></trkpt><trkpt lat="45.5865236" lon="4.503766"><ele>902.0</ele><time>2026-04-19T09:14:30.016Z</time></trkpt><trkpt lat="45.5864658" lon="4.5036703"><ele>902.0</ele><time>2026-04-19T09:14:31.015Z</time></trkpt><trkpt lat="45.5864258" lon="4.5035677"><ele>902.0000000000001</ele><time>2026-04-19T09:14:32.015Z</time></trkpt><trkpt lat="45.5864112" lon="4.5034529"><ele>902.0</ele><time>2026-04-19T09:14:33.016Z</time></trkpt><trkpt lat="45.5863976" lon="4.5033377"><ele>901.8333333333334</ele><time>2026-04-19T09:14:34.016Z</time></trkpt><trkpt lat="45.5863821" lon="4.5032205"><ele>901.6666666666667</ele><time>2026-04-19T09:14:35.016Z</time></trkpt><trkpt lat="45.5863634" lon="4.5030996"><ele>901.5</ele><time>2026-04-19T09:14:36.015Z</time></trkpt><trkpt lat="45.586342" lon="4.5029799"><ele>901.3333333333333</ele><time>2026-04-19T09:14:37.015Z</time></trkpt><trkpt lat="45.5863204" lon="4.5028657"><ele>901.1666666666666</ele><time>2026-04-19T09:14:38.015Z</time></trkpt><trkpt lat="45.5862827" lon="4.5027622"><ele>901.0</ele><time>2026-04-19T09:14:39.015Z</time></trkpt><trkpt lat="45.5862495" lon="4.5026644"><ele>901.0</ele><time>2026-04-19T09:14:40.015Z</time></trkpt><trkpt lat="45.5862105" lon="4.502562"><ele>900.9999999999999</ele><time>2026-04-19T09:14:41.015Z</time></trkpt><trkpt lat="45.5861603" lon="4.5024508"><ele>900.9999999999999</ele><time>2026-04-19T09:14:42.016Z</time></trkpt><trkpt lat="45.5861095" lon="4.502349"><ele>901.0</ele><time>2026-04-19T09:14:43.017Z</time></trkpt><trkpt lat="45.5860587" lon="4.5022389"><ele>901.0</ele><time>2026-04-19T09:14:44.016Z</time></trkpt><trkpt lat="45.5860035" lon="4.5021261"><ele>903.1999999999999</ele><time>2026-04-19T09:14:45.016Z</time></trkpt><trkpt lat="45.5859422" lon="4.5020157"><ele>905.3999999999999</ele><time>2026-04-19T09:14:46.016Z</time></trkpt><trkpt lat="45.5858754" lon="4.5019158"><ele>907.6</ele><time>2026-04-19T09:14:47.016Z</time></trkpt><trkpt lat="45.58581" lon="4.5018223"><ele>909.8</ele><time>2026-04-19T09:14:48.015Z</time></trkpt><trkpt lat="45.5857477" lon="4.5017224"><ele>912.0</ele><time>2026-04-19T09:14:49.015Z</time></trkpt><trkpt lat="45.5856878" lon="4.5016149"><ele>912.0</ele><time>2026-04-19T09:14:50.015Z</time></trkpt><trkpt lat="45.5856484" lon="4.5015132"><ele>912.0</ele><time>2026-04-19T09:14:51.016Z</time></trkpt><trkpt lat="45.5856129" lon="4.5014161"><ele>912.0</ele><time>2026-04-19T09:14:52.015Z</time></trkpt><trkpt lat="45.5855869" lon="4.5013305"><ele>912.0</ele><time>2026-04-19T09:14:53.015Z</time></trkpt><trkpt lat="45.585531" lon="4.5011788"><ele>912.0</ele><time>2026-04-19T09:14:55.015Z</time></trkpt><trkpt lat="45.585484" lon="4.501035"><ele>911.0</ele><time>2026-04-19T09:14:57.016Z</time></trkpt><trkpt lat="45.5854333" lon="4.5009062"><ele>910.0</ele><time>2026-04-19T09:14:59.015Z</time></trkpt><trkpt lat="45.5853937" lon="4.500767"><ele>909.0</ele><time>2026-04-19T09:15:01.015Z</time></trkpt><trkpt lat="45.5853444" lon="4.5006253"><ele>908.0</ele><time>2026-04-19T09:15:03.016Z</time></trkpt><trkpt lat="45.5853144" lon="4.5005317"><ele>907.0</ele><time>2026-04-19T09:15:04.016Z</time></trkpt><trkpt lat="45.5852809" lon="4.5004119"><ele>905.2</ele><time>2026-04-19T09:15:05.017Z</time></trkpt><trkpt lat="45.5852399" lon="4.5002741"><ele>903.4000000000001</ele><time>2026-04-19T09:15:06.016Z</time></trkpt><trkpt lat="45.5851947" lon="4.5001304"><ele>901.5999999999999</ele><time>2026-04-19T09:15:07.015Z</time></trkpt><trkpt lat="45.5851472" lon="4.4999808"><ele>899.8</ele><time>2026-04-19T09:15:08.015Z</time></trkpt><trkpt lat="45.5850988" lon="4.4998295"><ele>898.0</ele><time>2026-04-19T09:15:09.016Z</time></trkpt><trkpt lat="45.5850449" lon="4.4996856"><ele>896.25</ele><time>2026-04-19T09:15:10.016Z</time></trkpt><trkpt lat="45.5849885" lon="4.4995327"><ele>894.5</ele><time>2026-04-19T09:15:11.016Z</time></trkpt><trkpt lat="45.584934" lon="4.4993782"><ele>892.75</ele><time>2026-04-19T09:15:12.016Z</time></trkpt><trkpt lat="45.584883" lon="4.4992124"><ele>891.0</ele><time>2026-04-19T09:15:13.015Z</time></trkpt><trkpt lat="45.5848423" lon="4.4990362"><ele>891.0</ele><time>2026-04-19T09:15:14.016Z</time></trkpt><trkpt lat="45.5848026" lon="4.498853"><ele>891.0</ele><time>2026-04-19T09:15:15.016Z</time></trkpt><trkpt lat="45.5847587" lon="4.4986703"><ele>891.0</ele><time>2026-04-19T09:15:16.015Z</time></trkpt><trkpt lat="45.5847237" lon="4.4984944"><ele>891.0</ele><time>2026-04-19T09:15:17.015Z</time></trkpt><trkpt lat="45.5846934" lon="4.4983267"><ele>889.8</ele><time>2026-04-19T09:15:18.015Z</time></trkpt><trkpt lat="45.5846661" lon="4.4981759"><ele>888.5999999999999</ele><time>2026-04-19T09:15:19.016Z</time></trkpt><trkpt lat="45.5846547" lon="4.4980452"><ele>887.4</ele><time>2026-04-19T09:15:20.016Z</time></trkpt><trkpt lat="45.58465" lon="4.4979501"><ele>886.2</ele><time>2026-04-19T09:15:21.016Z</time></trkpt><trkpt lat="45.5846274" lon="4.4977771"><ele>885.0</ele><time>2026-04-19T09:15:23.015Z</time></trkpt><trkpt lat="45.5846165" lon="4.4976778"><ele>885.6666666666666</ele><time>2026-04-19T09:15:24.016Z</time></trkpt><trkpt lat="45.5845961" lon="4.4975621"><ele>886.3333333333333</ele><time>2026-04-19T09:15:25.016Z</time></trkpt><trkpt lat="45.584557" lon="4.4974531"><ele>887.0</ele><time>2026-04-19T09:15:26.015Z</time></trkpt><trkpt lat="45.584522" lon="4.4973448"><ele>887.6666666666666</ele><time>2026-04-19T09:15:27.016Z</time></trkpt><trkpt lat="45.5844898" lon="4.4972598"><ele>888.3333333333333</ele><time>2026-04-19T09:15:28.015Z</time></trkpt><trkpt lat="45.5844354" lon="4.4971304"><ele>889.0</ele><time>2026-04-19T09:15:30.016Z</time></trkpt><trkpt lat="45.5843838" lon="4.497005"><ele>887.1666666666666</ele><time>2026-04-19T09:15:32.015Z</time></trkpt><trkpt lat="45.5843225" lon="4.4968716"><ele>885.3333333333333</ele><time>2026-04-19T09:15:34.016Z</time></trkpt><trkpt lat="45.5843004" lon="4.4967517"><ele>883.5</ele><time>2026-04-19T09:15:36.015Z</time></trkpt><trkpt lat="45.5843061" lon="4.4966553"><ele>881.6666666666667</ele><time>2026-04-19T09:15:37.015Z</time></trkpt><trkpt lat="45.5843183" lon="4.4965444"><ele>879.8333333333334</ele><time>2026-04-19T09:15:38.015Z</time></trkpt><trkpt lat="45.5843364" lon="4.4964278"><ele>878.0</ele><time>2026-04-19T09:15:39.015Z</time></trkpt><trkpt lat="45.5843524" lon="4.4963065"><ele>877.0000000000001</ele><time>2026-04-19T09:15:40.015Z</time></trkpt><trkpt lat="45.5843642" lon="4.4961868"><ele>876.0</ele><time>2026-04-19T09:15:41.015Z</time></trkpt><trkpt lat="45.5843703" lon="4.4960869"><ele>875.0</ele><time>2026-04-19T09:15:42.017Z</time></trkpt><trkpt lat="45.5843718" lon="4.495993"><ele>874.0</ele><time>2026-04-19T09:15:43.015Z</time></trkpt><trkpt lat="45.5843735" lon="4.4958712"><ele>873.0000000000001</ele><time>2026-04-19T09:15:45.015Z</time></trkpt><trkpt lat="45.5843827" lon="4.4957572"><ele>872.0</ele><time>2026-04-19T09:15:47.015Z</time></trkpt><trkpt lat="45.5844141" lon="4.495609"><ele>872.0</ele><time>2026-04-19T09:15:49.02Z</time></trkpt><trkpt lat="45.5844422" lon="4.4955234"><ele>872.0</ele><time>2026-04-19T09:15:50.016Z</time></trkpt><trkpt lat="45.5844694" lon="4.4953371"><ele>872.0</ele><time>2026-04-19T09:15:52.015Z</time></trkpt><trkpt lat="45.5845081" lon="4.4951766"><ele>872.0</ele><time>2026-04-19T09:15:54.017Z</time></trkpt><trkpt lat="45.5845316" lon="4.4950806"><ele>872.0</ele><time>2026-04-19T09:15:55.015Z</time></trkpt><trkpt lat="45.5845759" lon="4.4949062"><ele>867.2</ele><time>2026-04-19T09:15:57.016Z</time></trkpt><trkpt lat="45.5845911" lon="4.4948061"><ele>862.4000000000001</ele><time>2026-04-19T09:15:58.016Z</time></trkpt><trkpt lat="45.5846365" lon="4.4946366"><ele>857.5999999999999</ele><time>2026-04-19T09:16:00.015Z</time></trkpt><trkpt lat="45.5846926" lon="4.4944931"><ele>852.8</ele><time>2026-04-19T09:16:02.016Z</time></trkpt><trkpt lat="45.5847707" lon="4.4943636"><ele>848.0</ele><time>2026-04-19T09:16:04.017Z</time></trkpt><trkpt lat="45.5848556" lon="4.4942749"><ele>847.5999999999999</ele><time>2026-04-19T09:16:06.016Z</time></trkpt><trkpt lat="45.5849661" lon="4.4942659"><ele>847.1999999999999</ele><time>2026-04-19T09:16:08.016Z</time></trkpt><trkpt lat="45.585073" lon="4.4942773"><ele>846.8</ele><time>2026-04-19T09:16:10.015Z</time></trkpt><trkpt lat="45.5851557" lon="4.4941945"><ele>846.4</ele><time>2026-04-19T09:16:12.015Z</time></trkpt><trkpt lat="45.5852348" lon="4.4940764"><ele>846.0</ele><time>2026-04-19T09:16:14.015Z</time></trkpt><trkpt lat="45.5852557" lon="4.4939719"><ele>846.0</ele><time>2026-04-19T09:16:16.016Z</time></trkpt><trkpt lat="45.5852221" lon="4.4938428"><ele>846.0</ele><time>2026-04-19T09:16:18.016Z</time></trkpt><trkpt lat="45.5852026" lon="4.493715"><ele>846.0</ele><time>2026-04-19T09:16:20.016Z</time></trkpt><trkpt lat="45.5851734" lon="4.4936157"><ele>846.0</ele><time>2026-04-19T09:16:22.016Z</time></trkpt><trkpt lat="45.5851304" lon="4.4934861"><ele>846.0</ele><time>2026-04-19T09:16:24.015Z</time></trkpt><trkpt lat="45.5850842" lon="4.4933208"><ele>844.5</ele><time>2026-04-19T09:16:26.015Z</time></trkpt><trkpt lat="45.5850676" lon="4.4932224"><ele>843.0</ele><time>2026-04-19T09:16:27.016Z</time></trkpt><trkpt lat="45.5850518" lon="4.4931003"><ele>841.5</ele><time>2026-04-19T09:16:28.015Z</time></trkpt><trkpt lat="45.5850368" lon="4.4929506"><ele>840.0</ele><time>2026-04-19T09:16:29.015Z</time></trkpt><trkpt lat="45.5850145" lon="4.492817"><ele>838.5</ele><time>2026-04-19T09:16:30.019Z</time></trkpt><trkpt lat="45.5849872" lon="4.492702"><ele>837.0</ele><time>2026-04-19T09:16:31.015Z</time></trkpt><trkpt lat="45.5849646" lon="4.4925841"><ele>836.0</ele><time>2026-04-19T09:16:32.015Z</time></trkpt><trkpt lat="45.58494" lon="4.4924523"><ele>835.0</ele><time>2026-04-19T09:16:33.018Z</time></trkpt><trkpt lat="45.5849132" lon="4.4923002"><ele>834.0</ele><time>2026-04-19T09:16:34.015Z</time></trkpt><trkpt lat="45.5848902" lon="4.4921339"><ele>833.0</ele><time>2026-04-19T09:16:35.015Z</time></trkpt><trkpt lat="45.5848783" lon="4.4919538"><ele>832.5</ele><time>2026-04-19T09:16:36.016Z</time></trkpt><trkpt lat="45.5848805" lon="4.4917707"><ele>832.0</ele><time>2026-04-19T09:16:37.016Z</time></trkpt><trkpt lat="45.5848866" lon="4.491602"><ele>831.5</ele><time>2026-04-19T09:16:38.015Z</time></trkpt><trkpt lat="45.5849052" lon="4.4914507"><ele>831.0</ele><time>2026-04-19T09:16:39.016Z</time></trkpt><trkpt lat="45.5849213" lon="4.4913037"><ele>830.5999999999999</ele><time>2026-04-19T09:16:40.016Z</time></trkpt><trkpt lat="45.5849294" lon="4.4911669"><ele>830.2</ele><time>2026-04-19T09:16:41.015Z</time></trkpt><trkpt lat="45.5849218" lon="4.4910278"><ele>829.8</ele><time>2026-04-19T09:16:42.016Z</time></trkpt><trkpt lat="45.5849049" lon="4.4908953"><ele>829.4000000000001</ele><time>2026-04-19T09:16:43.015Z</time></trkpt><trkpt lat="45.5848824" lon="4.4907801"><ele>829.0</ele><time>2026-04-19T09:16:44.02Z</time></trkpt><trkpt lat="45.5848449" lon="4.4906661"><ele>828.9999999999999</ele><time>2026-04-19T09:16:45.015Z</time></trkpt><trkpt lat="45.584807" lon="4.4905454"><ele>829.0</ele><time>2026-04-19T09:16:46.016Z</time></trkpt><trkpt lat="45.584758" lon="4.4904369"><ele>829.0</ele><time>2026-04-19T09:16:47.016Z</time></trkpt><trkpt lat="45.5847054" lon="4.4903513"><ele>829.0</ele><time>2026-04-19T09:16:48.016Z</time></trkpt><trkpt lat="45.5846469" lon="4.4902705"><ele>828.9999999999999</ele><time>2026-04-19T09:16:49.015Z</time></trkpt><trkpt lat="45.584582" lon="4.4901955"><ele>829.0</ele><time>2026-04-19T09:16:50.016Z</time></trkpt><trkpt lat="45.5845267" lon="4.4901246"><ele>829.6666666666666</ele><time>2026-04-19T09:16:51.015Z</time></trkpt><trkpt lat="45.584472" lon="4.4900517"><ele>830.3333333333333</ele><time>2026-04-19T09:16:52.017Z</time></trkpt><trkpt lat="45.5844288" lon="4.4899853"><ele>831.0</ele><time>2026-04-19T09:16:53.015Z</time></trkpt><trkpt lat="45.5843552" lon="4.4898518"><ele>831.6666666666667</ele><time>2026-04-19T09:16:55.018Z</time></trkpt><trkpt lat="45.5843298" lon="4.4897444"><ele>832.3333333333334</ele><time>2026-04-19T09:16:57.018Z</time></trkpt><trkpt lat="45.5843499" lon="4.4896234"><ele>833.0</ele><time>2026-04-19T09:16:59.016Z</time></trkpt><trkpt lat="45.584428" lon="4.4895082"><ele>830.8</ele><time>2026-04-19T09:17:01.015Z</time></trkpt><trkpt lat="45.5845266" lon="4.4894024"><ele>828.5999999999999</ele><time>2026-04-19T09:17:03.017Z</time></trkpt><trkpt lat="45.5846161" lon="4.489311"><ele>826.4000000000001</ele><time>2026-04-19T09:17:05.016Z</time></trkpt><trkpt lat="45.5846775" lon="4.4892333"><ele>824.2</ele><time>2026-04-19T09:17:07.016Z</time></trkpt><trkpt lat="45.5847383" lon="4.4891663"><ele>822.0</ele><time>2026-04-19T09:17:18.016Z</time></trkpt><trkpt lat="45.5847989" lon="4.4890607"><ele>822.0</ele><time>2026-04-19T09:17:20.015Z</time></trkpt><trkpt lat="45.5848336" lon="4.4889806"><ele>822.0</ele><time>2026-04-19T09:17:21.017Z</time></trkpt><trkpt lat="45.5848726" lon="4.4888847"><ele>822.0</ele><time>2026-04-19T09:17:22.016Z</time></trkpt><trkpt lat="45.5849131" lon="4.4887643"><ele>822.0</ele><time>2026-04-19T09:17:23.016Z</time></trkpt><trkpt lat="45.5849563" lon="4.4886357"><ele>822.0</ele><time>2026-04-19T09:17:24.016Z</time></trkpt><trkpt lat="45.5850049" lon="4.4884964"><ele>822.0</ele><time>2026-04-19T09:17:25.017Z</time></trkpt><trkpt lat="45.5850578" lon="4.48835"><ele>822.0</ele><time>2026-04-19T09:17:26.017Z</time></trkpt><trkpt lat="45.5851147" lon="4.4881919"><ele>822.0</ele><time>2026-04-19T09:17:27.016Z</time></trkpt><trkpt lat="45.5851721" lon="4.4880185"><ele>822.0</ele><time>2026-04-19T09:17:28.015Z</time></trkpt><trkpt lat="45.5852187" lon="4.4878314"><ele>822.0</ele><time>2026-04-19T09:17:29.016Z</time></trkpt><trkpt lat="45.5852445" lon="4.4876411"><ele>822.75</ele><time>2026-04-19T09:17:30.015Z</time></trkpt><trkpt lat="45.5852423" lon="4.4874438"><ele>823.5</ele><time>2026-04-19T09:17:31.015Z</time></trkpt><trkpt lat="45.5852106" lon="4.487251"><ele>824.25</ele><time>2026-04-19T09:17:32.015Z</time></trkpt><trkpt lat="45.58516" lon="4.4870826"><ele>825.0</ele><time>2026-04-19T09:17:33.015Z</time></trkpt><trkpt lat="45.5850794" lon="4.48693"><ele>826.6666666666667</ele><time>2026-04-19T09:17:34.017Z</time></trkpt><trkpt lat="45.584993" lon="4.4867645"><ele>828.3333333333334</ele><time>2026-04-19T09:17:35.016Z</time></trkpt><trkpt lat="45.5849059" lon="4.4865858"><ele>830.0</ele><time>2026-04-19T09:17:36.015Z</time></trkpt><trkpt lat="45.5848166" lon="4.4863973"><ele>831.6666666666667</ele><time>2026-04-19T09:17:37.016Z</time></trkpt><trkpt lat="45.5847308" lon="4.4862028"><ele>833.3333333333333</ele><time>2026-04-19T09:17:38.016Z</time></trkpt><trkpt lat="45.5846462" lon="4.4860034"><ele>835.0</ele><time>2026-04-19T09:17:39.016Z</time></trkpt><trkpt lat="45.5845705" lon="4.4858176"><ele>832.25</ele><time>2026-04-19T09:17:40.015Z</time></trkpt><trkpt lat="45.5844929" lon="4.4856334"><ele>829.5</ele><time>2026-04-19T09:17:41.017Z</time></trkpt><trkpt lat="45.5844207" lon="4.4854569"><ele>826.75</ele><time>2026-04-19T09:17:42.016Z</time></trkpt><trkpt lat="45.5843505" lon="4.4852881"><ele>824.0</ele><time>2026-04-19T09:17:43.016Z</time></trkpt><trkpt lat="45.5842804" lon="4.4851216"><ele>824.0</ele><time>2026-04-19T09:17:44.016Z</time></trkpt><trkpt lat="45.5842104" lon="4.4849482"><ele>824.0</ele><time>2026-04-19T09:17:45.016Z</time></trkpt><trkpt lat="45.584147" lon="4.4847657"><ele>824.0</ele><time>2026-04-19T09:17:46.018Z</time></trkpt><trkpt lat="45.5840896" lon="4.4845736"><ele>824.0</ele><time>2026-04-19T09:17:47.015Z</time></trkpt><trkpt lat="45.5840416" lon="4.4843768"><ele>823.75</ele><time>2026-04-19T09:17:48.016Z</time></trkpt><trkpt lat="45.5839985" lon="4.4841957"><ele>823.5</ele><time>2026-04-19T09:17:49.015Z</time></trkpt><trkpt lat="45.5839407" lon="4.4840232"><ele>823.25</ele><time>2026-04-19T09:17:50.015Z</time></trkpt><trkpt lat="45.5838661" lon="4.4838586"><ele>823.0</ele><time>2026-04-19T09:17:51.017Z</time></trkpt><trkpt lat="45.5837725" lon="4.4837125"><ele>822.0</ele><time>2026-04-19T09:17:52.016Z</time></trkpt><trkpt lat="45.5836644" lon="4.4835697"><ele>821.0</ele><time>2026-04-19T09:17:53.016Z</time></trkpt><trkpt lat="45.5835518" lon="4.4834308"><ele>820.0</ele><time>2026-04-19T09:17:54.016Z</time></trkpt><trkpt lat="45.5834417" lon="4.4833"><ele>819.0</ele><time>2026-04-19T09:17:55.017Z</time></trkpt><trkpt lat="45.583336" lon="4.4831733"><ele>819.0</ele><time>2026-04-19T09:17:56.016Z</time></trkpt><trkpt lat="45.5832422" lon="4.483053"><ele>819.0</ele><time>2026-04-19T09:17:57.015Z</time></trkpt><trkpt lat="45.5831556" lon="4.48294"><ele>819.0</ele><time>2026-04-19T09:17:58.016Z</time></trkpt><trkpt lat="45.5830791" lon="4.482834"><ele>819.0</ele><time>2026-04-19T09:17:59.016Z</time></trkpt><trkpt lat="45.5830116" lon="4.4827367"><ele>819.0</ele><time>2026-04-19T09:18:00.016Z</time></trkpt><trkpt lat="45.5829524" lon="4.4826543"><ele>818.8000000000001</ele><time>2026-04-19T09:18:01.017Z</time></trkpt><trkpt lat="45.5828944" lon="4.4826049"><ele>818.6</ele><time>2026-04-19T09:18:02.016Z</time></trkpt><trkpt lat="45.5827836" lon="4.4826512"><ele>818.4</ele><time>2026-04-19T09:18:04.017Z</time></trkpt><trkpt lat="45.5827045" lon="4.4827396"><ele>818.2</ele><time>2026-04-19T09:18:06.017Z</time></trkpt><trkpt lat="45.5826268" lon="4.4826752"><ele>818.0</ele><time>2026-04-19T09:18:08.015Z</time></trkpt><trkpt lat="45.5825749" lon="4.4825941"><ele>818.0</ele><time>2026-04-19T09:18:09.016Z</time></trkpt><trkpt lat="45.5825196" lon="4.482499"><ele>818.0</ele><time>2026-04-19T09:18:10.016Z</time></trkpt><trkpt lat="45.5824508" lon="4.4823999"><ele>818.0</ele><time>2026-04-19T09:18:11.016Z</time></trkpt><trkpt lat="45.5823794" lon="4.4822892"><ele>818.0</ele><time>2026-04-19T09:18:12.016Z</time></trkpt><trkpt lat="45.5823146" lon="4.4821623"><ele>818.0</ele><time>2026-04-19T09:18:13.016Z</time></trkpt><trkpt lat="45.5822569" lon="4.4820229"><ele>817.75</ele><time>2026-04-19T09:18:14.016Z</time></trkpt><trkpt lat="45.5822182" lon="4.4818598"><ele>817.5</ele><time>2026-04-19T09:18:15.016Z</time></trkpt><trkpt lat="45.5821871" lon="4.4816847"><ele>817.25</ele><time>2026-04-19T09:18:16.016Z</time></trkpt><trkpt lat="45.5821519" lon="4.4815029"><ele>817.0</ele><time>2026-04-19T09:18:17.015Z</time></trkpt><trkpt lat="45.582109" lon="4.4813157"><ele>816.75</ele><time>2026-04-19T09:18:18.015Z</time></trkpt><trkpt lat="45.5820529" lon="4.4811315"><ele>816.5</ele><time>2026-04-19T09:18:19.015Z</time></trkpt><trkpt lat="45.5819888" lon="4.4809556"><ele>816.25</ele><time>2026-04-19T09:18:20.015Z</time></trkpt><trkpt lat="45.5819235" lon="4.4807827"><ele>816.0</ele><time>2026-04-19T09:18:21.015Z</time></trkpt><trkpt lat="45.5818573" lon="4.4806207"><ele>817.0</ele><time>2026-04-19T09:18:22.016Z</time></trkpt><trkpt lat="45.5817927" lon="4.4804817"><ele>818.0</ele><time>2026-04-19T09:18:23.015Z</time></trkpt><trkpt lat="45.5817361" lon="4.4803624"><ele>819.0</ele><time>2026-04-19T09:18:24.017Z</time></trkpt><trkpt lat="45.5816757" lon="4.4802649"><ele>820.0</ele><time>2026-04-19T09:18:25.016Z</time></trkpt><trkpt lat="45.5816042" lon="4.4801786"><ele>821.0</ele><time>2026-04-19T09:18:26.017Z</time></trkpt><trkpt lat="45.5815261" lon="4.4800914"><ele>822.0</ele><time>2026-04-19T09:18:27.017Z</time></trkpt><trkpt lat="45.5814428" lon="4.4800004"><ele>823.0</ele><time>2026-04-19T09:18:28.016Z</time></trkpt><trkpt lat="45.5813624" lon="4.4799037"><ele>824.0</ele><time>2026-04-19T09:18:29.017Z</time></trkpt><trkpt lat="45.5812785" lon="4.4797841"><ele>825.0</ele><time>2026-04-19T09:18:30.018Z</time></trkpt><trkpt lat="45.5811955" lon="4.4796613"><ele>826.0</ele><time>2026-04-19T09:18:31.016Z</time></trkpt><trkpt lat="45.5811097" lon="4.4795331"><ele>826.8</ele><time>2026-04-19T09:18:32.017Z</time></trkpt><trkpt lat="45.5810138" lon="4.479419"><ele>827.5999999999999</ele><time>2026-04-19T09:18:33.018Z</time></trkpt><trkpt lat="45.5809219" lon="4.4793138"><ele>828.4</ele><time>2026-04-19T09:18:34.016Z</time></trkpt><trkpt lat="45.5808384" lon="4.4792252"><ele>829.2</ele><time>2026-04-19T09:18:35.017Z</time></trkpt><trkpt lat="45.5807624" lon="4.4791447"><ele>830.0</ele><time>2026-04-19T09:18:36.017Z</time></trkpt><trkpt lat="45.5807067" lon="4.479073"><ele>830.0000000000001</ele><time>2026-04-19T09:18:37.016Z</time></trkpt><trkpt lat="45.5806804" lon="4.4789893"><ele>830.0</ele><time>2026-04-19T09:18:38.016Z</time></trkpt><trkpt lat="45.5807172" lon="4.4788357"><ele>830.0</ele><time>2026-04-19T09:18:40.015Z</time></trkpt><trkpt lat="45.5807128" lon="4.4787025"><ele>830.0</ele><time>2026-04-19T09:18:42.017Z</time></trkpt><trkpt lat="45.5806261" lon="4.4785945"><ele>830.0000000000001</ele><time>2026-04-19T09:18:44.015Z</time></trkpt><trkpt lat="45.5805796" lon="4.4785332"><ele>830.0</ele><time>2026-04-19T09:18:45.015Z</time></trkpt><trkpt lat="45.5805235" lon="4.4784532"><ele>830.2</ele><time>2026-04-19T09:18:46.017Z</time></trkpt><trkpt lat="45.5804304" lon="4.4783986"><ele>830.4</ele><time>2026-04-19T09:18:48.016Z</time></trkpt><trkpt lat="45.5802977" lon="4.4784587"><ele>830.5999999999999</ele><time>2026-04-19T09:18:50.016Z</time></trkpt><trkpt lat="45.5802191" lon="4.4784718"><ele>830.8</ele><time>2026-04-19T09:18:51.017Z</time></trkpt><trkpt lat="45.5801331" lon="4.4784788"><ele>831.0</ele><time>2026-04-19T09:18:52.017Z</time></trkpt><trkpt lat="45.580061" lon="4.4784911"><ele>831.6666666666666</ele><time>2026-04-19T09:18:53.016Z</time></trkpt><trkpt lat="45.5799776" lon="4.4784855"><ele>832.3333333333333</ele><time>2026-04-19T09:18:54.015Z</time></trkpt><trkpt lat="45.579905" lon="4.4784743"><ele>833.0</ele><time>2026-04-19T09:18:55.016Z</time></trkpt><trkpt lat="45.5798308" lon="4.4784737"><ele>833.6666666666666</ele><time>2026-04-19T09:18:56.015Z</time></trkpt><trkpt lat="45.5797514" lon="4.4784858"><ele>834.3333333333333</ele><time>2026-04-19T09:18:57.015Z</time></trkpt><trkpt lat="45.579676" lon="4.4785254"><ele>835.0</ele><time>2026-04-19T09:18:58.017Z</time></trkpt><trkpt lat="45.5795996" lon="4.4785681"><ele>834.9999999999999</ele><time>2026-04-19T09:18:59.017Z</time></trkpt><trkpt lat="45.5795345" lon="4.4786109"><ele>835.0</ele><time>2026-04-19T09:19:00.017Z</time></trkpt><trkpt lat="45.5794712" lon="4.4786547"><ele>835.0</ele><time>2026-04-19T09:19:01.017Z</time></trkpt><trkpt lat="45.5794058" lon="4.4786974"><ele>835.0</ele><time>2026-04-19T09:19:02.016Z</time></trkpt><trkpt lat="45.5793443" lon="4.4787343"><ele>834.9999999999999</ele><time>2026-04-19T09:19:03.016Z</time></trkpt><trkpt lat="45.5792849" lon="4.4787682"><ele>835.0</ele><time>2026-04-19T09:19:04.016Z</time></trkpt><trkpt lat="45.5791768" lon="4.478823"><ele>833.0</ele><time>2026-04-19T09:19:06.015Z</time></trkpt><trkpt lat="45.57909" lon="4.4788139"><ele>831.0</ele><time>2026-04-19T09:19:08.016Z</time></trkpt><trkpt lat="45.5789934" lon="4.4787169"><ele>829.0</ele><time>2026-04-19T09:19:10.017Z</time></trkpt><trkpt lat="45.578933" lon="4.4786425"><ele>827.0</ele><time>2026-04-19T09:19:11.016Z</time></trkpt><trkpt lat="45.5788655" lon="4.4785649"><ele>825.0</ele><time>2026-04-19T09:19:12.015Z</time></trkpt><trkpt lat="45.5787925" lon="4.4784838"><ele>825.0</ele><time>2026-04-19T09:19:13.017Z</time></trkpt><trkpt lat="45.5787203" lon="4.4784024"><ele>825.0</ele><time>2026-04-19T09:19:14.017Z</time></trkpt><trkpt lat="45.5786518" lon="4.4783203"><ele>825.0</ele><time>2026-04-19T09:19:15.016Z</time></trkpt><trkpt lat="45.5785939" lon="4.478248"><ele>825.0</ele><time>2026-04-19T09:19:16.015Z</time></trkpt><trkpt lat="45.578544" lon="4.478179"><ele>825.0</ele><time>2026-04-19T09:19:17.015Z</time></trkpt><trkpt lat="45.5784362" lon="4.4781721"><ele>825.0</ele><time>2026-04-19T09:19:19.015Z</time></trkpt><trkpt lat="45.5783289" lon="4.4782379"><ele>822.8333333333334</ele><time>2026-04-19T09:19:21.016Z</time></trkpt><trkpt lat="45.5782443" lon="4.4782061"><ele>820.6666666666667</ele><time>2026-04-19T09:19:23.017Z</time></trkpt><trkpt lat="45.5781989" lon="4.4781415"><ele>818.5</ele><time>2026-04-19T09:19:24.016Z</time></trkpt><trkpt lat="45.578153" lon="4.4780502"><ele>816.3333333333334</ele><time>2026-04-19T09:19:25.015Z</time></trkpt><trkpt lat="45.5781041" lon="4.4779502"><ele>814.1666666666667</ele><time>2026-04-19T09:19:26.016Z</time></trkpt><trkpt lat="45.5780415" lon="4.4778186"><ele>812.0</ele><time>2026-04-19T09:19:27.017Z</time></trkpt><trkpt lat="45.5779862" lon="4.4777033"><ele>812.0</ele><time>2026-04-19T09:19:28.016Z</time></trkpt><trkpt lat="45.5779259" lon="4.4775968"><ele>812.0</ele><time>2026-04-19T09:19:29.017Z</time></trkpt><trkpt lat="45.577862" lon="4.4774848"><ele>812.0</ele><time>2026-04-19T09:19:30.015Z</time></trkpt><trkpt lat="45.5777935" lon="4.4773637"><ele>812.0</ele><time>2026-04-19T09:19:31.017Z</time></trkpt><trkpt lat="45.577731" lon="4.4772183"><ele>812.0</ele><time>2026-04-19T09:19:32.016Z</time></trkpt><trkpt lat="45.5776617" lon="4.4770637"><ele>810.25</ele><time>2026-04-19T09:19:33.015Z</time></trkpt><trkpt lat="45.5776017" lon="4.4768888"><ele>808.5</ele><time>2026-04-19T09:19:34.017Z</time></trkpt><trkpt lat="45.5775494" lon="4.4767074"><ele>806.75</ele><time>2026-04-19T09:19:35.017Z</time></trkpt><trkpt lat="45.5775031" lon="4.4765281"><ele>805.0</ele><time>2026-04-19T09:19:36.017Z</time></trkpt><trkpt lat="45.5774691" lon="4.4763628"><ele>804.2</ele><time>2026-04-19T09:19:37.017Z</time></trkpt><trkpt lat="45.5774351" lon="4.4762122"><ele>803.4</ele><time>2026-04-19T09:19:38.017Z</time></trkpt><trkpt lat="45.5774045" lon="4.4760741"><ele>802.5999999999999</ele><time>2026-04-19T09:19:39.015Z</time></trkpt><trkpt lat="45.5773562" lon="4.4759502"><ele>801.8</ele><time>2026-04-19T09:19:40.016Z</time></trkpt><trkpt lat="45.577306" lon="4.4758248"><ele>801.0</ele><time>2026-04-19T09:19:41.016Z</time></trkpt><trkpt lat="45.5772466" lon="4.4757204"><ele>801.0</ele><time>2026-04-19T09:19:42.015Z</time></trkpt><trkpt lat="45.5771934" lon="4.4756228"><ele>801.0</ele><time>2026-04-19T09:19:43.018Z</time></trkpt><trkpt lat="45.5771506" lon="4.4755322"><ele>801.0</ele><time>2026-04-19T09:19:44.016Z</time></trkpt><trkpt lat="45.5771078" lon="4.4754498"><ele>801.0</ele><time>2026-04-19T09:19:45.015Z</time></trkpt><trkpt lat="45.5770705" lon="4.4753767"><ele>801.0</ele><time>2026-04-19T09:19:46.016Z</time></trkpt><trkpt lat="45.5770285" lon="4.4753065"><ele>801.0</ele><time>2026-04-19T09:19:47.016Z</time></trkpt><trkpt lat="45.5769715" lon="4.4752475"><ele>801.0</ele><time>2026-04-19T09:19:48.016Z</time></trkpt><trkpt lat="45.5769198" lon="4.4751912"><ele>800.0</ele><time>2026-04-19T09:19:49.017Z</time></trkpt><trkpt lat="45.5768584" lon="4.4751387"><ele>799.0</ele><time>2026-04-19T09:19:50.017Z</time></trkpt><trkpt lat="45.5767956" lon="4.4751062"><ele>798.0</ele><time>2026-04-19T09:19:51.015Z</time></trkpt><trkpt lat="45.5767301" lon="4.4750845"><ele>797.0</ele><time>2026-04-19T09:19:52.016Z</time></trkpt><trkpt lat="45.5766628" lon="4.4750782"><ele>796.0</ele><time>2026-04-19T09:19:53.018Z</time></trkpt><trkpt lat="45.5765482" lon="4.4751009"><ele>795.0</ele><time>2026-04-19T09:19:55.016Z</time></trkpt><trkpt lat="45.5764592" lon="4.475102"><ele>795.0</ele><time>2026-04-19T09:19:57.015Z</time></trkpt><trkpt lat="45.576407" lon="4.4750326"><ele>795.0</ele><time>2026-04-19T09:19:58.015Z</time></trkpt><trkpt lat="45.5763472" lon="4.4749634"><ele>795.0</ele><time>2026-04-19T09:19:59.018Z</time></trkpt><trkpt lat="45.5762931" lon="4.4748811"><ele>795.0</ele><time>2026-04-19T09:20:00.016Z</time></trkpt><trkpt lat="45.5762327" lon="4.4747994"><ele>795.0</ele><time>2026-04-19T09:20:01.017Z</time></trkpt><trkpt lat="45.576208" lon="4.474707"><ele>795.0</ele><time>2026-04-19T09:20:02.016Z</time></trkpt><trkpt lat="45.5761773" lon="4.4746139"><ele>791.6</ele><time>2026-04-19T09:20:03.015Z</time></trkpt><trkpt lat="45.5761617" lon="4.4745263"><ele>788.2</ele><time>2026-04-19T09:20:04.017Z</time></trkpt><trkpt lat="45.5761077" lon="4.4743599"><ele>784.8</ele><time>2026-04-19T09:20:06.016Z</time></trkpt><trkpt lat="45.5760678" lon="4.4742867"><ele>781.4</ele><time>2026-04-19T09:20:07.016Z</time></trkpt><trkpt lat="45.5760175" lon="4.4741481"><ele>778.0</ele><time>2026-04-19T09:20:09.016Z</time></trkpt><trkpt lat="45.575986" lon="4.4739984"><ele>777.9999999999999</ele><time>2026-04-19T09:20:11.016Z</time></trkpt><trkpt lat="45.5759606" lon="4.4738988"><ele>778.0</ele><time>2026-04-19T09:20:12.017Z</time></trkpt><trkpt lat="45.5759353" lon="4.4737957"><ele>778.0</ele><time>2026-04-19T09:20:13.016Z</time></trkpt><trkpt lat="45.5759126" lon="4.4737015"><ele>778.0</ele><time>2026-04-19T09:20:14.017Z</time></trkpt><trkpt lat="45.5758933" lon="4.4736131"><ele>777.9999999999999</ele><time>2026-04-19T09:20:15.016Z</time></trkpt><trkpt lat="45.5758593" lon="4.4734605"><ele>778.0</ele><time>2026-04-19T09:20:17.016Z</time></trkpt><trkpt lat="45.5758203" lon="4.4733165"><ele>777.0</ele><time>2026-04-19T09:20:19.016Z</time></trkpt><trkpt lat="45.5757848" lon="4.4732103"><ele>776.0</ele><time>2026-04-19T09:20:20.016Z</time></trkpt><trkpt lat="45.5757424" lon="4.4730727"><ele>775.0</ele><time>2026-04-19T09:20:21.016Z</time></trkpt><trkpt lat="45.5756891" lon="4.4729274"><ele>774.0</ele><time>2026-04-19T09:20:22.016Z</time></trkpt><trkpt lat="45.5756327" lon="4.4727907"><ele>773.0</ele><time>2026-04-19T09:20:23.016Z</time></trkpt><trkpt lat="45.5755758" lon="4.4726615"><ele>772.5000000000001</ele><time>2026-04-19T09:20:24.016Z</time></trkpt><trkpt lat="45.575524" lon="4.472543"><ele>772.0</ele><time>2026-04-19T09:20:25.015Z</time></trkpt><trkpt lat="45.5754829" lon="4.4724362"><ele>771.5</ele><time>2026-04-19T09:20:26.017Z</time></trkpt><trkpt lat="45.575454" lon="4.4723348"><ele>771.0</ele><time>2026-04-19T09:20:27.017Z</time></trkpt><trkpt lat="45.5754284" lon="4.4722291"><ele>770.5000000000001</ele><time>2026-04-19T09:20:28.015Z</time></trkpt><trkpt lat="45.5754055" lon="4.4721393"><ele>770.0</ele><time>2026-04-19T09:20:29.016Z</time></trkpt><trkpt lat="45.5753959" lon="4.4719975"><ele>769.1428571428571</ele><time>2026-04-19T09:20:31.016Z</time></trkpt><trkpt lat="45.5754463" lon="4.4719213"><ele>768.2857142857142</ele><time>2026-04-19T09:20:33.015Z</time></trkpt><trkpt lat="45.5754405" lon="4.4718235"><ele>767.4285714285714</ele><time>2026-04-19T09:20:35.017Z</time></trkpt><trkpt lat="45.5753746" lon="4.4718389"><ele>766.5714285714286</ele><time>2026-04-19T09:20:37.015Z</time></trkpt><trkpt lat="45.5754037" lon="4.471922"><ele>765.7142857142857</ele><time>2026-04-19T09:21:11.015Z</time></trkpt><trkpt lat="45.5753931" lon="4.4720115"><ele>764.8571428571429</ele><time>2026-04-19T09:23:33.017Z</time></trkpt><trkpt lat="45.5753339" lon="4.4720695"><ele>764.0</ele><time>2026-04-19T09:24:43.017Z</time></trkpt><trkpt lat="45.5753724" lon="4.4719966"><ele>764.0</ele><time>2026-04-19T09:26:31.016Z</time></trkpt><trkpt lat="45.5753762" lon="4.4718989"><ele>764.0</ele><time>2026-04-19T09:27:10.016Z</time></trkpt><trkpt lat="45.5754094" lon="4.471822"><ele>764.0</ele><time>2026-04-19T09:30:38.018Z</time></trkpt><trkpt lat="45.575358" lon="4.471767"><ele>764.0</ele><time>2026-04-19T09:30:46.017Z</time></trkpt><trkpt lat="45.5754025" lon="4.4716691"><ele>764.0</ele><time>2026-04-19T09:30:57.018Z</time></trkpt><trkpt lat="45.5754551" lon="4.4717305"><ele>764.0</ele><time>2026-04-19T09:31:02.018Z</time></trkpt><trkpt lat="45.5754911" lon="4.4718074"><ele>764.0</ele><time>2026-04-19T09:31:37.017Z</time></trkpt><trkpt lat="45.5754213" lon="4.4718193"><ele>764.0</ele><time>2026-04-19T09:31:52.017Z</time></trkpt><trkpt lat="45.5754098" lon="4.4717277"><ele>764.0</ele><time>2026-04-19T09:32:33.017Z</time></trkpt><trkpt lat="45.5753982" lon="4.47188"><ele>764.0</ele><time>2026-04-19T09:35:08.019Z</time></trkpt><trkpt lat="45.5754002" lon="4.4719745"><ele>764.0</ele><time>2026-04-19T09:36:05.018Z</time></trkpt><trkpt lat="45.5753658" lon="4.472086"><ele>764.0</ele><time>2026-04-19T09:36:08.017Z</time></trkpt><trkpt lat="45.5753272" lon="4.4719421"><ele>764.0</ele><time>2026-04-19T09:36:10.018Z</time></trkpt><trkpt lat="45.5753263" lon="4.4718383"><ele>763.8000000000001</ele><time>2026-04-19T09:36:12.017Z</time></trkpt><trkpt lat="45.5753064" lon="4.4717472"><ele>763.6</ele><time>2026-04-19T09:36:19.017Z</time></trkpt><trkpt lat="45.5751976" lon="4.471598"><ele>763.4</ele><time>2026-04-19T09:36:21.017Z</time></trkpt><trkpt lat="45.5751243" lon="4.4714945"><ele>763.2</ele><time>2026-04-19T09:36:22.017Z</time></trkpt><trkpt lat="45.5750595" lon="4.4713843"><ele>763.0</ele><time>2026-04-19T09:36:23.017Z</time></trkpt><trkpt lat="45.5749924" lon="4.4712839"><ele>762.0</ele><time>2026-04-19T09:36:24.017Z</time></trkpt><trkpt lat="45.5749076" lon="4.4712052"><ele>761.0</ele><time>2026-04-19T09:36:25.017Z</time></trkpt><trkpt lat="45.5748171" lon="4.4711528"><ele>760.0</ele><time>2026-04-19T09:36:26.017Z</time></trkpt><trkpt lat="45.5747352" lon="4.4711059"><ele>759.0</ele><time>2026-04-19T09:36:27.019Z</time></trkpt><trkpt lat="45.5746598" lon="4.4710665"><ele>758.0</ele><time>2026-04-19T09:36:28.017Z</time></trkpt><trkpt lat="45.5745949" lon="4.4710222"><ele>757.0</ele><time>2026-04-19T09:36:29.018Z</time></trkpt><trkpt lat="45.5745359" lon="4.4709571"><ele>755.8571428571429</ele><time>2026-04-19T09:36:30.017Z</time></trkpt><trkpt lat="45.5744877" lon="4.4708812"><ele>754.7142857142857</ele><time>2026-04-19T09:36:31.018Z</time></trkpt><trkpt lat="45.5744471" lon="4.470774"><ele>753.5714285714286</ele><time>2026-04-19T09:36:32.018Z</time></trkpt><trkpt lat="45.5744083" lon="4.4706956"><ele>752.4285714285714</ele><time>2026-04-19T09:36:33.017Z</time></trkpt><trkpt lat="45.5743841" lon="4.4706079"><ele>751.2857142857142</ele><time>2026-04-19T09:36:34.018Z</time></trkpt><trkpt lat="45.5743627" lon="4.4705106"><ele>750.1428571428571</ele><time>2026-04-19T09:36:35.019Z</time></trkpt><trkpt lat="45.5743208" lon="4.4704176"><ele>749.0</ele><time>2026-04-19T09:36:36.018Z</time></trkpt><trkpt lat="45.5742591" lon="4.4703205"><ele>748.0</ele><time>2026-04-19T09:36:37.018Z</time></trkpt><trkpt lat="45.5742023" lon="4.4702214"><ele>747.0</ele><time>2026-04-19T09:36:38.017Z</time></trkpt><trkpt lat="45.5741382" lon="4.470105"><ele>746.0</ele><time>2026-04-19T09:36:39.018Z</time></trkpt><trkpt lat="45.5740895" lon="4.4699975"><ele>745.0</ele><time>2026-04-19T09:36:40.018Z</time></trkpt><trkpt lat="45.5740443" lon="4.4698832"><ele>744.0</ele><time>2026-04-19T09:36:41.017Z</time></trkpt><trkpt lat="45.5740131" lon="4.4697674"><ele>744.0</ele><time>2026-04-19T09:36:42.017Z</time></trkpt><trkpt lat="45.5739768" lon="4.4696699"><ele>744.0</ele><time>2026-04-19T09:36:43.018Z</time></trkpt><trkpt lat="45.5739291" lon="4.4695717"><ele>744.0</ele><time>2026-04-19T09:36:44.018Z</time></trkpt><trkpt lat="45.5738648" lon="4.4694674"><ele>744.0</ele><time>2026-04-19T09:36:46.017Z</time></trkpt><trkpt lat="45.5738066" lon="4.4694213"><ele>744.0</ele><time>2026-04-19T09:36:48.017Z</time></trkpt><trkpt lat="45.5737297" lon="4.4692886"><ele>744.0</ele><time>2026-04-19T09:36:50.017Z</time></trkpt><trkpt lat="45.5736367" lon="4.4692645"><ele>740.4000000000001</ele><time>2026-04-19T09:36:52.017Z</time></trkpt><trkpt lat="45.5735039" lon="4.4692647"><ele>736.8</ele><time>2026-04-19T09:36:54.017Z</time></trkpt><trkpt lat="45.5733805" lon="4.4693569"><ele>733.2</ele><time>2026-04-19T09:36:56.017Z</time></trkpt><trkpt lat="45.5733035" lon="4.4694371"><ele>729.5999999999999</ele><time>2026-04-19T09:36:57.017Z</time></trkpt><trkpt lat="45.5732421" lon="4.4695109"><ele>726.0</ele><time>2026-04-19T09:36:58.018Z</time></trkpt><trkpt lat="45.5731913" lon="4.4695877"><ele>726.2857142857142</ele><time>2026-04-19T09:36:59.018Z</time></trkpt><trkpt lat="45.5731448" lon="4.4696792"><ele>726.5714285714286</ele><time>2026-04-19T09:37:00.017Z</time></trkpt><trkpt lat="45.5731082" lon="4.4697661"><ele>726.8571428571429</ele><time>2026-04-19T09:37:01.017Z</time></trkpt><trkpt lat="45.5730752" lon="4.4698476"><ele>727.1428571428571</ele><time>2026-04-19T09:37:02.019Z</time></trkpt><trkpt lat="45.5730373" lon="4.4699286"><ele>727.4285714285714</ele><time>2026-04-19T09:37:03.017Z</time></trkpt><trkpt lat="45.5730025" lon="4.4700186"><ele>727.7142857142857</ele><time>2026-04-19T09:37:04.018Z</time></trkpt><trkpt lat="45.5729922" lon="4.4701109"><ele>728.0</ele><time>2026-04-19T09:37:05.017Z</time></trkpt><trkpt lat="45.5729698" lon="4.4701981"><ele>728.0</ele><time>2026-04-19T09:37:06.017Z</time></trkpt><trkpt lat="45.5729421" lon="4.4702851"><ele>728.0</ele><time>2026-04-19T09:37:07.02Z</time></trkpt><trkpt lat="45.5729136" lon="4.4703732"><ele>728.0</ele><time>2026-04-19T09:37:08.018Z</time></trkpt><trkpt lat="45.5728948" lon="4.470468"><ele>728.0</ele><time>2026-04-19T09:37:09.018Z</time></trkpt><trkpt lat="45.5728776" lon="4.4705726"><ele>728.0</ele><time>2026-04-19T09:37:10.017Z</time></trkpt><trkpt lat="45.5728682" lon="4.4706629"><ele>728.0</ele><time>2026-04-19T09:37:11.018Z</time></trkpt><trkpt lat="45.5728576" lon="4.4708173"><ele>724.0</ele><time>2026-04-19T09:37:13.018Z</time></trkpt><trkpt lat="45.5728541" lon="4.4709968"><ele>720.0</ele><time>2026-04-19T09:37:15.017Z</time></trkpt><trkpt lat="45.572849" lon="4.4711105"><ele>716.0</ele><time>2026-04-19T09:37:16.019Z</time></trkpt><trkpt lat="45.572828" lon="4.4712227"><ele>712.0</ele><time>2026-04-19T09:37:17.018Z</time></trkpt><trkpt lat="45.5728001" lon="4.471328"><ele>708.0</ele><time>2026-04-19T09:37:18.017Z</time></trkpt><trkpt lat="45.5727517" lon="4.4714139"><ele>704.0</ele><time>2026-04-19T09:37:19.018Z</time></trkpt><trkpt lat="45.5726975" lon="4.4714884"><ele>703.6666666666666</ele><time>2026-04-19T09:37:20.017Z</time></trkpt><trkpt lat="45.5726315" lon="4.4715454"><ele>703.3333333333333</ele><time>2026-04-19T09:37:21.019Z</time></trkpt><trkpt lat="45.5725554" lon="4.4715827"><ele>703.0</ele><time>2026-04-19T09:37:22.017Z</time></trkpt><trkpt lat="45.5724817" lon="4.471599"><ele>702.6666666666666</ele><time>2026-04-19T09:37:23.019Z</time></trkpt><trkpt lat="45.5724143" lon="4.4715976"><ele>702.3333333333334</ele><time>2026-04-19T09:37:24.017Z</time></trkpt><trkpt lat="45.5723348" lon="4.4715798"><ele>702.0</ele><time>2026-04-19T09:37:25.019Z</time></trkpt><trkpt lat="45.5722413" lon="4.4715783"><ele>702.0</ele><time>2026-04-19T09:37:26.018Z</time></trkpt><trkpt lat="45.5721292" lon="4.4715688"><ele>702.0</ele><time>2026-04-19T09:37:27.017Z</time></trkpt><trkpt lat="45.5719991" lon="4.4715594"><ele>702.0</ele><time>2026-04-19T09:37:28.018Z</time></trkpt><trkpt lat="45.571874" lon="4.471551"><ele>702.0</ele><time>2026-04-19T09:37:29.019Z</time></trkpt><trkpt lat="45.5717513" lon="4.4715497"><ele>698.5</ele><time>2026-04-19T09:37:30.018Z</time></trkpt><trkpt lat="45.5716321" lon="4.4715316"><ele>695.0</ele><time>2026-04-19T09:37:31.017Z</time></trkpt><trkpt lat="45.5715209" lon="4.4714919"><ele>691.5</ele><time>2026-04-19T09:37:32.018Z</time></trkpt><trkpt lat="45.5714125" lon="4.4714228"><ele>688.0</ele><time>2026-04-19T09:37:33.018Z</time></trkpt><trkpt lat="45.571317" lon="4.4713401"><ele>687.4</ele><time>2026-04-19T09:37:34.02Z</time></trkpt><trkpt lat="45.5712403" lon="4.471233"><ele>686.8</ele><time>2026-04-19T09:37:35.019Z</time></trkpt><trkpt lat="45.5711658" lon="4.4711336"><ele>686.2</ele><time>2026-04-19T09:37:36.019Z</time></trkpt><trkpt lat="45.571095" lon="4.4710327"><ele>685.6</ele><time>2026-04-19T09:37:37.018Z</time></trkpt><trkpt lat="45.5710311" lon="4.4709295"><ele>685.0</ele><time>2026-04-19T09:37:38.017Z</time></trkpt><trkpt lat="45.5709732" lon="4.470829"><ele>683.0</ele><time>2026-04-19T09:37:39.018Z</time></trkpt><trkpt lat="45.570909" lon="4.4707395"><ele>681.0</ele><time>2026-04-19T09:37:40.018Z</time></trkpt><trkpt lat="45.5708516" lon="4.4706636"><ele>679.0</ele><time>2026-04-19T09:37:41.017Z</time></trkpt><trkpt lat="45.5707991" lon="4.4706046"><ele>677.0</ele><time>2026-04-19T09:37:42.017Z</time></trkpt><trkpt lat="45.5707515" lon="4.4705388"><ele>675.0</ele><time>2026-04-19T09:37:43.02Z</time></trkpt><trkpt lat="45.5706736" lon="4.4705329"><ele>673.0</ele><time>2026-04-19T09:37:45.017Z</time></trkpt><trkpt lat="45.5706357" lon="4.4706299"><ele>673.0</ele><time>2026-04-19T09:37:56.017Z</time></trkpt><trkpt lat="45.5706338" lon="4.4708119"><ele>673.0</ele><time>2026-04-19T09:37:58.018Z</time></trkpt><trkpt lat="45.5706412" lon="4.470946"><ele>673.0</ele><time>2026-04-19T09:37:59.019Z</time></trkpt><trkpt lat="45.5706572" lon="4.4710993"><ele>673.0</ele><time>2026-04-19T09:38:00.017Z</time></trkpt><trkpt lat="45.5706757" lon="4.4712693"><ele>674.0</ele><time>2026-04-19T09:38:01.018Z</time></trkpt><trkpt lat="45.5706948" lon="4.471439"><ele>675.0</ele><time>2026-04-19T09:38:02.017Z</time></trkpt><trkpt lat="45.570717" lon="4.4715988"><ele>676.0</ele><time>2026-04-19T09:38:03.018Z</time></trkpt><trkpt lat="45.5707436" lon="4.4717566"><ele>677.0</ele><time>2026-04-19T09:38:04.017Z</time></trkpt><trkpt lat="45.5707724" lon="4.4719206"><ele>677.0</ele><time>2026-04-19T09:38:05.019Z</time></trkpt><trkpt lat="45.5707991" lon="4.4720715"><ele>677.0</ele><time>2026-04-19T09:38:06.018Z</time></trkpt><trkpt lat="45.5708289" lon="4.4722201"><ele>677.0</ele><time>2026-04-19T09:38:07.017Z</time></trkpt><trkpt lat="45.5708555" lon="4.4723525"><ele>677.0</ele><time>2026-04-19T09:38:08.017Z</time></trkpt><trkpt lat="45.5708774" lon="4.4724842"><ele>677.0</ele><time>2026-04-19T09:38:09.019Z</time></trkpt><trkpt lat="45.5708962" lon="4.4726031"><ele>677.1666666666666</ele><time>2026-04-19T09:38:10.017Z</time></trkpt><trkpt lat="45.57091" lon="4.4727263"><ele>677.3333333333333</ele><time>2026-04-19T09:38:11.017Z</time></trkpt><trkpt lat="45.5709029" lon="4.4728367"><ele>677.5</ele><time>2026-04-19T09:38:12.019Z</time></trkpt><trkpt lat="45.5708854" lon="4.472956"><ele>677.6666666666666</ele><time>2026-04-19T09:38:13.019Z</time></trkpt><trkpt lat="45.5708452" lon="4.4730589"><ele>677.8333333333334</ele><time>2026-04-19T09:38:14.018Z</time></trkpt><trkpt lat="45.5707925" lon="4.4731623"><ele>678.0</ele><time>2026-04-19T09:38:15.018Z</time></trkpt><trkpt lat="45.5707331" lon="4.4732661"><ele>678.3333333333334</ele><time>2026-04-19T09:38:16.019Z</time></trkpt><trkpt lat="45.5706765" lon="4.4733645"><ele>678.6666666666666</ele><time>2026-04-19T09:38:17.017Z</time></trkpt><trkpt lat="45.5706225" lon="4.4734623"><ele>679.0</ele><time>2026-04-19T09:38:18.019Z</time></trkpt><trkpt lat="45.570569" lon="4.4735497"><ele>679.3333333333333</ele><time>2026-04-19T09:38:19.017Z</time></trkpt><trkpt lat="45.5705246" lon="4.4736337"><ele>679.6666666666666</ele><time>2026-04-19T09:38:20.018Z</time></trkpt><trkpt lat="45.5704808" lon="4.4737036"><ele>680.0</ele><time>2026-04-19T09:38:21.019Z</time></trkpt><trkpt lat="45.5704114" lon="4.4738312"><ele>679.4</ele><time>2026-04-19T09:38:23.018Z</time></trkpt><trkpt lat="45.5703724" lon="4.4740139"><ele>678.8</ele><time>2026-04-19T09:38:25.019Z</time></trkpt><trkpt lat="45.5703485" lon="4.4741306"><ele>678.2</ele><time>2026-04-19T09:38:26.019Z</time></trkpt><trkpt lat="45.5703287" lon="4.4742471"><ele>677.6</ele><time>2026-04-19T09:38:27.019Z</time></trkpt><trkpt lat="45.570296" lon="4.4743483"><ele>677.0</ele><time>2026-04-19T09:38:28.018Z</time></trkpt><trkpt lat="45.5702378" lon="4.4744426"><ele>677.0</ele><time>2026-04-19T09:38:29.02Z</time></trkpt><trkpt lat="45.5701769" lon="4.4745556"><ele>677.0</ele><time>2026-04-19T09:38:30.018Z</time></trkpt><trkpt lat="45.5701158" lon="4.4746916"><ele>677.0</ele><time>2026-04-19T09:38:31.019Z</time></trkpt><trkpt lat="45.5700656" lon="4.4748452"><ele>677.0</ele><time>2026-04-19T09:38:32.018Z</time></trkpt><trkpt lat="45.5700293" lon="4.4750083"><ele>678.5</ele><time>2026-04-19T09:38:33.018Z</time></trkpt><trkpt lat="45.5699986" lon="4.4751888"><ele>680.0</ele><time>2026-04-19T09:38:34.019Z</time></trkpt><trkpt lat="45.5699674" lon="4.4753787"><ele>681.5</ele><time>2026-04-19T09:38:35.018Z</time></trkpt><trkpt lat="45.5699191" lon="4.4755763"><ele>683.0</ele><time>2026-04-19T09:38:36.018Z</time></trkpt><trkpt lat="45.5698582" lon="4.475773"><ele>684.5</ele><time>2026-04-19T09:38:37.019Z</time></trkpt><trkpt lat="45.5697889" lon="4.4759609"><ele>686.0</ele><time>2026-04-19T09:38:38.017Z</time></trkpt><trkpt lat="45.5697191" lon="4.4761461"><ele>687.5</ele><time>2026-04-19T09:38:39.017Z</time></trkpt><trkpt lat="45.5696493" lon="4.4763394"><ele>689.0</ele><time>2026-04-19T09:38:40.017Z</time></trkpt><trkpt lat="45.5695835" lon="4.4765328"><ele>689.0</ele><time>2026-04-19T09:38:41.017Z</time></trkpt><trkpt lat="45.5695059" lon="4.4767169"><ele>689.0</ele><time>2026-04-19T09:38:42.018Z</time></trkpt><trkpt lat="45.5694107" lon="4.4768714"><ele>689.0</ele><time>2026-04-19T09:38:43.017Z</time></trkpt><trkpt lat="45.569312" lon="4.4770122"><ele>689.0</ele><time>2026-04-19T09:38:44.018Z</time></trkpt><trkpt lat="45.5692257" lon="4.477116"><ele>690.0</ele><time>2026-04-19T09:38:45.018Z</time></trkpt><trkpt lat="45.5691468" lon="4.4772563"><ele>691.0</ele><time>2026-04-19T09:38:46.017Z</time></trkpt><trkpt lat="45.5690839" lon="4.4774165"><ele>692.0</ele><time>2026-04-19T09:38:47.019Z</time></trkpt><trkpt lat="45.5690403" lon="4.4775943"><ele>693.0</ele><time>2026-04-19T09:38:48.018Z</time></trkpt><trkpt lat="45.5690035" lon="4.4777557"><ele>693.0</ele><time>2026-04-19T09:38:49.018Z</time></trkpt><trkpt lat="45.5689618" lon="4.4778938"><ele>693.0</ele><time>2026-04-19T09:38:50.018Z</time></trkpt><trkpt lat="45.568904" lon="4.4779994"><ele>693.0</ele><time>2026-04-19T09:38:51.018Z</time></trkpt><trkpt lat="45.5688182" lon="4.4780682"><ele>693.0</ele><time>2026-04-19T09:38:52.018Z</time></trkpt><trkpt lat="45.5687153" lon="4.4781188"><ele>693.0</ele><time>2026-04-19T09:38:53.018Z</time></trkpt><trkpt lat="45.5686098" lon="4.4781581"><ele>693.3333333333334</ele><time>2026-04-19T09:38:54.019Z</time></trkpt><trkpt lat="45.568514" lon="4.4781924"><ele>693.6666666666666</ele><time>2026-04-19T09:38:55.019Z</time></trkpt><trkpt lat="45.568433" lon="4.478234"><ele>694.0</ele><time>2026-04-19T09:38:56.019Z</time></trkpt><trkpt lat="45.5683702" lon="4.4783016"><ele>694.3333333333333</ele><time>2026-04-19T09:38:57.018Z</time></trkpt><trkpt lat="45.568335" lon="4.4784044"><ele>694.6666666666666</ele><time>2026-04-19T09:38:58.017Z</time></trkpt><trkpt lat="45.5683299" lon="4.4785223"><ele>695.0</ele><time>2026-04-19T09:38:59.018Z</time></trkpt><trkpt lat="45.56834" lon="4.4786537"><ele>697.5</ele><time>2026-04-19T09:39:00.018Z</time></trkpt><trkpt lat="45.5683437" lon="4.4788137"><ele>700.0</ele><time>2026-04-19T09:39:01.017Z</time></trkpt><trkpt lat="45.568342" lon="4.4789721"><ele>702.5</ele><time>2026-04-19T09:39:02.018Z</time></trkpt><trkpt lat="45.568323" lon="4.4791396"><ele>705.0</ele><time>2026-04-19T09:39:03.018Z</time></trkpt><trkpt lat="45.5682872" lon="4.479307"><ele>705.0</ele><time>2026-04-19T09:39:04.017Z</time></trkpt><trkpt lat="45.5682488" lon="4.479478"><ele>705.0</ele><time>2026-04-19T09:39:05.02Z</time></trkpt><trkpt lat="45.5682077" lon="4.4796431"><ele>705.0</ele><time>2026-04-19T09:39:06.018Z</time></trkpt><trkpt lat="45.5681721" lon="4.4797843"><ele>705.0</ele><time>2026-04-19T09:39:07.019Z</time></trkpt><trkpt lat="45.5681304" lon="4.4799023"><ele>705.0</ele><time>2026-04-19T09:39:08.017Z</time></trkpt><trkpt lat="45.5681078" lon="4.4800278"><ele>706.6</ele><time>2026-04-19T09:39:09.019Z</time></trkpt><trkpt lat="45.5681178" lon="4.4801541"><ele>708.2</ele><time>2026-04-19T09:39:10.017Z</time></trkpt><trkpt lat="45.5681467" lon="4.4802927"><ele>709.8</ele><time>2026-04-19T09:39:11.017Z</time></trkpt><trkpt lat="45.5681764" lon="4.4804448"><ele>711.4</ele><time>2026-04-19T09:39:12.02Z</time></trkpt><trkpt lat="45.5682026" lon="4.4806083"><ele>713.0</ele><time>2026-04-19T09:39:13.017Z</time></trkpt><trkpt lat="45.5682241" lon="4.4807593"><ele>714.1666666666666</ele><time>2026-04-19T09:39:14.017Z</time></trkpt><trkpt lat="45.5682373" lon="4.480886"><ele>715.3333333333333</ele><time>2026-04-19T09:39:15.018Z</time></trkpt><trkpt lat="45.5682406" lon="4.4809851"><ele>716.5</ele><time>2026-04-19T09:39:16.02Z</time></trkpt><trkpt lat="45.5682251" lon="4.4811199"><ele>717.6666666666666</ele><time>2026-04-19T09:39:18.018Z</time></trkpt><trkpt lat="45.568209" lon="4.4812111"><ele>718.8333333333334</ele><time>2026-04-19T09:39:20.019Z</time></trkpt><trkpt lat="45.5682086" lon="4.4813457"><ele>720.0</ele><time>2026-04-19T09:39:33.018Z</time></trkpt><trkpt lat="45.5682087" lon="4.4814535"><ele>720.6</ele><time>2026-04-19T09:39:34.018Z</time></trkpt><trkpt lat="45.5682053" lon="4.4815888"><ele>721.2</ele><time>2026-04-19T09:39:35.018Z</time></trkpt><trkpt lat="45.5682004" lon="4.4817446"><ele>721.8</ele><time>2026-04-19T09:39:36.019Z</time></trkpt><trkpt lat="45.5681945" lon="4.4819257"><ele>722.4</ele><time>2026-04-19T09:39:37.018Z</time></trkpt><trkpt lat="45.5681812" lon="4.4820825"><ele>723.0</ele><time>2026-04-19T09:39:38.018Z</time></trkpt><trkpt lat="45.5681635" lon="4.4822264"><ele>723.1666666666666</ele><time>2026-04-19T09:39:39.018Z</time></trkpt><trkpt lat="45.568153" lon="4.4823234"><ele>723.3333333333334</ele><time>2026-04-19T09:39:40.019Z</time></trkpt><trkpt lat="45.5681183" lon="4.4824533"><ele>723.5</ele><time>2026-04-19T09:39:42.017Z</time></trkpt><trkpt lat="45.5680342" lon="4.482488"><ele>723.6666666666667</ele><time>2026-04-19T09:39:44.019Z</time></trkpt><trkpt lat="45.5679591" lon="4.482475"><ele>723.8333333333334</ele><time>2026-04-19T09:39:45.019Z</time></trkpt><trkpt lat="45.5678744" lon="4.4824597"><ele>724.0</ele><time>2026-04-19T09:39:46.019Z</time></trkpt><trkpt lat="45.5677711" lon="4.4824668"><ele>722.5</ele><time>2026-04-19T09:39:47.018Z</time></trkpt><trkpt lat="45.5676614" lon="4.4824859"><ele>721.0</ele><time>2026-04-19T09:39:48.018Z</time></trkpt><trkpt lat="45.5675409" lon="4.4825132"><ele>719.5</ele><time>2026-04-19T09:39:49.017Z</time></trkpt><trkpt lat="45.5674142" lon="4.4825526"><ele>718.0</ele><time>2026-04-19T09:39:50.02Z</time></trkpt><trkpt lat="45.5672834" lon="4.4825934"><ele>718.0</ele><time>2026-04-19T09:39:51.017Z</time></trkpt><trkpt lat="45.5671468" lon="4.4826257"><ele>718.0</ele><time>2026-04-19T09:39:52.018Z</time></trkpt><trkpt lat="45.5670123" lon="4.4826458"><ele>718.0</ele><time>2026-04-19T09:39:53.018Z</time></trkpt><trkpt lat="45.5668854" lon="4.4826491"><ele>718.0</ele><time>2026-04-19T09:39:54.018Z</time></trkpt><trkpt lat="45.5667615" lon="4.4826326"><ele>716.25</ele><time>2026-04-19T09:39:55.018Z</time></trkpt><trkpt lat="45.5666411" lon="4.4825834"><ele>714.5</ele><time>2026-04-19T09:39:56.018Z</time></trkpt><trkpt lat="45.5665195" lon="4.4825121"><ele>712.75</ele><time>2026-04-19T09:39:57.019Z</time></trkpt><trkpt lat="45.5663864" lon="4.4824486"><ele>711.0</ele><time>2026-04-19T09:39:58.018Z</time></trkpt><trkpt lat="45.5662422" lon="4.4823971"><ele>710.75</ele><time>2026-04-19T09:39:59.019Z</time></trkpt><trkpt lat="45.5661023" lon="4.4823662"><ele>710.5</ele><time>2026-04-19T09:40:00.02Z</time></trkpt><trkpt lat="45.5659612" lon="4.482349"><ele>710.25</ele><time>2026-04-19T09:40:01.017Z</time></trkpt><trkpt lat="45.5658179" lon="4.4823629"><ele>710.0</ele><time>2026-04-19T09:40:02.018Z</time></trkpt><trkpt lat="45.5656687" lon="4.4823811"><ele>710.0</ele><time>2026-04-19T09:40:03.02Z</time></trkpt><trkpt lat="45.5655296" lon="4.482391"><ele>710.0</ele><time>2026-04-19T09:40:04.019Z</time></trkpt><trkpt lat="45.5653874" lon="4.4823817"><ele>710.0</ele><time>2026-04-19T09:40:05.018Z</time></trkpt><trkpt lat="45.5652523" lon="4.4823566"><ele>710.0</ele><time>2026-04-19T09:40:06.018Z</time></trkpt><trkpt lat="45.565123" lon="4.4823274"><ele>711.25</ele><time>2026-04-19T09:40:07.018Z</time></trkpt><trkpt lat="45.5649988" lon="4.4823224"><ele>712.5</ele><time>2026-04-19T09:40:08.019Z</time></trkpt><trkpt lat="45.5648655" lon="4.4823377"><ele>713.75</ele><time>2026-04-19T09:40:09.018Z</time></trkpt><trkpt lat="45.5647483" lon="4.482381"><ele>715.0</ele><time>2026-04-19T09:40:10.018Z</time></trkpt><trkpt lat="45.5646422" lon="4.4824279"><ele>715.0</ele><time>2026-04-19T09:40:11.018Z</time></trkpt><trkpt lat="45.5645457" lon="4.482462"><ele>715.0</ele><time>2026-04-19T09:40:12.018Z</time></trkpt><trkpt lat="45.5644573" lon="4.4824616"><ele>715.0</ele><time>2026-04-19T09:40:13.019Z</time></trkpt><trkpt lat="45.5643703" lon="4.4824308"><ele>715.0</ele><time>2026-04-19T09:40:14.017Z</time></trkpt><trkpt lat="45.5642879" lon="4.4823649"><ele>715.0</ele><time>2026-04-19T09:40:15.018Z</time></trkpt><trkpt lat="45.564213" lon="4.4822679"><ele>714.3333333333334</ele><time>2026-04-19T09:40:16.018Z</time></trkpt><trkpt lat="45.5641446" lon="4.482174"><ele>713.6666666666667</ele><time>2026-04-19T09:40:17.019Z</time></trkpt><trkpt lat="45.5640928" lon="4.4821018"><ele>713.0</ele><time>2026-04-19T09:40:18.019Z</time></trkpt><trkpt lat="45.5640445" lon="4.482041"><ele>712.3333333333334</ele><time>2026-04-19T09:40:19.017Z</time></trkpt><trkpt lat="45.5639633" lon="4.481992"><ele>711.6666666666666</ele><time>2026-04-19T09:40:21.018Z</time></trkpt><trkpt lat="45.5638943" lon="4.4819712"><ele>711.0</ele><time>2026-04-19T09:40:22.018Z</time></trkpt><trkpt lat="45.5638231" lon="4.4819464"><ele>711.0</ele><time>2026-04-19T09:40:23.019Z</time></trkpt><trkpt lat="45.5637306" lon="4.4819364"><ele>711.0</ele><time>2026-04-19T09:40:24.018Z</time></trkpt><trkpt lat="45.5636294" lon="4.4819119"><ele>711.0</ele><time>2026-04-19T09:40:25.019Z</time></trkpt><trkpt lat="45.5635254" lon="4.4818767"><ele>711.0</ele><time>2026-04-19T09:40:26.017Z</time></trkpt><trkpt lat="45.5634106" lon="4.4818288"><ele>711.0</ele><time>2026-04-19T09:40:27.019Z</time></trkpt><trkpt lat="45.5632947" lon="4.4817853"><ele>713.5</ele><time>2026-04-19T09:40:28.019Z</time></trkpt><trkpt lat="45.5631699" lon="4.4817325"><ele>716.0</ele><time>2026-04-19T09:40:29.017Z</time></trkpt><trkpt lat="45.5630462" lon="4.4816862"><ele>718.5</ele><time>2026-04-19T09:40:30.017Z</time></trkpt><trkpt lat="45.5629115" lon="4.4816392"><ele>721.0</ele><time>2026-04-19T09:40:31.019Z</time></trkpt><trkpt lat="45.5627755" lon="4.4815973"><ele>724.25</ele><time>2026-04-19T09:40:32.018Z</time></trkpt><trkpt lat="45.5626366" lon="4.4815555"><ele>727.5</ele><time>2026-04-19T09:40:33.017Z</time></trkpt><trkpt lat="45.5624969" lon="4.4815179"><ele>730.75</ele><time>2026-04-19T09:40:34.018Z</time></trkpt><trkpt lat="45.5623552" lon="4.4814658"><ele>734.0</ele><time>2026-04-19T09:40:35.019Z</time></trkpt><trkpt lat="45.5622161" lon="4.4814154"><ele>734.0</ele><time>2026-04-19T09:40:36.019Z</time></trkpt><trkpt lat="45.5620761" lon="4.4813693"><ele>734.0</ele><time>2026-04-19T09:40:37.018Z</time></trkpt><trkpt lat="45.561931" lon="4.4813357"><ele>734.0</ele><time>2026-04-19T09:40:38.018Z</time></trkpt><trkpt lat="45.5617882" lon="4.4813089"><ele>734.0</ele><time>2026-04-19T09:40:39.017Z</time></trkpt><trkpt lat="45.5616508" lon="4.4812735"><ele>734.2</ele><time>2026-04-19T09:40:40.018Z</time></trkpt><trkpt lat="45.5615243" lon="4.4812401"><ele>734.4000000000001</ele><time>2026-04-19T09:40:41.018Z</time></trkpt><trkpt lat="45.5614109" lon="4.4812141"><ele>734.6</ele><time>2026-04-19T09:40:42.019Z</time></trkpt><trkpt lat="45.5613101" lon="4.4811903"><ele>734.8</ele><time>2026-04-19T09:40:43.018Z</time></trkpt><trkpt lat="45.5612217" lon="4.4811783"><ele>735.0</ele><time>2026-04-19T09:40:44.018Z</time></trkpt><trkpt lat="45.561152" lon="4.4811845"><ele>735.0</ele><time>2026-04-19T09:40:45.018Z</time></trkpt><trkpt lat="45.5610551" lon="4.4811802"><ele>735.0</ele><time>2026-04-19T09:40:47.019Z</time></trkpt><trkpt lat="45.5609632" lon="4.4812044"><ele>735.0</ele><time>2026-04-19T09:40:49.017Z</time></trkpt><trkpt lat="45.5608644" lon="4.4812523"><ele>735.0</ele><time>2026-04-19T09:40:51.017Z</time></trkpt><trkpt lat="45.5608001" lon="4.4812871"><ele>735.0</ele><time>2026-04-19T09:40:52.018Z</time></trkpt><trkpt lat="45.5607247" lon="4.4813293"><ele>735.0</ele><time>2026-04-19T09:40:53.02Z</time></trkpt><trkpt lat="45.5606424" lon="4.4813816"><ele>736.25</ele><time>2026-04-19T09:40:54.018Z</time></trkpt><trkpt lat="45.5605557" lon="4.4814431"><ele>737.5</ele><time>2026-04-19T09:40:55.019Z</time></trkpt><trkpt lat="45.5604606" lon="4.4815342"><ele>738.75</ele><time>2026-04-19T09:40:56.018Z</time></trkpt><trkpt lat="45.5603663" lon="4.4816264"><ele>740.0</ele><time>2026-04-19T09:40:57.019Z</time></trkpt><trkpt lat="45.5602649" lon="4.4817327"><ele>740.0</ele><time>2026-04-19T09:40:58.019Z</time></trkpt><trkpt lat="45.5601641" lon="4.4818397"><ele>740.0</ele><time>2026-04-19T09:40:59.019Z</time></trkpt><trkpt lat="45.5600622" lon="4.4819553"><ele>740.0</ele><time>2026-04-19T09:41:00.019Z</time></trkpt><trkpt lat="45.5599615" lon="4.4820709"><ele>740.0</ele><time>2026-04-19T09:41:01.018Z</time></trkpt><trkpt lat="45.5598652" lon="4.4821733"><ele>740.5</ele><time>2026-04-19T09:41:02.018Z</time></trkpt><trkpt lat="45.5597675" lon="4.4822702"><ele>741.0</ele><time>2026-04-19T09:41:03.019Z</time></trkpt><trkpt lat="45.5596689" lon="4.4823624"><ele>741.5</ele><time>2026-04-19T09:41:04.018Z</time></trkpt><trkpt lat="45.5595697" lon="4.4824597"><ele>742.0</ele><time>2026-04-19T09:41:05.019Z</time></trkpt><trkpt lat="45.55949" lon="4.4825744"><ele>742.0</ele><time>2026-04-19T09:41:06.018Z</time></trkpt><trkpt lat="45.5594063" lon="4.4827014"><ele>742.0</ele><time>2026-04-19T09:41:07.019Z</time></trkpt><trkpt lat="45.5593257" lon="4.4828335"><ele>742.0</ele><time>2026-04-19T09:41:08.02Z</time></trkpt><trkpt lat="45.5592371" lon="4.4829751"><ele>742.0</ele><time>2026-04-19T09:41:09.019Z</time></trkpt><trkpt lat="45.5591518" lon="4.4831245"><ele>743.8</ele><time>2026-04-19T09:41:10.018Z</time></trkpt><trkpt lat="45.5590797" lon="4.483265"><ele>745.6</ele><time>2026-04-19T09:41:11.017Z</time></trkpt><trkpt lat="45.558993" lon="4.4833601"><ele>747.4</ele><time>2026-04-19T09:41:12.019Z</time></trkpt><trkpt lat="45.5589033" lon="4.4834249"><ele>749.1999999999999</ele><time>2026-04-19T09:41:13.019Z</time></trkpt><trkpt lat="45.5588076" lon="4.4834831"><ele>751.0</ele><time>2026-04-19T09:41:14.018Z</time></trkpt><trkpt lat="45.5587035" lon="4.4835546"><ele>750.3333333333334</ele><time>2026-04-19T09:41:15.018Z</time></trkpt><trkpt lat="45.5586177" lon="4.483623"><ele>749.6666666666667</ele><time>2026-04-19T09:41:16.018Z</time></trkpt><trkpt lat="45.5585269" lon="4.4836659"><ele>749.0</ele><time>2026-04-19T09:41:17.018Z</time></trkpt><trkpt lat="45.5584399" lon="4.4836917"><ele>748.3333333333334</ele><time>2026-04-19T09:41:18.018Z</time></trkpt><trkpt lat="45.5583659" lon="4.4837178"><ele>747.6666666666666</ele><time>2026-04-19T09:41:19.018Z</time></trkpt><trkpt lat="45.5582945" lon="4.4837284"><ele>747.0</ele><time>2026-04-19T09:41:20.019Z</time></trkpt><trkpt lat="45.5582205" lon="4.4837343"><ele>747.0</ele><time>2026-04-19T09:41:21.018Z</time></trkpt><trkpt lat="45.5581367" lon="4.4837404"><ele>747.0</ele><time>2026-04-19T09:41:22.018Z</time></trkpt><trkpt lat="45.5580594" lon="4.4837444"><ele>747.0</ele><time>2026-04-19T09:41:23.018Z</time></trkpt><trkpt lat="45.5579797" lon="4.4837315"><ele>747.0</ele><time>2026-04-19T09:41:24.018Z</time></trkpt><trkpt lat="45.5579014" lon="4.4837059"><ele>747.0</ele><time>2026-04-19T09:41:25.018Z</time></trkpt><trkpt lat="45.5578172" lon="4.4836667"><ele>747.0</ele><time>2026-04-19T09:41:26.019Z</time></trkpt><trkpt lat="45.5577348" lon="4.4836309"><ele>749.0</ele><time>2026-04-19T09:41:27.018Z</time></trkpt><trkpt lat="45.5576514" lon="4.4835895"><ele>751.0</ele><time>2026-04-19T09:41:28.017Z</time></trkpt><trkpt lat="45.5575626" lon="4.4835564"><ele>753.0</ele><time>2026-04-19T09:41:29.019Z</time></trkpt><trkpt lat="45.5574648" lon="4.4835278"><ele>755.0</ele><time>2026-04-19T09:41:30.019Z</time></trkpt><trkpt lat="45.5573745" lon="4.4834856"><ele>757.0</ele><time>2026-04-19T09:41:31.02Z</time></trkpt><trkpt lat="45.5572758" lon="4.4834545"><ele>757.0</ele><time>2026-04-19T09:41:32.019Z</time></trkpt><trkpt lat="45.5571699" lon="4.4834291"><ele>757.0</ele><time>2026-04-19T09:41:33.018Z</time></trkpt><trkpt lat="45.5570553" lon="4.4834012"><ele>757.0</ele><time>2026-04-19T09:41:34.019Z</time></trkpt><trkpt lat="45.5569364" lon="4.4833811"><ele>757.0</ele><time>2026-04-19T09:41:35.018Z</time></trkpt><trkpt lat="45.5568102" lon="4.4833633"><ele>757.75</ele><time>2026-04-19T09:41:36.018Z</time></trkpt><trkpt lat="45.55668" lon="4.4833477"><ele>758.5</ele><time>2026-04-19T09:41:37.019Z</time></trkpt><trkpt lat="45.5565428" lon="4.4833347"><ele>759.25</ele><time>2026-04-19T09:41:38.018Z</time></trkpt><trkpt lat="45.556406" lon="4.4833218"><ele>760.0</ele><time>2026-04-19T09:41:39.019Z</time></trkpt><trkpt lat="45.55627" lon="4.4833125"><ele>760.8</ele><time>2026-04-19T09:41:40.018Z</time></trkpt><trkpt lat="45.5561399" lon="4.4833235"><ele>761.6</ele><time>2026-04-19T09:41:41.017Z</time></trkpt><trkpt lat="45.5560203" lon="4.4833474"><ele>762.4000000000001</ele><time>2026-04-19T09:41:42.019Z</time></trkpt><trkpt lat="45.5559228" lon="4.4833836"><ele>763.2</ele><time>2026-04-19T09:41:43.018Z</time></trkpt><trkpt lat="45.55583" lon="4.4834101"><ele>764.0</ele><time>2026-04-19T09:41:44.019Z</time></trkpt><trkpt lat="45.5557485" lon="4.4834662"><ele>764.0</ele><time>2026-04-19T09:41:45.018Z</time></trkpt><trkpt lat="45.5556856" lon="4.4835178"><ele>764.0</ele><time>2026-04-19T09:41:46.02Z</time></trkpt><trkpt lat="45.5556019" lon="4.4835974"><ele>764.0</ele><time>2026-04-19T09:41:48.018Z</time></trkpt><trkpt lat="45.5555734" lon="4.4836888"><ele>764.0</ele><time>2026-04-19T09:42:51.018Z</time></trkpt><trkpt lat="45.5555143" lon="4.4838224"><ele>764.0</ele><time>2026-04-19T09:42:53.02Z</time></trkpt><trkpt lat="45.5554473" lon="4.4838958"><ele>764.0</ele><time>2026-04-19T09:42:54.018Z</time></trkpt><trkpt lat="45.5553706" lon="4.4839734"><ele>765.5</ele><time>2026-04-19T09:42:55.018Z</time></trkpt><trkpt lat="45.5552839" lon="4.4840584"><ele>767.0</ele><time>2026-04-19T09:42:56.02Z</time></trkpt><trkpt lat="45.5551923" lon="4.4841533"><ele>768.5</ele><time>2026-04-19T09:42:57.018Z</time></trkpt><trkpt lat="45.5551003" lon="4.4842651"><ele>770.0</ele><time>2026-04-19T09:42:58.018Z</time></trkpt><trkpt lat="45.555012" lon="4.4844002"><ele>770.0</ele><time>2026-04-19T09:42:59.018Z</time></trkpt><trkpt lat="45.5549212" lon="4.4845508"><ele>770.0</ele><time>2026-04-19T09:43:00.018Z</time></trkpt><trkpt lat="45.5548288" lon="4.4847007"><ele>770.0</ele><time>2026-04-19T09:43:01.018Z</time></trkpt><trkpt lat="45.5547277" lon="4.4848555"><ele>770.0</ele><time>2026-04-19T09:43:02.018Z</time></trkpt><trkpt lat="45.5546202" lon="4.4849877"><ele>771.5</ele><time>2026-04-19T09:43:03.019Z</time></trkpt><trkpt lat="45.5545026" lon="4.4850975"><ele>773.0</ele><time>2026-04-19T09:43:04.018Z</time></trkpt><trkpt lat="45.5543665" lon="4.4851723"><ele>774.5</ele><time>2026-04-19T09:43:05.018Z</time></trkpt><trkpt lat="45.5542214" lon="4.4852374"><ele>776.0</ele><time>2026-04-19T09:43:06.018Z</time></trkpt><trkpt lat="45.5540707" lon="4.4852881"><ele>776.0</ele><time>2026-04-19T09:43:07.018Z</time></trkpt><trkpt lat="45.5539343" lon="4.4853374"><ele>776.0</ele><time>2026-04-19T09:43:08.018Z</time></trkpt><trkpt lat="45.5538283" lon="4.4853753"><ele>776.0</ele><time>2026-04-19T09:43:09.019Z</time></trkpt><trkpt lat="45.5537466" lon="4.4854122"><ele>776.0</ele><time>2026-04-19T09:43:10.018Z</time></trkpt><trkpt lat="45.5536862" lon="4.4855"><ele>776.0</ele><time>2026-04-19T09:43:12.018Z</time></trkpt><trkpt lat="45.5536586" lon="4.4856317"><ele>778.3333333333334</ele><time>2026-04-19T09:43:14.019Z</time></trkpt><trkpt lat="45.5536259" lon="4.4857907"><ele>780.6666666666667</ele><time>2026-04-19T09:43:16.018Z</time></trkpt><trkpt lat="45.5536114" lon="4.4858798"><ele>783.0</ele><time>2026-04-19T09:43:17.019Z</time></trkpt><trkpt lat="45.5535742" lon="4.4859574"><ele>785.3333333333333</ele><time>2026-04-19T09:43:18.018Z</time></trkpt><trkpt lat="45.5535291" lon="4.4860225"><ele>787.6666666666666</ele><time>2026-04-19T09:43:19.019Z</time></trkpt><trkpt lat="45.5534779" lon="4.4860981"><ele>790.0</ele><time>2026-04-19T09:43:20.019Z</time></trkpt><trkpt lat="45.5534256" lon="4.4861867"><ele>791.3333333333333</ele><time>2026-04-19T09:43:21.018Z</time></trkpt><trkpt lat="45.5533698" lon="4.4862629"><ele>792.6666666666666</ele><time>2026-04-19T09:43:22.018Z</time></trkpt><trkpt lat="45.5533136" lon="4.4863451"><ele>794.0</ele><time>2026-04-19T09:43:23.018Z</time></trkpt><trkpt lat="45.5532629" lon="4.4864201"><ele>795.3333333333333</ele><time>2026-04-19T09:43:24.019Z</time></trkpt><trkpt lat="45.5532088" lon="4.486485"><ele>796.6666666666666</ele><time>2026-04-19T09:43:25.02Z</time></trkpt><trkpt lat="45.553152" lon="4.4865603"><ele>798.0</ele><time>2026-04-19T09:43:26.018Z</time></trkpt><trkpt lat="45.5530931" lon="4.4866234"><ele>798.0</ele><time>2026-04-19T09:43:27.019Z</time></trkpt><trkpt lat="45.553038" lon="4.4866982"><ele>798.0</ele><time>2026-04-19T09:43:28.018Z</time></trkpt><trkpt lat="45.5529767" lon="4.4867808"><ele>798.0</ele><time>2026-04-19T09:43:29.018Z</time></trkpt><trkpt lat="45.5529295" lon="4.4868571"><ele>798.0</ele><time>2026-04-19T09:43:30.018Z</time></trkpt><trkpt lat="45.5528415" lon="4.486978"><ele>798.0</ele><time>2026-04-19T09:43:32.018Z</time></trkpt><trkpt lat="45.5527848" lon="4.4870524"><ele>798.0</ele><time>2026-04-19T09:43:33.019Z</time></trkpt><trkpt lat="45.552737" lon="4.4871422"><ele>800.5</ele><time>2026-04-19T09:43:34.018Z</time></trkpt><trkpt lat="45.5526833" lon="4.4872102"><ele>803.0</ele><time>2026-04-19T09:43:35.02Z</time></trkpt><trkpt lat="45.5526206" lon="4.487302"><ele>805.5</ele><time>2026-04-19T09:43:36.018Z</time></trkpt><trkpt lat="45.5525758" lon="4.4873774"><ele>808.0</ele><time>2026-04-19T09:43:37.019Z</time></trkpt><trkpt lat="45.5525291" lon="4.4874783"><ele>810.5</ele><time>2026-04-19T09:43:38.019Z</time></trkpt><trkpt lat="45.5524777" lon="4.4876139"><ele>813.0</ele><time>2026-04-19T09:43:39.019Z</time></trkpt><trkpt lat="45.5524338" lon="4.4877325"><ele>813.0</ele><time>2026-04-19T09:43:40.018Z</time></trkpt><trkpt lat="45.5523835" lon="4.4878447"><ele>813.0</ele><time>2026-04-19T09:43:41.019Z</time></trkpt><trkpt lat="45.5523325" lon="4.4879465"><ele>813.0</ele><time>2026-04-19T09:43:42.019Z</time></trkpt><trkpt lat="45.5522812" lon="4.4880306"><ele>813.0</ele><time>2026-04-19T09:43:43.019Z</time></trkpt><trkpt lat="45.5522241" lon="4.4881114"><ele>813.0</ele><time>2026-04-19T09:43:44.018Z</time></trkpt><trkpt lat="45.5521663" lon="4.4882063"><ele>813.0</ele><time>2026-04-19T09:43:45.019Z</time></trkpt><trkpt lat="45.5521177" lon="4.4882955"><ele>813.0</ele><time>2026-04-19T09:43:46.018Z</time></trkpt><trkpt lat="45.5520483" lon="4.4884237"><ele>813.0</ele><time>2026-04-19T09:43:48.019Z</time></trkpt><trkpt lat="45.5520113" lon="4.4885886"><ele>813.0</ele><time>2026-04-19T09:43:50.019Z</time></trkpt><trkpt lat="45.5519418" lon="4.4887594"><ele>813.0</ele><time>2026-04-19T09:43:52.019Z</time></trkpt><trkpt lat="45.551899" lon="4.4888579"><ele>816.0</ele><time>2026-04-19T09:43:53.018Z</time></trkpt><trkpt lat="45.5518382" lon="4.4889636"><ele>819.0</ele><time>2026-04-19T09:43:54.018Z</time></trkpt><trkpt lat="45.5517812" lon="4.48907"><ele>822.0</ele><time>2026-04-19T09:43:55.019Z</time></trkpt><trkpt lat="45.5517134" lon="4.4891748"><ele>825.0</ele><time>2026-04-19T09:43:56.018Z</time></trkpt><trkpt lat="45.5516468" lon="4.4892949"><ele>828.0</ele><time>2026-04-19T09:43:57.019Z</time></trkpt><trkpt lat="45.5515814" lon="4.4894243"><ele>828.0</ele><time>2026-04-19T09:43:58.019Z</time></trkpt><trkpt lat="45.5515124" lon="4.4895528"><ele>828.0</ele><time>2026-04-19T09:43:59.018Z</time></trkpt><trkpt lat="45.5514428" lon="4.4896862"><ele>828.0</ele><time>2026-04-19T09:44:00.018Z</time></trkpt><trkpt lat="45.5513705" lon="4.4898272"><ele>828.0</ele><time>2026-04-19T09:44:01.019Z</time></trkpt><trkpt lat="45.5513037" lon="4.4899469"><ele>828.5999999999999</ele><time>2026-04-19T09:44:02.018Z</time></trkpt><trkpt lat="45.5512493" lon="4.4900614"><ele>829.1999999999999</ele><time>2026-04-19T09:44:03.018Z</time></trkpt><trkpt lat="45.5512088" lon="4.4901455"><ele>829.8</ele><time>2026-04-19T09:44:04.019Z</time></trkpt><trkpt lat="45.5511477" lon="4.4902537"><ele>830.4</ele><time>2026-04-19T09:44:06.019Z</time></trkpt><trkpt lat="45.5510217" lon="4.4902803"><ele>831.0</ele><time>2026-04-19T09:44:31.018Z</time></trkpt><trkpt lat="45.5509483" lon="4.490275"><ele>831.5</ele><time>2026-04-19T09:44:32.018Z</time></trkpt><trkpt lat="45.5508742" lon="4.4902692"><ele>832.0</ele><time>2026-04-19T09:44:33.02Z</time></trkpt><trkpt lat="45.5508074" lon="4.4903012"><ele>832.5</ele><time>2026-04-19T09:44:34.018Z</time></trkpt><trkpt lat="45.550741" lon="4.490373"><ele>833.0</ele><time>2026-04-19T09:44:35.019Z</time></trkpt><trkpt lat="45.5506797" lon="4.4904594"><ele>833.5</ele><time>2026-04-19T09:44:36.018Z</time></trkpt><trkpt lat="45.5506148" lon="4.4905769"><ele>834.0</ele><time>2026-04-19T09:44:37.018Z</time></trkpt><trkpt lat="45.5505577" lon="4.4906857"><ele>834.0</ele><time>2026-04-19T09:44:38.02Z</time></trkpt><trkpt lat="45.5505" lon="4.4907808"><ele>834.0</ele><time>2026-04-19T09:44:39.019Z</time></trkpt><trkpt lat="45.550456" lon="4.4908587"><ele>834.0</ele><time>2026-04-19T09:44:40.018Z</time></trkpt><trkpt lat="45.5503966" lon="4.4909633"><ele>834.0</ele><time>2026-04-19T09:44:42.018Z</time></trkpt><trkpt lat="45.5503473" lon="4.4910359"><ele>834.0</ele><time>2026-04-19T09:44:44.018Z</time></trkpt><trkpt lat="45.5503005" lon="4.4911128"><ele>834.0</ele><time>2026-04-19T09:44:46.02Z</time></trkpt><trkpt lat="45.5502594" lon="4.4912687"><ele>832.8000000000001</ele><time>2026-04-19T09:44:49.019Z</time></trkpt><trkpt lat="45.550258" lon="4.4913845"><ele>831.6</ele><time>2026-04-19T09:44:50.019Z</time></trkpt><trkpt lat="45.550263" lon="4.491527"><ele>830.4</ele><time>2026-04-19T09:44:51.019Z</time></trkpt><trkpt lat="45.550276" lon="4.4916766"><ele>829.2</ele><time>2026-04-19T09:44:52.018Z</time></trkpt><trkpt lat="45.5503088" lon="4.4918489"><ele>828.0</ele><time>2026-04-19T09:44:53.018Z</time></trkpt><trkpt lat="45.5503431" lon="4.4920367"><ele>831.3333333333333</ele><time>2026-04-19T09:44:54.018Z</time></trkpt><trkpt lat="45.5503775" lon="4.4922317"><ele>834.6666666666666</ele><time>2026-04-19T09:44:55.02Z</time></trkpt><trkpt lat="45.5504157" lon="4.492449"><ele>838.0</ele><time>2026-04-19T09:44:56.019Z</time></trkpt><trkpt lat="45.5504564" lon="4.4926618"><ele>838.0</ele><time>2026-04-19T09:44:57.018Z</time></trkpt><trkpt lat="45.5505046" lon="4.4928814"><ele>838.0</ele><time>2026-04-19T09:44:58.019Z</time></trkpt><trkpt lat="45.5505567" lon="4.4931057"><ele>838.0</ele><time>2026-04-19T09:44:59.018Z</time></trkpt><trkpt lat="45.5506113" lon="4.4933352"><ele>838.0</ele><time>2026-04-19T09:45:00.02Z</time></trkpt><trkpt lat="45.5506621" lon="4.4935499"><ele>838.0</ele><time>2026-04-19T09:45:01.018Z</time></trkpt><trkpt lat="45.5507163" lon="4.4937541"><ele>838.0</ele><time>2026-04-19T09:45:02.019Z</time></trkpt><trkpt lat="45.550769" lon="4.4939193"><ele>838.0</ele><time>2026-04-19T09:45:03.019Z</time></trkpt><trkpt lat="45.5508262" lon="4.4940795"><ele>837.9999999999999</ele><time>2026-04-19T09:45:04.019Z</time></trkpt><trkpt lat="45.5508772" lon="4.4942147"><ele>838.0</ele><time>2026-04-19T09:45:05.019Z</time></trkpt><trkpt lat="45.5509268" lon="4.4943267"><ele>838.0</ele><time>2026-04-19T09:45:06.018Z</time></trkpt><trkpt lat="45.5509718" lon="4.4944045"><ele>838.0</ele><time>2026-04-19T09:45:07.018Z</time></trkpt><trkpt lat="45.5509938" lon="4.4945172"><ele>837.9999999999999</ele><time>2026-04-19T09:45:09.019Z</time></trkpt><trkpt lat="45.5509378" lon="4.4945961"><ele>838.0</ele><time>2026-04-19T09:45:11.018Z</time></trkpt><trkpt lat="45.5508704" lon="4.4946673"><ele>837.5999999999999</ele><time>2026-04-19T09:45:13.019Z</time></trkpt><trkpt lat="45.550819" lon="4.4947403"><ele>837.1999999999999</ele><time>2026-04-19T09:45:15.019Z</time></trkpt><trkpt lat="45.5507446" lon="4.4948265"><ele>836.8</ele><time>2026-04-19T09:45:17.019Z</time></trkpt><trkpt lat="45.5506716" lon="4.4949234"><ele>836.4</ele><time>2026-04-19T09:45:19.018Z</time></trkpt><trkpt lat="45.5505927" lon="4.4950162"><ele>836.0</ele><time>2026-04-19T09:45:21.019Z</time></trkpt><trkpt lat="45.5505212" lon="4.4951003"><ele>836.0</ele><time>2026-04-19T09:45:23.019Z</time></trkpt><trkpt lat="45.5504302" lon="4.4952127"><ele>836.0</ele><time>2026-04-19T09:45:25.018Z</time></trkpt><trkpt lat="45.5503358" lon="4.495304"><ele>836.0</ele><time>2026-04-19T09:45:27.019Z</time></trkpt><trkpt lat="45.5502428" lon="4.4953924"><ele>836.0</ele><time>2026-04-19T09:45:29.018Z</time></trkpt><trkpt lat="45.5501528" lon="4.4954676"><ele>832.5000000000001</ele><time>2026-04-19T09:45:31.019Z</time></trkpt><trkpt lat="45.5500711" lon="4.4955387"><ele>829.0</ele><time>2026-04-19T09:45:33.018Z</time></trkpt><trkpt lat="45.550011" lon="4.4956095"><ele>825.5</ele><time>2026-04-19T09:45:35.019Z</time></trkpt><trkpt lat="45.549962" lon="4.4956805"><ele>822.0</ele><time>2026-04-19T09:45:37.018Z</time></trkpt><trkpt lat="45.5499085" lon="4.495757"><ele>818.5000000000001</ele><time>2026-04-19T09:45:39.02Z</time></trkpt><trkpt lat="45.5498409" lon="4.4958274"><ele>815.0</ele><time>2026-04-19T09:45:41.018Z</time></trkpt><trkpt lat="45.54977" lon="4.4958859"><ele>815.0000000000001</ele><time>2026-04-19T09:45:43.019Z</time></trkpt><trkpt lat="45.5497092" lon="4.4959408"><ele>815.0</ele><time>2026-04-19T09:45:45.018Z</time></trkpt><trkpt lat="45.549657" lon="4.4959961"><ele>815.0</ele><time>2026-04-19T09:45:47.019Z</time></trkpt><trkpt lat="45.5495754" lon="4.4960799"><ele>815.0</ele><time>2026-04-19T09:45:49.018Z</time></trkpt><trkpt lat="45.5494909" lon="4.4961423"><ele>815.0000000000001</ele><time>2026-04-19T09:45:51.019Z</time></trkpt><trkpt lat="45.5493994" lon="4.4962116"><ele>815.0</ele><time>2026-04-19T09:45:53.018Z</time></trkpt><trkpt lat="45.5493148" lon="4.4962566"><ele>811.4</ele><time>2026-04-19T09:45:55.019Z</time></trkpt><trkpt lat="45.5492247" lon="4.4963058"><ele>807.8</ele><time>2026-04-19T09:45:57.019Z</time></trkpt><trkpt lat="45.5491405" lon="4.4963526"><ele>804.2</ele><time>2026-04-19T09:45:59.019Z</time></trkpt><trkpt lat="45.5490353" lon="4.4963952"><ele>800.6</ele><time>2026-04-19T09:46:01.02Z</time></trkpt><trkpt lat="45.5489737" lon="4.4964165"><ele>797.0</ele><time>2026-04-19T09:46:02.02Z</time></trkpt><trkpt lat="45.5488672" lon="4.4964538"><ele>797.0000000000001</ele><time>2026-04-19T09:46:04.018Z</time></trkpt><trkpt lat="45.5488028" lon="4.4964577"><ele>797.0</ele><time>2026-04-19T09:46:05.018Z</time></trkpt><trkpt lat="45.5487371" lon="4.4964657"><ele>797.0</ele><time>2026-04-19T09:46:06.018Z</time></trkpt><trkpt lat="45.5486692" lon="4.4964778"><ele>797.0</ele><time>2026-04-19T09:46:07.02Z</time></trkpt><trkpt lat="45.5486032" lon="4.4964922"><ele>797.0000000000001</ele><time>2026-04-19T09:46:08.019Z</time></trkpt><trkpt lat="45.5485411" lon="4.4965084"><ele>797.0</ele><time>2026-04-19T09:46:09.019Z</time></trkpt><trkpt lat="45.5484206" lon="4.4965417"><ele>795.0000000000001</ele><time>2026-04-19T09:46:11.02Z</time></trkpt><trkpt lat="45.5483121" lon="4.4965643"><ele>793.0</ele><time>2026-04-19T09:46:13.019Z</time></trkpt><trkpt lat="45.5482199" lon="4.4965864"><ele>791.0</ele><time>2026-04-19T09:46:15.019Z</time></trkpt><trkpt lat="45.5481489" lon="4.4965865"><ele>789.0</ele><time>2026-04-19T09:46:16.018Z</time></trkpt><trkpt lat="45.5480729" lon="4.4965888"><ele>787.0000000000001</ele><time>2026-04-19T09:46:17.019Z</time></trkpt><trkpt lat="45.5480051" lon="4.4965911"><ele>785.0</ele><time>2026-04-19T09:46:18.018Z</time></trkpt><trkpt lat="45.5479346" lon="4.4965828"><ele>783.2</ele><time>2026-04-19T09:46:19.019Z</time></trkpt><trkpt lat="45.54787" lon="4.4965859"><ele>781.4</ele><time>2026-04-19T09:46:20.019Z</time></trkpt><trkpt lat="45.5477937" lon="4.4965962"><ele>779.5999999999999</ele><time>2026-04-19T09:46:21.019Z</time></trkpt><trkpt lat="45.5476933" lon="4.4966036"><ele>777.8</ele><time>2026-04-19T09:46:22.021Z</time></trkpt><trkpt lat="45.5475732" lon="4.4966046"><ele>776.0</ele><time>2026-04-19T09:46:23.019Z</time></trkpt><trkpt lat="45.5474645" lon="4.4966138"><ele>776.0</ele><time>2026-04-19T09:46:24.018Z</time></trkpt><trkpt lat="45.5473613" lon="4.496614"><ele>776.0</ele><time>2026-04-19T09:46:25.018Z</time></trkpt><trkpt lat="45.5472573" lon="4.4966106"><ele>776.0</ele><time>2026-04-19T09:46:26.018Z</time></trkpt><trkpt lat="45.5471565" lon="4.4965883"><ele>776.0</ele><time>2026-04-19T09:46:27.019Z</time></trkpt><trkpt lat="45.5470425" lon="4.4965666"><ele>776.0</ele><time>2026-04-19T09:46:28.018Z</time></trkpt><trkpt lat="45.546932" lon="4.4965556"><ele>775.1666666666667</ele><time>2026-04-19T09:46:29.018Z</time></trkpt><trkpt lat="45.5468264" lon="4.4965565"><ele>774.3333333333334</ele><time>2026-04-19T09:46:30.02Z</time></trkpt><trkpt lat="45.5467326" lon="4.4965794"><ele>773.5</ele><time>2026-04-19T09:46:31.019Z</time></trkpt><trkpt lat="45.5466493" lon="4.4966193"><ele>772.6666666666667</ele><time>2026-04-19T09:46:32.019Z</time></trkpt><trkpt lat="45.5465693" lon="4.4966632"><ele>771.8333333333334</ele><time>2026-04-19T09:46:33.019Z</time></trkpt><trkpt lat="45.546506" lon="4.496684"><ele>771.0</ele><time>2026-04-19T09:46:34.02Z</time></trkpt><trkpt lat="45.5464364" lon="4.4966789"><ele>771.0</ele><time>2026-04-19T09:46:35.018Z</time></trkpt><trkpt lat="45.5463661" lon="4.4966609"><ele>771.0</ele><time>2026-04-19T09:46:36.018Z</time></trkpt><trkpt lat="45.5462818" lon="4.4966266"><ele>771.0</ele><time>2026-04-19T09:46:37.019Z</time></trkpt><trkpt lat="45.5461818" lon="4.4965928"><ele>771.0</ele><time>2026-04-19T09:46:38.019Z</time></trkpt><trkpt lat="45.546068" lon="4.4965701"><ele>771.0</ele><time>2026-04-19T09:46:39.019Z</time></trkpt><trkpt lat="45.5459422" lon="4.4965533"><ele>771.25</ele><time>2026-04-19T09:46:40.02Z</time></trkpt><trkpt lat="45.5458079" lon="4.4965422"><ele>771.5</ele><time>2026-04-19T09:46:41.019Z</time></trkpt><trkpt lat="45.5456661" lon="4.4965348"><ele>771.75</ele><time>2026-04-19T09:46:42.02Z</time></trkpt><trkpt lat="45.5455223" lon="4.496534"><ele>772.0</ele><time>2026-04-19T09:46:43.02Z</time></trkpt><trkpt lat="45.5453759" lon="4.4965324"><ele>770.75</ele><time>2026-04-19T09:46:44.019Z</time></trkpt><trkpt lat="45.5452321" lon="4.4965293"><ele>769.5</ele><time>2026-04-19T09:46:45.019Z</time></trkpt><trkpt lat="45.5450907" lon="4.4965234"><ele>768.25</ele><time>2026-04-19T09:46:46.018Z</time></trkpt><trkpt lat="45.5449582" lon="4.4965072"><ele>767.0</ele><time>2026-04-19T09:46:47.019Z</time></trkpt><trkpt lat="45.5448276" lon="4.4964858"><ele>767.0</ele><time>2026-04-19T09:46:48.018Z</time></trkpt><trkpt lat="45.544714" lon="4.4964458"><ele>767.0</ele><time>2026-04-19T09:46:49.02Z</time></trkpt><trkpt lat="45.5446155" lon="4.4964009"><ele>767.0</ele><time>2026-04-19T09:46:50.02Z</time></trkpt><trkpt lat="45.5445182" lon="4.4963442"><ele>767.0</ele><time>2026-04-19T09:46:51.021Z</time></trkpt><trkpt lat="45.5444302" lon="4.4962815"><ele>767.0</ele><time>2026-04-19T09:46:52.019Z</time></trkpt><trkpt lat="45.5443434" lon="4.4962395"><ele>766.6</ele><time>2026-04-19T09:46:53.019Z</time></trkpt><trkpt lat="45.5442696" lon="4.4962066"><ele>766.2</ele><time>2026-04-19T09:46:54.019Z</time></trkpt><trkpt lat="45.5442049" lon="4.4961804"><ele>765.8</ele><time>2026-04-19T09:46:55.019Z</time></trkpt><trkpt lat="45.5440962" lon="4.496138"><ele>765.4</ele><time>2026-04-19T09:46:57.021Z</time></trkpt><trkpt lat="45.5439992" lon="4.4960712"><ele>765.0</ele><time>2026-04-19T09:46:59.019Z</time></trkpt><trkpt lat="45.543914" lon="4.4959687"><ele>765.0</ele><time>2026-04-19T09:47:01.019Z</time></trkpt><trkpt lat="45.5438182" lon="4.4958692"><ele>765.0</ele><time>2026-04-19T09:47:03.019Z</time></trkpt><trkpt lat="45.543765" lon="4.4958174"><ele>765.0</ele><time>2026-04-19T09:47:04.02Z</time></trkpt><trkpt lat="45.5437093" lon="4.495762"><ele>765.0</ele><time>2026-04-19T09:47:05.02Z</time></trkpt><trkpt lat="45.5436502" lon="4.4957067"><ele>765.0</ele><time>2026-04-19T09:47:06.018Z</time></trkpt><trkpt lat="45.5435911" lon="4.4956549"><ele>765.0</ele><time>2026-04-19T09:47:07.018Z</time></trkpt><trkpt lat="45.5435322" lon="4.4955981"><ele>765.0000000000001</ele><time>2026-04-19T09:47:08.019Z</time></trkpt><trkpt lat="45.5434734" lon="4.4955451"><ele>765.0</ele><time>2026-04-19T09:47:09.019Z</time></trkpt><trkpt lat="45.5434139" lon="4.4954925"><ele>765.0</ele><time>2026-04-19T09:47:10.019Z</time></trkpt><trkpt lat="45.5433516" lon="4.4954434"><ele>765.0</ele><time>2026-04-19T09:47:11.019Z</time></trkpt><trkpt lat="45.543289" lon="4.4953885"><ele>765.0</ele><time>2026-04-19T09:47:12.019Z</time></trkpt><trkpt lat="45.5432225" lon="4.4953288"><ele>765.0000000000001</ele><time>2026-04-19T09:47:13.019Z</time></trkpt><trkpt lat="45.5431566" lon="4.495277"><ele>765.0</ele><time>2026-04-19T09:47:14.018Z</time></trkpt><trkpt lat="45.5430889" lon="4.4952271"><ele>765.0</ele><time>2026-04-19T09:47:15.019Z</time></trkpt><trkpt lat="45.54303" lon="4.4951757"><ele>765.0</ele><time>2026-04-19T09:47:16.02Z</time></trkpt><trkpt lat="45.5429711" lon="4.4950993"><ele>765.0</ele><time>2026-04-19T09:47:17.02Z</time></trkpt><trkpt lat="45.5429003" lon="4.4950035"><ele>765.0</ele><time>2026-04-19T09:47:18.021Z</time></trkpt><trkpt lat="45.5428239" lon="4.4949057"><ele>765.0</ele><time>2026-04-19T09:47:19.019Z</time></trkpt><trkpt lat="45.5427513" lon="4.4948131"><ele>765.0</ele><time>2026-04-19T09:47:20.018Z</time></trkpt><trkpt lat="45.5426715" lon="4.494719"><ele>765.4</ele><time>2026-04-19T09:47:21.019Z</time></trkpt><trkpt lat="45.5425819" lon="4.4946213"><ele>765.8</ele><time>2026-04-19T09:47:22.018Z</time></trkpt><trkpt lat="45.5425076" lon="4.4945275"><ele>766.2</ele><time>2026-04-19T09:47:23.018Z</time></trkpt><trkpt lat="45.5424342" lon="4.4944425"><ele>766.6</ele><time>2026-04-19T09:47:24.019Z</time></trkpt><trkpt lat="45.5423716" lon="4.4943735"><ele>767.0</ele><time>2026-04-19T09:47:25.02Z</time></trkpt><trkpt lat="45.5423152" lon="4.4943015"><ele>767.0</ele><time>2026-04-19T09:47:26.019Z</time></trkpt><trkpt lat="45.5422455" lon="4.4942279"><ele>767.0</ele><time>2026-04-19T09:47:27.018Z</time></trkpt><trkpt lat="45.5421761" lon="4.4941472"><ele>767.0</ele><time>2026-04-19T09:47:28.02Z</time></trkpt><trkpt lat="45.5420858" lon="4.4940563"><ele>767.0</ele><time>2026-04-19T09:47:29.02Z</time></trkpt><trkpt lat="45.542001" lon="4.4939696"><ele>767.0</ele><time>2026-04-19T09:47:30.02Z</time></trkpt><trkpt lat="45.5419094" lon="4.4938749"><ele>767.2</ele><time>2026-04-19T09:47:31.02Z</time></trkpt><trkpt lat="45.5418156" lon="4.4937837"><ele>767.4000000000001</ele><time>2026-04-19T09:47:32.019Z</time></trkpt><trkpt lat="45.5417296" lon="4.4936999"><ele>767.5999999999999</ele><time>2026-04-19T09:47:33.02Z</time></trkpt><trkpt lat="45.5416434" lon="4.493622"><ele>767.8</ele><time>2026-04-19T09:47:34.019Z</time></trkpt><trkpt lat="45.5415595" lon="4.4935417"><ele>768.0</ele><time>2026-04-19T09:47:35.019Z</time></trkpt><trkpt lat="45.5414761" lon="4.4934673"><ele>768.0</ele><time>2026-04-19T09:47:36.019Z</time></trkpt><trkpt lat="45.5413901" lon="4.4933936"><ele>768.0</ele><time>2026-04-19T09:47:37.019Z</time></trkpt><trkpt lat="45.5413328" lon="4.4933317"><ele>768.0</ele><time>2026-04-19T09:47:38.021Z</time></trkpt><trkpt lat="45.5412616" lon="4.4932666"><ele>768.0</ele><time>2026-04-19T09:47:39.019Z</time></trkpt><trkpt lat="45.5411884" lon="4.4932161"><ele>768.0</ele><time>2026-04-19T09:47:40.019Z</time></trkpt><trkpt lat="45.5411152" lon="4.4931474"><ele>768.0</ele><time>2026-04-19T09:47:41.02Z</time></trkpt><trkpt lat="45.5410397" lon="4.4930822"><ele>768.3333333333334</ele><time>2026-04-19T09:47:42.018Z</time></trkpt><trkpt lat="45.5409736" lon="4.4930149"><ele>768.6666666666667</ele><time>2026-04-19T09:47:43.018Z</time></trkpt><trkpt lat="45.5408999" lon="4.4929528"><ele>769.0</ele><time>2026-04-19T09:47:44.02Z</time></trkpt><trkpt lat="45.5408226" lon="4.492883"><ele>769.3333333333334</ele><time>2026-04-19T09:47:45.019Z</time></trkpt><trkpt lat="45.5407478" lon="4.49282"><ele>769.6666666666667</ele><time>2026-04-19T09:47:46.02Z</time></trkpt><trkpt lat="45.5406669" lon="4.4927794"><ele>770.0</ele><time>2026-04-19T09:47:47.019Z</time></trkpt><trkpt lat="45.5405819" lon="4.4927296"><ele>770.0</ele><time>2026-04-19T09:47:48.018Z</time></trkpt><trkpt lat="45.5404938" lon="4.4926686"><ele>770.0</ele><time>2026-04-19T09:47:49.019Z</time></trkpt><trkpt lat="45.5403967" lon="4.4925967"><ele>770.0</ele><time>2026-04-19T09:47:50.018Z</time></trkpt><trkpt lat="45.5402967" lon="4.4925294"><ele>770.0</ele><time>2026-04-19T09:47:51.019Z</time></trkpt><trkpt lat="45.5402036" lon="4.4924539"><ele>770.0</ele><time>2026-04-19T09:47:52.02Z</time></trkpt><trkpt lat="45.5401209" lon="4.4923701"><ele>769.8</ele><time>2026-04-19T09:47:53.018Z</time></trkpt><trkpt lat="45.540044" lon="4.4922965"><ele>769.6</ele><time>2026-04-19T09:47:54.021Z</time></trkpt><trkpt lat="45.5399602" lon="4.4922159"><ele>769.4000000000001</ele><time>2026-04-19T09:47:55.02Z</time></trkpt><trkpt lat="45.5398784" lon="4.4921309"><ele>769.2</ele><time>2026-04-19T09:47:56.019Z</time></trkpt><trkpt lat="45.5397796" lon="4.4920482"><ele>769.0</ele><time>2026-04-19T09:47:57.02Z</time></trkpt><trkpt lat="45.5396807" lon="4.4919672"><ele>769.0</ele><time>2026-04-19T09:47:58.02Z</time></trkpt><trkpt lat="45.5395827" lon="4.4918817"><ele>769.0</ele><time>2026-04-19T09:47:59.019Z</time></trkpt><trkpt lat="45.5394855" lon="4.4917863"><ele>769.0</ele><time>2026-04-19T09:48:00.019Z</time></trkpt><trkpt lat="45.5393929" lon="4.4916857"><ele>769.0</ele><time>2026-04-19T09:48:01.019Z</time></trkpt><trkpt lat="45.5392983" lon="4.4915998"><ele>770.4000000000001</ele><time>2026-04-19T09:48:02.019Z</time></trkpt><trkpt lat="45.5391975" lon="4.49151"><ele>771.8</ele><time>2026-04-19T09:48:03.019Z</time></trkpt><trkpt lat="45.539099" lon="4.4914155"><ele>773.2</ele><time>2026-04-19T09:48:04.019Z</time></trkpt><trkpt lat="45.5390073" lon="4.4913292"><ele>774.5999999999999</ele><time>2026-04-19T09:48:05.019Z</time></trkpt><trkpt lat="45.5389246" lon="4.4912471"><ele>776.0</ele><time>2026-04-19T09:48:06.018Z</time></trkpt><trkpt lat="45.5388577" lon="4.4911649"><ele>776.0</ele><time>2026-04-19T09:48:07.019Z</time></trkpt><trkpt lat="45.5387809" lon="4.4910901"><ele>776.0</ele><time>2026-04-19T09:48:08.019Z</time></trkpt><trkpt lat="45.5386971" lon="4.4910148"><ele>776.0</ele><time>2026-04-19T09:48:09.02Z</time></trkpt><trkpt lat="45.5386186" lon="4.4909349"><ele>776.0</ele><time>2026-04-19T09:48:10.018Z</time></trkpt><trkpt lat="45.5385423" lon="4.4908596"><ele>776.0</ele><time>2026-04-19T09:48:11.019Z</time></trkpt><trkpt lat="45.5384629" lon="4.4907805"><ele>775.4</ele><time>2026-04-19T09:48:12.019Z</time></trkpt><trkpt lat="45.5383858" lon="4.4907067"><ele>774.8</ele><time>2026-04-19T09:48:13.019Z</time></trkpt><trkpt lat="45.5383063" lon="4.4906512"><ele>774.1999999999999</ele><time>2026-04-19T09:48:14.02Z</time></trkpt><trkpt lat="45.538223" lon="4.4905899"><ele>773.5999999999999</ele><time>2026-04-19T09:48:15.019Z</time></trkpt><trkpt lat="45.5381434" lon="4.4905354"><ele>773.0</ele><time>2026-04-19T09:48:16.019Z</time></trkpt><trkpt lat="45.5380678" lon="4.4904761"><ele>772.4</ele><time>2026-04-19T09:48:17.018Z</time></trkpt><trkpt lat="45.5379965" lon="4.4904197"><ele>771.8</ele><time>2026-04-19T09:48:18.019Z</time></trkpt><trkpt lat="45.5379183" lon="4.4903685"><ele>771.2</ele><time>2026-04-19T09:48:19.018Z</time></trkpt><trkpt lat="45.537831" lon="4.4903192"><ele>770.6</ele><time>2026-04-19T09:48:20.019Z</time></trkpt><trkpt lat="45.537743" lon="4.490277"><ele>770.0</ele><time>2026-04-19T09:48:21.02Z</time></trkpt><trkpt lat="45.5376511" lon="4.4902159"><ele>768.25</ele><time>2026-04-19T09:48:22.018Z</time></trkpt><trkpt lat="45.5375537" lon="4.4901499"><ele>766.5</ele><time>2026-04-19T09:48:23.019Z</time></trkpt><trkpt lat="45.5374464" lon="4.4900827"><ele>764.75</ele><time>2026-04-19T09:48:24.019Z</time></trkpt><trkpt lat="45.5373482" lon="4.490003"><ele>763.0</ele><time>2026-04-19T09:48:25.019Z</time></trkpt><trkpt lat="45.537244" lon="4.4899227"><ele>763.0</ele><time>2026-04-19T09:48:26.019Z</time></trkpt><trkpt lat="45.5371464" lon="4.4898422"><ele>763.0</ele><time>2026-04-19T09:48:27.018Z</time></trkpt><trkpt lat="45.5370537" lon="4.4897629"><ele>763.0</ele><time>2026-04-19T09:48:28.019Z</time></trkpt><trkpt lat="45.5369712" lon="4.4896751"><ele>763.0</ele><time>2026-04-19T09:48:29.018Z</time></trkpt><trkpt lat="45.5368973" lon="4.4895671"><ele>763.0</ele><time>2026-04-19T09:48:30.019Z</time></trkpt><trkpt lat="45.5368172" lon="4.4894566"><ele>763.0</ele><time>2026-04-19T09:48:31.019Z</time></trkpt><trkpt lat="45.536758" lon="4.4893516"><ele>763.0</ele><time>2026-04-19T09:48:32.018Z</time></trkpt><trkpt lat="45.5367097" lon="4.4892582"><ele>763.0</ele><time>2026-04-19T09:48:33.019Z</time></trkpt><trkpt lat="45.5366657" lon="4.4891671"><ele>763.0</ele><time>2026-04-19T09:48:34.02Z</time></trkpt><trkpt lat="45.5366373" lon="4.4890622"><ele>763.0</ele><time>2026-04-19T09:48:35.02Z</time></trkpt><trkpt lat="45.5366021" lon="4.4889733"><ele>763.0</ele><time>2026-04-19T09:48:36.02Z</time></trkpt><trkpt lat="45.5365598" lon="4.4888731"><ele>763.0</ele><time>2026-04-19T09:48:37.021Z</time></trkpt><trkpt lat="45.5365057" lon="4.4887634"><ele>763.0</ele><time>2026-04-19T09:48:38.019Z</time></trkpt><trkpt lat="45.5364515" lon="4.4886613"><ele>763.0</ele><time>2026-04-19T09:48:39.019Z</time></trkpt><trkpt lat="45.5363905" lon="4.4885723"><ele>763.0</ele><time>2026-04-19T09:48:40.02Z</time></trkpt><trkpt lat="45.5363212" lon="4.4884932"><ele>763.0</ele><time>2026-04-19T09:48:41.018Z</time></trkpt><trkpt lat="45.5362489" lon="4.4884269"><ele>763.0</ele><time>2026-04-19T09:48:42.019Z</time></trkpt><trkpt lat="45.5361837" lon="4.4883719"><ele>762.0</ele><time>2026-04-19T09:48:43.019Z</time></trkpt><trkpt lat="45.536121" lon="4.4883111"><ele>761.0</ele><time>2026-04-19T09:48:44.019Z</time></trkpt><trkpt lat="45.5360594" lon="4.4882449"><ele>760.0</ele><time>2026-04-19T09:48:45.02Z</time></trkpt><trkpt lat="45.5359973" lon="4.4881756"><ele>759.0</ele><time>2026-04-19T09:48:46.019Z</time></trkpt><trkpt lat="45.535934" lon="4.488106"><ele>758.0</ele><time>2026-04-19T09:48:47.02Z</time></trkpt><trkpt lat="45.5358749" lon="4.488033"><ele>757.0</ele><time>2026-04-19T09:48:48.018Z</time></trkpt><trkpt lat="45.5358231" lon="4.4879572"><ele>756.1666666666667</ele><time>2026-04-19T09:48:49.018Z</time></trkpt><trkpt lat="45.5357706" lon="4.487864"><ele>755.3333333333334</ele><time>2026-04-19T09:48:50.019Z</time></trkpt><trkpt lat="45.5357107" lon="4.4877764"><ele>754.5</ele><time>2026-04-19T09:48:51.018Z</time></trkpt><trkpt lat="45.5356545" lon="4.4876939"><ele>753.6666666666666</ele><time>2026-04-19T09:48:52.019Z</time></trkpt><trkpt lat="45.5356067" lon="4.4876134"><ele>752.8333333333333</ele><time>2026-04-19T09:48:53.019Z</time></trkpt><trkpt lat="45.5355623" lon="4.4875422"><ele>752.0</ele><time>2026-04-19T09:48:54.02Z</time></trkpt><trkpt lat="45.5354907" lon="4.4874147"><ele>752.0</ele><time>2026-04-19T09:48:56.018Z</time></trkpt><trkpt lat="45.5354288" lon="4.4873503"><ele>752.0</ele><time>2026-04-19T09:49:00.02Z</time></trkpt><trkpt lat="45.5353322" lon="4.4873821"><ele>752.0</ele><time>2026-04-19T09:49:02.02Z</time></trkpt><trkpt lat="45.5352614" lon="4.4873585"><ele>752.0</ele><time>2026-04-19T09:49:04.019Z</time></trkpt><trkpt lat="45.5352035" lon="4.4872538"><ele>752.0</ele><time>2026-04-19T09:49:06.02Z</time></trkpt><trkpt lat="45.5351506" lon="4.4871553"><ele>752.0</ele><time>2026-04-19T09:49:08.025Z</time></trkpt><trkpt lat="45.5351701" lon="4.4872531"><ele>752.1666666666666</ele><time>2026-04-19T09:49:11.019Z</time></trkpt><trkpt lat="45.5351394" lon="4.4871732"><ele>752.3333333333333</ele><time>2026-04-19T09:49:14.018Z</time></trkpt><trkpt lat="45.5350884" lon="4.4870981"><ele>752.5</ele><time>2026-04-19T09:49:17.019Z</time></trkpt><trkpt lat="45.5350126" lon="4.487008"><ele>752.6666666666666</ele><time>2026-04-19T09:49:19.018Z</time></trkpt><trkpt lat="45.5349387" lon="4.4869224"><ele>752.8333333333334</ele><time>2026-04-19T09:49:21.02Z</time></trkpt><trkpt lat="45.5348849" lon="4.4868671"><ele>753.0</ele><time>2026-04-19T09:49:24.019Z</time></trkpt><trkpt lat="45.534815" lon="4.4867728"><ele>753.0</ele><time>2026-04-19T09:49:27.019Z</time></trkpt><trkpt lat="45.5347685" lon="4.4866722"><ele>753.0</ele><time>2026-04-19T09:49:29.02Z</time></trkpt><trkpt lat="45.5347271" lon="4.4865999"><ele>753.0</ele><time>2026-04-19T09:49:30.019Z</time></trkpt><trkpt lat="45.534683" lon="4.4865019"><ele>753.0</ele><time>2026-04-19T09:49:31.019Z</time></trkpt><trkpt lat="45.5346364" lon="4.4864252"><ele>753.0</ele><time>2026-04-19T09:49:32.02Z</time></trkpt><trkpt lat="45.534588" lon="4.4863483"><ele>753.0</ele><time>2026-04-19T09:49:33.019Z</time></trkpt><trkpt lat="45.5345316" lon="4.48627"><ele>753.2</ele><time>2026-04-19T09:49:34.02Z</time></trkpt><trkpt lat="45.5344627" lon="4.4862036"><ele>753.4</ele><time>2026-04-19T09:49:35.018Z</time></trkpt><trkpt lat="45.5343922" lon="4.4861585"><ele>753.6</ele><time>2026-04-19T09:49:36.019Z</time></trkpt><trkpt lat="45.5343206" lon="4.4861625"><ele>753.8000000000001</ele><time>2026-04-19T09:49:37.019Z</time></trkpt><trkpt lat="45.5342094" lon="4.4862167"><ele>754.0</ele><time>2026-04-19T09:49:39.019Z</time></trkpt><trkpt lat="45.5341133" lon="4.4862721"><ele>754.0</ele><time>2026-04-19T09:49:41.019Z</time></trkpt><trkpt lat="45.5339935" lon="4.486335"><ele>754.0</ele><time>2026-04-19T09:49:43.019Z</time></trkpt><trkpt lat="45.5339072" lon="4.4863773"><ele>754.0</ele><time>2026-04-19T09:49:44.018Z</time></trkpt><trkpt lat="45.5338105" lon="4.4864342"><ele>754.0</ele><time>2026-04-19T09:49:45.02Z</time></trkpt><trkpt lat="45.533707" lon="4.4865078"><ele>754.0</ele><time>2026-04-19T09:49:46.019Z</time></trkpt><trkpt lat="45.5336044" lon="4.4865912"><ele>754.5</ele><time>2026-04-19T09:49:47.018Z</time></trkpt><trkpt lat="45.5335155" lon="4.4867169"><ele>755.0</ele><time>2026-04-19T09:49:48.019Z</time></trkpt><trkpt lat="45.533427" lon="4.4868617"><ele>755.5</ele><time>2026-04-19T09:49:49.019Z</time></trkpt><trkpt lat="45.5333504" lon="4.4870129"><ele>756.0</ele><time>2026-04-19T09:49:50.02Z</time></trkpt><trkpt lat="45.533287" lon="4.4871506"><ele>756.0</ele><time>2026-04-19T09:49:51.019Z</time></trkpt><trkpt lat="45.5332264" lon="4.4872815"><ele>756.0</ele><time>2026-04-19T09:49:52.019Z</time></trkpt><trkpt lat="45.5331805" lon="4.4873796"><ele>756.0</ele><time>2026-04-19T09:49:53.02Z</time></trkpt><trkpt lat="45.5331374" lon="4.4874713"><ele>756.0</ele><time>2026-04-19T09:49:54.02Z</time></trkpt><trkpt lat="45.5331082" lon="4.4875549"><ele>756.0</ele><time>2026-04-19T09:49:55.019Z</time></trkpt><trkpt lat="45.5330569" lon="4.4876811"><ele>756.0</ele><time>2026-04-19T09:49:57.019Z</time></trkpt><trkpt lat="45.5330107" lon="4.4877596"><ele>756.0</ele><time>2026-04-19T09:49:59.019Z</time></trkpt><trkpt lat="45.5329623" lon="4.4878386"><ele>756.0</ele><time>2026-04-19T09:50:01.02Z</time></trkpt><trkpt lat="45.5328888" lon="4.4879629"><ele>756.0</ele><time>2026-04-19T09:50:03.019Z</time></trkpt><trkpt lat="45.532803" lon="4.488088"><ele>756.0</ele><time>2026-04-19T09:50:05.02Z</time></trkpt><trkpt lat="45.532724" lon="4.4881861"><ele>756.0</ele><time>2026-04-19T09:50:07.019Z</time></trkpt><trkpt lat="45.5326465" lon="4.4882479"><ele>754.8</ele><time>2026-04-19T09:50:09.019Z</time></trkpt><trkpt lat="45.5325541" lon="4.4883208"><ele>753.5999999999999</ele><time>2026-04-19T09:50:11.019Z</time></trkpt><trkpt lat="45.5324914" lon="4.4883487"><ele>752.4</ele><time>2026-04-19T09:50:12.02Z</time></trkpt><trkpt lat="45.5324082" lon="4.488394"><ele>751.2</ele><time>2026-04-19T09:50:13.018Z</time></trkpt><trkpt lat="45.5323162" lon="4.4884387"><ele>750.0</ele><time>2026-04-19T09:50:14.018Z</time></trkpt><trkpt lat="45.5322219" lon="4.4884823"><ele>750.0</ele><time>2026-04-19T09:50:15.019Z</time></trkpt><trkpt lat="45.5321234" lon="4.4885226"><ele>750.0</ele><time>2026-04-19T09:50:16.02Z</time></trkpt><trkpt lat="45.5320356" lon="4.488562"><ele>750.0</ele><time>2026-04-19T09:50:17.02Z</time></trkpt><trkpt lat="45.5319563" lon="4.4885964"><ele>750.0</ele><time>2026-04-19T09:50:18.018Z</time></trkpt><trkpt lat="45.5318864" lon="4.4886394"><ele>750.0</ele><time>2026-04-19T09:50:19.019Z</time></trkpt><trkpt lat="45.5318304" lon="4.4886835"><ele>750.0</ele><time>2026-04-19T09:50:20.02Z</time></trkpt><trkpt lat="45.53176" lon="4.4886925"><ele>749.0</ele><time>2026-04-19T09:50:21.019Z</time></trkpt><trkpt lat="45.5316771" lon="4.4887365"><ele>748.0</ele><time>2026-04-19T09:50:22.02Z</time></trkpt><trkpt lat="45.5315868" lon="4.4887612"><ele>747.0</ele><time>2026-04-19T09:50:23.02Z</time></trkpt><trkpt lat="45.5315145" lon="4.4887906"><ele>746.0</ele><time>2026-04-19T09:50:24.02Z</time></trkpt><trkpt lat="45.531414" lon="4.4888067"><ele>745.0</ele><time>2026-04-19T09:50:26.019Z</time></trkpt><trkpt lat="45.531346" lon="4.4888179"><ele>744.0</ele><time>2026-04-19T09:50:27.019Z</time></trkpt><trkpt lat="45.5312779" lon="4.4888361"><ele>743.8333333333334</ele><time>2026-04-19T09:50:28.019Z</time></trkpt><trkpt lat="45.5312145" lon="4.4888564"><ele>743.6666666666666</ele><time>2026-04-19T09:50:29.019Z</time></trkpt><trkpt lat="45.5310856" lon="4.4888625"><ele>743.5</ele><time>2026-04-19T09:50:31.018Z</time></trkpt><trkpt lat="45.5310022" lon="4.4888508"><ele>743.3333333333333</ele><time>2026-04-19T09:50:32.019Z</time></trkpt><trkpt lat="45.5309188" lon="4.4888353"><ele>743.1666666666666</ele><time>2026-04-19T09:50:33.02Z</time></trkpt><trkpt lat="45.5308418" lon="4.4888254"><ele>743.0</ele><time>2026-04-19T09:50:34.019Z</time></trkpt><trkpt lat="45.5307726" lon="4.488817"><ele>743.0</ele><time>2026-04-19T09:50:35.02Z</time></trkpt><trkpt lat="45.5307047" lon="4.488815"><ele>743.0</ele><time>2026-04-19T09:50:36.019Z</time></trkpt><trkpt lat="45.5306354" lon="4.4887972"><ele>743.0</ele><time>2026-04-19T09:50:37.019Z</time></trkpt><trkpt lat="45.5305596" lon="4.4887728"><ele>743.0</ele><time>2026-04-19T09:50:38.019Z</time></trkpt><trkpt lat="45.5304872" lon="4.4887611"><ele>743.0</ele><time>2026-04-19T09:50:39.019Z</time></trkpt><trkpt lat="45.5303798" lon="4.4887628"><ele>743.0</ele><time>2026-04-19T09:50:41.019Z</time></trkpt><trkpt lat="45.5302458" lon="4.4887896"><ele>742.1666666666666</ele><time>2026-04-19T09:50:43.019Z</time></trkpt><trkpt lat="45.5301643" lon="4.4887951"><ele>741.3333333333333</ele><time>2026-04-19T09:50:44.019Z</time></trkpt><trkpt lat="45.530079" lon="4.4888133"><ele>740.5</ele><time>2026-04-19T09:50:45.02Z</time></trkpt><trkpt lat="45.5299904" lon="4.4888237"><ele>739.6666666666666</ele><time>2026-04-19T09:50:46.019Z</time></trkpt><trkpt lat="45.5299053" lon="4.4888207"><ele>738.8333333333334</ele><time>2026-04-19T09:50:47.02Z</time></trkpt><trkpt lat="45.529828" lon="4.4888223"><ele>738.0</ele><time>2026-04-19T09:50:48.019Z</time></trkpt><trkpt lat="45.5297561" lon="4.4888302"><ele>738.0</ele><time>2026-04-19T09:50:49.02Z</time></trkpt><trkpt lat="45.529693" lon="4.4888469"><ele>738.0</ele><time>2026-04-19T09:50:50.019Z</time></trkpt><trkpt lat="45.5295883" lon="4.4888892"><ele>738.0</ele><time>2026-04-19T09:50:52.02Z</time></trkpt><trkpt lat="45.5295036" lon="4.4889318"><ele>738.0</ele><time>2026-04-19T09:50:54.02Z</time></trkpt><trkpt lat="45.5294097" lon="4.4889918"><ele>738.0</ele><time>2026-04-19T09:50:56.019Z</time></trkpt><trkpt lat="45.5293113" lon="4.4890455"><ele>736.6666666666666</ele><time>2026-04-19T09:50:58.02Z</time></trkpt><trkpt lat="45.5292113" lon="4.4891009"><ele>735.3333333333334</ele><time>2026-04-19T09:51:00.019Z</time></trkpt><trkpt lat="45.5291509" lon="4.4891339"><ele>734.0</ele><time>2026-04-19T09:51:01.019Z</time></trkpt><trkpt lat="45.5290682" lon="4.4891731"><ele>732.6666666666667</ele><time>2026-04-19T09:51:02.019Z</time></trkpt><trkpt lat="45.5289921" lon="4.4892007"><ele>731.3333333333334</ele><time>2026-04-19T09:51:03.019Z</time></trkpt><trkpt lat="45.5289012" lon="4.4892379"><ele>730.0</ele><time>2026-04-19T09:51:04.02Z</time></trkpt><trkpt lat="45.5288029" lon="4.4892783"><ele>729.25</ele><time>2026-04-19T09:51:05.019Z</time></trkpt><trkpt lat="45.5287046" lon="4.4893051"><ele>728.5</ele><time>2026-04-19T09:51:06.019Z</time></trkpt><trkpt lat="45.528598" lon="4.4893267"><ele>727.75</ele><time>2026-04-19T09:51:07.019Z</time></trkpt><trkpt lat="45.528479" lon="4.4893422"><ele>727.0</ele><time>2026-04-19T09:51:08.02Z</time></trkpt><trkpt lat="45.5283566" lon="4.4893524"><ele>727.0</ele><time>2026-04-19T09:51:09.019Z</time></trkpt><trkpt lat="45.5282414" lon="4.4893504"><ele>727.0</ele><time>2026-04-19T09:51:10.018Z</time></trkpt><trkpt lat="45.5281321" lon="4.4893503"><ele>727.0</ele><time>2026-04-19T09:51:11.02Z</time></trkpt><trkpt lat="45.528022" lon="4.4893484"><ele>727.0</ele><time>2026-04-19T09:51:12.019Z</time></trkpt><trkpt lat="45.527914" lon="4.4893346"><ele>727.0</ele><time>2026-04-19T09:51:13.02Z</time></trkpt><trkpt lat="45.5278134" lon="4.4893091"><ele>727.3333333333334</ele><time>2026-04-19T09:51:14.021Z</time></trkpt><trkpt lat="45.5277217" lon="4.4892977"><ele>727.6666666666667</ele><time>2026-04-19T09:51:15.019Z</time></trkpt><trkpt lat="45.5276527" lon="4.4892865"><ele>728.0</ele><time>2026-04-19T09:51:16.019Z</time></trkpt><trkpt lat="45.527535" lon="4.4892834"><ele>728.3333333333334</ele><time>2026-04-19T09:51:18.019Z</time></trkpt><trkpt lat="45.527463" lon="4.4892827"><ele>728.6666666666666</ele><time>2026-04-19T09:51:19.019Z</time></trkpt><trkpt lat="45.5273762" lon="4.4892824"><ele>729.0</ele><time>2026-04-19T09:51:20.019Z</time></trkpt><trkpt lat="45.52728" lon="4.4892832"><ele>729.0</ele><time>2026-04-19T09:51:21.018Z</time></trkpt><trkpt lat="45.5271769" lon="4.4892817"><ele>729.0</ele><time>2026-04-19T09:51:22.02Z</time></trkpt><trkpt lat="45.5270655" lon="4.489281"><ele>729.0</ele><time>2026-04-19T09:51:23.019Z</time></trkpt><trkpt lat="45.5269474" lon="4.4892655"><ele>729.0</ele><time>2026-04-19T09:51:24.019Z</time></trkpt><trkpt lat="45.5268331" lon="4.4892501"><ele>729.0</ele><time>2026-04-19T09:51:25.019Z</time></trkpt><trkpt lat="45.5267155" lon="4.489237"><ele>729.1666666666666</ele><time>2026-04-19T09:51:26.02Z</time></trkpt><trkpt lat="45.5266172" lon="4.489205"><ele>729.3333333333334</ele><time>2026-04-19T09:51:27.019Z</time></trkpt><trkpt lat="45.5265265" lon="4.4891657"><ele>729.5</ele><time>2026-04-19T09:51:28.02Z</time></trkpt><trkpt lat="45.5264609" lon="4.4891403"><ele>729.6666666666667</ele><time>2026-04-19T09:51:29.019Z</time></trkpt><trkpt lat="45.5263976" lon="4.4891184"><ele>729.8333333333334</ele><time>2026-04-19T09:51:30.023Z</time></trkpt><trkpt lat="45.5262885" lon="4.4890759"><ele>730.0</ele><time>2026-04-19T09:51:32.02Z</time></trkpt><trkpt lat="45.5261899" lon="4.4890447"><ele>731.6</ele><time>2026-04-19T09:51:34.019Z</time></trkpt><trkpt lat="45.5260998" lon="4.4890194"><ele>733.2</ele><time>2026-04-19T09:51:36.019Z</time></trkpt><trkpt lat="45.5259921" lon="4.488964"><ele>734.8</ele><time>2026-04-19T09:51:38.019Z</time></trkpt><trkpt lat="45.5259272" lon="4.4889286"><ele>736.4</ele><time>2026-04-19T09:51:39.019Z</time></trkpt><trkpt lat="45.5258469" lon="4.4888929"><ele>738.0</ele><time>2026-04-19T09:51:40.019Z</time></trkpt><trkpt lat="45.5257576" lon="4.4888609"><ele>738.0</ele><time>2026-04-19T09:51:41.019Z</time></trkpt><trkpt lat="45.5256642" lon="4.4888283"><ele>738.0</ele><time>2026-04-19T09:51:42.019Z</time></trkpt><trkpt lat="45.5255605" lon="4.4887887"><ele>738.0</ele><time>2026-04-19T09:51:43.019Z</time></trkpt><trkpt lat="45.5254398" lon="4.4887471"><ele>738.0</ele><time>2026-04-19T09:51:44.019Z</time></trkpt><trkpt lat="45.5253274" lon="4.4887015"><ele>738.0</ele><time>2026-04-19T09:51:45.019Z</time></trkpt><trkpt lat="45.5252366" lon="4.4886594"><ele>739.0</ele><time>2026-04-19T09:51:46.019Z</time></trkpt><trkpt lat="45.5251484" lon="4.4886161"><ele>740.0</ele><time>2026-04-19T09:51:47.019Z</time></trkpt><trkpt lat="45.5250533" lon="4.4885895"><ele>741.0</ele><time>2026-04-19T09:51:48.019Z</time></trkpt><trkpt lat="45.5249582" lon="4.4885784"><ele>742.0</ele><time>2026-04-19T09:51:49.019Z</time></trkpt><trkpt lat="45.5248722" lon="4.4885816"><ele>743.0</ele><time>2026-04-19T09:51:50.019Z</time></trkpt><trkpt lat="45.5247872" lon="4.4885888"><ele>743.0</ele><time>2026-04-19T09:51:51.02Z</time></trkpt><trkpt lat="45.5247002" lon="4.4886309"><ele>743.0</ele><time>2026-04-19T09:51:52.019Z</time></trkpt><trkpt lat="45.5246106" lon="4.4886789"><ele>743.0</ele><time>2026-04-19T09:51:53.019Z</time></trkpt><trkpt lat="45.5245194" lon="4.4887308"><ele>743.0</ele><time>2026-04-19T09:51:54.019Z</time></trkpt><trkpt lat="45.524422" lon="4.4887792"><ele>743.0</ele><time>2026-04-19T09:51:55.019Z</time></trkpt><trkpt lat="45.5243282" lon="4.488825"><ele>744.5999999999999</ele><time>2026-04-19T09:51:56.019Z</time></trkpt><trkpt lat="45.5242357" lon="4.4888609"><ele>746.1999999999999</ele><time>2026-04-19T09:51:57.019Z</time></trkpt><trkpt lat="45.524146" lon="4.4888887"><ele>747.8</ele><time>2026-04-19T09:51:58.02Z</time></trkpt><trkpt lat="45.5240577" lon="4.4888874"><ele>749.4</ele><time>2026-04-19T09:51:59.019Z</time></trkpt><trkpt lat="45.5239671" lon="4.4888624"><ele>751.0</ele><time>2026-04-19T09:52:00.02Z</time></trkpt><trkpt lat="45.5238733" lon="4.4888267"><ele>751.0</ele><time>2026-04-19T09:52:01.019Z</time></trkpt><trkpt lat="45.5237829" lon="4.4887783"><ele>751.0</ele><time>2026-04-19T09:52:02.019Z</time></trkpt><trkpt lat="45.5236912" lon="4.4887287"><ele>751.0</ele><time>2026-04-19T09:52:03.02Z</time></trkpt><trkpt lat="45.5235936" lon="4.4886872"><ele>751.0</ele><time>2026-04-19T09:52:04.02Z</time></trkpt><trkpt lat="45.5234926" lon="4.4886529"><ele>751.0</ele><time>2026-04-19T09:52:05.019Z</time></trkpt><trkpt lat="45.5233818" lon="4.4886318"><ele>751.0</ele><time>2026-04-19T09:52:06.02Z</time></trkpt><trkpt lat="45.5232616" lon="4.4886192"><ele>751.0</ele><time>2026-04-19T09:52:07.02Z</time></trkpt><trkpt lat="45.5231263" lon="4.4886093"><ele>751.0</ele><time>2026-04-19T09:52:08.019Z</time></trkpt><trkpt lat="45.5229956" lon="4.4885934"><ele>751.0</ele><time>2026-04-19T09:52:09.02Z</time></trkpt><trkpt lat="45.5228814" lon="4.4885688"><ele>751.0</ele><time>2026-04-19T09:52:10.019Z</time></trkpt><trkpt lat="45.5227719" lon="4.4885316"><ele>751.0</ele><time>2026-04-19T09:52:11.02Z</time></trkpt><trkpt lat="45.5226651" lon="4.4884715"><ele>751.0</ele><time>2026-04-19T09:52:12.019Z</time></trkpt><trkpt lat="45.5225503" lon="4.4883973"><ele>751.0</ele><time>2026-04-19T09:52:13.019Z</time></trkpt><trkpt lat="45.5224337" lon="4.4883214"><ele>751.0</ele><time>2026-04-19T09:52:14.021Z</time></trkpt><trkpt lat="45.5223318" lon="4.4882511"><ele>751.0</ele><time>2026-04-19T09:52:15.02Z</time></trkpt><trkpt lat="45.5222382" lon="4.4881951"><ele>751.0</ele><time>2026-04-19T09:52:16.019Z</time></trkpt><trkpt lat="45.5221484" lon="4.4881387"><ele>751.0</ele><time>2026-04-19T09:52:17.019Z</time></trkpt><trkpt lat="45.5220597" lon="4.4881001"><ele>751.0</ele><time>2026-04-19T09:52:18.019Z</time></trkpt><trkpt lat="45.5219789" lon="4.4880704"><ele>751.0</ele><time>2026-04-19T09:52:19.02Z</time></trkpt><trkpt lat="45.5218956" lon="4.4880412"><ele>751.0</ele><time>2026-04-19T09:52:20.019Z</time></trkpt><trkpt lat="45.5218269" lon="4.4880263"><ele>751.0</ele><time>2026-04-19T09:52:21.019Z</time></trkpt><trkpt lat="45.5217201" lon="4.4880154"><ele>751.0</ele><time>2026-04-19T09:52:23.019Z</time></trkpt><trkpt lat="45.5216503" lon="4.4880096"><ele>751.0</ele><time>2026-04-19T09:52:25.02Z</time></trkpt><trkpt lat="45.5216261" lon="4.4878861"><ele>751.0</ele><time>2026-04-19T09:52:29.019Z</time></trkpt><trkpt lat="45.5216403" lon="4.4877964"><ele>751.0</ele><time>2026-04-19T09:52:30.019Z</time></trkpt><trkpt lat="45.5216638" lon="4.4876693"><ele>751.0</ele><time>2026-04-19T09:52:31.02Z</time></trkpt><trkpt lat="45.5216903" lon="4.4875204"><ele>751.0</ele><time>2026-04-19T09:52:32.021Z</time></trkpt><trkpt lat="45.5217216" lon="4.4873411"><ele>751.0</ele><time>2026-04-19T09:52:33.019Z</time></trkpt><trkpt lat="45.5217495" lon="4.4871499"><ele>751.0</ele><time>2026-04-19T09:52:34.019Z</time></trkpt><trkpt lat="45.5217816" lon="4.4869327"><ele>751.0</ele><time>2026-04-19T09:52:35.021Z</time></trkpt><trkpt lat="45.5218148" lon="4.4867055"><ele>751.0</ele><time>2026-04-19T09:52:36.019Z</time></trkpt><trkpt lat="45.5218513" lon="4.4864667"><ele>751.0</ele><time>2026-04-19T09:52:37.019Z</time></trkpt><trkpt lat="45.521888" lon="4.4862189"><ele>751.0</ele><time>2026-04-19T09:52:38.02Z</time></trkpt><trkpt lat="45.5219235" lon="4.48596"><ele>751.0</ele><time>2026-04-19T09:52:39.019Z</time></trkpt><trkpt lat="45.5219612" lon="4.4856982"><ele>751.0</ele><time>2026-04-19T09:52:40.02Z</time></trkpt><trkpt lat="45.521999" lon="4.4854341"><ele>751.0</ele><time>2026-04-19T09:52:41.02Z</time></trkpt><trkpt lat="45.5220453" lon="4.4851799"><ele>751.0</ele><time>2026-04-19T09:52:42.019Z</time></trkpt><trkpt lat="45.5221022" lon="4.4849379"><ele>749.3333333333334</ele><time>2026-04-19T09:52:43.02Z</time></trkpt><trkpt lat="45.5221866" lon="4.484731"><ele>747.6666666666666</ele><time>2026-04-19T09:52:44.019Z</time></trkpt><trkpt lat="45.5222701" lon="4.4845263"><ele>746.0</ele><time>2026-04-19T09:52:45.02Z</time></trkpt><trkpt lat="45.5223519" lon="4.484316"><ele>746.0</ele><time>2026-04-19T09:52:46.02Z</time></trkpt><trkpt lat="45.5224251" lon="4.4841176"><ele>746.0</ele><time>2026-04-19T09:52:47.019Z</time></trkpt><trkpt lat="45.5224887" lon="4.4839202"><ele>746.0</ele><time>2026-04-19T09:52:48.02Z</time></trkpt><trkpt lat="45.5225518" lon="4.4837323"><ele>744.75</ele><time>2026-04-19T09:52:49.02Z</time></trkpt><trkpt lat="45.5226013" lon="4.4835465"><ele>743.5</ele><time>2026-04-19T09:52:50.019Z</time></trkpt><trkpt lat="45.5226553" lon="4.4833814"><ele>742.25</ele><time>2026-04-19T09:52:51.02Z</time></trkpt><trkpt lat="45.5227102" lon="4.4832172"><ele>741.0</ele><time>2026-04-19T09:52:52.02Z</time></trkpt><trkpt lat="45.5227679" lon="4.4830691"><ele>741.0</ele><time>2026-04-19T09:52:53.02Z</time></trkpt><trkpt lat="45.5228054" lon="4.4829101"><ele>741.0</ele><time>2026-04-19T09:52:54.02Z</time></trkpt><trkpt lat="45.5228501" lon="4.4827882"><ele>741.0</ele><time>2026-04-19T09:52:55.019Z</time></trkpt><trkpt lat="45.5228933" lon="4.4826762"><ele>741.0</ele><time>2026-04-19T09:52:56.019Z</time></trkpt><trkpt lat="45.5229336" lon="4.4825787"><ele>741.0</ele><time>2026-04-19T09:52:57.019Z</time></trkpt><trkpt lat="45.522958" lon="4.4824792"><ele>741.0</ele><time>2026-04-19T09:52:58.02Z</time></trkpt><trkpt lat="45.5229431" lon="4.4823164"><ele>741.0</ele><time>2026-04-19T09:53:00.02Z</time></trkpt><trkpt lat="45.5229047" lon="4.4822384"><ele>741.0</ele><time>2026-04-19T09:53:01.019Z</time></trkpt><trkpt lat="45.5228689" lon="4.482155"><ele>741.0</ele><time>2026-04-19T09:53:02.019Z</time></trkpt><trkpt lat="45.522849" lon="4.4820602"><ele>741.0</ele><time>2026-04-19T09:53:03.019Z</time></trkpt><trkpt lat="45.522841" lon="4.4819605"><ele>741.0</ele><time>2026-04-19T09:53:04.02Z</time></trkpt><trkpt lat="45.5228371" lon="4.4818498"><ele>740.4285714285714</ele><time>2026-04-19T09:53:05.019Z</time></trkpt><trkpt lat="45.5228326" lon="4.4817411"><ele>739.8571428571429</ele><time>2026-04-19T09:53:06.019Z</time></trkpt><trkpt lat="45.5228241" lon="4.4816349"><ele>739.2857142857143</ele><time>2026-04-19T09:53:07.02Z</time></trkpt><trkpt lat="45.5228153" lon="4.4815374"><ele>738.7142857142858</ele><time>2026-04-19T09:53:08.02Z</time></trkpt><trkpt lat="45.5228038" lon="4.4814428"><ele>738.1428571428571</ele><time>2026-04-19T09:53:09.019Z</time></trkpt><trkpt lat="45.5227809" lon="4.4813442"><ele>737.5714285714287</ele><time>2026-04-19T09:53:10.019Z</time></trkpt><trkpt lat="45.5227449" lon="4.48124"><ele>737.0</ele><time>2026-04-19T09:53:11.019Z</time></trkpt><trkpt lat="45.5227079" lon="4.4811326"><ele>736.8333333333333</ele><time>2026-04-19T09:53:12.019Z</time></trkpt><trkpt lat="45.522673" lon="4.4810327"><ele>736.6666666666666</ele><time>2026-04-19T09:53:13.019Z</time></trkpt><trkpt lat="45.522634" lon="4.4809245"><ele>736.5</ele><time>2026-04-19T09:53:14.02Z</time></trkpt><trkpt lat="45.5225988" lon="4.4808112"><ele>736.3333333333334</ele><time>2026-04-19T09:53:15.02Z</time></trkpt><trkpt lat="45.5225621" lon="4.4807089"><ele>736.1666666666667</ele><time>2026-04-19T09:53:16.021Z</time></trkpt><trkpt lat="45.5225255" lon="4.4806012"><ele>736.0</ele><time>2026-04-19T09:53:17.02Z</time></trkpt><trkpt lat="45.522493" lon="4.4805018"><ele>735.2857142857143</ele><time>2026-04-19T09:53:18.02Z</time></trkpt><trkpt lat="45.5224632" lon="4.4804058"><ele>734.5714285714286</ele><time>2026-04-19T09:53:19.021Z</time></trkpt><trkpt lat="45.5224319" lon="4.4803126"><ele>733.8571428571429</ele><time>2026-04-19T09:53:20.02Z</time></trkpt><trkpt lat="45.5223974" lon="4.4802172"><ele>733.1428571428571</ele><time>2026-04-19T09:53:21.019Z</time></trkpt><trkpt lat="45.5223637" lon="4.4801246"><ele>732.4285714285713</ele><time>2026-04-19T09:53:22.019Z</time></trkpt><trkpt lat="45.5223252" lon="4.4800416"><ele>731.7142857142857</ele><time>2026-04-19T09:53:23.019Z</time></trkpt><trkpt lat="45.5222918" lon="4.4799624"><ele>731.0</ele><time>2026-04-19T09:53:24.02Z</time></trkpt><trkpt lat="45.5222566" lon="4.479885"><ele>731.0</ele><time>2026-04-19T09:53:25.019Z</time></trkpt><trkpt lat="45.5221911" lon="4.479721"><ele>731.0</ele><time>2026-04-19T09:53:27.021Z</time></trkpt><trkpt lat="45.5221528" lon="4.4796237"><ele>731.0</ele><time>2026-04-19T09:53:28.019Z</time></trkpt><trkpt lat="45.5221213" lon="4.4795108"><ele>731.0</ele><time>2026-04-19T09:53:29.019Z</time></trkpt><trkpt lat="45.5220885" lon="4.4793855"><ele>731.0</ele><time>2026-04-19T09:53:30.02Z</time></trkpt><trkpt lat="45.5220472" lon="4.479265"><ele>728.4</ele><time>2026-04-19T09:53:31.019Z</time></trkpt><trkpt lat="45.522007" lon="4.4791532"><ele>725.8</ele><time>2026-04-19T09:53:32.02Z</time></trkpt><trkpt lat="45.5219643" lon="4.4790353"><ele>723.1999999999999</ele><time>2026-04-19T09:53:33.019Z</time></trkpt><trkpt lat="45.5219139" lon="4.4789277"><ele>720.5999999999999</ele><time>2026-04-19T09:53:34.02Z</time></trkpt><trkpt lat="45.5218655" lon="4.4788163"><ele>718.0</ele><time>2026-04-19T09:53:35.02Z</time></trkpt><trkpt lat="45.5218143" lon="4.4787157"><ele>716.8333333333334</ele><time>2026-04-19T09:53:36.02Z</time></trkpt><trkpt lat="45.5217669" lon="4.478623"><ele>715.6666666666667</ele><time>2026-04-19T09:53:37.019Z</time></trkpt><trkpt lat="45.5217272" lon="4.4785362"><ele>714.5</ele><time>2026-04-19T09:53:38.019Z</time></trkpt><trkpt lat="45.5216889" lon="4.478443"><ele>713.3333333333334</ele><time>2026-04-19T09:53:39.02Z</time></trkpt><trkpt lat="45.5216368" lon="4.4783295"><ele>712.1666666666666</ele><time>2026-04-19T09:53:40.021Z</time></trkpt><trkpt lat="45.5215729" lon="4.4782045"><ele>711.0</ele><time>2026-04-19T09:53:41.019Z</time></trkpt><trkpt lat="45.5215141" lon="4.478064"><ele>709.25</ele><time>2026-04-19T09:53:42.02Z</time></trkpt><trkpt lat="45.5214578" lon="4.4779093"><ele>707.5</ele><time>2026-04-19T09:53:43.019Z</time></trkpt><trkpt lat="45.5213974" lon="4.4777444"><ele>705.75</ele><time>2026-04-19T09:53:44.02Z</time></trkpt><trkpt lat="45.5213352" lon="4.477572"><ele>704.0</ele><time>2026-04-19T09:53:45.02Z</time></trkpt><trkpt lat="45.5212714" lon="4.4773984"><ele>704.0</ele><time>2026-04-19T09:53:46.02Z</time></trkpt><trkpt lat="45.5212081" lon="4.4772294"><ele>704.0</ele><time>2026-04-19T09:53:47.019Z</time></trkpt><trkpt lat="45.5211371" lon="4.4770646"><ele>704.0</ele><time>2026-04-19T09:53:48.02Z</time></trkpt><trkpt lat="45.521066" lon="4.4769234"><ele>704.0</ele><time>2026-04-19T09:53:49.019Z</time></trkpt><trkpt lat="45.5209945" lon="4.4767853"><ele>703.4000000000001</ele><time>2026-04-19T09:53:50.019Z</time></trkpt><trkpt lat="45.5209243" lon="4.4766532"><ele>702.8</ele><time>2026-04-19T09:53:51.02Z</time></trkpt><trkpt lat="45.5208556" lon="4.4765205"><ele>702.2</ele><time>2026-04-19T09:53:52.019Z</time></trkpt><trkpt lat="45.5207896" lon="4.4763995"><ele>701.5999999999999</ele><time>2026-04-19T09:53:53.021Z</time></trkpt><trkpt lat="45.5207246" lon="4.4762733"><ele>701.0</ele><time>2026-04-19T09:53:54.021Z</time></trkpt><trkpt lat="45.5206611" lon="4.4761483"><ele>699.1999999999999</ele><time>2026-04-19T09:53:55.02Z</time></trkpt><trkpt lat="45.5205972" lon="4.4760207"><ele>697.4</ele><time>2026-04-19T09:53:56.02Z</time></trkpt><trkpt lat="45.5205246" lon="4.4758915"><ele>695.6</ele><time>2026-04-19T09:53:57.02Z</time></trkpt><trkpt lat="45.5204571" lon="4.4757641"><ele>693.8</ele><time>2026-04-19T09:53:58.02Z</time></trkpt><trkpt lat="45.5203828" lon="4.4756467"><ele>692.0</ele><time>2026-04-19T09:53:59.02Z</time></trkpt><trkpt lat="45.5203031" lon="4.4755384"><ele>691.4000000000001</ele><time>2026-04-19T09:54:00.019Z</time></trkpt><trkpt lat="45.5202295" lon="4.4754303"><ele>690.8000000000001</ele><time>2026-04-19T09:54:01.02Z</time></trkpt><trkpt lat="45.5201565" lon="4.4753221"><ele>690.2</ele><time>2026-04-19T09:54:02.019Z</time></trkpt><trkpt lat="45.5200856" lon="4.4752122"><ele>689.6</ele><time>2026-04-19T09:54:03.022Z</time></trkpt><trkpt lat="45.5200149" lon="4.4751036"><ele>689.0</ele><time>2026-04-19T09:54:04.019Z</time></trkpt><trkpt lat="45.5199455" lon="4.475007"><ele>689.0</ele><time>2026-04-19T09:54:05.02Z</time></trkpt><trkpt lat="45.5198818" lon="4.4749107"><ele>689.0</ele><time>2026-04-19T09:54:06.019Z</time></trkpt><trkpt lat="45.5198226" lon="4.4748288"><ele>689.0</ele><time>2026-04-19T09:54:07.02Z</time></trkpt><trkpt lat="45.5197626" lon="4.4747468"><ele>689.0</ele><time>2026-04-19T09:54:08.019Z</time></trkpt><trkpt lat="45.5197103" lon="4.4746757"><ele>689.0</ele><time>2026-04-19T09:54:09.02Z</time></trkpt><trkpt lat="45.5196622" lon="4.474607"><ele>689.0</ele><time>2026-04-19T09:54:10.02Z</time></trkpt><trkpt lat="45.5195761" lon="4.4744927"><ele>688.4000000000001</ele><time>2026-04-19T09:54:12.02Z</time></trkpt><trkpt lat="45.5195258" lon="4.474433"><ele>687.8</ele><time>2026-04-19T09:54:13.02Z</time></trkpt><trkpt lat="45.5194393" lon="4.4743295"><ele>687.2</ele><time>2026-04-19T09:54:15.02Z</time></trkpt><trkpt lat="45.5193605" lon="4.4741994"><ele>686.5999999999999</ele><time>2026-04-19T09:54:17.02Z</time></trkpt><trkpt lat="45.5192633" lon="4.4740754"><ele>686.0</ele><time>2026-04-19T09:54:19.02Z</time></trkpt><trkpt lat="45.5192017" lon="4.4740014"><ele>686.0</ele><time>2026-04-19T09:54:20.019Z</time></trkpt><trkpt lat="45.5191333" lon="4.473925"><ele>686.0</ele><time>2026-04-19T09:54:21.021Z</time></trkpt><trkpt lat="45.519064" lon="4.473843"><ele>686.0</ele><time>2026-04-19T09:54:22.019Z</time></trkpt><trkpt lat="45.5189878" lon="4.4737544"><ele>686.0</ele><time>2026-04-19T09:54:23.02Z</time></trkpt><trkpt lat="45.5188924" lon="4.4736329"><ele>686.0</ele><time>2026-04-19T09:54:24.021Z</time></trkpt><trkpt lat="45.5187957" lon="4.4735046"><ele>685.5</ele><time>2026-04-19T09:54:25.02Z</time></trkpt><trkpt lat="45.5186916" lon="4.4733717"><ele>685.0</ele><time>2026-04-19T09:54:26.019Z</time></trkpt><trkpt lat="45.5185814" lon="4.473219"><ele>684.5</ele><time>2026-04-19T09:54:27.019Z</time></trkpt><trkpt lat="45.5184785" lon="4.4730834"><ele>684.0</ele><time>2026-04-19T09:54:28.02Z</time></trkpt><trkpt lat="45.5183809" lon="4.4729489"><ele>683.5</ele><time>2026-04-19T09:54:29.02Z</time></trkpt><trkpt lat="45.5182855" lon="4.4728118"><ele>683.0</ele><time>2026-04-19T09:54:30.02Z</time></trkpt><trkpt lat="45.5181966" lon="4.472691"><ele>682.5</ele><time>2026-04-19T09:54:31.019Z</time></trkpt><trkpt lat="45.5181136" lon="4.4725751"><ele>682.0</ele><time>2026-04-19T09:54:32.02Z</time></trkpt><trkpt lat="45.5180342" lon="4.472467"><ele>682.0</ele><time>2026-04-19T09:54:33.019Z</time></trkpt><trkpt lat="45.5179564" lon="4.472363"><ele>682.0</ele><time>2026-04-19T09:54:34.02Z</time></trkpt><trkpt lat="45.5178847" lon="4.4722602"><ele>682.0</ele><time>2026-04-19T09:54:35.02Z</time></trkpt><trkpt lat="45.5178109" lon="4.4721625"><ele>682.0</ele><time>2026-04-19T09:54:36.02Z</time></trkpt><trkpt lat="45.5177386" lon="4.4720684"><ele>682.0</ele><time>2026-04-19T09:54:37.02Z</time></trkpt><trkpt lat="45.5176629" lon="4.4719636"><ele>680.6</ele><time>2026-04-19T09:54:38.019Z</time></trkpt><trkpt lat="45.5175866" lon="4.4718467"><ele>679.2</ele><time>2026-04-19T09:54:39.021Z</time></trkpt><trkpt lat="45.5175001" lon="4.4717459"><ele>677.8</ele><time>2026-04-19T09:54:40.02Z</time></trkpt><trkpt lat="45.5174182" lon="4.4716486"><ele>676.4</ele><time>2026-04-19T09:54:41.021Z</time></trkpt><trkpt lat="45.5173365" lon="4.4715639"><ele>675.0</ele><time>2026-04-19T09:54:42.019Z</time></trkpt><trkpt lat="45.5172475" lon="4.4714818"><ele>675.0</ele><time>2026-04-19T09:54:43.02Z</time></trkpt><trkpt lat="45.5171514" lon="4.4713962"><ele>675.0</ele><time>2026-04-19T09:54:44.02Z</time></trkpt><trkpt lat="45.5170451" lon="4.4713018"><ele>675.0</ele><time>2026-04-19T09:54:45.021Z</time></trkpt><trkpt lat="45.5169367" lon="4.471201"><ele>675.0</ele><time>2026-04-19T09:54:46.021Z</time></trkpt><trkpt lat="45.5168197" lon="4.4710714"><ele>673.0</ele><time>2026-04-19T09:54:47.019Z</time></trkpt><trkpt lat="45.5167015" lon="4.470947"><ele>671.0</ele><time>2026-04-19T09:54:48.02Z</time></trkpt><trkpt lat="45.516581" lon="4.4707937"><ele>669.0</ele><time>2026-04-19T09:54:49.02Z</time></trkpt><trkpt lat="45.5164611" lon="4.470637"><ele>669.0</ele><time>2026-04-19T09:54:50.02Z</time></trkpt><trkpt lat="45.5163318" lon="4.4704532"><ele>669.0</ele><time>2026-04-19T09:54:51.02Z</time></trkpt><trkpt lat="45.5162067" lon="4.4702712"><ele>669.0</ele><time>2026-04-19T09:54:52.021Z</time></trkpt><trkpt lat="45.5160732" lon="4.4700584"><ele>667.3333333333334</ele><time>2026-04-19T09:54:53.02Z</time></trkpt><trkpt lat="45.5159299" lon="4.4698516"><ele>665.6666666666667</ele><time>2026-04-19T09:54:54.019Z</time></trkpt><trkpt lat="45.5157888" lon="4.4696639"><ele>664.0</ele><time>2026-04-19T09:54:55.02Z</time></trkpt><trkpt lat="45.5156579" lon="4.469478"><ele>663.6666666666667</ele><time>2026-04-19T09:54:56.02Z</time></trkpt><trkpt lat="45.5155344" lon="4.4693051"><ele>663.3333333333334</ele><time>2026-04-19T09:54:57.019Z</time></trkpt><trkpt lat="45.5154219" lon="4.4691356"><ele>663.0</ele><time>2026-04-19T09:54:58.019Z</time></trkpt><trkpt lat="45.5153233" lon="4.4689746"><ele>663.0</ele><time>2026-04-19T09:54:59.02Z</time></trkpt><trkpt lat="45.5152198" lon="4.4688109"><ele>663.0</ele><time>2026-04-19T09:55:00.02Z</time></trkpt><trkpt lat="45.5151189" lon="4.4686385"><ele>663.0</ele><time>2026-04-19T09:55:01.019Z</time></trkpt><trkpt lat="45.5150184" lon="4.4684596"><ele>662.3333333333334</ele><time>2026-04-19T09:55:02.02Z</time></trkpt><trkpt lat="45.5149136" lon="4.4682767"><ele>661.6666666666667</ele><time>2026-04-19T09:55:03.02Z</time></trkpt><trkpt lat="45.5148069" lon="4.4680999"><ele>661.0</ele><time>2026-04-19T09:55:04.02Z</time></trkpt><trkpt lat="45.5146985" lon="4.467938"><ele>660.0</ele><time>2026-04-19T09:55:05.02Z</time></trkpt><trkpt lat="45.5145903" lon="4.4677666"><ele>659.0</ele><time>2026-04-19T09:55:06.02Z</time></trkpt><trkpt lat="45.5144913" lon="4.4675846"><ele>658.0</ele><time>2026-04-19T09:55:07.019Z</time></trkpt><trkpt lat="45.5144011" lon="4.4673924"><ele>658.0</ele><time>2026-04-19T09:55:08.019Z</time></trkpt><trkpt lat="45.5143157" lon="4.4671976"><ele>658.0</ele><time>2026-04-19T09:55:09.021Z</time></trkpt><trkpt lat="45.514238" lon="4.4670004"><ele>658.0</ele><time>2026-04-19T09:55:10.019Z</time></trkpt><trkpt lat="45.5141653" lon="4.466796"><ele>657.6666666666667</ele><time>2026-04-19T09:55:11.019Z</time></trkpt><trkpt lat="45.5140952" lon="4.4666041"><ele>657.3333333333334</ele><time>2026-04-19T09:55:12.019Z</time></trkpt><trkpt lat="45.5140314" lon="4.4664087"><ele>657.0</ele><time>2026-04-19T09:55:13.02Z</time></trkpt><trkpt lat="45.5139661" lon="4.4662201"><ele>657.0</ele><time>2026-04-19T09:55:14.021Z</time></trkpt><trkpt lat="45.5139054" lon="4.4660476"><ele>657.0</ele><time>2026-04-19T09:55:15.02Z</time></trkpt><trkpt lat="45.5138459" lon="4.4658924"><ele>657.0</ele><time>2026-04-19T09:55:16.019Z</time></trkpt><trkpt lat="45.5137872" lon="4.4657477"><ele>657.0</ele><time>2026-04-19T09:55:17.02Z</time></trkpt><trkpt lat="45.5137307" lon="4.4656172"><ele>656.6666666666666</ele><time>2026-04-19T09:55:18.019Z</time></trkpt><trkpt lat="45.5136786" lon="4.4655184"><ele>656.3333333333334</ele><time>2026-04-19T09:55:19.02Z</time></trkpt><trkpt lat="45.5136151" lon="4.4654325"><ele>656.0</ele><time>2026-04-19T09:55:20.019Z</time></trkpt><trkpt lat="45.5135453" lon="4.4653488"><ele>655.6666666666667</ele><time>2026-04-19T09:55:21.021Z</time></trkpt><trkpt lat="45.5134844" lon="4.4652634"><ele>655.3333333333334</ele><time>2026-04-19T09:55:22.019Z</time></trkpt><trkpt lat="45.5134393" lon="4.4651758"><ele>655.0</ele><time>2026-04-19T09:55:23.02Z</time></trkpt><trkpt lat="45.513393" lon="4.4650988"><ele>655.0</ele><time>2026-04-19T09:55:24.02Z</time></trkpt><trkpt lat="45.5133405" lon="4.4650173"><ele>655.0</ele><time>2026-04-19T09:55:25.019Z</time></trkpt><trkpt lat="45.5132853" lon="4.4649236"><ele>655.0</ele><time>2026-04-19T09:55:26.019Z</time></trkpt><trkpt lat="45.5132332" lon="4.4648228"><ele>655.0</ele><time>2026-04-19T09:55:27.021Z</time></trkpt><trkpt lat="45.5131694" lon="4.4647274"><ele>655.0</ele><time>2026-04-19T09:55:28.02Z</time></trkpt><trkpt lat="45.5131044" lon="4.4646189"><ele>655.0</ele><time>2026-04-19T09:55:29.019Z</time></trkpt><trkpt lat="45.5130346" lon="4.4645046"><ele>655.25</ele><time>2026-04-19T09:55:30.019Z</time></trkpt><trkpt lat="45.5129535" lon="4.4643854"><ele>655.5</ele><time>2026-04-19T09:55:31.021Z</time></trkpt><trkpt lat="45.512871" lon="4.4642577"><ele>655.75</ele><time>2026-04-19T09:55:32.021Z</time></trkpt><trkpt lat="45.5127834" lon="4.464119"><ele>656.0</ele><time>2026-04-19T09:55:33.02Z</time></trkpt><trkpt lat="45.5126986" lon="4.4639695"><ele>656.0</ele><time>2026-04-19T09:55:34.021Z</time></trkpt><trkpt lat="45.5126128" lon="4.4638353"><ele>656.0</ele><time>2026-04-19T09:55:35.021Z</time></trkpt><trkpt lat="45.5125305" lon="4.4637223"><ele>656.0</ele><time>2026-04-19T09:55:36.019Z</time></trkpt><trkpt lat="45.5124436" lon="4.4636339"><ele>656.0</ele><time>2026-04-19T09:55:37.02Z</time></trkpt><trkpt lat="45.5123535" lon="4.4635519"><ele>656.5999999999999</ele><time>2026-04-19T09:55:38.021Z</time></trkpt><trkpt lat="45.5122666" lon="4.4634901"><ele>657.2</ele><time>2026-04-19T09:55:39.02Z</time></trkpt><trkpt lat="45.5121656" lon="4.4634462"><ele>657.8</ele><time>2026-04-19T09:55:40.02Z</time></trkpt><trkpt lat="45.5120614" lon="4.463419"><ele>658.4000000000001</ele><time>2026-04-19T09:55:41.02Z</time></trkpt><trkpt lat="45.5119504" lon="4.4633941"><ele>659.0</ele><time>2026-04-19T09:55:42.019Z</time></trkpt><trkpt lat="45.511836" lon="4.463363"><ele>661.75</ele><time>2026-04-19T09:55:43.02Z</time></trkpt><trkpt lat="45.511727" lon="4.4633197"><ele>664.5</ele><time>2026-04-19T09:55:44.021Z</time></trkpt><trkpt lat="45.5116197" lon="4.4632663"><ele>667.25</ele><time>2026-04-19T09:55:45.02Z</time></trkpt><trkpt lat="45.5115133" lon="4.4632089"><ele>670.0</ele><time>2026-04-19T09:55:46.021Z</time></trkpt><trkpt lat="45.5113989" lon="4.4631557"><ele>670.0</ele><time>2026-04-19T09:55:47.021Z</time></trkpt><trkpt lat="45.5112909" lon="4.4631077"><ele>670.0</ele><time>2026-04-19T09:55:48.021Z</time></trkpt><trkpt lat="45.5111882" lon="4.4630736"><ele>670.0</ele><time>2026-04-19T09:55:49.019Z</time></trkpt><trkpt lat="45.5110809" lon="4.4630475"><ele>670.0</ele><time>2026-04-19T09:55:50.02Z</time></trkpt><trkpt lat="45.5109968" lon="4.4630222"><ele>670.0</ele><time>2026-04-19T09:55:51.02Z</time></trkpt><trkpt lat="45.5109104" lon="4.4629975"><ele>670.4</ele><time>2026-04-19T09:55:52.021Z</time></trkpt><trkpt lat="45.5108222" lon="4.4629698"><ele>670.8</ele><time>2026-04-19T09:55:53.02Z</time></trkpt><trkpt lat="45.5107133" lon="4.4629475"><ele>671.2</ele><time>2026-04-19T09:55:54.02Z</time></trkpt><trkpt lat="45.5106101" lon="4.4629338"><ele>671.6</ele><time>2026-04-19T09:55:55.021Z</time></trkpt><trkpt lat="45.5105001" lon="4.4628966"><ele>672.0</ele><time>2026-04-19T09:55:56.021Z</time></trkpt><trkpt lat="45.5104056" lon="4.4628788"><ele>673.0</ele><time>2026-04-19T09:55:57.019Z</time></trkpt><trkpt lat="45.5103278" lon="4.4628503"><ele>674.0</ele><time>2026-04-19T09:55:58.02Z</time></trkpt><trkpt lat="45.5102563" lon="4.4628242"><ele>675.0</ele><time>2026-04-19T09:55:59.02Z</time></trkpt><trkpt lat="45.5101861" lon="4.4627976"><ele>676.0</ele><time>2026-04-19T09:56:00.021Z</time></trkpt><trkpt lat="45.51012" lon="4.4627565"><ele>677.0</ele><time>2026-04-19T09:56:01.02Z</time></trkpt><trkpt lat="45.5100492" lon="4.4626944"><ele>678.0</ele><time>2026-04-19T09:56:02.02Z</time></trkpt><trkpt lat="45.5099768" lon="4.4626311"><ele>678.0</ele><time>2026-04-19T09:56:03.019Z</time></trkpt><trkpt lat="45.5099161" lon="4.4625718"><ele>678.0</ele><time>2026-04-19T09:56:04.019Z</time></trkpt><trkpt lat="45.5098422" lon="4.4625016"><ele>678.0</ele><time>2026-04-19T09:56:05.022Z</time></trkpt><trkpt lat="45.5097781" lon="4.4624373"><ele>678.0</ele><time>2026-04-19T09:56:06.02Z</time></trkpt><trkpt lat="45.5096985" lon="4.4623775"><ele>678.0</ele><time>2026-04-19T09:56:07.019Z</time></trkpt><trkpt lat="45.509611" lon="4.4623448"><ele>678.0</ele><time>2026-04-19T09:56:08.021Z</time></trkpt><trkpt lat="45.5095244" lon="4.462306"><ele>677.5999999999999</ele><time>2026-04-19T09:56:09.02Z</time></trkpt><trkpt lat="45.5094341" lon="4.4622522"><ele>677.1999999999999</ele><time>2026-04-19T09:56:10.02Z</time></trkpt><trkpt lat="45.5093411" lon="4.4621902"><ele>676.8</ele><time>2026-04-19T09:56:11.02Z</time></trkpt><trkpt lat="45.5092467" lon="4.4621346"><ele>676.4</ele><time>2026-04-19T09:56:12.02Z</time></trkpt><trkpt lat="45.5091584" lon="4.4620609"><ele>676.0</ele><time>2026-04-19T09:56:13.02Z</time></trkpt><trkpt lat="45.5090747" lon="4.4619853"><ele>676.0</ele><time>2026-04-19T09:56:14.02Z</time></trkpt><trkpt lat="45.5089927" lon="4.4619042"><ele>676.0</ele><time>2026-04-19T09:56:15.02Z</time></trkpt><trkpt lat="45.5089125" lon="4.4618134"><ele>676.0</ele><time>2026-04-19T09:56:16.02Z</time></trkpt><trkpt lat="45.5088335" lon="4.4617279"><ele>676.0</ele><time>2026-04-19T09:56:17.02Z</time></trkpt><trkpt lat="45.5087596" lon="4.461641"><ele>676.0</ele><time>2026-04-19T09:56:18.02Z</time></trkpt><trkpt lat="45.5086917" lon="4.4615586"><ele>674.3333333333334</ele><time>2026-04-19T09:56:19.02Z</time></trkpt><trkpt lat="45.5086225" lon="4.4614716"><ele>672.6666666666667</ele><time>2026-04-19T09:56:20.019Z</time></trkpt><trkpt lat="45.5085716" lon="4.4613741"><ele>671.0</ele><time>2026-04-19T09:56:21.02Z</time></trkpt><trkpt lat="45.5085181" lon="4.4612863"><ele>669.3333333333334</ele><time>2026-04-19T09:56:22.021Z</time></trkpt><trkpt lat="45.5084688" lon="4.4611987"><ele>667.6666666666666</ele><time>2026-04-19T09:56:23.02Z</time></trkpt><trkpt lat="45.5084268" lon="4.4610992"><ele>666.0</ele><time>2026-04-19T09:56:24.02Z</time></trkpt><trkpt lat="45.5083861" lon="4.4609915"><ele>666.0</ele><time>2026-04-19T09:56:25.02Z</time></trkpt><trkpt lat="45.5083486" lon="4.4608732"><ele>666.0</ele><time>2026-04-19T09:56:26.02Z</time></trkpt><trkpt lat="45.5083057" lon="4.46075"><ele>666.0</ele><time>2026-04-19T09:56:27.021Z</time></trkpt><trkpt lat="45.5082578" lon="4.4606381"><ele>666.0</ele><time>2026-04-19T09:56:28.021Z</time></trkpt><trkpt lat="45.5082211" lon="4.4605379"><ele>666.0</ele><time>2026-04-19T09:56:29.02Z</time></trkpt><trkpt lat="45.5081785" lon="4.4604613"><ele>666.0</ele><time>2026-04-19T09:56:30.02Z</time></trkpt><trkpt lat="45.5080817" lon="4.4603417"><ele>666.1666666666666</ele><time>2026-04-19T09:56:32.02Z</time></trkpt><trkpt lat="45.5080133" lon="4.4602858"><ele>666.3333333333334</ele><time>2026-04-19T09:56:33.02Z</time></trkpt><trkpt lat="45.5079413" lon="4.4602443"><ele>666.5</ele><time>2026-04-19T09:56:34.02Z</time></trkpt><trkpt lat="45.5078661" lon="4.4602239"><ele>666.6666666666667</ele><time>2026-04-19T09:56:35.02Z</time></trkpt><trkpt lat="45.5077886" lon="4.4601926"><ele>666.8333333333334</ele><time>2026-04-19T09:56:36.019Z</time></trkpt><trkpt lat="45.5077163" lon="4.4601649"><ele>667.0</ele><time>2026-04-19T09:56:37.02Z</time></trkpt><trkpt lat="45.5076579" lon="4.4600999"><ele>667.0</ele><time>2026-04-19T09:56:38.021Z</time></trkpt><trkpt lat="45.5075982" lon="4.460044"><ele>667.0</ele><time>2026-04-19T09:56:39.019Z</time></trkpt><trkpt lat="45.5075082" lon="4.45997"><ele>667.0</ele><time>2026-04-19T09:56:54.019Z</time></trkpt><trkpt lat="45.5074539" lon="4.4598774"><ele>667.0</ele><time>2026-04-19T09:56:56.019Z</time></trkpt><trkpt lat="45.5074078" lon="4.4598114"><ele>667.0</ele><time>2026-04-19T09:56:59.021Z</time></trkpt><trkpt lat="45.5073299" lon="4.4597854"><ele>667.0</ele><time>2026-04-19T09:57:01.022Z</time></trkpt><trkpt lat="45.5072604" lon="4.4598774"><ele>667.0</ele><time>2026-04-19T09:57:03.02Z</time></trkpt><trkpt lat="45.5073197" lon="4.4599574"><ele>667.0</ele><time>2026-04-19T09:57:06.02Z</time></trkpt><trkpt lat="45.5073934" lon="4.4599491"><ele>667.0</ele><time>2026-04-19T09:57:11.02Z</time></trkpt><trkpt lat="45.5074563" lon="4.459945"><ele>667.0</ele><time>2026-04-19T09:58:07.019Z</time></trkpt><trkpt lat="45.5074039" lon="4.4598782"><ele>667.0</ele><time>2026-04-19T09:59:09.021Z</time></trkpt><trkpt lat="45.5074854" lon="4.4599444"><ele>667.0</ele><time>2026-04-19T09:59:41.022Z</time></trkpt><trkpt lat="45.5075612" lon="4.4599779"><ele>667.0000000000001</ele><time>2026-04-19T10:06:11.021Z</time></trkpt><trkpt lat="45.5074936" lon="4.459939"><ele>667.0</ele><time>2026-04-19T10:06:18.02Z</time></trkpt><trkpt lat="45.5075695" lon="4.4599305"><ele>667.0</ele><time>2026-04-19T10:06:49.021Z</time></trkpt><trkpt lat="45.5075337" lon="4.4600046"><ele>667.0</ele><time>2026-04-19T10:07:07.024Z</time></trkpt><trkpt lat="45.5075031" lon="4.4599237"><ele>667.0</ele><time>2026-04-19T10:07:10.022Z</time></trkpt><trkpt lat="45.5074422" lon="4.4598727"><ele>667.0000000000001</ele><time>2026-04-19T10:07:13.02Z</time></trkpt><trkpt lat="45.5074393" lon="4.4599806"><ele>667.0</ele><time>2026-04-19T10:08:26.023Z</time></trkpt><trkpt lat="45.507397" lon="4.4599005"><ele>667.0</ele><time>2026-04-19T10:08:30.027Z</time></trkpt><trkpt lat="45.5073955" lon="4.4598104"><ele>667.0</ele><time>2026-04-19T10:10:32.024Z</time></trkpt><trkpt lat="45.507452" lon="4.4598504"><ele>667.0</ele><time>2026-04-19T10:10:43.027Z</time></trkpt><trkpt lat="45.5074808" lon="4.4599607"><ele>667.0</ele><time>2026-04-19T10:10:47.025Z</time></trkpt><trkpt lat="45.5075561" lon="4.4600303"><ele>667.0</ele><time>2026-04-19T10:10:55.016Z</time></trkpt><trkpt lat="45.5074905" lon="4.4599468"><ele>667.0</ele><time>2026-04-19T10:11:03.022Z</time></trkpt><trkpt lat="45.5074392" lon="4.4598662"><ele>667.0</ele><time>2026-04-19T10:11:07.018Z</time></trkpt><trkpt lat="45.5073512" lon="4.4598142"><ele>667.0</ele><time>2026-04-19T10:11:13.017Z</time></trkpt><trkpt lat="45.5072809" lon="4.4598461"><ele>667.0</ele><time>2026-04-19T10:11:15.026Z</time></trkpt><trkpt lat="45.5073229" lon="4.4599167"><ele>667.0</ele><time>2026-04-19T10:11:17.02Z</time></trkpt><trkpt lat="45.5073989" lon="4.4599405"><ele>667.0</ele><time>2026-04-19T10:12:02.023Z</time></trkpt><trkpt lat="45.5073856" lon="4.4598276"><ele>667.0</ele><time>2026-04-19T10:12:38.023Z</time></trkpt><trkpt lat="45.5073079" lon="4.4598446"><ele>667.0</ele><time>2026-04-19T10:12:40.023Z</time></trkpt><trkpt lat="45.5073405" lon="4.4599361"><ele>667.0</ele><time>2026-04-19T10:12:43.023Z</time></trkpt><trkpt lat="45.5074093" lon="4.4599227"><ele>667.0</ele><time>2026-04-19T10:12:45.023Z</time></trkpt><trkpt lat="45.5074718" lon="4.4599495"><ele>667.0</ele><time>2026-04-19T10:13:29.023Z</time></trkpt><trkpt lat="45.5075574" lon="4.4600044"><ele>667.0</ele><time>2026-04-19T10:19:33.023Z</time></trkpt><trkpt lat="45.5076521" lon="4.460086"><ele>667.0</ele><time>2026-04-19T10:19:35.023Z</time></trkpt><trkpt lat="45.50774" lon="4.4601591"><ele>667.0</ele><time>2026-04-19T10:19:37.023Z</time></trkpt><trkpt lat="45.5078108" lon="4.4601811"><ele>667.0</ele><time>2026-04-19T10:19:39.023Z</time></trkpt><trkpt lat="45.5079162" lon="4.4602287"><ele>667.0</ele><time>2026-04-19T10:19:41.023Z</time></trkpt><trkpt lat="45.5080319" lon="4.4603159"><ele>667.0</ele><time>2026-04-19T10:19:43.024Z</time></trkpt><trkpt lat="45.508124" lon="4.460397"><ele>667.0</ele><time>2026-04-19T10:19:45.023Z</time></trkpt><trkpt lat="45.5082061" lon="4.4605168"><ele>666.8333333333334</ele><time>2026-04-19T10:19:47.023Z</time></trkpt><trkpt lat="45.508258" lon="4.4605981"><ele>666.6666666666667</ele><time>2026-04-19T10:19:48.024Z</time></trkpt><trkpt lat="45.5082981" lon="4.4607272"><ele>666.5</ele><time>2026-04-19T10:19:49.023Z</time></trkpt><trkpt lat="45.5083316" lon="4.46084"><ele>666.3333333333334</ele><time>2026-04-19T10:19:50.023Z</time></trkpt><trkpt lat="45.508361" lon="4.4609471"><ele>666.1666666666666</ele><time>2026-04-19T10:19:51.023Z</time></trkpt><trkpt lat="45.5084069" lon="4.4610429"><ele>666.0</ele><time>2026-04-19T10:19:52.023Z</time></trkpt><trkpt lat="45.5084409" lon="4.461123"><ele>666.0</ele><time>2026-04-19T10:19:53.024Z</time></trkpt><trkpt lat="45.5084759" lon="4.461201"><ele>666.0</ele><time>2026-04-19T10:19:54.023Z</time></trkpt><trkpt lat="45.5085214" lon="4.4612825"><ele>666.0</ele><time>2026-04-19T10:19:55.023Z</time></trkpt><trkpt lat="45.5085606" lon="4.4613615"><ele>666.0</ele><time>2026-04-19T10:19:56.023Z</time></trkpt><trkpt lat="45.5086008" lon="4.4614419"><ele>666.0</ele><time>2026-04-19T10:19:57.023Z</time></trkpt><trkpt lat="45.5086505" lon="4.4615195"><ele>666.0</ele><time>2026-04-19T10:19:58.023Z</time></trkpt><trkpt lat="45.5087037" lon="4.4615838"><ele>666.0</ele><time>2026-04-19T10:19:59.024Z</time></trkpt><trkpt lat="45.5087528" lon="4.4616427"><ele>667.4285714285714</ele><time>2026-04-19T10:20:00.024Z</time></trkpt><trkpt lat="45.5088096" lon="4.4617032"><ele>668.8571428571428</ele><time>2026-04-19T10:20:01.024Z</time></trkpt><trkpt lat="45.5088641" lon="4.4617614"><ele>670.2857142857142</ele><time>2026-04-19T10:20:02.023Z</time></trkpt><trkpt lat="45.5089243" lon="4.461828"><ele>671.7142857142858</ele><time>2026-04-19T10:20:03.023Z</time></trkpt><trkpt lat="45.5089864" lon="4.4618911"><ele>673.1428571428571</ele><time>2026-04-19T10:20:04.024Z</time></trkpt><trkpt lat="45.509054" lon="4.4619582"><ele>674.5714285714286</ele><time>2026-04-19T10:20:05.023Z</time></trkpt><trkpt lat="45.5091102" lon="4.4620216"><ele>676.0</ele><time>2026-04-19T10:20:06.023Z</time></trkpt><trkpt lat="45.5092158" lon="4.4621095"><ele>676.2857142857143</ele><time>2026-04-19T10:20:08.023Z</time></trkpt><trkpt lat="45.5092776" lon="4.4621491"><ele>676.5714285714286</ele><time>2026-04-19T10:20:09.023Z</time></trkpt><trkpt lat="45.5093411" lon="4.4621809"><ele>676.8571428571429</ele><time>2026-04-19T10:20:10.023Z</time></trkpt><trkpt lat="45.5094071" lon="4.4622182"><ele>677.1428571428571</ele><time>2026-04-19T10:20:11.023Z</time></trkpt><trkpt lat="45.5094806" lon="4.4622621"><ele>677.4285714285714</ele><time>2026-04-19T10:20:12.023Z</time></trkpt><trkpt lat="45.5095578" lon="4.4622946"><ele>677.7142857142857</ele><time>2026-04-19T10:20:13.024Z</time></trkpt><trkpt lat="45.5096253" lon="4.4623247"><ele>678.0</ele><time>2026-04-19T10:20:14.024Z</time></trkpt><trkpt lat="45.5096979" lon="4.4623669"><ele>678.0</ele><time>2026-04-19T10:20:15.023Z</time></trkpt><trkpt lat="45.5097755" lon="4.4624233"><ele>678.0</ele><time>2026-04-19T10:20:16.023Z</time></trkpt><trkpt lat="45.5098547" lon="4.4624841"><ele>678.0</ele><time>2026-04-19T10:20:17.023Z</time></trkpt><trkpt lat="45.5099179" lon="4.4625368"><ele>678.0</ele><time>2026-04-19T10:20:18.023Z</time></trkpt><trkpt lat="45.5099849" lon="4.4625961"><ele>678.0</ele><time>2026-04-19T10:20:19.024Z</time></trkpt><trkpt lat="45.5100442" lon="4.4626511"><ele>678.0</ele><time>2026-04-19T10:20:20.023Z</time></trkpt><trkpt lat="45.5101003" lon="4.4627062"><ele>678.0</ele><time>2026-04-19T10:20:21.023Z</time></trkpt><trkpt lat="45.5101588" lon="4.462746"><ele>678.0</ele><time>2026-04-19T10:20:22.024Z</time></trkpt><trkpt lat="45.5102641" lon="4.4628126"><ele>678.0</ele><time>2026-04-19T10:20:24.023Z</time></trkpt><trkpt lat="45.5103641" lon="4.4628338"><ele>678.0</ele><time>2026-04-19T10:20:26.024Z</time></trkpt><trkpt lat="45.5104981" lon="4.4628934"><ele>678.0</ele><time>2026-04-19T10:20:28.023Z</time></trkpt><trkpt lat="45.5105823" lon="4.4629215"><ele>676.8</ele><time>2026-04-19T10:20:29.023Z</time></trkpt><trkpt lat="45.5106873" lon="4.4629613"><ele>675.5999999999999</ele><time>2026-04-19T10:20:30.023Z</time></trkpt><trkpt lat="45.5107659" lon="4.4629859"><ele>674.4000000000001</ele><time>2026-04-19T10:20:31.023Z</time></trkpt><trkpt lat="45.5108565" lon="4.463001"><ele>673.2</ele><time>2026-04-19T10:20:32.023Z</time></trkpt><trkpt lat="45.5109444" lon="4.4630101"><ele>672.0</ele><time>2026-04-19T10:20:33.023Z</time></trkpt><trkpt lat="45.5110329" lon="4.463028"><ele>672.0</ele><time>2026-04-19T10:20:34.023Z</time></trkpt><trkpt lat="45.5111192" lon="4.4630418"><ele>672.0</ele><time>2026-04-19T10:20:35.023Z</time></trkpt><trkpt lat="45.5111859" lon="4.4630644"><ele>672.0</ele><time>2026-04-19T10:20:36.024Z</time></trkpt><trkpt lat="45.5112711" lon="4.4630768"><ele>672.0</ele><time>2026-04-19T10:20:37.023Z</time></trkpt><trkpt lat="45.5113437" lon="4.4631049"><ele>672.0</ele><time>2026-04-19T10:20:38.024Z</time></trkpt><trkpt lat="45.5114123" lon="4.4631381"><ele>672.0</ele><time>2026-04-19T10:20:39.023Z</time></trkpt><trkpt lat="45.5114764" lon="4.463177"><ele>671.6666666666666</ele><time>2026-04-19T10:20:40.024Z</time></trkpt><trkpt lat="45.5115576" lon="4.4632132"><ele>671.3333333333334</ele><time>2026-04-19T10:20:41.024Z</time></trkpt><trkpt lat="45.5116446" lon="4.4632567"><ele>671.0</ele><time>2026-04-19T10:20:42.024Z</time></trkpt><trkpt lat="45.5117198" lon="4.463297"><ele>670.6666666666667</ele><time>2026-04-19T10:20:43.023Z</time></trkpt><trkpt lat="45.5117944" lon="4.4633346"><ele>670.3333333333334</ele><time>2026-04-19T10:20:44.023Z</time></trkpt><trkpt lat="45.5118651" lon="4.4633582"><ele>670.0</ele><time>2026-04-19T10:20:45.023Z</time></trkpt><trkpt lat="45.5119456" lon="4.4633715"><ele>670.0</ele><time>2026-04-19T10:20:46.023Z</time></trkpt><trkpt lat="45.5120279" lon="4.4633973"><ele>670.0</ele><time>2026-04-19T10:20:47.023Z</time></trkpt><trkpt lat="45.5121093" lon="4.4634163"><ele>670.0</ele><time>2026-04-19T10:20:48.023Z</time></trkpt><trkpt lat="45.512181" lon="4.46344"><ele>670.0</ele><time>2026-04-19T10:20:49.023Z</time></trkpt><trkpt lat="45.5122604" lon="4.4634744"><ele>670.0</ele><time>2026-04-19T10:20:50.023Z</time></trkpt><trkpt lat="45.5123261" lon="4.4635148"><ele>670.0</ele><time>2026-04-19T10:20:51.023Z</time></trkpt><trkpt lat="45.5123929" lon="4.4635591"><ele>668.4285714285713</ele><time>2026-04-19T10:20:52.023Z</time></trkpt><trkpt lat="45.5124452" lon="4.4636095"><ele>666.8571428571429</ele><time>2026-04-19T10:20:53.024Z</time></trkpt><trkpt lat="45.5125029" lon="4.4636664"><ele>665.2857142857142</ele><time>2026-04-19T10:20:54.024Z</time></trkpt><trkpt lat="45.5125608" lon="4.4637405"><ele>663.7142857142857</ele><time>2026-04-19T10:20:55.023Z</time></trkpt><trkpt lat="45.5126168" lon="4.4638228"><ele>662.1428571428571</ele><time>2026-04-19T10:20:56.023Z</time></trkpt><trkpt lat="45.5126647" lon="4.4639062"><ele>660.5714285714286</ele><time>2026-04-19T10:20:57.023Z</time></trkpt><trkpt lat="45.5127132" lon="4.4639888"><ele>659.0</ele><time>2026-04-19T10:20:58.023Z</time></trkpt><trkpt lat="45.5127651" lon="4.4640738"><ele>658.4000000000001</ele><time>2026-04-19T10:20:59.023Z</time></trkpt><trkpt lat="45.512818" lon="4.4641661"><ele>657.8</ele><time>2026-04-19T10:21:00.024Z</time></trkpt><trkpt lat="45.5128839" lon="4.4642692"><ele>657.2</ele><time>2026-04-19T10:21:01.023Z</time></trkpt><trkpt lat="45.5129517" lon="4.4643735"><ele>656.5999999999999</ele><time>2026-04-19T10:21:02.023Z</time></trkpt><trkpt lat="45.5130138" lon="4.4644743"><ele>656.0</ele><time>2026-04-19T10:21:03.023Z</time></trkpt><trkpt lat="45.5130766" lon="4.4645706"><ele>655.8</ele><time>2026-04-19T10:21:04.023Z</time></trkpt><trkpt lat="45.5131387" lon="4.4646664"><ele>655.5999999999999</ele><time>2026-04-19T10:21:05.023Z</time></trkpt><trkpt lat="45.5132022" lon="4.4647723"><ele>655.4</ele><time>2026-04-19T10:21:06.023Z</time></trkpt><trkpt lat="45.5132623" lon="4.4648781"><ele>655.2</ele><time>2026-04-19T10:21:07.023Z</time></trkpt><trkpt lat="45.5133197" lon="4.4649748"><ele>655.0</ele><time>2026-04-19T10:21:08.023Z</time></trkpt><trkpt lat="45.5133731" lon="4.4650633"><ele>655.0</ele><time>2026-04-19T10:21:09.024Z</time></trkpt><trkpt lat="45.5134257" lon="4.4651437"><ele>655.0</ele><time>2026-04-19T10:21:10.023Z</time></trkpt><trkpt lat="45.5135011" lon="4.4652735"><ele>655.0</ele><time>2026-04-19T10:21:12.023Z</time></trkpt><trkpt lat="45.5135673" lon="4.4653721"><ele>655.0</ele><time>2026-04-19T10:21:14.024Z</time></trkpt><trkpt lat="45.5136532" lon="4.4654846"><ele>655.0</ele><time>2026-04-19T10:21:16.023Z</time></trkpt><trkpt lat="45.5137041" lon="4.4655593"><ele>655.5</ele><time>2026-04-19T10:21:17.023Z</time></trkpt><trkpt lat="45.5137671" lon="4.4656622"><ele>656.0</ele><time>2026-04-19T10:21:18.023Z</time></trkpt><trkpt lat="45.5138286" lon="4.4658097"><ele>656.5</ele><time>2026-04-19T10:21:19.024Z</time></trkpt><trkpt lat="45.5138879" lon="4.4659685"><ele>657.0</ele><time>2026-04-19T10:21:20.023Z</time></trkpt><trkpt lat="45.5139516" lon="4.4661413"><ele>657.0</ele><time>2026-04-19T10:21:21.023Z</time></trkpt><trkpt lat="45.5140137" lon="4.4663094"><ele>657.0</ele><time>2026-04-19T10:21:22.023Z</time></trkpt><trkpt lat="45.5140671" lon="4.4664732"><ele>657.0</ele><time>2026-04-19T10:21:23.023Z</time></trkpt><trkpt lat="45.5141202" lon="4.4666222"><ele>657.0</ele><time>2026-04-19T10:21:24.024Z</time></trkpt><trkpt lat="45.5141713" lon="4.4667719"><ele>657.0</ele><time>2026-04-19T10:21:25.023Z</time></trkpt><trkpt lat="45.5142291" lon="4.4669279"><ele>657.0</ele><time>2026-04-19T10:21:26.023Z</time></trkpt><trkpt lat="45.5142945" lon="4.4670913"><ele>657.0</ele><time>2026-04-19T10:21:27.023Z</time></trkpt><trkpt lat="45.5143684" lon="4.4672671"><ele>657.0</ele><time>2026-04-19T10:21:28.024Z</time></trkpt><trkpt lat="45.5144461" lon="4.4674405"><ele>657.3333333333334</ele><time>2026-04-19T10:21:29.023Z</time></trkpt><trkpt lat="45.5145279" lon="4.4676165"><ele>657.6666666666667</ele><time>2026-04-19T10:21:30.024Z</time></trkpt><trkpt lat="45.5146208" lon="4.4677883"><ele>658.0</ele><time>2026-04-19T10:21:31.022Z</time></trkpt><trkpt lat="45.5147272" lon="4.4679543"><ele>659.0</ele><time>2026-04-19T10:21:32.024Z</time></trkpt><trkpt lat="45.5148351" lon="4.4681262"><ele>660.0</ele><time>2026-04-19T10:21:33.023Z</time></trkpt><trkpt lat="45.5149402" lon="4.4682909"><ele>661.0</ele><time>2026-04-19T10:21:34.023Z</time></trkpt><trkpt lat="45.515035" lon="4.4684553"><ele>661.0</ele><time>2026-04-19T10:21:35.023Z</time></trkpt><trkpt lat="45.5151189" lon="4.468611"><ele>661.0</ele><time>2026-04-19T10:21:36.023Z</time></trkpt><trkpt lat="45.5152041" lon="4.4687617"><ele>661.0</ele><time>2026-04-19T10:21:37.024Z</time></trkpt><trkpt lat="45.5152919" lon="4.4689118"><ele>661.0</ele><time>2026-04-19T10:21:38.023Z</time></trkpt><trkpt lat="45.5153888" lon="4.4690645"><ele>661.25</ele><time>2026-04-19T10:21:39.023Z</time></trkpt><trkpt lat="45.5154921" lon="4.4692279"><ele>661.5</ele><time>2026-04-19T10:21:40.023Z</time></trkpt><trkpt lat="45.5155948" lon="4.4693785"><ele>661.75</ele><time>2026-04-19T10:21:41.023Z</time></trkpt><trkpt lat="45.5156967" lon="4.4695243"><ele>662.0</ele><time>2026-04-19T10:21:42.023Z</time></trkpt><trkpt lat="45.5157985" lon="4.4696643"><ele>662.5</ele><time>2026-04-19T10:21:43.023Z</time></trkpt><trkpt lat="45.5158989" lon="4.4697988"><ele>663.0</ele><time>2026-04-19T10:21:44.023Z</time></trkpt><trkpt lat="45.5159953" lon="4.4699293"><ele>663.5</ele><time>2026-04-19T10:21:45.023Z</time></trkpt><trkpt lat="45.516084" lon="4.4700617"><ele>664.0</ele><time>2026-04-19T10:21:46.023Z</time></trkpt><trkpt lat="45.5161719" lon="4.4702028"><ele>664.25</ele><time>2026-04-19T10:21:47.023Z</time></trkpt><trkpt lat="45.5162677" lon="4.4703449"><ele>664.5</ele><time>2026-04-19T10:21:48.023Z</time></trkpt><trkpt lat="45.5163685" lon="4.4704889"><ele>664.75</ele><time>2026-04-19T10:21:49.024Z</time></trkpt><trkpt lat="45.5164749" lon="4.4706353"><ele>665.0</ele><time>2026-04-19T10:21:50.024Z</time></trkpt><trkpt lat="45.516586" lon="4.4707789"><ele>666.0</ele><time>2026-04-19T10:21:51.023Z</time></trkpt><trkpt lat="45.5166945" lon="4.4709138"><ele>667.0</ele><time>2026-04-19T10:21:52.024Z</time></trkpt><trkpt lat="45.5167957" lon="4.4710331"><ele>668.0</ele><time>2026-04-19T10:21:53.023Z</time></trkpt><trkpt lat="45.5168921" lon="4.4711384"><ele>669.0</ele><time>2026-04-19T10:21:54.023Z</time></trkpt><trkpt lat="45.5169836" lon="4.4712344"><ele>669.8000000000001</ele><time>2026-04-19T10:21:55.023Z</time></trkpt><trkpt lat="45.5170669" lon="4.4713038"><ele>670.6</ele><time>2026-04-19T10:21:56.023Z</time></trkpt><trkpt lat="45.5171601" lon="4.4713901"><ele>671.4</ele><time>2026-04-19T10:21:57.024Z</time></trkpt><trkpt lat="45.5172558" lon="4.4714769"><ele>672.2</ele><time>2026-04-19T10:21:58.023Z</time></trkpt><trkpt lat="45.5173503" lon="4.4715697"><ele>673.0</ele><time>2026-04-19T10:21:59.024Z</time></trkpt><trkpt lat="45.5174475" lon="4.4716733"><ele>673.5</ele><time>2026-04-19T10:22:00.023Z</time></trkpt><trkpt lat="45.5175477" lon="4.4717985"><ele>674.0</ele><time>2026-04-19T10:22:01.023Z</time></trkpt><trkpt lat="45.5176425" lon="4.4719265"><ele>674.5</ele><time>2026-04-19T10:22:02.024Z</time></trkpt><trkpt lat="45.5177395" lon="4.4720656"><ele>675.0</ele><time>2026-04-19T10:22:03.023Z</time></trkpt><trkpt lat="45.5178283" lon="4.472199"><ele>676.75</ele><time>2026-04-19T10:22:04.023Z</time></trkpt><trkpt lat="45.5179213" lon="4.4723311"><ele>678.5</ele><time>2026-04-19T10:22:05.023Z</time></trkpt><trkpt lat="45.5180151" lon="4.4724599"><ele>680.25</ele><time>2026-04-19T10:22:06.023Z</time></trkpt><trkpt lat="45.5181189" lon="4.4725901"><ele>682.0</ele><time>2026-04-19T10:22:07.024Z</time></trkpt><trkpt lat="45.5182236" lon="4.4727327"><ele>682.0</ele><time>2026-04-19T10:22:08.023Z</time></trkpt><trkpt lat="45.5183303" lon="4.4728838"><ele>682.0</ele><time>2026-04-19T10:22:09.024Z</time></trkpt><trkpt lat="45.518435" lon="4.4730268"><ele>682.0</ele><time>2026-04-19T10:22:10.024Z</time></trkpt><trkpt lat="45.5185394" lon="4.4731697"><ele>682.0</ele><time>2026-04-19T10:22:11.023Z</time></trkpt><trkpt lat="45.5186439" lon="4.4733076"><ele>682.75</ele><time>2026-04-19T10:22:12.024Z</time></trkpt><trkpt lat="45.5187481" lon="4.4734436"><ele>683.5</ele><time>2026-04-19T10:22:13.023Z</time></trkpt><trkpt lat="45.51885" lon="4.473578"><ele>684.25</ele><time>2026-04-19T10:22:14.023Z</time></trkpt><trkpt lat="45.518946" lon="4.4737082"><ele>685.0</ele><time>2026-04-19T10:22:15.023Z</time></trkpt><trkpt lat="45.5190386" lon="4.4738327"><ele>685.2</ele><time>2026-04-19T10:22:16.024Z</time></trkpt><trkpt lat="45.5191262" lon="4.4739369"><ele>685.4</ele><time>2026-04-19T10:22:17.023Z</time></trkpt><trkpt lat="45.5192006" lon="4.474026"><ele>685.5999999999999</ele><time>2026-04-19T10:22:18.023Z</time></trkpt><trkpt lat="45.5192733" lon="4.474122"><ele>685.8</ele><time>2026-04-19T10:22:19.023Z</time></trkpt><trkpt lat="45.5193509" lon="4.4742173"><ele>686.0</ele><time>2026-04-19T10:22:20.023Z</time></trkpt><trkpt lat="45.5194294" lon="4.4743202"><ele>686.0</ele><time>2026-04-19T10:22:21.023Z</time></trkpt><trkpt lat="45.5195109" lon="4.4744317"><ele>686.0</ele><time>2026-04-19T10:22:22.023Z</time></trkpt><trkpt lat="45.5196094" lon="4.474561"><ele>686.0</ele><time>2026-04-19T10:22:23.023Z</time></trkpt><trkpt lat="45.519711" lon="4.4747052"><ele>686.0</ele><time>2026-04-19T10:22:24.023Z</time></trkpt><trkpt lat="45.5198161" lon="4.4748563"><ele>686.75</ele><time>2026-04-19T10:22:25.023Z</time></trkpt><trkpt lat="45.5199167" lon="4.4750014"><ele>687.5</ele><time>2026-04-19T10:22:26.023Z</time></trkpt><trkpt lat="45.5200084" lon="4.4751402"><ele>688.25</ele><time>2026-04-19T10:22:27.023Z</time></trkpt><trkpt lat="45.5200939" lon="4.4752728"><ele>689.0</ele><time>2026-04-19T10:22:28.023Z</time></trkpt><trkpt lat="45.52018" lon="4.4754046"><ele>689.75</ele><time>2026-04-19T10:22:29.023Z</time></trkpt><trkpt lat="45.5202704" lon="4.475535"><ele>690.5</ele><time>2026-04-19T10:22:30.023Z</time></trkpt><trkpt lat="45.5203752" lon="4.4756699"><ele>691.25</ele><time>2026-04-19T10:22:31.023Z</time></trkpt><trkpt lat="45.5204663" lon="4.4758117"><ele>692.0</ele><time>2026-04-19T10:22:32.023Z</time></trkpt><trkpt lat="45.5205493" lon="4.4759667"><ele>692.0</ele><time>2026-04-19T10:22:33.023Z</time></trkpt><trkpt lat="45.5206354" lon="4.4761305"><ele>692.0</ele><time>2026-04-19T10:22:34.023Z</time></trkpt><trkpt lat="45.5207243" lon="4.4763033"><ele>692.0</ele><time>2026-04-19T10:22:35.023Z</time></trkpt><trkpt lat="45.5208121" lon="4.4764753"><ele>692.0</ele><time>2026-04-19T10:22:36.024Z</time></trkpt><trkpt lat="45.5209042" lon="4.4766489"><ele>695.0</ele><time>2026-04-19T10:22:37.023Z</time></trkpt><trkpt lat="45.5209937" lon="4.4768303"><ele>698.0</ele><time>2026-04-19T10:22:38.024Z</time></trkpt><trkpt lat="45.521084" lon="4.4770068"><ele>701.0</ele><time>2026-04-19T10:22:39.024Z</time></trkpt><trkpt lat="45.521168" lon="4.4771786"><ele>701.75</ele><time>2026-04-19T10:22:40.023Z</time></trkpt><trkpt lat="45.5212379" lon="4.4773494"><ele>702.5</ele><time>2026-04-19T10:22:41.023Z</time></trkpt><trkpt lat="45.521299" lon="4.4775148"><ele>703.25</ele><time>2026-04-19T10:22:42.023Z</time></trkpt><trkpt lat="45.5213586" lon="4.4776824"><ele>704.0</ele><time>2026-04-19T10:22:43.023Z</time></trkpt><trkpt lat="45.5214193" lon="4.4778392"><ele>705.75</ele><time>2026-04-19T10:22:44.023Z</time></trkpt><trkpt lat="45.5214773" lon="4.4779885"><ele>707.5</ele><time>2026-04-19T10:22:45.023Z</time></trkpt><trkpt lat="45.5215399" lon="4.4781333"><ele>709.25</ele><time>2026-04-19T10:22:46.023Z</time></trkpt><trkpt lat="45.5216032" lon="4.4782669"><ele>711.0</ele><time>2026-04-19T10:22:47.023Z</time></trkpt><trkpt lat="45.5216586" lon="4.4783943"><ele>711.0</ele><time>2026-04-19T10:22:48.023Z</time></trkpt><trkpt lat="45.5217061" lon="4.4785072"><ele>711.0</ele><time>2026-04-19T10:22:49.023Z</time></trkpt><trkpt lat="45.52175" lon="4.4786126"><ele>711.0</ele><time>2026-04-19T10:22:50.023Z</time></trkpt><trkpt lat="45.5217955" lon="4.4787153"><ele>711.0</ele><time>2026-04-19T10:22:51.024Z</time></trkpt><trkpt lat="45.5218409" lon="4.4788089"><ele>711.0</ele><time>2026-04-19T10:22:52.023Z</time></trkpt><trkpt lat="45.5218881" lon="4.4789033"><ele>711.0</ele><time>2026-04-19T10:22:53.023Z</time></trkpt><trkpt lat="45.5219273" lon="4.4789947"><ele>712.0</ele><time>2026-04-19T10:22:54.023Z</time></trkpt><trkpt lat="45.5219576" lon="4.4790823"><ele>713.0</ele><time>2026-04-19T10:22:55.023Z</time></trkpt><trkpt lat="45.5219935" lon="4.4791725"><ele>714.0</ele><time>2026-04-19T10:22:56.024Z</time></trkpt><trkpt lat="45.5220295" lon="4.4792596"><ele>715.0</ele><time>2026-04-19T10:22:57.024Z</time></trkpt><trkpt lat="45.5220639" lon="4.4793532"><ele>716.0</ele><time>2026-04-19T10:22:58.024Z</time></trkpt><trkpt lat="45.5221038" lon="4.4794499"><ele>717.0</ele><time>2026-04-19T10:22:59.023Z</time></trkpt><trkpt lat="45.5221418" lon="4.479545"><ele>718.0</ele><time>2026-04-19T10:23:00.023Z</time></trkpt><trkpt lat="45.5221671" lon="4.4796349"><ele>720.1666666666667</ele><time>2026-04-19T10:23:01.024Z</time></trkpt><trkpt lat="45.5221987" lon="4.4797246"><ele>722.3333333333334</ele><time>2026-04-19T10:23:02.023Z</time></trkpt><trkpt lat="45.5222344" lon="4.4798093"><ele>724.5</ele><time>2026-04-19T10:23:03.024Z</time></trkpt><trkpt lat="45.5222699" lon="4.4798971"><ele>726.6666666666666</ele><time>2026-04-19T10:23:04.023Z</time></trkpt><trkpt lat="45.5223206" lon="4.4800039"><ele>728.8333333333333</ele><time>2026-04-19T10:23:06.024Z</time></trkpt><trkpt lat="45.5223696" lon="4.4801203"><ele>731.0</ele><time>2026-04-19T10:23:08.024Z</time></trkpt><trkpt lat="45.5224048" lon="4.4801985"><ele>731.0</ele><time>2026-04-19T10:23:09.023Z</time></trkpt><trkpt lat="45.5224419" lon="4.4802956"><ele>731.0</ele><time>2026-04-19T10:23:10.023Z</time></trkpt><trkpt lat="45.5224744" lon="4.4803877"><ele>731.0</ele><time>2026-04-19T10:23:11.023Z</time></trkpt><trkpt lat="45.5225012" lon="4.4804708"><ele>731.0</ele><time>2026-04-19T10:23:12.023Z</time></trkpt><trkpt lat="45.5225271" lon="4.4805604"><ele>731.0</ele><time>2026-04-19T10:23:13.023Z</time></trkpt><trkpt lat="45.5225553" lon="4.4806478"><ele>731.0</ele><time>2026-04-19T10:23:14.024Z</time></trkpt><trkpt lat="45.5225851" lon="4.4807333"><ele>731.0</ele><time>2026-04-19T10:23:15.023Z</time></trkpt><trkpt lat="45.5226166" lon="4.4808281"><ele>731.8333333333333</ele><time>2026-04-19T10:23:16.023Z</time></trkpt><trkpt lat="45.5226548" lon="4.4809354"><ele>732.6666666666666</ele><time>2026-04-19T10:23:17.023Z</time></trkpt><trkpt lat="45.522692" lon="4.4810459"><ele>733.5</ele><time>2026-04-19T10:23:18.023Z</time></trkpt><trkpt lat="45.5227309" lon="4.4811577"><ele>734.3333333333334</ele><time>2026-04-19T10:23:19.023Z</time></trkpt><trkpt lat="45.5227643" lon="4.4812626"><ele>735.1666666666667</ele><time>2026-04-19T10:23:20.023Z</time></trkpt><trkpt lat="45.522791" lon="4.481363"><ele>736.0</ele><time>2026-04-19T10:23:21.023Z</time></trkpt><trkpt lat="45.5228106" lon="4.4814538"><ele>736.0</ele><time>2026-04-19T10:23:22.024Z</time></trkpt><trkpt lat="45.5228212" lon="4.4815599"><ele>736.0</ele><time>2026-04-19T10:23:23.024Z</time></trkpt><trkpt lat="45.5228318" lon="4.4816646"><ele>736.0</ele><time>2026-04-19T10:23:24.023Z</time></trkpt><trkpt lat="45.5228412" lon="4.4817704"><ele>736.0</ele><time>2026-04-19T10:23:25.023Z</time></trkpt><trkpt lat="45.5228455" lon="4.4818674"><ele>736.0</ele><time>2026-04-19T10:23:26.023Z</time></trkpt><trkpt lat="45.5228502" lon="4.4819603"><ele>736.0</ele><time>2026-04-19T10:23:27.023Z</time></trkpt><trkpt lat="45.5228628" lon="4.4821178"><ele>736.0</ele><time>2026-04-19T10:23:29.024Z</time></trkpt><trkpt lat="45.5229047" lon="4.482256"><ele>736.0</ele><time>2026-04-19T10:23:31.023Z</time></trkpt><trkpt lat="45.5229409" lon="4.4823653"><ele>736.0</ele><time>2026-04-19T10:23:33.023Z</time></trkpt><trkpt lat="45.5229581" lon="4.4824573"><ele>736.0</ele><time>2026-04-19T10:23:35.023Z</time></trkpt><trkpt lat="45.5228971" lon="4.4826307"><ele>736.0</ele><time>2026-04-19T10:23:37.023Z</time></trkpt><trkpt lat="45.5228518" lon="4.4827468"><ele>736.0</ele><time>2026-04-19T10:23:38.023Z</time></trkpt><trkpt lat="45.5227924" lon="4.4828826"><ele>736.0</ele><time>2026-04-19T10:23:39.023Z</time></trkpt><trkpt lat="45.5227345" lon="4.4830606"><ele>736.0</ele><time>2026-04-19T10:23:40.023Z</time></trkpt><trkpt lat="45.5226777" lon="4.4832398"><ele>736.0</ele><time>2026-04-19T10:23:41.023Z</time></trkpt><trkpt lat="45.5226207" lon="4.4834323"><ele>737.6666666666667</ele><time>2026-04-19T10:23:42.024Z</time></trkpt><trkpt lat="45.5225611" lon="4.4836353"><ele>739.3333333333334</ele><time>2026-04-19T10:23:43.023Z</time></trkpt><trkpt lat="45.5224999" lon="4.4838338"><ele>741.0</ele><time>2026-04-19T10:23:44.023Z</time></trkpt><trkpt lat="45.5224415" lon="4.4840214"><ele>741.6666666666666</ele><time>2026-04-19T10:23:45.023Z</time></trkpt><trkpt lat="45.522374" lon="4.484218"><ele>742.3333333333333</ele><time>2026-04-19T10:23:46.024Z</time></trkpt><trkpt lat="45.5223014" lon="4.484414"><ele>743.0</ele><time>2026-04-19T10:23:47.023Z</time></trkpt><trkpt lat="45.5222254" lon="4.4846"><ele>743.0</ele><time>2026-04-19T10:23:48.023Z</time></trkpt><trkpt lat="45.5221542" lon="4.4847884"><ele>743.0</ele><time>2026-04-19T10:23:49.024Z</time></trkpt><trkpt lat="45.522092" lon="4.4849783"><ele>743.0</ele><time>2026-04-19T10:23:50.023Z</time></trkpt><trkpt lat="45.5220416" lon="4.4851858"><ele>745.6666666666666</ele><time>2026-04-19T10:23:51.024Z</time></trkpt><trkpt lat="45.5220024" lon="4.4854066"><ele>748.3333333333334</ele><time>2026-04-19T10:23:52.023Z</time></trkpt><trkpt lat="45.5219681" lon="4.4856302"><ele>751.0</ele><time>2026-04-19T10:23:53.023Z</time></trkpt><trkpt lat="45.5219374" lon="4.4858444"><ele>751.0</ele><time>2026-04-19T10:23:54.023Z</time></trkpt><trkpt lat="45.5219071" lon="4.4860514"><ele>751.0</ele><time>2026-04-19T10:23:55.023Z</time></trkpt><trkpt lat="45.5218775" lon="4.4862525"><ele>751.0</ele><time>2026-04-19T10:23:56.023Z</time></trkpt><trkpt lat="45.5218505" lon="4.4864464"><ele>751.0</ele><time>2026-04-19T10:23:57.023Z</time></trkpt><trkpt lat="45.5218279" lon="4.4866308"><ele>751.0</ele><time>2026-04-19T10:23:58.023Z</time></trkpt><trkpt lat="45.5218017" lon="4.4868195"><ele>751.0</ele><time>2026-04-19T10:23:59.023Z</time></trkpt><trkpt lat="45.5217782" lon="4.4869989"><ele>751.0</ele><time>2026-04-19T10:24:00.024Z</time></trkpt><trkpt lat="45.5217525" lon="4.4871711"><ele>751.0</ele><time>2026-04-19T10:24:01.023Z</time></trkpt><trkpt lat="45.5217226" lon="4.4873298"><ele>751.0</ele><time>2026-04-19T10:24:02.024Z</time></trkpt><trkpt lat="45.5217028" lon="4.4874604"><ele>751.0</ele><time>2026-04-19T10:24:03.024Z</time></trkpt><trkpt lat="45.5216798" lon="4.4875785"><ele>751.0</ele><time>2026-04-19T10:24:04.023Z</time></trkpt><trkpt lat="45.5216603" lon="4.4876774"><ele>751.0</ele><time>2026-04-19T10:24:05.023Z</time></trkpt><trkpt lat="45.5216479" lon="4.4877721"><ele>751.0</ele><time>2026-04-19T10:24:06.023Z</time></trkpt><trkpt lat="45.5216375" lon="4.4879188"><ele>751.0</ele><time>2026-04-19T10:24:08.023Z</time></trkpt><trkpt lat="45.5216462" lon="4.4880135"><ele>751.0</ele><time>2026-04-19T10:24:10.023Z</time></trkpt><trkpt lat="45.5217223" lon="4.48804"><ele>751.0</ele><time>2026-04-19T10:24:12.023Z</time></trkpt><trkpt lat="45.5218462" lon="4.4880437"><ele>751.0</ele><time>2026-04-19T10:24:14.023Z</time></trkpt><trkpt lat="45.521929" lon="4.4880598"><ele>751.0</ele><time>2026-04-19T10:24:15.023Z</time></trkpt><trkpt lat="45.5220292" lon="4.4880749"><ele>751.0</ele><time>2026-04-19T10:24:16.024Z</time></trkpt><trkpt lat="45.5221341" lon="4.4881082"><ele>751.0</ele><time>2026-04-19T10:24:17.023Z</time></trkpt><trkpt lat="45.5222374" lon="4.488176"><ele>751.0</ele><time>2026-04-19T10:24:18.023Z</time></trkpt><trkpt lat="45.5223449" lon="4.4882513"><ele>751.0</ele><time>2026-04-19T10:24:19.023Z</time></trkpt><trkpt lat="45.5224512" lon="4.4883206"><ele>751.0</ele><time>2026-04-19T10:24:20.023Z</time></trkpt><trkpt lat="45.5225553" lon="4.488387"><ele>751.0</ele><time>2026-04-19T10:24:21.023Z</time></trkpt><trkpt lat="45.5226585" lon="4.4884558"><ele>751.0</ele><time>2026-04-19T10:24:22.023Z</time></trkpt><trkpt lat="45.5227604" lon="4.4885014"><ele>751.0</ele><time>2026-04-19T10:24:23.023Z</time></trkpt><trkpt lat="45.5228606" lon="4.4885475"><ele>751.0</ele><time>2026-04-19T10:24:24.024Z</time></trkpt><trkpt lat="45.5229705" lon="4.4885731"><ele>751.0</ele><time>2026-04-19T10:24:25.024Z</time></trkpt><trkpt lat="45.5230925" lon="4.4885899"><ele>750.5</ele><time>2026-04-19T10:24:26.023Z</time></trkpt><trkpt lat="45.5232211" lon="4.4886078"><ele>750.0</ele><time>2026-04-19T10:24:27.023Z</time></trkpt><trkpt lat="45.5233486" lon="4.4886215"><ele>749.5</ele><time>2026-04-19T10:24:28.024Z</time></trkpt><trkpt lat="45.5234683" lon="4.4886425"><ele>749.0</ele><time>2026-04-19T10:24:29.023Z</time></trkpt><trkpt lat="45.5235796" lon="4.488673"><ele>749.0</ele><time>2026-04-19T10:24:30.023Z</time></trkpt><trkpt lat="45.5236792" lon="4.4887126"><ele>749.0</ele><time>2026-04-19T10:24:31.024Z</time></trkpt><trkpt lat="45.5237754" lon="4.4887593"><ele>749.0</ele><time>2026-04-19T10:24:32.023Z</time></trkpt><trkpt lat="45.5238656" lon="4.488802"><ele>749.0</ele><time>2026-04-19T10:24:33.023Z</time></trkpt><trkpt lat="45.5239455" lon="4.488835"><ele>749.0</ele><time>2026-04-19T10:24:34.023Z</time></trkpt><trkpt lat="45.5240188" lon="4.4888604"><ele>748.8571428571429</ele><time>2026-04-19T10:24:35.023Z</time></trkpt><trkpt lat="45.5240895" lon="4.4888723"><ele>748.7142857142858</ele><time>2026-04-19T10:24:36.023Z</time></trkpt><trkpt lat="45.5241597" lon="4.4888694"><ele>748.5714285714286</ele><time>2026-04-19T10:24:37.023Z</time></trkpt><trkpt lat="45.5242313" lon="4.4888499"><ele>748.4285714285714</ele><time>2026-04-19T10:24:38.024Z</time></trkpt><trkpt lat="45.5243042" lon="4.4888195"><ele>748.2857142857143</ele><time>2026-04-19T10:24:39.023Z</time></trkpt><trkpt lat="45.5243748" lon="4.4887873"><ele>748.1428571428571</ele><time>2026-04-19T10:24:40.023Z</time></trkpt><trkpt lat="45.5244436" lon="4.488754"><ele>748.0</ele><time>2026-04-19T10:24:41.023Z</time></trkpt><trkpt lat="45.5245136" lon="4.4887214"><ele>747.1666666666667</ele><time>2026-04-19T10:24:42.023Z</time></trkpt><trkpt lat="45.5245859" lon="4.4886831"><ele>746.3333333333334</ele><time>2026-04-19T10:24:43.023Z</time></trkpt><trkpt lat="45.5246597" lon="4.4886459"><ele>745.5</ele><time>2026-04-19T10:24:44.023Z</time></trkpt><trkpt lat="45.5247364" lon="4.4886166"><ele>744.6666666666666</ele><time>2026-04-19T10:24:45.023Z</time></trkpt><trkpt lat="45.524814" lon="4.4885928"><ele>743.8333333333333</ele><time>2026-04-19T10:24:46.024Z</time></trkpt><trkpt lat="45.5248851" lon="4.4885835"><ele>743.0</ele><time>2026-04-19T10:24:47.023Z</time></trkpt><trkpt lat="45.5249557" lon="4.4885807"><ele>743.0</ele><time>2026-04-19T10:24:48.023Z</time></trkpt><trkpt lat="45.5250405" lon="4.488596"><ele>743.0</ele><time>2026-04-19T10:24:49.023Z</time></trkpt><trkpt lat="45.5251199" lon="4.4886158"><ele>743.0</ele><time>2026-04-19T10:24:50.024Z</time></trkpt><trkpt lat="45.5251978" lon="4.4886398"><ele>743.0</ele><time>2026-04-19T10:24:51.023Z</time></trkpt><trkpt lat="45.5252749" lon="4.4886705"><ele>743.0</ele><time>2026-04-19T10:24:52.023Z</time></trkpt><trkpt lat="45.5253577" lon="4.4887086"><ele>743.0</ele><time>2026-04-19T10:24:53.023Z</time></trkpt><trkpt lat="45.5254438" lon="4.4887418"><ele>742.1666666666666</ele><time>2026-04-19T10:24:54.023Z</time></trkpt><trkpt lat="45.5255211" lon="4.4887712"><ele>741.3333333333333</ele><time>2026-04-19T10:24:55.023Z</time></trkpt><trkpt lat="45.5255929" lon="4.4887973"><ele>740.5</ele><time>2026-04-19T10:24:56.023Z</time></trkpt><trkpt lat="45.5256699" lon="4.4888245"><ele>739.6666666666666</ele><time>2026-04-19T10:24:57.023Z</time></trkpt><trkpt lat="45.5257337" lon="4.4888298"><ele>738.8333333333334</ele><time>2026-04-19T10:24:58.023Z</time></trkpt><trkpt lat="45.5258089" lon="4.4888493"><ele>738.0</ele><time>2026-04-19T10:24:59.023Z</time></trkpt><trkpt lat="45.5258889" lon="4.4888866"><ele>738.0</ele><time>2026-04-19T10:25:00.023Z</time></trkpt><trkpt lat="45.5259645" lon="4.4889174"><ele>738.0</ele><time>2026-04-19T10:25:01.023Z</time></trkpt><trkpt lat="45.5260429" lon="4.4889555"><ele>738.0</ele><time>2026-04-19T10:25:02.023Z</time></trkpt><trkpt lat="45.5261055" lon="4.4889806"><ele>738.0</ele><time>2026-04-19T10:25:03.023Z</time></trkpt><trkpt lat="45.5262152" lon="4.4890256"><ele>738.0</ele><time>2026-04-19T10:25:05.023Z</time></trkpt><trkpt lat="45.5263102" lon="4.4890688"><ele>738.0</ele><time>2026-04-19T10:25:07.023Z</time></trkpt><trkpt lat="45.5263785" lon="4.4890881"><ele>736.4</ele><time>2026-04-19T10:25:08.023Z</time></trkpt><trkpt lat="45.5265143" lon="4.4891367"><ele>734.8</ele><time>2026-04-19T10:25:10.023Z</time></trkpt><trkpt lat="45.5266394" lon="4.4891845"><ele>733.2</ele><time>2026-04-19T10:25:12.024Z</time></trkpt><trkpt lat="45.5267035" lon="4.4891917"><ele>731.6</ele><time>2026-04-19T10:25:13.024Z</time></trkpt><trkpt lat="45.5267717" lon="4.4892142"><ele>730.0</ele><time>2026-04-19T10:25:14.023Z</time></trkpt><trkpt lat="45.5268546" lon="4.4892319"><ele>730.0</ele><time>2026-04-19T10:25:15.024Z</time></trkpt><trkpt lat="45.5269398" lon="4.48925"><ele>730.0</ele><time>2026-04-19T10:25:16.023Z</time></trkpt><trkpt lat="45.5270244" lon="4.4892658"><ele>730.0</ele><time>2026-04-19T10:25:17.023Z</time></trkpt><trkpt lat="45.527092" lon="4.4892671"><ele>730.0</ele><time>2026-04-19T10:25:18.023Z</time></trkpt><trkpt lat="45.5271604" lon="4.4892662"><ele>730.0</ele><time>2026-04-19T10:25:19.024Z</time></trkpt><trkpt lat="45.5272351" lon="4.4892696"><ele>730.0</ele><time>2026-04-19T10:25:20.024Z</time></trkpt><trkpt lat="45.5273048" lon="4.4892691"><ele>729.8333333333334</ele><time>2026-04-19T10:25:21.023Z</time></trkpt><trkpt lat="45.5273728" lon="4.4892801"><ele>729.6666666666667</ele><time>2026-04-19T10:25:22.024Z</time></trkpt><trkpt lat="45.5274812" lon="4.4892876"><ele>729.5</ele><time>2026-04-19T10:25:24.023Z</time></trkpt><trkpt lat="45.5275671" lon="4.4892996"><ele>729.3333333333334</ele><time>2026-04-19T10:25:26.024Z</time></trkpt><trkpt lat="45.5276519" lon="4.4893069"><ele>729.1666666666666</ele><time>2026-04-19T10:25:29.023Z</time></trkpt><trkpt lat="45.5277349" lon="4.4893192"><ele>729.0</ele><time>2026-04-19T10:25:31.023Z</time></trkpt><trkpt lat="45.5278581" lon="4.4893235"><ele>728.6</ele><time>2026-04-19T10:25:33.024Z</time></trkpt><trkpt lat="45.5279359" lon="4.4893347"><ele>728.2</ele><time>2026-04-19T10:25:34.023Z</time></trkpt><trkpt lat="45.52805" lon="4.489345"><ele>727.8000000000001</ele><time>2026-04-19T10:25:35.023Z</time></trkpt><trkpt lat="45.5281648" lon="4.4893466"><ele>727.4000000000001</ele><time>2026-04-19T10:25:36.023Z</time></trkpt><trkpt lat="45.5282872" lon="4.4893479"><ele>727.0</ele><time>2026-04-19T10:25:37.023Z</time></trkpt><trkpt lat="45.5284023" lon="4.4893479"><ele>727.0</ele><time>2026-04-19T10:25:38.023Z</time></trkpt><trkpt lat="45.5285129" lon="4.4893363"><ele>727.0</ele><time>2026-04-19T10:25:39.024Z</time></trkpt><trkpt lat="45.5286202" lon="4.4893219"><ele>727.0</ele><time>2026-04-19T10:25:40.023Z</time></trkpt><trkpt lat="45.5287166" lon="4.4892989"><ele>727.0</ele><time>2026-04-19T10:25:41.023Z</time></trkpt><trkpt lat="45.5288182" lon="4.4892716"><ele>727.0</ele><time>2026-04-19T10:25:42.023Z</time></trkpt><trkpt lat="45.5289295" lon="4.4892217"><ele>727.6</ele><time>2026-04-19T10:25:43.023Z</time></trkpt><trkpt lat="45.5290376" lon="4.4891751"><ele>728.2</ele><time>2026-04-19T10:25:44.023Z</time></trkpt><trkpt lat="45.5291466" lon="4.4891167"><ele>728.8</ele><time>2026-04-19T10:25:45.023Z</time></trkpt><trkpt lat="45.5292456" lon="4.4890667"><ele>729.4</ele><time>2026-04-19T10:25:46.023Z</time></trkpt><trkpt lat="45.5293306" lon="4.4890223"><ele>730.0</ele><time>2026-04-19T10:25:47.023Z</time></trkpt><trkpt lat="45.5294197" lon="4.4889719"><ele>730.0</ele><time>2026-04-19T10:25:48.023Z</time></trkpt><trkpt lat="45.5295051" lon="4.4889303"><ele>730.0</ele><time>2026-04-19T10:25:49.023Z</time></trkpt><trkpt lat="45.5295711" lon="4.4888879"><ele>730.0</ele><time>2026-04-19T10:25:50.023Z</time></trkpt><trkpt lat="45.5296384" lon="4.4888498"><ele>730.0</ele><time>2026-04-19T10:25:51.023Z</time></trkpt><trkpt lat="45.5297159" lon="4.4888237"><ele>730.0</ele><time>2026-04-19T10:25:52.023Z</time></trkpt><trkpt lat="45.5297878" lon="4.4888126"><ele>730.0</ele><time>2026-04-19T10:25:53.023Z</time></trkpt><trkpt lat="45.5298536" lon="4.4887977"><ele>730.0</ele><time>2026-04-19T10:25:54.023Z</time></trkpt><trkpt lat="45.529934" lon="4.4887937"><ele>730.0</ele><time>2026-04-19T10:25:55.023Z</time></trkpt><trkpt lat="45.5300185" lon="4.4887918"><ele>730.0</ele><time>2026-04-19T10:25:56.023Z</time></trkpt><trkpt lat="45.5301049" lon="4.4887777"><ele>730.0</ele><time>2026-04-19T10:25:57.024Z</time></trkpt><trkpt lat="45.5301868" lon="4.4887635"><ele>730.0</ele><time>2026-04-19T10:25:58.023Z</time></trkpt><trkpt lat="45.5302723" lon="4.4887596"><ele>730.0</ele><time>2026-04-19T10:25:59.023Z</time></trkpt><trkpt lat="45.5303537" lon="4.4887541"><ele>731.0</ele><time>2026-04-19T10:26:00.024Z</time></trkpt><trkpt lat="45.5304252" lon="4.4887408"><ele>732.0</ele><time>2026-04-19T10:26:01.023Z</time></trkpt><trkpt lat="45.5305014" lon="4.4887378"><ele>733.0</ele><time>2026-04-19T10:26:02.023Z</time></trkpt><trkpt lat="45.5305975" lon="4.4887575"><ele>734.0</ele><time>2026-04-19T10:26:03.023Z</time></trkpt><trkpt lat="45.5306805" lon="4.4887693"><ele>735.0</ele><time>2026-04-19T10:26:04.023Z</time></trkpt><trkpt lat="45.5307555" lon="4.4887851"><ele>736.0</ele><time>2026-04-19T10:26:05.023Z</time></trkpt><trkpt lat="45.5308354" lon="4.4887873"><ele>737.4</ele><time>2026-04-19T10:26:06.023Z</time></trkpt><trkpt lat="45.5309218" lon="4.4887932"><ele>738.8</ele><time>2026-04-19T10:26:07.023Z</time></trkpt><trkpt lat="45.5310229" lon="4.4888055"><ele>740.1999999999999</ele><time>2026-04-19T10:26:08.024Z</time></trkpt><trkpt lat="45.5311129" lon="4.4888197"><ele>741.5999999999999</ele><time>2026-04-19T10:26:09.024Z</time></trkpt><trkpt lat="45.5312459" lon="4.4888162"><ele>743.0</ele><time>2026-04-19T10:26:11.024Z</time></trkpt><trkpt lat="45.5313315" lon="4.4887939"><ele>743.0</ele><time>2026-04-19T10:26:12.023Z</time></trkpt><trkpt lat="45.5313994" lon="4.4887844"><ele>743.0</ele><time>2026-04-19T10:26:13.023Z</time></trkpt><trkpt lat="45.5314656" lon="4.4887655"><ele>743.0</ele><time>2026-04-19T10:26:14.024Z</time></trkpt><trkpt lat="45.5315324" lon="4.4887476"><ele>743.0</ele><time>2026-04-19T10:26:15.023Z</time></trkpt><trkpt lat="45.5316149" lon="4.4887282"><ele>743.0</ele><time>2026-04-19T10:26:16.023Z</time></trkpt><trkpt lat="45.5317085" lon="4.4887037"><ele>743.0</ele><time>2026-04-19T10:26:17.024Z</time></trkpt><trkpt lat="45.5317895" lon="4.488678"><ele>743.0</ele><time>2026-04-19T10:26:18.023Z</time></trkpt><trkpt lat="45.5318646" lon="4.4886529"><ele>743.0</ele><time>2026-04-19T10:26:19.024Z</time></trkpt><trkpt lat="45.531943" lon="4.4886079"><ele>743.0</ele><time>2026-04-19T10:26:20.023Z</time></trkpt><trkpt lat="45.532028" lon="4.4885701"><ele>743.0</ele><time>2026-04-19T10:26:21.023Z</time></trkpt><trkpt lat="45.5321151" lon="4.4885288"><ele>743.0</ele><time>2026-04-19T10:26:22.024Z</time></trkpt><trkpt lat="45.5322113" lon="4.4884809"><ele>743.0</ele><time>2026-04-19T10:26:23.024Z</time></trkpt><trkpt lat="45.5323066" lon="4.4884382"><ele>744.4</ele><time>2026-04-19T10:26:24.023Z</time></trkpt><trkpt lat="45.5324082" lon="4.4883963"><ele>745.8</ele><time>2026-04-19T10:26:25.024Z</time></trkpt><trkpt lat="45.5324963" lon="4.4883529"><ele>747.2</ele><time>2026-04-19T10:26:26.023Z</time></trkpt><trkpt lat="45.5325791" lon="4.488309"><ele>748.6</ele><time>2026-04-19T10:26:27.024Z</time></trkpt><trkpt lat="45.53266" lon="4.4882572"><ele>750.0</ele><time>2026-04-19T10:26:28.023Z</time></trkpt><trkpt lat="45.5327256" lon="4.4882057"><ele>750.0</ele><time>2026-04-19T10:26:29.023Z</time></trkpt><trkpt lat="45.5327777" lon="4.4881336"><ele>750.0</ele><time>2026-04-19T10:26:30.023Z</time></trkpt><trkpt lat="45.532837" lon="4.4880544"><ele>750.0</ele><time>2026-04-19T10:26:31.023Z</time></trkpt><trkpt lat="45.5329034" lon="4.4879591"><ele>750.0</ele><time>2026-04-19T10:26:32.023Z</time></trkpt><trkpt lat="45.5329543" lon="4.4878475"><ele>750.0</ele><time>2026-04-19T10:26:33.023Z</time></trkpt><trkpt lat="45.5330009" lon="4.4877543"><ele>750.0</ele><time>2026-04-19T10:26:34.023Z</time></trkpt><trkpt lat="45.5330463" lon="4.487673"><ele>751.0</ele><time>2026-04-19T10:26:35.024Z</time></trkpt><trkpt lat="45.5330881" lon="4.4875898"><ele>752.0</ele><time>2026-04-19T10:26:36.024Z</time></trkpt><trkpt lat="45.5331392" lon="4.4874699"><ele>753.0</ele><time>2026-04-19T10:26:38.023Z</time></trkpt><trkpt lat="45.5331689" lon="4.4873801"><ele>754.0</ele><time>2026-04-19T10:26:39.024Z</time></trkpt><trkpt lat="45.5332146" lon="4.4872801"><ele>755.0</ele><time>2026-04-19T10:26:40.023Z</time></trkpt><trkpt lat="45.5332723" lon="4.4871544"><ele>756.0</ele><time>2026-04-19T10:26:41.023Z</time></trkpt><trkpt lat="45.5333248" lon="4.4870392"><ele>756.3333333333334</ele><time>2026-04-19T10:26:42.024Z</time></trkpt><trkpt lat="45.5333761" lon="4.4869362"><ele>756.6666666666666</ele><time>2026-04-19T10:26:43.023Z</time></trkpt><trkpt lat="45.533425" lon="4.4868425"><ele>757.0</ele><time>2026-04-19T10:26:44.023Z</time></trkpt><trkpt lat="45.5334815" lon="4.4867527"><ele>757.3333333333333</ele><time>2026-04-19T10:26:45.023Z</time></trkpt><trkpt lat="45.5335407" lon="4.4866772"><ele>757.6666666666666</ele><time>2026-04-19T10:26:46.023Z</time></trkpt><trkpt lat="45.5336013" lon="4.4865991"><ele>758.0</ele><time>2026-04-19T10:26:47.023Z</time></trkpt><trkpt lat="45.5336833" lon="4.486529"><ele>757.2</ele><time>2026-04-19T10:26:48.023Z</time></trkpt><trkpt lat="45.533764" lon="4.486467"><ele>756.4</ele><time>2026-04-19T10:26:49.023Z</time></trkpt><trkpt lat="45.5338503" lon="4.4864103"><ele>755.6</ele><time>2026-04-19T10:26:50.023Z</time></trkpt><trkpt lat="45.5339389" lon="4.4863593"><ele>754.8000000000001</ele><time>2026-04-19T10:26:51.023Z</time></trkpt><trkpt lat="45.5340205" lon="4.4863138"><ele>754.0</ele><time>2026-04-19T10:26:52.023Z</time></trkpt><trkpt lat="45.5341012" lon="4.4862692"><ele>753.8000000000001</ele><time>2026-04-19T10:26:53.023Z</time></trkpt><trkpt lat="45.5341724" lon="4.4862415"><ele>753.6</ele><time>2026-04-19T10:26:54.023Z</time></trkpt><trkpt lat="45.5342773" lon="4.4861891"><ele>753.4</ele><time>2026-04-19T10:26:56.023Z</time></trkpt><trkpt lat="45.5343958" lon="4.486173"><ele>753.2</ele><time>2026-04-19T10:26:58.024Z</time></trkpt><trkpt lat="45.5345154" lon="4.4862557"><ele>753.0</ele><time>2026-04-19T10:27:00.023Z</time></trkpt><trkpt lat="45.5345736" lon="4.4863316"><ele>753.0</ele><time>2026-04-19T10:27:01.023Z</time></trkpt><trkpt lat="45.5346225" lon="4.4864025"><ele>753.0</ele><time>2026-04-19T10:27:02.023Z</time></trkpt><trkpt lat="45.5346621" lon="4.4864733"><ele>753.0</ele><time>2026-04-19T10:27:03.023Z</time></trkpt><trkpt lat="45.5347042" lon="4.4865411"><ele>753.0</ele><time>2026-04-19T10:27:04.023Z</time></trkpt><trkpt lat="45.5347459" lon="4.4866136"><ele>753.0</ele><time>2026-04-19T10:27:05.023Z</time></trkpt><trkpt lat="45.5348227" lon="4.4867455"><ele>753.0</ele><time>2026-04-19T10:27:07.023Z</time></trkpt><trkpt lat="45.5348856" lon="4.4868443"><ele>753.0</ele><time>2026-04-19T10:27:09.023Z</time></trkpt><trkpt lat="45.5349562" lon="4.4869301"><ele>753.0</ele><time>2026-04-19T10:27:11.024Z</time></trkpt><trkpt lat="45.5350115" lon="4.4870155"><ele>753.0</ele><time>2026-04-19T10:27:13.023Z</time></trkpt><trkpt lat="45.5350631" lon="4.487069"><ele>753.0</ele><time>2026-04-19T10:27:16.023Z</time></trkpt><trkpt lat="45.5351496" lon="4.487178"><ele>753.0</ele><time>2026-04-19T10:27:19.023Z</time></trkpt><trkpt lat="45.535228" lon="4.4872652"><ele>752.8333333333334</ele><time>2026-04-19T10:27:21.023Z</time></trkpt><trkpt lat="45.5352752" lon="4.4873453"><ele>752.6666666666666</ele><time>2026-04-19T10:27:23.023Z</time></trkpt><trkpt lat="45.5353522" lon="4.4873947"><ele>752.5</ele><time>2026-04-19T10:27:26.023Z</time></trkpt><trkpt lat="45.5354368" lon="4.4873367"><ele>752.3333333333333</ele><time>2026-04-19T10:27:28.023Z</time></trkpt><trkpt lat="45.5355062" lon="4.4872676"><ele>752.1666666666666</ele><time>2026-04-19T10:27:30.023Z</time></trkpt><trkpt lat="45.5355697" lon="4.4872328"><ele>752.0</ele><time>2026-04-19T10:27:33.023Z</time></trkpt><trkpt lat="45.5355944" lon="4.4871225"><ele>751.2857142857142</ele><time>2026-04-19T10:27:35.024Z</time></trkpt><trkpt lat="45.5356312" lon="4.4870426"><ele>750.5714285714286</ele><time>2026-04-19T10:27:36.023Z</time></trkpt><trkpt lat="45.5356726" lon="4.4869536"><ele>749.8571428571429</ele><time>2026-04-19T10:27:37.023Z</time></trkpt><trkpt lat="45.535725" lon="4.4868769"><ele>749.1428571428571</ele><time>2026-04-19T10:27:38.023Z</time></trkpt><trkpt lat="45.535774" lon="4.4868023"><ele>748.4285714285714</ele><time>2026-04-19T10:27:39.023Z</time></trkpt><trkpt lat="45.5358325" lon="4.4867374"><ele>747.7142857142857</ele><time>2026-04-19T10:27:40.024Z</time></trkpt><trkpt lat="45.5359074" lon="4.4867171"><ele>747.0</ele><time>2026-04-19T10:27:41.024Z</time></trkpt><trkpt lat="45.5359908" lon="4.4866842"><ele>747.0</ele><time>2026-04-19T10:27:42.023Z</time></trkpt><trkpt lat="45.5360866" lon="4.4866752"><ele>747.0</ele><time>2026-04-19T10:27:43.023Z</time></trkpt><trkpt lat="45.5361752" lon="4.4866751"><ele>747.0</ele><time>2026-04-19T10:27:44.023Z</time></trkpt><trkpt lat="45.5362689" lon="4.4866809"><ele>747.0</ele><time>2026-04-19T10:27:45.023Z</time></trkpt><trkpt lat="45.5363638" lon="4.486687"><ele>747.0</ele><time>2026-04-19T10:27:46.023Z</time></trkpt><trkpt lat="45.5364561" lon="4.486689"><ele>745.8333333333334</ele><time>2026-04-19T10:27:47.023Z</time></trkpt><trkpt lat="45.5365501" lon="4.4866904"><ele>744.6666666666666</ele><time>2026-04-19T10:27:48.023Z</time></trkpt><trkpt lat="45.5366255" lon="4.4866707"><ele>743.5</ele><time>2026-04-19T10:27:49.023Z</time></trkpt><trkpt lat="45.5367064" lon="4.4866515"><ele>742.3333333333333</ele><time>2026-04-19T10:27:50.024Z</time></trkpt><trkpt lat="45.5367844" lon="4.4866275"><ele>741.1666666666666</ele><time>2026-04-19T10:27:51.023Z</time></trkpt><trkpt lat="45.5368795" lon="4.4866185"><ele>740.0</ele><time>2026-04-19T10:27:52.024Z</time></trkpt><trkpt lat="45.53699" lon="4.4866349"><ele>737.75</ele><time>2026-04-19T10:27:53.023Z</time></trkpt><trkpt lat="45.537109" lon="4.4866522"><ele>735.5</ele><time>2026-04-19T10:27:54.023Z</time></trkpt><trkpt lat="45.5372366" lon="4.4866946"><ele>733.25</ele><time>2026-04-19T10:27:55.023Z</time></trkpt><trkpt lat="45.5373622" lon="4.4867563"><ele>731.0</ele><time>2026-04-19T10:27:56.024Z</time></trkpt><trkpt lat="45.5374823" lon="4.4868218"><ele>731.0</ele><time>2026-04-19T10:27:57.024Z</time></trkpt><trkpt lat="45.5375979" lon="4.4868675"><ele>731.0</ele><time>2026-04-19T10:27:58.023Z</time></trkpt><trkpt lat="45.5377124" lon="4.4868907"><ele>731.0</ele><time>2026-04-19T10:27:59.023Z</time></trkpt><trkpt lat="45.537832" lon="4.4868823"><ele>731.0</ele><time>2026-04-19T10:28:00.023Z</time></trkpt><trkpt lat="45.5379648" lon="4.4868472"><ele>731.0</ele><time>2026-04-19T10:28:01.023Z</time></trkpt><trkpt lat="45.5380952" lon="4.4868115"><ele>731.0</ele><time>2026-04-19T10:28:02.024Z</time></trkpt><trkpt lat="45.5382279" lon="4.4867778"><ele>731.0</ele><time>2026-04-19T10:28:03.023Z</time></trkpt><trkpt lat="45.5383634" lon="4.4867505"><ele>731.0</ele><time>2026-04-19T10:28:04.023Z</time></trkpt><trkpt lat="45.5384819" lon="4.4867299"><ele>731.0</ele><time>2026-04-19T10:28:05.023Z</time></trkpt><trkpt lat="45.5385926" lon="4.4867157"><ele>731.0</ele><time>2026-04-19T10:28:06.023Z</time></trkpt><trkpt lat="45.5386927" lon="4.4867164"><ele>731.0</ele><time>2026-04-19T10:28:07.023Z</time></trkpt><trkpt lat="45.5387949" lon="4.4867511"><ele>731.0</ele><time>2026-04-19T10:28:08.023Z</time></trkpt><trkpt lat="45.538908" lon="4.4868008"><ele>731.0</ele><time>2026-04-19T10:28:09.024Z</time></trkpt><trkpt lat="45.5390335" lon="4.4868707"><ele>730.75</ele><time>2026-04-19T10:28:10.023Z</time></trkpt><trkpt lat="45.5391598" lon="4.4869334"><ele>730.5</ele><time>2026-04-19T10:28:11.023Z</time></trkpt><trkpt lat="45.5392905" lon="4.4869939"><ele>730.25</ele><time>2026-04-19T10:28:12.023Z</time></trkpt><trkpt lat="45.5394314" lon="4.4870587"><ele>730.0</ele><time>2026-04-19T10:28:13.023Z</time></trkpt><trkpt lat="45.5395704" lon="4.4871373"><ele>732.3333333333334</ele><time>2026-04-19T10:28:14.023Z</time></trkpt><trkpt lat="45.5397087" lon="4.4872492"><ele>734.6666666666666</ele><time>2026-04-19T10:28:15.023Z</time></trkpt><trkpt lat="45.5398447" lon="4.4873751"><ele>737.0</ele><time>2026-04-19T10:28:16.023Z</time></trkpt><trkpt lat="45.5399799" lon="4.4875152"><ele>737.0</ele><time>2026-04-19T10:28:17.023Z</time></trkpt><trkpt lat="45.5401088" lon="4.4876721"><ele>737.0</ele><time>2026-04-19T10:28:18.023Z</time></trkpt><trkpt lat="45.5402237" lon="4.4878255"><ele>737.0</ele><time>2026-04-19T10:28:19.023Z</time></trkpt><trkpt lat="45.5403431" lon="4.4879812"><ele>738.6666666666666</ele><time>2026-04-19T10:28:20.023Z</time></trkpt><trkpt lat="45.5404701" lon="4.4881144"><ele>740.3333333333334</ele><time>2026-04-19T10:28:21.023Z</time></trkpt><trkpt lat="45.5406103" lon="4.4882314"><ele>742.0</ele><time>2026-04-19T10:28:22.023Z</time></trkpt><trkpt lat="45.5407611" lon="4.488327"><ele>742.0</ele><time>2026-04-19T10:28:23.023Z</time></trkpt><trkpt lat="45.5409191" lon="4.4884218"><ele>742.0</ele><time>2026-04-19T10:28:24.023Z</time></trkpt><trkpt lat="45.5410776" lon="4.4885194"><ele>742.0</ele><time>2026-04-19T10:28:25.024Z</time></trkpt><trkpt lat="45.541218" lon="4.4886116"><ele>744.0</ele><time>2026-04-19T10:28:26.023Z</time></trkpt><trkpt lat="45.5413491" lon="4.488708"><ele>746.0</ele><time>2026-04-19T10:28:27.023Z</time></trkpt><trkpt lat="45.5414611" lon="4.4888172"><ele>748.0</ele><time>2026-04-19T10:28:28.024Z</time></trkpt><trkpt lat="45.5415531" lon="4.4889327"><ele>750.0</ele><time>2026-04-19T10:28:29.023Z</time></trkpt><trkpt lat="45.5416352" lon="4.4890466"><ele>750.0</ele><time>2026-04-19T10:28:30.023Z</time></trkpt><trkpt lat="45.541705" lon="4.4891521"><ele>750.0</ele><time>2026-04-19T10:28:31.023Z</time></trkpt><trkpt lat="45.5417743" lon="4.489244"><ele>750.0</ele><time>2026-04-19T10:28:32.024Z</time></trkpt><trkpt lat="45.5418538" lon="4.4893098"><ele>750.0</ele><time>2026-04-19T10:28:33.023Z</time></trkpt><trkpt lat="45.5419436" lon="4.4893271"><ele>750.0</ele><time>2026-04-19T10:28:34.024Z</time></trkpt><trkpt lat="45.5420407" lon="4.4892743"><ele>752.4</ele><time>2026-04-19T10:28:35.023Z</time></trkpt><trkpt lat="45.5421266" lon="4.4892055"><ele>754.8</ele><time>2026-04-19T10:28:36.023Z</time></trkpt><trkpt lat="45.5422008" lon="4.4891329"><ele>757.2</ele><time>2026-04-19T10:28:37.023Z</time></trkpt><trkpt lat="45.5422753" lon="4.4890497"><ele>759.6</ele><time>2026-04-19T10:28:38.023Z</time></trkpt><trkpt lat="45.542348" lon="4.4889618"><ele>762.0</ele><time>2026-04-19T10:28:39.023Z</time></trkpt><trkpt lat="45.5424123" lon="4.4888736"><ele>762.0</ele><time>2026-04-19T10:28:40.023Z</time></trkpt><trkpt lat="45.5424749" lon="4.4887987"><ele>762.0</ele><time>2026-04-19T10:28:41.023Z</time></trkpt><trkpt lat="45.5425295" lon="4.4887247"><ele>762.0</ele><time>2026-04-19T10:28:42.023Z</time></trkpt><trkpt lat="45.542602" lon="4.4886141"><ele>762.0</ele><time>2026-04-19T10:28:44.023Z</time></trkpt><trkpt lat="45.5425934" lon="4.4884602"><ele>762.0</ele><time>2026-04-19T10:28:46.023Z</time></trkpt><trkpt lat="45.5425076" lon="4.4882929"><ele>763.2</ele><time>2026-04-19T10:28:48.023Z</time></trkpt><trkpt lat="45.5424478" lon="4.4882177"><ele>764.4000000000001</ele><time>2026-04-19T10:28:49.023Z</time></trkpt><trkpt lat="45.5423649" lon="4.4881342"><ele>765.5999999999999</ele><time>2026-04-19T10:28:50.023Z</time></trkpt><trkpt lat="45.5422556" lon="4.4880791"><ele>766.8</ele><time>2026-04-19T10:28:51.023Z</time></trkpt><trkpt lat="45.5421417" lon="4.4880216"><ele>768.0</ele><time>2026-04-19T10:28:52.023Z</time></trkpt><trkpt lat="45.5420235" lon="4.4879691"><ele>766.4</ele><time>2026-04-19T10:28:53.023Z</time></trkpt><trkpt lat="45.5419154" lon="4.4879203"><ele>764.8</ele><time>2026-04-19T10:28:54.023Z</time></trkpt><trkpt lat="45.5418058" lon="4.4878764"><ele>763.2</ele><time>2026-04-19T10:28:55.023Z</time></trkpt><trkpt lat="45.5417074" lon="4.4878233"><ele>761.6</ele><time>2026-04-19T10:28:56.024Z</time></trkpt><trkpt lat="45.5416223" lon="4.4877544"><ele>760.0</ele><time>2026-04-19T10:28:57.023Z</time></trkpt><trkpt lat="45.5415435" lon="4.4876831"><ele>760.0</ele><time>2026-04-19T10:28:58.023Z</time></trkpt><trkpt lat="45.5414795" lon="4.4875843"><ele>760.0</ele><time>2026-04-19T10:28:59.024Z</time></trkpt><trkpt lat="45.5414483" lon="4.4874428"><ele>760.0</ele><time>2026-04-19T10:29:00.024Z</time></trkpt><trkpt lat="45.5414129" lon="4.4873024"><ele>760.0</ele><time>2026-04-19T10:29:01.023Z</time></trkpt><trkpt lat="45.5413774" lon="4.487179"><ele>760.0</ele><time>2026-04-19T10:29:02.023Z</time></trkpt><trkpt lat="45.5413508" lon="4.4870814"><ele>760.4285714285714</ele><time>2026-04-19T10:29:03.023Z</time></trkpt><trkpt lat="45.5412764" lon="4.4870534"><ele>760.8571428571429</ele><time>2026-04-19T10:29:09.023Z</time></trkpt><trkpt lat="45.5412148" lon="4.487075"><ele>761.2857142857142</ele><time>2026-04-19T10:29:11.023Z</time></trkpt><trkpt lat="45.5411504" lon="4.4870956"><ele>761.7142857142858</ele><time>2026-04-19T10:29:13.023Z</time></trkpt><trkpt lat="45.541072" lon="4.48708"><ele>762.1428571428571</ele><time>2026-04-19T10:29:16.023Z</time></trkpt><trkpt lat="45.5410339" lon="4.4870067"><ele>762.5714285714286</ele><time>2026-04-19T10:29:21.023Z</time></trkpt><trkpt lat="45.5410618" lon="4.4869212"><ele>763.0</ele><time>2026-04-19T10:29:35.024Z</time></trkpt><trkpt lat="45.5410824" lon="4.4870062"><ele>763.0</ele><time>2026-04-19T10:32:36.023Z</time></trkpt><trkpt lat="45.5411183" lon="4.4870913"><ele>763.0</ele><time>2026-04-19T10:32:47.023Z</time></trkpt><trkpt lat="45.5412166" lon="4.4870596"><ele>763.0</ele><time>2026-04-19T10:32:49.023Z</time></trkpt><trkpt lat="45.5412884" lon="4.4870433"><ele>763.0</ele><time>2026-04-19T10:32:51.024Z</time></trkpt><trkpt lat="45.5413684" lon="4.4870742"><ele>763.0</ele><time>2026-04-19T10:32:55.023Z</time></trkpt><trkpt lat="45.5413968" lon="4.4871637"><ele>763.0</ele><time>2026-04-19T10:32:56.023Z</time></trkpt><trkpt lat="45.541428" lon="4.4872789"><ele>762.4</ele><time>2026-04-19T10:32:57.023Z</time></trkpt><trkpt lat="45.5414566" lon="4.4874122"><ele>761.8</ele><time>2026-04-19T10:32:58.023Z</time></trkpt><trkpt lat="45.5414949" lon="4.4875419"><ele>761.2</ele><time>2026-04-19T10:32:59.024Z</time></trkpt><trkpt lat="45.5415457" lon="4.4876571"><ele>760.6</ele><time>2026-04-19T10:33:00.023Z</time></trkpt><trkpt lat="45.541591" lon="4.4877602"><ele>760.0</ele><time>2026-04-19T10:33:01.023Z</time></trkpt><trkpt lat="45.5416881" lon="4.487811"><ele>760.0</ele><time>2026-04-19T10:33:02.024Z</time></trkpt><trkpt lat="45.5417774" lon="4.4878575"><ele>760.0</ele><time>2026-04-19T10:33:03.023Z</time></trkpt><trkpt lat="45.5418765" lon="4.4879091"><ele>760.0</ele><time>2026-04-19T10:33:04.023Z</time></trkpt><trkpt lat="45.5419697" lon="4.4879555"><ele>760.0</ele><time>2026-04-19T10:33:05.024Z</time></trkpt><trkpt lat="45.5420776" lon="4.4879987"><ele>760.0</ele><time>2026-04-19T10:33:06.024Z</time></trkpt><trkpt lat="45.5421815" lon="4.4880461"><ele>761.3333333333334</ele><time>2026-04-19T10:33:07.023Z</time></trkpt><trkpt lat="45.5422705" lon="4.488088"><ele>762.6666666666667</ele><time>2026-04-19T10:33:08.023Z</time></trkpt><trkpt lat="45.5423533" lon="4.4881289"><ele>764.0</ele><time>2026-04-19T10:33:09.024Z</time></trkpt><trkpt lat="45.5424295" lon="4.4881833"><ele>765.3333333333334</ele><time>2026-04-19T10:33:10.024Z</time></trkpt><trkpt lat="45.5424862" lon="4.488247"><ele>766.6666666666666</ele><time>2026-04-19T10:33:11.023Z</time></trkpt><trkpt lat="45.5425318" lon="4.4883123"><ele>768.0</ele><time>2026-04-19T10:33:12.023Z</time></trkpt><trkpt lat="45.5425982" lon="4.4884199"><ele>768.0</ele><time>2026-04-19T10:33:14.023Z</time></trkpt><trkpt lat="45.542656" lon="4.4884747"><ele>768.0</ele><time>2026-04-19T10:33:16.023Z</time></trkpt><trkpt lat="45.5427555" lon="4.4884435"><ele>768.0</ele><time>2026-04-19T10:33:18.023Z</time></trkpt><trkpt lat="45.542815" lon="4.4883951"><ele>768.0</ele><time>2026-04-19T10:33:19.024Z</time></trkpt><trkpt lat="45.5428839" lon="4.4882904"><ele>768.0</ele><time>2026-04-19T10:33:20.023Z</time></trkpt><trkpt lat="45.5429584" lon="4.4882009"><ele>768.0</ele><time>2026-04-19T10:33:21.024Z</time></trkpt><trkpt lat="45.5430311" lon="4.4881004"><ele>770.5999999999999</ele><time>2026-04-19T10:33:22.023Z</time></trkpt><trkpt lat="45.5431129" lon="4.4879946"><ele>773.1999999999999</ele><time>2026-04-19T10:33:23.024Z</time></trkpt><trkpt lat="45.5432058" lon="4.4878801"><ele>775.8</ele><time>2026-04-19T10:33:24.023Z</time></trkpt><trkpt lat="45.5432842" lon="4.4877965"><ele>778.4</ele><time>2026-04-19T10:33:25.023Z</time></trkpt><trkpt lat="45.5433618" lon="4.4877165"><ele>781.0</ele><time>2026-04-19T10:33:26.023Z</time></trkpt><trkpt lat="45.543431" lon="4.4876425"><ele>781.8333333333333</ele><time>2026-04-19T10:33:27.024Z</time></trkpt><trkpt lat="45.5434993" lon="4.4875691"><ele>782.6666666666666</ele><time>2026-04-19T10:33:28.023Z</time></trkpt><trkpt lat="45.5435629" lon="4.4874804"><ele>783.5</ele><time>2026-04-19T10:33:29.023Z</time></trkpt><trkpt lat="45.5436131" lon="4.4873857"><ele>784.3333333333333</ele><time>2026-04-19T10:33:30.023Z</time></trkpt><trkpt lat="45.5436592" lon="4.487285"><ele>785.1666666666666</ele><time>2026-04-19T10:33:31.023Z</time></trkpt><trkpt lat="45.5436845" lon="4.4872001"><ele>786.0</ele><time>2026-04-19T10:33:32.024Z</time></trkpt><trkpt lat="45.5437156" lon="4.487103"><ele>789.8</ele><time>2026-04-19T10:33:33.024Z</time></trkpt><trkpt lat="45.543745" lon="4.4870156"><ele>793.5999999999999</ele><time>2026-04-19T10:33:34.023Z</time></trkpt><trkpt lat="45.5437993" lon="4.4868675"><ele>797.4</ele><time>2026-04-19T10:33:36.023Z</time></trkpt><trkpt lat="45.5438675" lon="4.4867297"><ele>801.2</ele><time>2026-04-19T10:33:38.023Z</time></trkpt><trkpt lat="45.5439359" lon="4.4866172"><ele>805.0</ele><time>2026-04-19T10:33:40.023Z</time></trkpt><trkpt lat="45.5439821" lon="4.4865327"><ele>804.9999999999999</ele><time>2026-04-19T10:33:42.023Z</time></trkpt><trkpt lat="45.5440614" lon="4.4866143"><ele>805.0</ele><time>2026-04-19T10:33:44.024Z</time></trkpt><trkpt lat="45.5441097" lon="4.486684"><ele>805.0</ele><time>2026-04-19T10:33:45.023Z</time></trkpt><trkpt lat="45.5441549" lon="4.4867689"><ele>805.0</ele><time>2026-04-19T10:33:46.023Z</time></trkpt><trkpt lat="45.5442" lon="4.4868515"><ele>804.9999999999999</ele><time>2026-04-19T10:33:47.023Z</time></trkpt><trkpt lat="45.5442696" lon="4.4869429"><ele>805.0</ele><time>2026-04-19T10:33:49.023Z</time></trkpt><trkpt lat="45.5443705" lon="4.4869456"><ele>805.0</ele><time>2026-04-19T10:33:52.023Z</time></trkpt><trkpt lat="45.5444803" lon="4.4868489"><ele>805.0</ele><time>2026-04-19T10:33:54.023Z</time></trkpt><trkpt lat="45.5445332" lon="4.4867919"><ele>805.0</ele><time>2026-04-19T10:33:55.023Z</time></trkpt><trkpt lat="45.5446144" lon="4.4866584"><ele>805.0</ele><time>2026-04-19T10:33:57.023Z</time></trkpt><trkpt lat="45.5446676" lon="4.4866017"><ele>805.0</ele><time>2026-04-19T10:33:58.023Z</time></trkpt><trkpt lat="45.54475" lon="4.486522"><ele>806.4</ele><time>2026-04-19T10:34:00.023Z</time></trkpt><trkpt lat="45.5447952" lon="4.4863899"><ele>807.8</ele><time>2026-04-19T10:34:02.023Z</time></trkpt><trkpt lat="45.544907" lon="4.4862657"><ele>809.2</ele><time>2026-04-19T10:34:04.023Z</time></trkpt><trkpt lat="45.544986" lon="4.4862121"><ele>810.6</ele><time>2026-04-19T10:34:05.023Z</time></trkpt><trkpt lat="45.5450832" lon="4.4861632"><ele>812.0</ele><time>2026-04-19T10:34:06.023Z</time></trkpt><trkpt lat="45.5451551" lon="4.4861377"><ele>812.0000000000001</ele><time>2026-04-19T10:34:07.023Z</time></trkpt><trkpt lat="45.5452183" lon="4.4861105"><ele>812.0</ele><time>2026-04-19T10:34:08.024Z</time></trkpt><trkpt lat="45.5453129" lon="4.4860694"><ele>812.0</ele><time>2026-04-19T10:34:10.023Z</time></trkpt><trkpt lat="45.5453564" lon="4.4862176"><ele>812.0</ele><time>2026-04-19T10:34:12.023Z</time></trkpt><trkpt lat="45.5453645" lon="4.4863166"><ele>812.0000000000001</ele><time>2026-04-19T10:34:13.023Z</time></trkpt><trkpt lat="45.5453895" lon="4.4864157"><ele>812.0</ele><time>2026-04-19T10:34:14.023Z</time></trkpt><trkpt lat="45.5454168" lon="4.486501"><ele>814.2</ele><time>2026-04-19T10:34:15.023Z</time></trkpt><trkpt lat="45.5455363" lon="4.4865189"><ele>816.4000000000001</ele><time>2026-04-19T10:34:17.023Z</time></trkpt><trkpt lat="45.5456091" lon="4.4864984"><ele>818.5999999999999</ele><time>2026-04-19T10:34:18.024Z</time></trkpt><trkpt lat="45.5457031" lon="4.486478"><ele>820.8</ele><time>2026-04-19T10:34:19.023Z</time></trkpt><trkpt lat="45.5458145" lon="4.4864323"><ele>823.0</ele><time>2026-04-19T10:34:20.023Z</time></trkpt><trkpt lat="45.5459321" lon="4.4863946"><ele>823.0</ele><time>2026-04-19T10:34:21.024Z</time></trkpt><trkpt lat="45.5460614" lon="4.4863473"><ele>823.0</ele><time>2026-04-19T10:34:22.024Z</time></trkpt><trkpt lat="45.5461899" lon="4.4863017"><ele>823.0</ele><time>2026-04-19T10:34:23.023Z</time></trkpt><trkpt lat="45.5463164" lon="4.4862384"><ele>823.0</ele><time>2026-04-19T10:34:24.023Z</time></trkpt><trkpt lat="45.5464451" lon="4.4861652"><ele>824.0</ele><time>2026-04-19T10:34:25.023Z</time></trkpt><trkpt lat="45.5465708" lon="4.4860776"><ele>825.0</ele><time>2026-04-19T10:34:26.023Z</time></trkpt><trkpt lat="45.5466899" lon="4.4859918"><ele>826.0</ele><time>2026-04-19T10:34:27.023Z</time></trkpt><trkpt lat="45.5468033" lon="4.4859006"><ele>827.0</ele><time>2026-04-19T10:34:28.023Z</time></trkpt><trkpt lat="45.5469083" lon="4.4858145"><ele>827.0</ele><time>2026-04-19T10:34:29.023Z</time></trkpt><trkpt lat="45.5470201" lon="4.4857274"><ele>827.0</ele><time>2026-04-19T10:34:30.024Z</time></trkpt><trkpt lat="45.5471221" lon="4.4856331"><ele>827.0</ele><time>2026-04-19T10:34:31.023Z</time></trkpt><trkpt lat="45.547218" lon="4.485549"><ele>827.0</ele><time>2026-04-19T10:34:32.023Z</time></trkpt><trkpt lat="45.5473037" lon="4.4854657"><ele>828.0</ele><time>2026-04-19T10:34:33.023Z</time></trkpt><trkpt lat="45.5473839" lon="4.4853881"><ele>829.0</ele><time>2026-04-19T10:34:34.024Z</time></trkpt><trkpt lat="45.5474538" lon="4.4853186"><ele>830.0</ele><time>2026-04-19T10:34:35.023Z</time></trkpt><trkpt lat="45.5475196" lon="4.4852607"><ele>831.0</ele><time>2026-04-19T10:34:36.024Z</time></trkpt><trkpt lat="45.5476213" lon="4.4851689"><ele>832.0</ele><time>2026-04-19T10:34:38.023Z</time></trkpt><trkpt lat="45.547727" lon="4.4851249"><ele>831.9999999999999</ele><time>2026-04-19T10:34:40.023Z</time></trkpt><trkpt lat="45.5478039" lon="4.4851853"><ele>832.0</ele><time>2026-04-19T10:34:42.023Z</time></trkpt><trkpt lat="45.5478435" lon="4.4853495"><ele>832.0</ele><time>2026-04-19T10:34:44.024Z</time></trkpt><trkpt lat="45.5478578" lon="4.4854698"><ele>832.0</ele><time>2026-04-19T10:34:45.023Z</time></trkpt><trkpt lat="45.5478683" lon="4.4855744"><ele>831.9999999999999</ele><time>2026-04-19T10:34:46.023Z</time></trkpt><trkpt lat="45.5478751" lon="4.4856766"><ele>832.0</ele><time>2026-04-19T10:34:47.024Z</time></trkpt><trkpt lat="45.5478864" lon="4.4857683"><ele>834.0</ele><time>2026-04-19T10:34:48.023Z</time></trkpt><trkpt lat="45.5479015" lon="4.4859031"><ele>834.0</ele><time>2026-04-19T10:34:50.024Z</time></trkpt><trkpt lat="45.5479138" lon="4.4859948"><ele>834.0</ele><time>2026-04-19T10:34:54.023Z</time></trkpt><trkpt lat="45.5479895" lon="4.4860267"><ele>834.0</ele><time>2026-04-19T10:35:07.023Z</time></trkpt><trkpt lat="45.5480736" lon="4.4859853"><ele>834.0</ele><time>2026-04-19T10:35:10.023Z</time></trkpt><trkpt lat="45.5481552" lon="4.4859525"><ele>834.0</ele><time>2026-04-19T10:35:41.023Z</time></trkpt></trkseg></trk></gpx>